GFSSW_sfc_wetblb_000.txt.gz
Wetbulb
57.11 57.08 57.20 57.20 57.65 57.35 56.65 55.95 55.70 55.30 55.24 55.05 55.57 55.67 55.55 54.94 55.21 54.18 49.91 54.42 56.39 60.57 58.02 52.07 53.05 52.83 50.83 47.51 48.17 46.80 39.53 37.42 40.15 43.10 43.98 45.62 46.49 45.62 49.20 52.09 52.88 53.53 55.69 57.18 56.34
57.45 57.46 57.37 57.53 56.64 56.48 56.13 55.90 55.32 56.14 55.17 55.62 55.55 55.18 54.78 54.71 53.27 53.56 58.91 61.28 61.52 61.10 52.15 50.90 49.32 50.81 46.87 45.69 47.57 43.52 39.22 40.23 44.70 46.06 43.36 43.34 44.72 45.58 47.78 52.00 52.59 54.44 57.35 56.70 55.41
57.48 57.58 57.39 57.20 56.62 56.31 56.07 55.76 55.27 55.60 54.60 54.76 54.73 54.50 54.55 54.63 53.43 54.14 61.63 61.82 62.13 60.37 52.21 53.22 52.58 50.90 46.64 44.99 44.48 41.32 39.50 42.41 43.50 45.67 44.61 42.96 43.74 45.16 46.27 46.73 54.04 54.04 54.65 55.10 54.58
56.62 56.40 56.54 56.48 56.50 56.16 55.75 55.08 55.22 55.12 54.41 54.01 54.34 54.23 54.65 53.25 45.38 51.70 61.89 62.80 63.31 57.08 53.76 53.78 51.61 49.05 46.01 44.98 45.20 39.60 42.16 43.37 43.20 43.84 43.07 42.97 43.64 43.44 43.78 46.74 56.85 57.61 57.25 56.41 55.09
55.37 55.17 55.54 55.65 56.15 56.08 55.27 54.89 54.74 54.24 53.62 53.23 53.55 53.89 52.70 52.14 51.26 56.10 62.46 63.22 60.98 57.05 53.70 52.31 51.26 48.90 44.59 44.04 43.79 41.27 42.03 43.50 44.34 45.85 43.41 44.21 42.70 43.32 43.10 47.67 58.05 58.23 57.91 56.85 56.62
54.84 54.86 55.07 55.40 56.42 56.14 54.93 54.71 54.19 53.78 52.82 52.61 53.01 53.79 50.93 47.17 56.21 54.68 57.86 58.55 55.53 54.29 54.15 53.53 51.79 50.50 47.25 45.24 42.83 43.87 43.23 42.87 43.54 44.30 44.64 43.50 42.80 44.79 44.01 47.15 56.45 57.44 56.50 57.24 57.69
55.00 55.12 54.98 55.33 56.42 55.81 54.67 54.34 53.81 53.03 52.20 52.57 52.96 52.86 52.67 52.49 56.35 54.36 54.26 53.63 54.52 55.01 52.78 52.58 53.70 49.03 47.98 45.28 45.90 44.34 40.62 41.68 41.15 43.39 42.85 45.47 41.30 41.45 45.87 47.40 54.84 56.55 57.03 57.02 57.47
54.79 55.42 55.68 55.88 55.02 54.25 53.92 53.75 53.29 52.28 52.03 52.24 52.53 51.81 49.85 57.68 55.09 52.58 51.86 52.34 53.81 54.46 53.28 53.34 52.80 50.68 46.82 46.29 45.37 42.60 41.08 37.27 42.48 44.61 45.30 43.28 37.95 43.59 44.23 44.98 46.77 51.26 54.55 54.89 55.52
55.42 56.10 55.70 55.20 54.50 53.77 53.52 52.88 52.20 51.93 52.31 52.28 49.96 51.76 47.48 58.48 51.47 53.58 52.24 51.63 53.20 53.88 52.98 53.06 51.49 46.45 45.83 40.24 37.90 39.31 34.78 37.51 40.58 45.12 43.99 41.89 38.82 43.40 44.89 44.94 43.79 43.44 46.19 49.55 51.76
55.68 55.66 55.39 54.99 54.41 53.47 52.54 52.27 53.87 53.05 52.42 54.03 54.44 49.16 53.88 52.46 51.81 51.57 51.75 52.67 52.20 51.76 50.60 48.89 45.90 42.45 41.35 38.85 33.39 35.83 37.15 35.62 38.77 41.62 42.95 40.25 39.27 43.44 44.71 47.23 47.73 48.49 50.06 51.47 51.35
55.60 55.62 55.35 55.03 54.43 54.03 52.31 50.00 47.99 47.17 51.65 46.90 49.00 50.75 50.97 51.59 51.22 49.77 51.86 51.26 51.30 49.07 43.82 46.85 42.24 38.01 39.98 41.84 42.73 42.82 39.80 38.32 38.87 43.37 42.12 41.32 41.03 42.43 46.47 48.79 48.12 48.84 50.39 50.53 49.98
55.34 55.20 55.13 54.85 54.63 54.01 50.77 53.38 53.30 52.89 45.84 53.24 54.00 52.12 52.56 50.69 48.48 49.63 52.76 48.49 48.06 43.44 45.51 42.79 38.85 43.48 45.60 45.93 44.17 43.26 41.36 39.66 42.09 44.96 42.06 41.04 39.72 43.44 46.66 46.82 48.20 48.78 49.14 49.24 49.61
54.73 54.99 54.83 54.37 53.99 51.73 50.39 53.60 58.53 56.82 45.70 48.51 51.03 50.15 51.05 52.41 47.99 47.83 50.89 49.13 46.08 43.61 43.10 40.35 43.14 46.88 46.08 43.82 43.07 41.94 40.45 39.55 40.26 41.78 41.53 42.72 38.89 42.07 44.70 46.01 46.84 46.89 48.26 49.59 49.71
54.24 54.52 53.53 53.75 51.30 53.57 52.39 56.51 57.22 54.80 37.80 42.69 47.17 49.24 51.70 51.55 47.59 50.64 51.16 49.19 47.45 43.35 44.01 43.05 46.61 46.16 44.31 43.06 42.76 39.44 44.42 43.42 41.59 38.25 33.56 39.02 30.82 38.53 41.80 43.51 45.67 46.81 46.97 48.51 49.08
53.85 54.24 53.12 53.59 51.62 54.86 57.00 59.93 58.24 53.83 25.03 44.36 47.49 53.35 50.61 48.66 48.90 48.65 51.77 50.78 45.22 43.98 44.59 42.13 43.63 43.63 42.66 42.90 44.48 42.60 45.05 42.60 41.59 37.61 36.06 37.32 33.89 36.94 42.37 40.77 42.16 43.30 45.95 46.49 47.69
53.97 54.40 53.09 52.64 52.42 56.24 60.48 58.39 51.65 38.31 27.85 43.33 47.66 46.75 45.61 47.75 48.02 48.38 48.90 51.52 50.17 45.99 44.89 43.95 46.53 44.65 43.50 46.01 45.48 45.80 43.84 42.72 41.19 38.18 29.88 37.88 35.86 35.06 38.03 41.35 43.86 44.51 45.32 46.44 46.57
54.10 54.47 52.74 58.78 56.17 60.16 59.18 49.90 37.64 29.69 46.01 41.47 43.46 46.66 45.40 44.52 46.38 47.03 45.14 43.10 41.02 38.01 38.57 43.02 43.36 45.43 46.61 43.44 45.40 43.22 39.43 32.31 30.36 27.61 27.60 40.56 36.60 37.05 42.81 45.01 45.40 44.80 44.99 45.69 46.24
54.57 53.33 53.91 58.81 62.50 59.95 53.49 44.58 31.19 42.07 41.97 45.48 45.27 45.59 43.29 45.29 44.82 45.75 43.57 39.98 43.38 43.33 39.46 37.24 34.52 42.14 45.67 42.60 40.02 40.59 38.81 30.64 26.60 24.24 31.58 38.19 32.65 35.90 43.52 46.96 47.61 47.57 46.29 46.81 46.95
54.38 54.52 58.85 59.41 61.78 56.61 48.99 34.84 38.23 42.52 45.02 44.39 45.02 42.04 41.94 44.81 44.74 43.40 40.80 40.16 41.85 42.32 38.79 37.16 37.62 44.05 44.08 44.47 43.94 41.19 34.56 39.84 33.10 30.50 28.07 32.34 36.83 41.24 44.54 44.44 45.95 46.53 47.32 44.83 44.44
54.35 53.78 52.88 59.75 58.69 52.81 44.64 39.99 44.86 47.23 47.48 45.69 40.36 43.32 39.37 41.74 42.01 41.85 41.28 44.07 43.77 44.34 44.00 41.15 35.47 41.79 44.11 46.41 45.46 40.94 42.24 34.74 31.22 24.67 22.74 29.64 32.72 34.59 39.27 41.10 42.34 41.87 42.06 43.64 44.38
54.26 46.20 51.72 60.36 52.62 46.26 38.20 42.09 46.73 48.59 49.87 45.27 43.61 42.02 43.18 41.43 42.48 41.36 41.66 44.13 45.89 45.52 43.89 42.54 38.48 37.82 43.48 40.20 38.44 40.10 38.37 38.13 36.42 30.21 24.33 21.60 28.61 39.25 41.24 41.67 41.02 41.92 42.90 42.93 43.19
51.29 43.29 56.21 51.07 39.78 42.20 41.47 48.03 46.98 47.03 49.60 48.31 47.58 46.37 43.35 43.91 42.87 41.97 41.87 43.81 47.58 46.17 39.89 41.94 36.82 28.76 37.29 42.69 43.67 41.05 39.48 37.62 27.16 30.68 27.50 24.99 28.90 41.19 40.99 42.53 43.88 43.66 43.81 44.38 43.78
48.20 49.72 56.49 49.50 32.69 31.84 46.36 47.79 47.81 46.43 46.41 46.78 45.95 47.11 47.03 43.59 39.97 43.36 43.49 46.60 45.90 44.31 41.61 41.39 34.44 27.66 34.16 40.34 41.69 39.55 40.37 41.30 36.33 29.46 28.28 22.12 26.47 42.66 42.78 42.44 43.16 41.80 42.85 42.71 42.76
49.83 40.75 46.66 48.84 45.89 45.05 44.13 44.30 44.77 48.47 47.70 48.28 46.79 47.76 45.17 43.40 44.93 42.02 42.88 46.27 45.34 43.76 44.96 44.72 38.80 32.60 29.24 33.61 36.04 33.09 37.22 39.35 36.71 26.51 28.73 28.48 33.59 38.03 39.59 40.38 41.39 41.58 41.39 40.65 40.95
50.61 43.09 44.44 34.89 39.29 45.74 46.33 45.77 44.18 43.35 47.47 47.78 45.29 45.96 43.76 38.30 40.97 40.65 43.30 43.69 45.06 44.81 44.16 41.71 33.67 35.17 36.17 38.03 37.67 36.58 35.96 35.90 35.30 34.76 29.96 33.43 34.29 38.68 39.48 40.00 41.07 41.83 41.39 41.06 40.28
49.43 46.02 45.58 40.30 44.69 44.87 44.66 44.66 44.73 45.53 45.65 44.40 43.33 45.88 45.03 39.85 41.78 40.07 42.54 41.33 41.04 43.06 42.59 41.05 31.91 30.54 30.72 38.33 37.36 33.42 36.06 36.25 36.39 36.90 36.10 36.90 35.81 40.71 41.26 41.36 40.41 40.11 39.59 39.65 40.22
53.90 51.42 47.71 42.43 41.14 41.56 40.63 45.08 45.98 46.87 46.03 47.83 46.07 43.14 40.72 44.13 44.63 44.59 44.95 45.57 44.91 42.36 37.91 35.20 29.82 27.83 27.11 32.37 31.49 26.44 33.57 37.30 37.50 38.55 37.15 31.06 37.27 39.86 39.20 39.68 38.35 38.24 38.90 38.69 38.72

GFSSW_sfc_wetblb_003.txt.gz
Wetbulb
57.17 57.17 57.07 56.98 56.81 56.61 56.84 56.20 55.61 55.64 55.53 55.06 54.77 55.07 55.20 54.77 54.16 53.25 49.41 52.88 54.93 59.54 57.54 50.46 49.97 51.18 50.92 46.39 45.42 43.53 38.02 35.38 39.18 40.98 41.40 44.48 45.96 47.18 52.23 54.77 53.70 54.07 53.63 60.46 61.30
57.59 57.65 57.78 57.57 56.83 56.65 56.47 55.76 55.45 55.47 55.56 54.73 54.70 54.60 54.40 54.31 51.51 51.20 57.36 60.01 60.68 61.15 50.23 49.13 47.98 49.75 45.38 45.06 44.51 41.79 36.02 39.14 43.71 44.14 41.79 43.83 50.22 50.33 51.72 51.76 52.19 52.19 54.29 59.32 59.47
57.48 57.62 57.99 57.28 56.91 56.76 56.30 55.99 55.72 55.66 55.12 54.35 54.17 54.12 54.00 53.62 50.37 51.88 60.85 60.85 62.02 59.92 51.09 51.28 50.33 48.64 44.34 43.38 41.97 40.13 38.57 41.69 42.55 45.62 46.04 43.91 44.37 45.76 50.66 48.69 52.10 51.34 52.50 56.43 58.09
56.95 56.73 56.71 56.60 56.54 56.35 56.14 55.48 55.68 55.33 55.05 54.18 53.73 53.45 53.76 51.54 42.51 51.00 61.82 62.58 62.74 54.46 51.41 50.71 48.44 45.91 44.58 42.96 43.70 38.38 42.01 41.82 43.00 44.12 42.84 42.60 43.19 45.80 45.02 52.34 55.54 55.30 54.42 54.90 55.37
55.76 55.52 55.88 56.06 55.81 56.31 55.64 55.22 55.17 54.56 54.10 53.40 52.89 52.99 51.24 49.78 49.82 55.07 63.23 62.98 56.42 53.15 50.17 49.91 48.31 47.21 43.84 43.42 42.76 39.50 40.13 41.40 43.16 43.62 42.01 42.98 41.58 43.64 42.15 50.60 56.40 55.91 54.46 54.46 55.01
55.15 54.79 55.01 54.98 55.21 55.87 55.78 54.93 54.18 53.60 53.16 52.39 52.37 52.95 48.99 44.40 54.28 54.10 57.24 55.72 55.19 52.28 51.29 50.80 49.35 49.79 46.12 44.03 41.22 42.51 40.86 40.59 42.10 43.33 42.19 41.81 41.46 41.65 42.61 53.67 54.50 54.60 53.62 53.96 54.23
54.76 54.54 54.96 54.79 55.20 56.03 55.52 54.49 53.72 53.12 52.30 51.78 52.14 52.22 51.92 49.01 53.90 53.25 55.30 54.51 53.89 52.55 50.42 52.97 53.04 49.15 45.77 42.80 44.09 42.59 39.56 40.14 40.02 41.05 40.90 43.42 39.20 39.33 43.58 54.06 54.03 54.28 54.82 54.48 54.77
54.60 54.64 54.45 54.49 54.82 54.56 54.17 53.47 53.09 52.66 51.81 51.73 52.12 51.29 47.67 55.64 54.63 53.83 50.05 50.72 52.33 54.19 53.58 51.53 51.66 49.42 45.35 44.71 43.71 40.63 38.96 35.93 40.65 42.50 42.26 41.14 36.52 41.22 44.08 52.68 52.34 52.69 52.28 53.49 52.78
54.22 54.22 55.50 55.22 54.81 53.63 53.24 52.86 52.20 51.42 51.44 51.66 48.37 49.80 46.86 56.34 50.51 51.59 50.85 50.03 51.67 52.15 51.59 51.85 50.11 44.60 44.55 39.33 36.57 37.13 33.30 35.70 38.83 43.24 41.49 40.29 37.22 42.04 41.89 48.17 44.65 47.27 48.42 49.85 50.26
54.87 55.66 55.50 55.12 54.35 52.89 52.21 51.82 52.12 51.80 51.70 52.79 53.00 47.01 50.91 48.32 50.13 50.42 50.71 50.89 50.51 50.87 49.22 48.30 44.93 41.45 39.90 36.86 31.53 33.85 35.09 33.51 37.12 39.74 41.01 38.14 38.24 41.75 45.11 46.00 45.85 46.04 46.67 47.58 48.74
55.66 55.82 55.42 54.90 54.24 52.91 51.09 49.65 46.15 45.89 49.61 44.26 46.48 49.14 50.67 53.94 50.05 49.09 50.37 50.74 50.17 47.48 42.22 44.02 40.88 36.51 37.86 39.73 40.66 39.54 37.08 36.60 36.51 41.19 40.53 38.78 39.74 42.41 44.95 46.92 46.59 46.28 46.14 46.90 47.50
55.52 55.40 55.22 55.02 54.40 53.78 49.64 51.32 51.42 52.48 46.37 51.01 51.75 51.28 52.48 50.11 46.30 48.02 51.87 47.08 46.25 41.50 43.39 41.69 37.76 41.47 44.69 44.11 42.24 41.31 38.33 36.87 40.21 42.74 41.41 40.71 38.90 41.87 44.11 44.47 46.44 46.33 45.84 46.27 47.24
54.97 55.02 54.94 54.44 54.18 51.59 48.91 51.34 56.31 54.44 44.94 46.36 50.69 49.35 49.54 50.84 45.91 46.27 49.53 47.59 44.65 42.06 41.47 39.01 41.17 45.19 44.30 42.40 41.93 40.62 37.87 37.75 38.33 41.08 41.86 41.56 38.13 39.09 43.25 44.41 46.13 46.31 46.54 46.79 47.08
54.53 54.51 53.77 53.60 50.21 51.24 51.06 54.44 55.94 51.52 36.72 41.50 45.42 47.33 50.03 50.04 45.82 49.28 49.97 47.91 45.59 41.49 42.28 41.85 45.51 44.06 42.52 41.27 41.07 37.95 42.55 41.42 39.63 37.86 33.55 38.07 29.27 36.75 39.87 41.72 43.99 44.94 45.81 46.74 48.24
54.14 54.17 53.32 53.61 50.69 54.18 56.10 59.03 56.54 50.86 23.92 42.29 45.81 51.83 48.62 47.66 46.58 46.85 50.96 49.28 43.06 43.01 43.09 40.74 41.73 42.07 41.23 40.92 42.85 40.97 43.17 40.64 40.39 35.33 34.67 35.35 32.03 34.60 40.27 38.95 41.41 43.02 45.75 47.11 45.94
54.00 54.01 53.12 52.27 50.69 54.17 58.83 53.55 50.03 36.72 26.66 41.42 45.79 44.63 44.34 46.19 46.07 46.81 48.41 50.27 48.03 44.11 43.65 42.30 44.44 43.04 41.71 44.15 43.60 44.41 42.25 41.17 39.04 36.30 28.63 35.39 33.35 32.96 36.34 39.40 41.46 43.25 45.61 46.89 45.59
53.94 53.64 52.97 55.97 55.64 59.18 55.61 48.69 34.94 29.59 43.23 39.88 41.71 44.38 43.10 42.34 44.79 44.67 43.26 41.59 40.22 36.98 36.68 41.07 41.26 43.12 44.41 41.46 43.09 41.70 38.10 30.73 29.67 26.27 26.65 37.26 34.49 34.98 40.92 42.50 43.33 43.84 43.86 44.48 45.34
53.71 52.93 52.81 54.13 59.73 57.29 51.05 42.04 31.21 40.04 40.58 43.33 43.56 43.18 41.35 43.64 43.03 43.63 41.47 38.57 41.79 41.34 37.62 35.51 32.79 40.39 43.73 40.85 38.17 38.23 37.15 30.30 25.93 23.10 29.18 36.25 30.83 35.11 41.99 44.76 45.51 45.31 44.85 44.39 47.05
52.84 51.55 55.66 58.63 59.91 53.97 47.23 33.26 36.92 40.81 42.96 42.72 43.48 40.33 40.18 43.16 42.79 41.86 39.05 38.64 40.44 40.96 37.89 35.39 35.68 42.29 42.38 42.76 42.26 38.68 33.18 37.72 31.12 29.18 27.53 30.45 34.58 39.77 41.70 42.72 43.79 44.52 44.35 41.52 41.91
53.79 51.85 51.17 58.19 53.86 51.06 43.27 38.99 43.80 46.58 45.41 43.92 39.21 41.57 38.33 40.05 40.76 40.14 39.68 42.59 41.87 42.51 42.44 40.28 33.74 39.96 42.43 44.19 43.25 40.14 41.48 32.80 29.90 23.58 21.63 28.27 30.32 31.77 37.51 39.96 41.19 40.20 40.45 41.00 41.42
50.82 43.99 48.30 55.85 49.08 43.48 35.83 40.28 46.33 47.11 47.95 43.44 41.24 40.30 41.02 39.86 40.86 39.56 40.02 42.57 44.22 44.28 42.85 40.98 36.43 36.43 40.96 38.60 36.51 38.60 36.37 35.23 34.49 28.54 23.11 20.64 28.52 37.09 39.09 40.11 39.37 39.74 41.06 40.79 40.59
47.94 38.91 53.40 48.39 39.68 39.79 39.05 45.67 47.08 45.02 48.00 47.08 46.19 43.98 41.32 42.43 41.26 40.54 40.54 42.00 45.52 44.54 38.35 40.39 35.57 28.40 35.40 41.02 41.94 38.90 37.00 34.96 25.55 28.68 25.93 22.88 27.49 39.01 40.05 40.72 41.03 40.85 41.01 40.84 40.93
46.25 49.58 55.73 47.27 32.56 30.31 41.87 47.12 46.22 44.69 45.09 45.06 44.25 45.55 44.99 42.37 38.91 41.66 41.98 44.95 43.60 42.95 40.47 40.06 33.33 27.67 33.50 38.69 39.81 37.19 38.55 37.50 33.63 28.95 28.53 20.53 25.65 40.29 40.15 40.39 40.88 39.84 40.51 40.30 39.96
46.60 41.44 45.41 46.74 41.67 39.43 40.71 43.03 42.95 46.91 46.02 46.32 45.16 46.17 43.81 42.36 43.50 40.52 41.29 44.41 43.00 42.59 44.69 43.29 36.72 31.70 28.85 32.37 34.47 31.72 35.62 36.78 34.40 25.54 27.29 26.87 30.75 36.24 37.20 38.08 38.69 39.27 39.27 38.81 38.86
47.64 41.09 43.98 36.15 39.56 44.86 44.68 43.88 42.55 41.78 45.71 45.93 43.92 44.59 42.39 37.49 39.07 39.38 41.81 41.77 42.98 44.13 43.21 39.82 32.17 33.77 34.47 35.76 35.51 34.54 34.54 35.69 34.58 33.35 29.42 32.16 32.43 36.39 37.84 38.39 38.71 39.40 39.12 38.67 38.43
47.99 43.10 43.05 38.26 42.29 43.46 42.21 43.88 43.32 43.74 44.20 42.66 42.64 43.92 43.25 39.03 40.99 39.33 40.88 39.11 38.49 42.74 40.71 38.07 31.45 29.80 30.67 35.52 35.25 32.16 34.32 34.35 34.47 34.60 34.46 34.46 33.94 38.60 39.43 39.63 38.59 38.86 38.31 37.50 38.01
49.66 49.84 45.36 39.60 39.12 40.39 39.71 44.36 44.68 45.10 45.36 45.85 45.20 42.36 39.13 42.55 43.59 43.64 43.67 43.34 42.81 41.22 35.98 32.64 29.22 26.35 24.30 30.19 29.84 24.66 31.70 35.44 35.27 36.67 35.31 31.04 36.10 38.47 37.95 38.74 37.70 37.27 37.56 37.16 38.33

GFSSW_sfc_wetblb_006.txt.gz
Wetbulb
57.57 58.19 57.32 57.78 57.15 57.16 56.59 56.13 56.00 55.46 55.33 55.03 54.87 54.57 54.98 54.56 53.84 52.53 47.86 52.63 53.12 59.46 56.62 49.30 48.62 48.68 47.72 44.89 44.24 41.08 36.67 34.95 40.78 43.27 45.49 46.58 47.96 48.18 54.14 53.94 53.96 53.65 56.05 60.64 65.11
58.21 58.43 58.07 58.35 57.70 57.39 57.11 56.65 56.04 55.73 55.02 54.96 54.57 54.27 54.57 53.66 50.59 49.51 56.14 59.75 60.02 60.30 48.72 47.78 46.29 48.27 44.24 43.49 43.68 40.29 35.81 38.00 41.65 43.61 48.60 51.60 49.78 51.38 52.67 51.60 50.76 51.37 58.85 63.12 64.33
57.74 57.83 57.14 57.56 57.44 57.37 56.98 56.52 56.07 55.85 54.92 54.79 54.11 53.87 53.58 53.04 48.90 49.90 60.30 60.54 60.92 59.00 49.61 49.64 48.66 47.43 42.65 41.69 41.33 38.52 38.02 40.44 43.67 44.60 45.31 47.03 46.28 49.51 51.46 48.05 50.73 52.80 57.18 59.92 62.15
57.52 56.54 56.57 56.78 57.21 56.73 56.40 55.74 55.76 55.15 54.64 54.51 53.94 53.53 53.19 51.15 40.86 49.53 62.64 61.46 62.18 54.19 50.23 48.79 47.54 43.88 41.93 41.15 43.07 38.55 41.70 41.83 42.55 45.29 43.34 46.29 43.97 50.36 46.32 50.43 54.88 57.09 59.07 58.25 59.26
56.27 55.44 55.69 55.83 55.79 56.13 55.84 55.66 55.03 54.66 54.38 53.65 53.24 53.02 50.58 48.55 48.50 56.14 63.35 62.57 56.83 51.15 49.14 48.21 46.01 45.35 43.09 44.55 42.51 40.05 40.55 42.43 42.58 42.41 41.62 43.00 43.63 47.74 42.05 51.61 53.77 55.89 57.60 56.90 57.66
55.24 55.01 55.05 54.71 55.16 55.86 54.99 55.34 54.45 53.94 53.45 52.97 52.33 52.64 47.14 44.08 52.56 57.20 57.92 54.46 52.88 50.80 49.12 48.88 48.06 48.34 46.06 42.61 42.55 43.19 39.88 39.40 42.24 40.76 39.88 41.22 40.02 40.84 41.95 52.02 51.92 53.80 54.78 54.79 56.43
55.34 54.55 54.50 55.19 55.09 54.80 55.40 54.73 53.90 53.50 52.59 51.98 51.79 51.10 49.83 48.60 53.07 53.35 55.59 52.63 53.10 51.66 49.32 50.27 49.88 47.09 45.35 41.89 43.56 41.75 38.98 40.00 40.64 40.09 39.88 43.05 38.52 37.37 44.24 52.00 51.04 51.41 51.41 51.15 52.49
55.58 54.38 54.53 54.49 54.33 54.56 54.58 54.02 53.25 53.12 52.23 51.73 52.46 50.65 47.52 54.86 54.85 53.93 50.03 49.61 53.21 52.68 51.22 52.19 52.02 48.94 45.71 44.58 42.40 39.14 38.06 34.82 38.77 40.79 40.54 39.76 33.86 39.65 47.40 51.05 49.33 50.25 51.62 51.07 50.61
54.75 54.02 54.02 53.98 54.06 53.85 53.49 52.99 52.70 51.98 51.96 52.07 48.84 47.84 46.70 55.10 51.05 50.28 49.77 49.07 50.57 51.05 51.21 51.76 49.99 44.88 42.90 39.11 36.06 36.24 32.12 34.15 37.08 40.85 40.47 39.23 34.96 41.09 43.16 49.46 46.52 46.76 47.70 49.30 49.41
54.61 54.04 54.13 54.80 54.56 53.49 52.50 52.33 51.65 51.83 51.26 51.83 51.62 45.49 49.19 46.88 50.87 49.45 50.15 49.99 49.29 49.96 48.75 47.25 43.95 41.20 40.26 37.25 31.67 32.61 33.07 32.07 34.90 37.99 40.10 38.02 38.58 42.39 44.30 45.40 44.72 44.14 45.71 46.79 46.90
54.80 55.37 55.35 54.97 54.61 52.82 50.95 48.94 45.16 44.91 48.17 43.67 44.59 45.72 48.75 50.68 50.23 47.51 49.21 49.55 49.03 47.43 41.90 43.80 40.17 36.08 36.80 38.53 38.33 37.71 35.75 34.09 34.73 39.65 39.69 38.42 38.61 40.60 44.00 44.00 43.24 43.72 44.44 45.02 46.05
55.05 55.03 55.21 55.03 54.41 52.63 50.88 48.16 48.92 50.82 45.28 50.12 50.30 49.92 51.77 50.60 45.09 46.51 50.35 45.72 45.10 40.81 41.97 40.69 36.89 40.08 42.97 42.19 40.95 39.16 36.54 34.79 37.61 41.25 40.44 39.10 37.10 39.68 41.91 42.35 43.50 43.80 44.00 45.12 45.90
54.58 54.80 54.94 54.41 53.95 52.32 48.56 49.20 55.35 52.70 44.68 45.55 49.56 49.04 48.61 49.81 45.09 45.30 48.29 46.31 43.17 41.05 40.45 37.90 39.65 43.65 42.44 41.29 40.55 38.72 36.58 35.87 36.46 40.96 40.42 38.97 36.96 38.17 42.34 44.30 45.42 45.35 44.68 45.62 45.78
54.12 54.26 53.81 53.31 50.49 49.42 48.32 52.67 55.65 51.31 36.34 40.89 43.70 46.43 48.47 48.30 44.63 48.09 48.44 46.85 43.95 39.90 41.08 40.86 43.48 42.25 40.65 40.26 39.80 36.25 40.42 39.57 38.60 36.56 33.00 36.98 30.00 35.16 38.79 40.81 42.89 43.65 43.66 44.44 45.56
53.84 54.02 53.25 52.72 49.11 52.90 54.98 58.21 54.93 48.69 23.76 41.10 44.12 50.24 46.94 46.37 45.11 45.46 49.53 47.25 41.50 41.51 41.70 39.20 40.21 40.55 40.05 39.31 41.77 39.23 41.96 39.60 37.38 34.49 33.61 34.23 31.94 32.86 39.30 38.83 41.22 42.67 44.23 44.17 44.15
53.61 53.70 53.29 51.80 49.63 52.70 56.92 51.40 48.18 35.72 26.29 39.28 44.19 42.74 43.45 44.82 44.51 45.82 47.25 49.23 46.04 43.05 42.40 40.52 42.95 41.87 40.34 42.73 41.95 43.30 41.27 39.59 37.24 34.83 27.94 33.14 32.16 31.08 35.31 39.06 41.02 42.50 44.55 44.88 44.43
53.59 53.77 52.63 54.22 54.34 58.30 53.10 46.08 34.29 28.36 41.50 38.05 39.88 42.32 41.80 41.42 43.29 43.11 41.92 40.43 38.75 36.11 35.77 39.90 39.93 41.56 42.65 40.07 41.35 40.74 36.89 29.58 28.70 25.53 26.32 35.35 32.62 33.93 39.79 41.06 43.38 43.12 43.64 44.01 43.82
53.12 52.96 52.52 53.26 54.80 54.42 48.17 40.01 29.98 38.50 38.58 41.32 41.52 41.31 40.11 41.83 41.45 41.64 39.71 37.80 40.59 39.43 35.85 34.18 31.39 38.81 42.25 39.25 37.45 36.19 36.48 29.45 24.97 22.48 27.95 34.63 30.17 34.91 40.74 42.85 44.58 44.38 43.82 43.46 43.88
52.54 51.45 51.01 57.16 54.88 51.54 44.01 29.64 34.71 38.50 41.28 41.09 41.62 38.54 38.22 41.11 41.26 40.12 37.22 37.33 38.54 39.30 36.89 33.96 34.02 40.18 40.92 41.36 40.90 36.75 32.29 36.55 30.41 28.57 26.86 29.39 34.07 38.23 40.51 40.92 42.34 42.82 42.72 42.20 40.83
51.63 51.31 51.07 55.88 52.04 49.09 40.07 36.57 42.21 45.56 43.88 42.31 37.24 39.71 36.52 38.44 38.75 38.18 37.76 40.64 40.10 41.56 40.94 39.07 32.77 38.25 40.71 42.46 41.99 38.36 39.76 31.24 28.83 22.87 21.33 26.77 29.44 31.28 36.61 39.37 41.14 40.20 39.98 40.09 40.34
47.64 43.64 47.41 55.18 47.49 42.34 33.19 37.98 44.62 47.89 46.18 41.84 39.92 39.15 38.92 38.52 39.06 37.93 38.31 41.16 42.57 42.49 42.05 38.59 35.85 35.16 38.99 37.13 35.12 37.25 34.89 33.58 32.67 27.57 21.84 19.18 27.05 35.86 38.24 40.85 39.07 39.13 39.83 39.67 39.52
43.68 38.65 50.65 47.33 39.34 37.68 36.82 43.90 46.36 44.24 45.89 45.34 44.07 41.88 39.77 40.62 39.44 38.74 38.95 40.53 43.36 43.10 37.93 38.72 34.96 28.34 34.06 39.22 40.24 37.49 35.18 33.13 24.60 26.35 24.93 21.80 26.22 37.02 37.59 39.82 39.76 39.35 39.55 39.03 39.39
44.26 48.68 54.15 46.68 31.95 29.45 39.18 44.29 45.81 43.20 43.44 43.45 42.72 43.79 43.69 40.78 37.47 40.01 40.51 43.18 41.86 41.06 39.07 39.31 32.74 27.86 32.05 35.98 37.78 35.36 36.83 34.75 31.97 28.76 27.48 21.10 25.74 38.41 38.67 38.52 39.38 38.32 38.48 38.81 38.83
46.93 41.76 45.62 43.42 39.82 38.36 38.60 40.09 42.00 45.18 44.20 44.75 43.81 44.52 42.24 40.45 41.79 39.52 39.90 42.74 41.98 41.68 44.39 42.03 34.70 31.16 27.75 30.84 32.93 31.96 35.25 34.67 32.91 24.61 26.37 26.02 28.88 35.22 36.13 36.74 37.40 38.04 37.83 37.68 37.71
44.13 41.57 44.46 36.00 38.50 39.08 40.49 41.98 40.93 40.66 44.22 44.54 42.46 42.69 41.30 36.78 37.38 37.37 40.22 39.95 42.05 43.61 41.80 37.98 31.91 31.94 32.78 34.18 33.84 32.62 32.86 34.58 32.92 31.80 28.88 30.39 30.53 34.19 36.93 36.72 37.87 38.30 37.84 37.67 37.47
46.30 41.40 39.59 38.72 43.24 43.27 40.21 41.76 41.93 42.02 42.43 40.88 41.51 42.07 41.42 37.88 39.73 38.51 39.74 37.53 36.45 41.31 38.25 36.39 30.02 29.39 30.65 33.97 33.10 31.40 33.22 33.20 33.22 33.14 32.93 32.14 32.47 37.91 37.87 38.16 37.81 38.07 37.63 37.02 36.93
48.19 47.72 43.43 37.08 37.95 40.03 38.65 43.45 43.64 43.85 43.59 44.20 43.59 41.14 38.42 41.74 42.46 41.68 41.53 40.82 40.77 39.59 34.08 30.79 28.79 26.07 23.17 28.99 27.64 24.48 31.07 32.81 32.69 33.81 33.99 30.24 34.75 37.43 36.79 37.82 38.00 37.40 37.43 37.12 36.90

GFSSW_sfc_wetblb_009.txt.gz
Wetbulb
57.47 57.43 57.91 57.84 57.56 57.61 57.78 57.36 56.61 56.52 56.06 55.52 55.25 54.90 54.34 54.13 53.57 52.32 48.24 53.90 55.19 60.02 57.22 51.51 51.67 52.25 52.17 50.72 49.54 46.58 44.03 43.86 45.30 47.65 47.93 52.92 53.54 52.91 57.26 56.34 56.55 56.00 60.91 63.29 66.26
57.73 57.58 58.02 57.94 57.77 57.63 57.58 57.13 56.34 56.23 55.66 55.42 54.80 54.17 53.86 53.49 50.47 48.71 55.88 59.04 59.56 60.55 51.55 50.01 48.42 51.27 49.40 49.31 49.01 46.68 43.65 43.69 46.88 50.99 51.04 52.64 51.72 54.82 54.77 54.84 53.26 58.39 63.30 65.59 65.31
57.27 57.27 57.83 57.56 57.38 57.32 57.15 56.68 56.39 56.06 55.59 54.80 54.54 53.90 53.47 53.01 48.64 51.26 59.86 59.91 60.59 59.47 52.20 52.24 51.33 51.07 47.93 48.23 47.64 45.23 44.69 44.63 45.55 49.07 54.62 52.21 49.97 54.34 54.66 52.87 54.60 58.07 59.94 62.05 63.30
56.85 56.60 57.24 56.44 56.16 56.60 56.34 55.93 56.12 55.99 54.97 54.77 54.17 53.57 53.31 50.80 44.18 53.26 63.15 61.30 61.36 54.08 52.25 50.73 49.71 47.74 46.53 45.94 47.26 44.23 45.34 44.62 48.14 47.60 48.37 50.59 52.18 53.91 54.43 53.48 57.34 61.63 63.24 62.62 61.72
56.43 55.83 56.12 55.78 55.61 55.99 55.06 54.79 55.34 54.98 54.67 53.96 53.32 52.71 50.73 48.84 49.97 58.48 62.90 62.17 58.65 51.93 51.43 50.02 48.59 48.20 46.36 46.96 45.79 44.21 44.59 44.34 44.73 45.59 49.83 47.33 51.57 53.59 48.03 55.32 59.74 62.30 62.75 62.98 63.34
56.08 55.32 55.55 55.20 55.08 55.33 54.58 54.87 54.66 54.29 53.85 52.85 52.20 52.32 48.03 45.14 54.81 59.84 59.33 57.12 54.59 51.80 50.54 50.57 49.43 50.02 48.17 46.08 46.12 46.64 44.09 44.02 44.25 43.98 44.43 46.07 44.85 48.19 49.16 55.20 58.66 60.50 61.18 61.46 61.10
55.70 54.97 55.24 54.48 54.91 54.51 54.72 54.58 54.55 54.01 52.76 52.07 51.55 50.93 48.91 49.52 54.93 58.23 56.71 55.13 53.74 53.05 50.40 51.46 52.05 50.04 49.53 45.39 46.02 44.12 43.12 43.93 44.24 44.82 44.64 46.47 43.63 42.19 49.03 53.95 55.71 58.40 57.39 57.64 57.70
55.50 54.84 54.27 54.30 54.32 53.96 54.16 54.24 53.97 53.08 52.21 51.90 52.23 50.09 47.92 56.22 56.96 54.74 54.07 53.46 54.45 54.12 52.92 53.87 52.94 50.71 48.62 47.21 45.09 42.88 42.74 40.68 43.70 45.66 44.64 44.61 40.09 45.98 48.78 53.34 52.20 53.56 54.54 54.97 54.29
54.68 54.25 53.95 53.64 53.54 53.42 53.78 53.35 52.92 51.76 51.48 52.20 49.53 48.70 48.48 56.32 53.08 53.78 52.57 51.53 52.24 53.03 53.50 53.18 53.15 49.24 46.34 43.66 41.70 41.62 38.51 39.50 41.87 45.32 44.92 45.33 41.52 46.86 49.23 52.15 50.44 51.80 53.15 53.64 54.20
54.34 54.03 54.05 53.76 53.83 53.62 52.52 52.32 51.44 51.55 51.25 52.12 51.18 47.14 50.43 49.24 53.14 51.00 53.26 53.03 52.29 51.01 50.15 49.47 47.21 45.20 43.27 42.03 37.13 39.00 38.86 39.88 40.72 43.11 45.53 44.55 43.09 46.48 48.42 51.04 49.64 50.52 51.66 52.15 52.25
54.38 54.16 54.56 54.70 54.58 52.63 50.72 49.41 46.93 46.10 48.10 47.25 47.79 47.02 49.00 52.97 51.33 50.53 52.32 53.20 52.23 50.49 45.90 46.70 44.12 41.87 43.20 42.84 41.43 40.86 40.12 39.60 40.57 43.93 44.33 41.98 42.88 44.78 47.40 48.37 48.51 49.64 50.59 51.38 51.89
54.34 54.85 55.19 54.95 54.19 52.36 51.10 48.04 49.37 53.28 48.92 50.04 50.47 50.37 51.71 52.68 48.43 49.40 54.59 50.50 49.38 45.09 46.10 45.20 41.96 44.34 45.61 45.07 43.23 42.42 40.36 39.65 42.19 44.09 44.34 43.27 42.75 45.40 46.49 46.49 47.70 49.02 49.84 50.84 50.88
54.71 54.63 55.05 54.16 52.93 51.06 49.06 49.47 54.90 56.07 48.68 47.45 50.42 49.70 50.59 51.76 48.02 47.61 52.37 50.61 47.03 44.60 43.65 42.67 43.73 46.08 45.34 43.62 43.06 42.03 40.85 39.10 40.91 43.54 44.65 44.32 41.91 43.62 46.46 47.83 48.40 49.06 49.72 50.57 50.86
53.94 54.17 53.98 53.31 49.72 50.27 48.94 53.35 53.45 54.91 40.20 42.52 45.67 48.48 49.98 49.94 47.59 50.56 51.76 50.24 46.77 42.82 44.15 44.88 45.93 44.57 43.80 43.05 43.66 41.02 42.91 42.65 41.81 41.32 38.50 41.96 36.80 41.39 44.62 45.61 47.16 48.26 49.12 49.76 49.65
53.66 54.05 53.29 52.94 50.23 50.84 55.70 59.22 54.09 51.44 29.46 43.42 46.21 51.90 49.54 47.68 47.76 49.00 51.88 49.98 44.88 44.21 45.31 43.11 44.22 43.62 43.02 43.06 45.15 42.36 44.39 43.48 41.32 39.74 39.72 39.59 39.78 39.34 44.12 43.81 46.05 47.72 48.51 48.88 48.76
53.57 53.81 53.20 51.79 51.24 52.86 56.31 54.86 50.85 38.92 30.29 41.64 46.38 45.56 46.38 46.90 47.11 48.45 49.98 50.70 48.61 45.38 45.47 43.96 46.79 45.51 44.93 44.86 45.01 45.34 44.18 43.24 41.61 40.16 35.63 37.88 38.28 38.44 40.98 44.59 46.24 47.61 48.22 48.58 49.04
53.41 53.89 52.81 53.45 52.53 58.40 55.60 48.68 38.38 32.79 43.15 40.18 42.29 45.07 44.37 44.24 44.92 45.33 44.26 43.83 43.31 40.80 39.98 42.74 43.02 44.92 46.42 44.31 45.22 44.64 42.36 36.57 35.30 35.06 33.45 38.28 37.01 41.00 43.83 45.60 47.97 47.32 48.45 48.93 49.60
53.11 53.07 52.79 53.37 54.97 53.62 49.59 42.85 33.44 39.01 39.80 43.58 43.09 43.58 42.41 44.48 43.88 43.40 42.62 41.45 43.71 42.77 39.42 37.87 37.08 42.69 45.29 44.25 42.58 41.36 42.16 37.01 29.26 30.51 34.61 38.04 35.80 41.33 43.97 46.82 48.99 49.45 49.63 48.96 48.65
52.74 51.77 51.37 54.50 55.27 52.98 45.71 33.96 35.07 39.14 42.97 42.11 43.08 40.89 42.13 43.87 43.28 42.80 40.98 40.99 42.25 43.33 40.87 38.43 37.83 43.82 44.30 45.43 45.21 40.50 38.57 41.23 34.62 31.98 32.93 36.10 38.84 43.60 43.35 44.21 46.39 46.55 47.40 47.67 48.18
51.00 49.83 51.43 57.34 56.04 49.74 41.71 36.48 42.27 45.84 45.83 43.77 39.09 41.88 39.49 41.77 41.75 41.52 41.62 43.91 43.04 45.23 45.06 42.26 37.04 41.91 43.77 45.53 44.70 43.46 42.44 37.07 36.00 29.10 26.89 32.50 34.14 38.06 40.50 42.52 44.94 45.08 46.54 47.00 46.49
50.26 47.47 50.48 54.82 49.98 45.22 37.58 38.45 45.63 48.75 46.88 43.61 41.85 41.04 41.66 41.12 41.71 40.85 40.82 44.05 45.40 44.77 45.47 42.02 41.02 39.89 42.53 41.06 40.82 41.02 38.90 36.81 37.04 33.59 29.67 27.75 34.16 41.77 42.90 44.83 44.53 46.43 45.98 46.02 45.38
45.88 40.93 52.09 48.95 41.81 39.57 39.28 43.48 46.08 47.01 47.83 47.45 45.45 43.84 41.95 43.08 41.75 41.21 41.19 43.64 45.62 46.60 43.06 42.51 39.78 36.40 38.34 42.82 44.07 42.60 39.81 38.52 33.93 30.55 30.27 30.99 34.71 41.36 42.44 43.99 45.86 44.72 44.31 45.33 45.25
43.58 49.33 55.10 48.77 35.60 35.15 41.22 45.26 47.46 45.29 45.58 46.15 45.44 46.23 46.48 42.96 40.06 42.44 42.92 45.57 44.60 44.85 42.87 42.86 38.47 34.14 36.77 40.00 42.22 40.88 39.96 37.39 35.77 34.46 31.20 33.54 34.76 41.47 41.71 42.00 44.07 44.50 43.27 43.13 43.23
48.37 43.84 48.19 43.63 41.58 40.29 40.38 42.18 43.19 46.37 46.26 46.42 45.13 46.39 44.76 43.33 43.56 41.35 42.28 44.76 45.19 44.49 44.00 43.81 37.45 36.57 33.97 35.73 38.09 36.89 38.51 37.68 37.85 33.75 32.27 34.32 36.74 39.36 41.48 40.97 41.50 42.20 42.92 42.92 42.21
45.75 43.50 47.38 39.04 38.44 39.78 41.78 42.38 42.46 42.55 46.40 46.54 45.08 45.00 43.56 40.07 41.05 40.36 42.72 42.59 44.33 44.49 43.54 42.10 36.95 36.50 35.89 36.33 37.31 36.98 37.45 37.02 36.54 36.66 35.47 36.29 35.14 39.32 42.25 42.65 42.00 42.02 41.82 41.26 41.26
43.70 42.64 41.21 41.30 42.69 40.81 39.65 42.69 42.89 44.03 44.94 44.05 43.92 44.87 45.46 41.08 42.42 40.42 42.00 40.75 40.82 43.37 40.81 39.11 34.93 34.59 34.71 35.71 35.36 35.42 36.96 37.05 37.08 36.78 36.35 36.35 37.00 42.05 41.94 42.44 40.98 41.07 40.92 40.84 40.89
48.99 47.19 44.77 36.96 40.92 39.68 39.23 41.58 43.63 45.65 45.26 45.80 45.43 43.79 41.84 44.49 44.64 43.28 42.98 42.36 43.15 42.09 37.48 35.86 33.30 32.35 29.67 31.27 31.61 30.82 34.83 36.52 36.72 37.77 39.43 35.37 41.18 41.24 40.26 40.35 41.63 41.47 41.44 41.26 41.99

GFSSW_sfc_wetblb_012.txt.gz
Wetbulb
58.22 58.22 58.32 58.42 58.15 57.88 57.78 57.71 57.23 56.92 56.84 56.18 55.93 55.26 55.07 54.70 54.26 55.07 52.22 56.73 57.64 60.68 58.65 57.81 57.15 55.94 55.51 52.88 53.87 53.04 46.93 46.22 50.06 51.90 52.34 56.57 53.69 57.22 59.05 58.32 60.33 60.35 62.43 65.10 67.33
57.77 57.85 58.18 58.47 57.69 57.55 57.32 57.17 56.74 56.77 56.68 56.46 55.51 54.75 54.53 54.07 53.46 52.88 58.81 59.86 59.83 60.79 55.75 53.87 52.57 53.43 51.69 51.73 52.68 50.52 47.55 47.59 54.13 55.59 53.14 53.87 54.06 55.46 55.95 57.72 56.71 61.33 65.08 67.04 67.69
57.58 57.48 57.47 57.97 57.54 57.19 56.80 56.67 56.37 56.57 56.38 55.91 55.04 54.34 54.03 53.84 52.38 54.92 61.00 60.23 60.59 60.45 55.82 54.85 53.69 53.15 49.67 51.62 51.50 50.78 47.75 51.21 54.87 55.00 55.05 53.77 53.77 56.38 56.97 56.27 57.74 59.79 63.42 64.31 65.28
57.11 57.26 57.33 57.02 56.56 56.70 56.26 55.64 56.01 56.23 55.89 55.16 54.54 53.76 53.63 54.10 46.54 56.51 63.62 60.93 61.32 59.23 55.46 54.19 53.62 50.89 48.31 47.96 51.47 48.36 49.80 49.60 54.02 56.23 55.51 53.55 54.87 56.44 57.70 56.50 60.30 64.02 65.59 64.55 63.88
56.68 56.63 56.73 56.20 55.93 55.96 55.41 55.26 55.36 55.59 54.99 54.35 53.44 53.08 54.17 52.73 52.82 62.39 62.06 61.60 59.14 55.99 54.25 52.93 51.38 50.37 47.06 49.43 50.05 48.66 49.12 48.68 49.28 53.03 55.52 54.88 55.61 56.34 54.38 60.05 63.84 64.60 64.80 64.52 63.83
55.81 56.08 56.10 55.70 55.52 55.40 55.43 55.20 54.84 54.85 54.12 53.26 52.71 52.38 52.78 48.95 57.78 62.25 61.39 58.61 56.69 54.91 54.69 54.47 51.96 52.70 50.08 50.11 49.31 49.81 47.98 47.45 48.16 51.13 51.43 53.23 53.24 55.08 53.98 60.74 62.12 63.12 63.25 64.20 63.91
55.41 55.80 55.74 55.57 55.27 55.20 55.10 54.69 54.69 54.10 53.04 52.44 51.87 52.98 51.76 52.88 58.13 62.41 60.17 57.91 57.29 56.20 55.17 56.03 54.41 51.69 51.92 49.59 49.45 48.80 45.88 47.26 47.62 51.01 49.62 52.42 47.35 48.70 54.19 58.48 60.75 61.15 62.57 63.48 63.38
55.95 55.65 55.07 54.71 54.28 54.30 54.30 54.40 54.10 52.97 52.66 52.26 52.03 52.74 51.94 58.89 60.35 58.73 59.12 57.42 58.27 57.16 56.32 56.45 56.40 53.02 51.84 50.14 47.78 46.15 47.27 43.98 46.99 49.19 48.00 47.78 43.96 50.25 54.92 57.02 58.97 60.27 61.05 61.17 60.61
55.38 55.28 54.57 53.97 53.63 53.81 53.83 53.44 52.78 52.25 51.67 52.34 53.06 52.38 51.54 59.33 55.29 56.10 57.94 53.37 56.00 56.36 56.33 54.98 55.01 51.57 50.27 47.62 44.66 45.36 41.71 43.34 44.29 49.47 48.56 47.82 45.09 50.19 55.69 56.85 56.83 58.68 59.78 59.81 59.26
55.18 54.95 54.36 53.98 53.71 53.85 52.70 52.51 51.84 51.88 52.68 53.86 54.68 51.72 55.69 52.26 56.02 54.32 56.31 55.61 53.59 54.18 52.46 52.03 51.65 49.27 48.65 45.83 40.36 41.43 41.61 43.67 43.28 47.92 47.88 47.03 47.91 50.34 54.76 56.26 56.10 57.39 58.37 58.76 58.80
54.97 54.73 54.38 54.38 54.40 52.82 52.16 53.70 51.58 50.78 51.80 51.87 51.24 51.56 51.39 55.48 56.14 53.37 54.94 54.86 54.50 52.27 48.65 50.26 46.69 44.39 46.19 46.56 46.07 45.51 44.56 43.62 46.02 48.80 48.85 47.62 48.03 49.46 53.09 55.63 55.90 56.75 57.44 58.07 58.41
54.57 54.53 54.71 54.85 54.27 52.50 53.53 52.37 54.45 57.37 51.50 54.77 53.77 53.19 54.63 55.11 51.22 52.35 56.74 52.33 51.77 47.50 49.45 47.26 44.77 47.42 49.10 47.40 46.48 45.66 44.13 44.80 46.00 48.05 49.19 48.66 48.13 49.86 51.09 52.95 55.37 56.48 57.26 57.78 57.64
54.57 54.85 54.63 54.29 53.01 51.97 53.17 53.57 59.79 59.42 53.39 51.63 54.06 52.06 53.08 54.57 50.57 50.24 53.99 52.21 49.61 47.81 48.00 46.32 47.40 48.96 48.57 47.33 46.02 45.87 45.16 45.73 44.97 47.25 48.88 48.85 46.75 48.51 50.20 51.77 52.88 54.93 56.60 57.26 57.75
54.65 54.19 54.00 52.62 50.98 54.93 52.84 57.01 58.26 58.32 47.01 46.29 49.03 52.20 52.58 53.37 49.53 53.64 54.90 52.84 50.00 47.29 48.29 48.18 48.93 48.19 48.19 46.57 47.28 44.32 47.00 47.19 46.22 45.25 41.85 48.19 40.67 47.25 49.39 49.95 52.11 53.54 55.44 56.44 57.66
54.09 53.89 52.99 52.47 56.07 53.35 59.14 63.13 61.73 58.02 34.66 47.57 48.65 54.50 52.94 50.42 50.84 51.71 55.38 53.32 47.90 47.96 49.17 46.17 47.25 47.41 46.72 46.70 48.27 46.04 48.70 48.44 47.15 46.23 44.90 44.56 42.83 46.28 49.55 48.21 50.71 53.19 54.78 55.73 56.05
53.78 53.97 52.97 52.30 56.48 58.56 60.88 62.13 59.50 46.60 34.18 44.45 49.13 48.51 49.21 49.84 49.82 52.35 52.60 54.41 52.84 49.35 49.97 48.27 50.38 49.78 48.63 48.86 48.85 49.43 48.16 47.43 47.18 46.13 39.81 43.71 43.31 44.16 47.17 49.31 51.27 53.29 53.49 54.40 54.63
53.48 53.98 53.23 56.72 55.82 61.06 63.55 58.41 45.20 38.65 45.90 43.43 45.11 48.00 48.43 47.16 48.03 49.89 49.45 48.82 47.25 44.43 44.71 47.21 47.26 49.30 50.34 47.83 49.39 49.08 46.53 40.21 38.16 38.68 37.72 43.35 42.12 44.76 49.10 50.65 53.26 52.96 52.85 53.69 53.96
53.11 53.27 53.73 57.32 60.72 60.52 58.19 49.55 38.06 42.30 43.77 46.68 46.71 47.64 45.99 47.69 47.13 47.86 47.97 46.58 48.39 48.10 45.69 42.60 40.62 46.38 48.76 48.30 46.48 47.41 46.66 40.95 31.99 34.68 38.58 42.84 39.49 45.64 49.36 51.67 54.40 54.78 53.73 53.78 53.62
52.80 53.24 52.19 57.53 58.30 58.84 52.99 44.49 42.04 44.60 47.47 45.42 46.23 44.30 45.00 46.99 46.79 47.43 46.96 46.82 47.40 48.75 43.91 42.76 41.44 47.50 47.95 49.10 48.54 45.02 43.39 46.99 40.73 39.33 38.81 41.77 44.85 48.59 48.67 49.47 51.84 53.14 52.89 52.61 53.42
52.70 51.18 55.03 61.16 61.28 56.35 50.47 43.19 45.47 50.03 49.09 47.56 42.40 45.28 43.05 45.39 44.92 45.58 46.24 47.75 47.10 48.91 50.27 46.88 40.97 45.81 46.83 49.00 48.70 47.22 47.99 41.64 43.18 33.25 31.63 39.07 40.09 42.22 45.78 47.26 50.08 51.34 51.75 52.58 53.65
55.09 51.28 59.06 63.17 59.93 53.37 46.70 46.14 48.10 53.08 51.83 47.13 45.24 44.33 45.39 45.13 46.18 44.86 45.13 47.42 48.73 48.05 49.83 48.22 45.90 43.70 46.33 45.63 45.21 44.55 43.90 42.55 43.51 40.90 34.69 33.17 39.20 47.48 47.19 49.40 49.48 51.34 52.14 53.14 53.30
54.59 47.98 59.04 58.34 49.88 50.29 47.20 47.97 48.66 51.20 51.20 50.02 49.49 47.95 47.01 47.41 46.09 46.14 45.22 47.32 50.03 50.16 46.94 47.75 46.96 42.28 43.60 46.69 48.00 47.21 45.03 44.11 38.88 36.08 38.89 38.34 38.94 46.99 48.59 49.67 51.36 51.85 52.46 53.82 53.67
50.74 54.16 57.62 54.66 45.44 47.62 47.71 48.43 51.01 49.45 49.42 50.01 48.56 49.80 50.04 48.16 44.90 47.19 47.44 47.57 48.17 48.99 48.24 48.23 45.24 39.64 40.59 44.25 46.29 44.94 45.48 44.33 43.22 42.36 37.12 37.28 39.47 46.99 48.50 48.68 50.37 51.58 52.67 52.43 52.21
52.97 49.02 53.86 51.94 51.45 48.79 46.59 46.86 46.51 50.64 49.96 50.37 49.53 50.85 49.49 47.26 48.51 46.25 46.60 46.80 48.13 48.43 43.88 47.57 45.53 43.38 39.98 41.52 44.90 42.23 43.93 44.37 43.56 38.76 38.74 39.67 41.10 44.43 46.37 47.84 49.34 50.28 52.11 51.59 50.69
53.77 50.60 52.92 46.68 47.19 48.62 49.10 47.63 46.06 46.82 50.34 50.93 49.08 49.84 49.25 45.50 45.85 45.78 47.38 45.89 47.78 45.36 47.98 48.34 43.09 42.60 41.82 41.94 42.01 42.44 43.40 43.20 42.01 42.96 39.14 41.10 41.46 43.93 46.33 47.96 49.81 50.53 50.41 49.83 48.87
51.33 50.67 51.45 50.28 48.65 47.34 45.17 46.10 45.88 48.12 49.20 48.38 49.06 49.65 50.08 47.39 48.30 46.37 47.64 47.09 46.67 47.93 47.68 45.41 42.93 40.99 39.16 40.89 40.91 40.00 42.97 44.04 43.96 43.99 42.97 43.28 42.67 48.24 49.11 49.14 49.14 48.59 48.35 47.79 47.43
56.09 53.83 53.55 42.89 47.62 46.54 45.60 47.00 46.96 51.11 49.13 50.11 51.52 50.33 48.66 48.88 50.59 51.23 50.12 49.79 49.13 47.92 45.84 44.46 41.12 38.86 36.84 37.94 38.41 36.28 40.77 42.95 43.52 45.16 44.46 41.03 45.63 47.90 46.63 47.22 48.43 48.70 48.07 47.56 47.88

GFSSW_sfc_wetblb_015.txt.gz
Wetbulb
57.55 57.91 58.28 58.80 58.35 58.23 58.02 57.69 57.37 57.46 57.69 57.40 56.95 56.14 55.46 55.12 54.44 56.11 54.34 57.86 59.03 61.58 58.49 58.20 56.41 57.24 55.99 53.64 53.83 54.41 47.90 45.81 48.30 51.83 54.79 56.87 54.81 58.17 59.30 57.26 59.45 61.87 62.39 64.85 67.91
58.08 57.72 58.29 58.63 57.97 57.78 57.36 57.07 56.94 57.15 57.23 56.94 56.57 55.52 55.45 54.64 54.16 54.73 60.37 61.77 59.97 61.75 56.76 55.18 54.22 54.46 52.25 52.45 52.23 49.87 46.64 48.07 54.06 53.08 55.09 56.06 55.25 55.98 55.11 56.02 58.34 60.83 65.27 67.50 67.76
57.35 57.85 57.52 57.59 57.99 57.35 57.08 56.50 56.42 56.82 56.85 56.52 55.84 55.56 54.97 54.68 54.38 56.73 62.86 60.88 60.50 61.32 57.98 56.13 55.33 53.13 50.94 52.23 51.29 50.25 48.31 51.73 54.74 55.90 56.62 54.94 54.21 57.11 54.34 51.63 58.49 59.94 62.92 65.57 65.90
57.55 57.10 56.76 57.30 57.50 57.01 56.45 55.84 56.13 56.47 56.63 55.75 55.07 54.72 53.97 55.39 49.10 59.62 63.39 61.25 61.21 60.40 57.06 54.35 53.23 50.97 50.12 48.60 51.56 48.94 51.07 52.77 54.96 55.04 53.74 52.95 55.55 56.02 52.38 50.52 55.71 63.48 64.80 63.99 64.72
57.17 56.65 56.99 56.69 56.63 56.50 55.94 55.47 55.76 55.98 55.65 54.96 54.27 53.80 54.73 54.68 55.51 63.19 61.49 61.53 58.73 58.05 55.24 52.82 51.81 51.60 48.54 49.47 50.19 49.76 51.62 51.67 53.91 55.51 55.04 55.96 54.33 54.86 56.20 59.23 62.68 65.11 64.09 63.45 64.09
56.91 56.13 56.22 56.54 56.44 56.03 55.60 55.45 55.31 55.50 54.42 53.89 53.56 52.80 54.57 51.18 59.18 63.07 60.02 58.69 58.45 57.66 54.87 54.28 52.47 52.86 50.23 50.13 50.12 51.43 51.49 50.41 52.69 53.35 54.25 53.85 53.79 53.95 56.61 60.35 61.51 62.41 61.03 61.62 62.06
56.93 56.14 55.95 56.30 55.90 55.31 55.52 55.35 55.15 54.64 53.39 53.12 52.71 54.51 53.96 54.70 59.78 62.73 59.65 57.48 57.67 56.72 54.09 56.10 55.79 52.87 53.23 50.64 52.50 50.38 47.29 49.75 51.57 52.44 52.44 55.08 48.76 51.65 57.82 59.57 59.28 59.58 60.44 61.17 61.34
57.23 56.01 55.43 55.28 54.92 54.65 54.68 54.72 54.32 53.39 52.87 52.42 52.30 55.56 52.85 60.48 61.38 59.97 61.42 58.85 59.25 58.51 57.58 57.91 57.62 54.57 53.03 52.52 50.23 47.66 48.49 45.43 49.91 52.20 52.52 52.11 45.28 52.60 57.20 58.42 57.93 59.42 60.41 60.89 61.33
56.60 55.66 55.08 54.45 54.37 53.92 54.37 53.45 52.79 52.44 52.08 52.55 54.63 55.32 53.81 58.93 56.64 58.12 59.67 56.21 57.82 57.98 57.46 56.41 56.17 52.98 52.58 48.87 46.20 47.00 41.97 44.32 46.53 51.41 51.45 49.59 46.56 53.38 56.72 57.58 57.49 58.91 60.22 60.49 60.72
56.38 55.43 54.96 54.41 54.25 53.90 53.51 52.48 52.46 51.97 53.61 56.36 56.80 53.64 57.37 52.96 56.82 55.75 58.65 57.59 56.32 55.82 54.31 53.54 53.00 50.26 49.81 47.37 39.99 42.49 43.46 45.13 45.32 48.75 49.12 46.64 48.24 52.41 55.42 55.61 57.19 58.27 59.65 59.90 60.13
55.99 55.25 54.82 54.47 54.49 53.58 52.37 55.48 53.30 53.42 54.80 53.74 53.66 53.35 53.14 56.66 58.26 55.26 56.73 55.56 56.07 54.65 50.02 51.53 47.62 44.94 46.75 48.13 47.56 46.79 45.02 43.98 46.48 48.59 46.99 46.43 48.51 49.91 54.69 55.21 55.48 56.76 58.35 59.33 60.18
55.49 54.92 54.57 54.92 54.74 53.27 54.68 54.18 56.85 59.47 53.75 55.51 54.78 54.54 56.11 56.18 52.03 53.30 56.87 52.21 51.90 48.49 51.31 48.85 44.87 49.06 49.48 48.18 46.54 45.93 44.45 45.06 47.34 48.76 49.19 47.52 47.93 51.05 53.47 54.46 56.12 56.43 57.10 58.32 59.90
54.90 54.78 54.80 54.64 53.32 52.56 55.10 55.92 61.82 61.14 54.63 53.58 54.78 53.84 54.02 55.95 51.62 52.06 54.78 53.30 50.38 48.50 47.45 45.99 47.75 49.91 48.35 46.49 45.58 46.22 44.66 45.80 45.40 48.73 50.07 48.59 47.71 49.87 52.46 54.64 56.43 57.73 58.57 59.00 59.65
54.45 54.80 54.07 52.88 51.12 57.17 55.16 58.98 60.15 59.70 49.13 48.31 50.77 53.38 54.57 54.67 50.68 54.79 55.42 53.40 50.20 47.68 48.24 47.15 51.00 47.90 46.62 46.12 47.29 44.32 48.94 47.93 46.41 46.40 42.39 49.04 40.11 48.00 51.11 51.62 53.25 55.50 57.52 58.53 59.47
54.19 54.40 53.27 52.99 58.93 55.18 61.36 63.99 62.19 60.60 37.02 49.40 50.67 56.58 54.41 51.12 51.13 52.48 56.12 53.11 47.68 48.67 48.84 47.48 48.77 48.41 46.86 47.79 49.90 47.33 50.14 48.88 48.18 46.68 46.14 45.82 43.09 42.68 51.12 49.53 51.68 54.21 56.05 57.88 59.68
54.30 53.89 53.08 53.12 55.48 60.68 63.45 65.78 61.95 47.89 36.43 45.93 50.41 49.26 49.80 51.10 50.22 52.66 52.27 54.45 53.58 49.60 50.41 47.95 52.61 50.85 50.18 50.53 50.61 51.01 49.08 48.83 48.80 46.79 40.72 44.06 43.84 44.15 48.55 50.39 52.53 54.78 56.60 57.84 58.74
53.98 53.96 53.72 57.41 56.03 63.13 64.76 60.93 47.02 39.67 48.09 44.58 46.19 48.80 48.62 47.51 48.46 49.74 48.82 48.22 45.77 42.89 44.67 47.99 48.41 51.09 51.78 48.56 50.88 49.98 47.14 40.14 38.83 39.66 38.14 45.80 43.81 45.51 49.29 52.45 53.90 54.68 56.06 57.26 57.76
53.37 53.18 54.09 58.07 61.03 63.53 63.08 53.15 40.21 44.40 45.56 48.17 47.17 47.84 46.16 48.08 47.87 48.39 47.42 45.62 48.96 49.03 44.57 43.24 41.91 48.77 51.48 49.75 47.23 47.97 46.98 40.48 33.24 35.69 39.13 45.90 40.64 45.10 52.08 52.95 54.31 56.63 56.58 56.94 56.13
52.83 54.06 54.00 56.38 59.68 60.86 56.52 44.88 44.01 44.96 48.36 46.30 46.85 44.64 45.68 47.33 47.17 48.06 47.81 46.71 48.53 49.83 44.53 43.48 42.71 49.86 50.16 51.13 50.07 47.21 44.25 48.89 43.47 43.56 39.79 42.05 45.11 49.76 51.45 51.38 53.22 55.48 55.68 55.34 55.28
54.85 51.67 54.24 59.94 60.34 58.64 51.90 44.51 47.63 50.34 50.14 48.57 43.37 46.10 43.97 45.90 45.04 46.23 46.93 49.46 49.08 51.20 52.57 47.58 42.30 47.55 49.07 51.02 50.75 48.86 50.14 42.52 43.31 34.28 33.29 39.83 41.27 42.41 47.85 49.06 51.72 54.01 54.47 54.94 55.41
55.50 50.89 58.92 61.81 60.16 53.84 46.65 47.40 49.23 52.62 52.05 48.13 46.13 45.32 46.51 45.92 46.56 45.66 46.42 49.67 51.37 50.69 52.00 49.19 46.42 45.86 48.15 46.77 46.10 46.93 45.04 45.37 45.57 43.85 36.44 34.46 40.31 48.06 46.72 49.97 51.12 53.48 55.10 55.34 55.31
54.17 47.56 60.67 62.78 49.79 52.06 48.81 50.22 49.44 52.08 54.20 51.00 50.63 48.41 47.19 47.96 46.61 46.12 45.44 47.91 52.83 52.45 47.58 49.66 47.73 43.87 45.50 49.54 50.53 49.89 47.58 47.02 40.48 38.70 40.99 40.29 39.85 48.93 49.90 50.96 52.41 53.15 54.76 55.87 56.17
51.84 53.52 61.19 60.19 47.03 49.92 51.39 49.98 50.84 51.23 51.33 50.72 48.56 50.14 50.25 47.67 44.86 47.22 47.94 51.19 52.20 51.94 49.01 50.84 46.15 41.11 42.71 46.73 48.64 45.75 47.33 47.34 45.68 44.60 39.62 37.79 40.51 49.66 49.94 49.75 51.33 52.71 54.36 55.16 55.95
53.30 48.51 54.08 54.63 55.27 51.22 48.92 48.54 48.06 52.99 51.68 52.32 50.10 52.03 50.30 48.84 50.49 48.20 49.03 49.67 51.25 51.82 45.27 49.29 47.29 44.24 40.27 43.72 47.11 44.67 45.54 46.73 45.36 40.53 40.53 41.76 42.76 45.97 47.79 48.34 49.84 51.48 53.55 55.03 55.35
54.03 50.77 53.41 47.35 50.83 51.40 50.96 49.31 47.23 47.81 52.27 53.46 51.08 50.24 49.18 46.74 48.31 48.19 50.77 48.79 50.16 46.47 49.63 50.52 44.56 46.23 46.67 46.27 45.54 45.29 45.11 45.63 43.95 44.32 41.61 43.19 42.52 45.01 46.94 48.24 49.77 51.35 52.25 53.13 54.12
51.89 51.98 54.38 52.83 52.29 50.77 47.76 48.24 47.70 49.44 50.82 50.03 49.71 50.36 50.89 48.46 49.43 47.47 50.65 49.99 49.08 50.71 50.53 50.62 45.13 44.92 42.79 46.04 44.97 43.34 45.14 45.01 45.33 45.33 44.62 44.61 44.03 48.70 50.23 50.21 50.00 50.49 51.41 51.65 52.79
57.93 56.95 55.75 49.44 51.87 49.15 49.48 48.74 48.93 52.08 52.29 53.02 52.18 51.61 50.49 51.82 54.53 54.60 54.67 53.72 52.80 50.93 49.59 48.22 45.87 41.86 38.41 42.04 42.37 37.78 42.90 44.89 45.36 46.64 45.95 42.67 46.65 49.53 48.76 48.43 49.36 50.12 51.16 51.16 52.12

GFSSW_sfc_wetblb_018.txt.gz
Wetbulb
58.32 58.58 58.26 57.75 58.55 57.48 57.95 57.82 57.24 57.47 57.58 57.75 57.15 56.51 56.22 55.91 54.32 54.96 52.30 56.76 58.53 61.86 59.17 57.22 54.90 54.72 55.67 52.80 53.17 52.16 45.06 43.73 46.03 49.00 48.18 53.90 54.06 57.49 60.15 57.28 56.35 58.03 59.55 64.39 66.91
58.44 57.56 58.18 57.27 57.08 57.20 57.40 57.23 56.62 56.93 57.16 57.00 56.85 56.42 56.11 55.05 52.95 53.17 58.92 62.93 61.44 62.03 55.40 54.53 52.17 52.90 52.07 51.22 51.55 48.61 45.31 46.14 53.96 53.51 49.33 51.48 53.10 55.43 55.28 57.02 57.57 56.44 57.23 65.60 66.16
58.18 57.72 57.77 57.02 56.71 57.17 57.07 56.75 56.35 56.60 56.92 56.97 56.49 55.86 55.54 54.34 53.79 56.78 63.08 61.47 61.38 60.83 55.38 56.44 55.13 53.37 49.70 50.78 50.52 48.98 45.34 49.24 52.43 53.45 54.16 52.91 54.20 55.22 53.25 52.58 56.21 56.88 61.62 63.77 63.81
58.09 57.81 57.59 57.60 57.00 56.38 55.86 56.00 56.06 56.13 56.78 56.09 55.55 54.91 55.00 54.40 48.59 58.42 63.48 61.91 61.84 58.24 55.85 55.48 53.01 50.15 48.37 47.85 50.83 46.88 49.20 50.78 52.91 55.50 54.52 54.09 55.57 53.62 52.14 52.70 55.33 58.82 62.41 63.63 63.15
57.89 57.73 57.15 56.60 56.58 56.28 55.42 55.16 55.82 55.92 56.01 55.50 54.75 54.12 54.04 54.15 55.24 61.88 63.51 61.38 57.69 56.82 55.64 53.20 50.51 49.89 47.79 49.47 49.66 47.96 50.32 51.78 55.09 54.09 54.93 55.20 53.37 53.22 52.58 55.68 57.40 58.33 59.98 62.32 62.70
57.58 57.17 56.44 56.57 56.63 55.48 55.63 55.07 55.56 55.50 55.58 54.81 53.89 53.17 53.38 50.56 59.75 62.59 60.61 58.27 55.42 55.54 55.27 53.06 51.87 52.63 50.18 49.08 48.45 50.37 51.12 51.12 53.36 53.36 54.75 52.63 52.71 54.23 54.45 56.28 55.48 59.15 60.32 61.20 61.11
57.58 57.05 56.61 56.42 56.28 55.53 55.64 54.38 55.40 55.60 54.91 53.74 53.32 53.59 53.17 53.05 60.35 61.99 58.52 56.35 57.66 56.84 53.27 54.96 55.13 52.47 52.60 49.46 52.10 51.05 47.68 49.42 51.26 52.28 53.21 53.76 51.14 50.84 55.79 57.03 58.53 57.85 59.04 59.43 59.99
57.70 56.93 55.96 55.46 55.21 55.06 54.86 54.42 55.01 54.71 54.21 53.35 52.83 54.43 51.67 60.85 61.47 59.76 60.43 58.35 58.12 57.65 55.89 57.65 57.33 54.06 52.42 53.90 50.52 47.48 48.21 43.94 49.05 51.10 52.72 52.66 44.91 51.64 57.34 56.55 55.93 56.84 57.67 58.20 58.91
57.28 56.84 55.73 55.10 54.76 54.49 54.53 54.75 54.12 53.95 53.46 53.29 53.42 55.10 53.00 60.28 56.82 58.14 59.35 57.18 57.73 57.46 57.30 57.00 55.78 52.53 52.37 47.83 45.30 46.26 41.18 43.65 46.57 51.22 50.85 49.84 45.96 51.58 56.61 56.25 55.41 57.03 56.90 58.41 58.88
56.89 56.62 55.59 54.96 54.51 54.12 54.22 53.76 54.24 52.90 53.24 55.83 56.12 51.98 57.07 53.72 56.68 56.03 58.41 57.73 55.85 55.62 53.99 53.36 51.84 49.20 49.09 46.20 39.29 41.09 41.95 44.13 44.45 47.80 49.57 47.08 47.22 51.07 53.90 55.33 56.14 56.69 57.72 58.33 58.77
56.61 56.54 55.43 54.94 54.41 54.02 52.37 53.78 52.10 51.46 53.95 51.88 53.63 52.65 53.27 56.06 58.02 55.17 57.01 56.24 55.83 53.70 49.10 51.61 47.28 44.55 46.87 48.39 47.40 46.34 44.61 43.65 46.06 49.00 47.29 46.06 47.03 49.73 52.67 54.05 55.00 56.17 57.24 57.77 58.62
56.38 55.93 55.16 54.72 54.61 54.13 54.11 53.67 57.03 59.11 53.02 55.42 52.73 55.03 56.11 56.75 52.31 53.93 56.43 52.27 52.54 48.28 50.62 47.48 44.64 48.69 49.84 48.91 47.59 46.07 44.39 43.68 46.25 47.37 46.61 45.66 46.18 48.58 51.82 52.81 54.74 55.51 56.83 57.82 58.88
55.77 55.43 54.82 54.67 54.24 53.16 54.07 54.55 60.14 59.86 52.63 54.05 53.10 52.50 54.05 55.13 51.50 51.50 54.11 52.67 50.05 48.05 47.99 45.21 47.26 50.23 48.17 47.33 45.28 45.42 44.64 44.84 44.28 46.26 46.25 47.17 44.54 46.86 50.34 53.25 54.34 55.61 56.67 57.73 58.69
55.32 54.67 54.06 53.49 50.87 56.64 54.27 57.93 58.45 60.20 47.10 49.13 50.38 52.68 54.44 54.55 49.89 54.57 55.11 52.54 50.53 47.74 47.67 47.78 50.41 48.63 47.25 45.19 46.00 43.36 48.68 47.33 45.92 44.91 40.27 47.47 38.55 45.95 48.56 49.78 52.25 54.41 55.68 56.79 58.37
54.43 54.23 53.30 52.97 57.16 54.71 60.73 60.40 62.54 59.90 36.17 49.98 50.67 56.51 54.40 50.88 50.77 51.70 55.54 53.02 48.61 47.94 48.85 46.52 46.57 46.73 45.54 47.11 49.25 45.71 48.97 47.88 47.07 44.49 44.13 42.45 40.86 43.83 47.95 46.79 50.52 53.77 55.93 57.39 59.18
54.15 54.15 53.40 53.31 54.57 57.65 61.20 64.26 61.32 47.32 35.70 46.39 50.39 49.44 49.15 49.92 49.73 51.61 52.03 53.57 52.68 48.34 49.86 47.30 51.73 50.46 49.25 50.29 50.20 51.02 48.56 48.46 46.68 45.09 37.07 41.51 40.09 42.29 43.81 46.18 50.76 53.16 55.22 57.00 58.24
54.01 54.14 53.76 57.34 54.59 61.22 61.82 60.26 45.58 38.11 48.13 45.08 46.35 48.53 47.61 46.95 47.95 48.47 48.13 47.10 45.48 42.35 43.51 46.04 46.83 50.06 51.66 46.94 49.83 48.09 45.02 38.55 35.68 36.57 36.76 45.24 41.62 43.40 48.32 50.60 51.07 52.17 54.66 57.01 58.85
53.69 53.46 53.78 56.62 59.90 61.80 60.99 52.49 38.65 43.80 45.21 47.80 47.29 47.39 45.08 47.47 46.95 47.11 47.14 44.22 47.59 46.74 44.05 41.51 40.75 47.33 49.94 47.53 45.25 47.01 44.38 39.81 29.18 30.44 37.76 44.11 39.29 44.05 51.91 53.41 52.50 55.66 56.40 57.38 57.49
52.94 54.27 53.71 55.63 58.33 59.94 54.45 43.64 42.36 45.89 48.07 46.67 46.37 44.07 44.21 46.78 46.60 46.26 45.65 44.83 46.74 48.12 42.09 40.42 41.42 49.90 50.41 50.65 48.94 44.89 43.59 47.86 41.84 39.02 39.21 40.81 43.50 49.07 51.04 50.97 51.40 54.88 55.81 55.88 56.26
53.43 51.56 51.90 58.08 59.16 55.73 50.24 43.84 46.91 50.86 49.41 48.54 42.83 45.10 42.63 45.01 44.26 45.21 45.06 47.88 46.59 49.99 49.92 44.60 38.17 48.08 49.20 50.37 50.13 47.69 48.99 42.55 43.48 33.91 32.01 38.24 40.25 42.14 47.31 48.64 50.54 53.15 54.47 55.36 56.15
53.57 48.35 56.39 60.05 58.81 52.04 44.95 46.79 49.42 51.97 51.43 48.10 45.27 44.45 45.28 45.37 45.34 44.73 45.58 48.89 50.14 50.44 51.10 48.65 46.16 45.21 48.21 45.93 43.70 45.98 43.73 44.86 43.94 44.05 36.94 34.40 38.40 47.28 47.09 49.34 50.55 52.29 55.24 55.20 55.17
52.56 44.22 58.50 60.37 46.70 47.38 46.91 49.02 49.71 50.76 52.36 50.84 49.94 47.63 46.15 47.54 45.72 45.15 44.86 48.06 52.59 51.22 47.18 49.43 46.50 43.36 44.33 49.12 50.25 48.58 46.87 45.30 41.52 38.42 42.29 40.15 38.84 49.33 49.42 49.77 52.00 52.35 54.47 55.92 55.76
48.72 50.96 59.67 58.48 41.99 45.22 49.76 49.43 50.87 49.89 50.94 50.53 48.37 49.78 49.79 47.47 44.96 46.80 47.26 52.69 53.39 50.74 48.18 49.93 45.43 39.85 41.92 46.59 49.02 45.94 46.08 46.61 46.78 45.56 40.02 37.34 39.61 49.59 49.16 48.88 50.73 51.79 53.31 55.15 55.71
50.22 45.19 52.13 54.39 50.99 48.21 47.83 47.09 47.38 52.20 50.75 51.60 50.28 50.73 48.64 46.73 48.84 46.53 47.42 50.41 52.39 51.98 46.77 51.62 46.72 43.06 39.16 42.51 46.51 44.48 45.28 45.72 44.90 40.47 40.14 39.55 41.63 45.70 47.60 48.16 49.55 50.75 52.20 53.71 54.85
52.09 48.33 51.56 45.63 48.02 49.82 50.91 49.00 47.03 47.01 51.22 52.33 49.27 48.36 48.59 45.75 46.81 46.78 49.12 49.68 50.78 46.93 49.68 50.02 43.48 45.07 45.40 46.31 46.47 45.67 45.11 45.48 43.43 44.43 39.64 42.79 42.54 45.62 47.08 48.43 50.36 51.28 51.87 51.67 52.20
48.90 49.55 52.80 49.91 50.31 49.62 48.77 48.56 47.83 48.31 49.89 48.97 48.94 49.49 50.23 47.79 48.24 46.56 49.17 50.11 48.41 50.42 49.60 50.75 44.93 46.21 43.94 46.18 45.96 43.38 45.15 45.58 44.88 44.63 44.36 44.33 43.79 48.69 50.24 50.21 49.67 49.86 50.41 51.22 50.72
52.94 55.92 53.48 48.30 49.19 48.78 48.89 50.01 49.15 50.88 52.09 52.43 51.42 50.44 49.08 51.69 53.97 54.55 54.97 54.91 52.93 50.73 49.10 49.00 47.07 43.02 38.99 42.46 41.73 36.03 42.73 44.29 45.28 46.09 45.37 41.43 46.41 49.05 48.40 48.88 49.73 50.21 50.23 51.21 51.21

GFSSW_sfc_wetblb_021.txt.gz
Wetbulb
59.10 58.48 58.35 58.59 56.68 56.46 56.41 56.61 56.97 56.68 57.13 57.39 57.09 57.01 56.93 56.35 54.81 52.29 48.92 53.30 54.34 59.29 59.60 53.56 52.39 51.75 51.16 48.79 48.93 45.06 36.77 36.45 40.16 47.55 47.53 52.46 52.03 57.02 57.42 53.20 53.91 55.04 58.78 59.93 61.25
59.47 58.81 58.04 58.05 56.89 56.26 56.16 56.08 56.64 56.61 56.75 57.00 56.85 56.68 56.23 55.62 50.66 49.72 56.07 60.74 61.38 62.01 53.58 51.24 50.24 49.09 45.06 46.34 47.05 42.72 36.55 39.47 50.27 51.58 49.71 51.23 52.79 53.43 53.17 52.86 51.34 52.11 58.39 61.21 61.07
59.55 58.80 58.29 57.98 57.62 56.19 55.73 55.39 56.06 56.32 56.32 56.68 56.30 56.32 55.52 54.13 50.05 54.93 62.85 61.02 61.95 60.65 52.62 52.73 52.55 49.64 44.93 46.91 45.33 43.26 41.30 48.78 50.36 52.45 51.63 50.09 52.08 54.37 51.34 50.50 51.50 53.19 57.11 60.13 60.19
58.92 58.42 58.17 57.95 57.57 55.96 55.50 55.01 54.91 55.52 56.08 56.35 56.14 55.84 55.04 51.45 45.92 54.77 62.86 62.45 62.34 56.23 53.30 50.83 50.50 46.37 44.80 42.75 45.67 41.71 46.54 50.47 51.71 53.96 52.84 51.94 53.39 52.02 50.75 54.06 55.00 56.49 59.40 60.63 60.51
58.12 57.85 57.84 57.33 57.07 56.56 55.30 54.78 54.54 55.50 55.04 55.81 55.42 54.75 51.23 49.99 52.95 60.70 62.12 62.14 56.52 54.35 52.05 51.60 49.96 47.24 44.04 44.59 45.67 44.93 46.32 52.28 52.44 52.83 52.68 54.54 51.42 51.88 50.31 52.95 56.91 58.83 58.87 60.55 60.74
57.75 57.40 57.23 56.99 56.68 56.53 55.54 54.62 54.13 55.33 55.29 55.85 54.81 54.23 49.10 47.77 59.53 61.21 58.02 55.61 53.40 52.28 53.11 53.44 50.35 49.46 46.95 46.39 44.62 47.94 47.19 52.61 52.79 52.31 52.48 50.10 51.30 51.64 52.18 54.55 56.10 57.16 58.08 59.87 58.21
57.65 57.18 56.92 56.75 56.34 55.91 55.40 54.92 53.91 54.96 55.63 54.91 54.29 51.92 49.65 49.10 57.07 56.57 57.86 53.81 52.54 53.06 51.18 53.14 51.98 50.29 49.09 47.27 51.47 48.71 45.71 46.69 49.97 52.16 51.70 50.31 47.15 48.99 52.97 54.62 55.56 56.78 58.79 59.25 57.37
57.89 57.12 56.56 55.79 55.30 55.10 54.83 54.39 54.35 54.86 55.17 54.85 53.83 50.19 47.76 59.23 56.56 56.33 54.91 53.64 54.48 54.51 54.33 54.68 54.59 51.12 48.63 50.36 48.43 44.30 43.72 40.39 46.91 51.12 51.66 48.80 42.90 49.61 53.21 53.11 53.97 54.26 55.65 56.84 56.42
57.58 56.93 56.34 55.36 54.65 54.37 54.16 54.26 54.59 54.94 54.87 54.09 49.59 49.22 50.04 60.57 56.05 57.31 56.76 55.35 54.77 54.44 53.76 55.67 52.47 48.53 48.86 43.98 40.56 43.22 36.75 41.49 44.53 49.29 49.55 47.13 41.75 51.21 53.62 54.18 53.56 50.99 52.16 53.66 53.85
57.31 56.71 56.11 55.22 54.45 53.98 53.72 54.16 54.29 52.99 53.09 53.14 52.53 46.95 52.23 53.19 56.38 55.29 55.17 56.55 54.26 53.34 52.22 50.38 46.88 43.66 43.13 40.58 35.38 38.13 39.51 40.56 42.06 45.37 46.84 42.13 41.88 49.93 52.70 52.79 53.41 53.08 52.16 52.44 53.30
57.03 56.59 56.09 55.04 54.47 53.86 52.02 50.53 47.56 47.74 48.38 48.32 49.50 49.96 52.91 55.26 55.86 53.10 55.14 53.83 53.45 50.47 44.39 47.13 41.40 38.62 42.42 45.15 45.56 44.28 41.41 40.43 42.23 45.98 44.64 43.53 43.48 46.61 49.93 50.01 50.45 52.03 52.35 52.95 54.69
56.64 56.20 55.83 54.86 54.12 54.27 50.94 48.92 52.15 51.83 47.67 53.03 51.96 52.06 53.77 54.98 50.70 52.76 54.25 49.77 49.61 44.82 47.89 43.66 40.26 46.39 48.40 47.49 45.51 44.02 42.90 41.00 43.97 45.26 42.50 41.84 42.15 45.72 49.56 49.10 50.89 52.12 51.82 53.77 54.38
56.25 55.81 55.16 54.10 54.05 52.27 49.95 50.91 55.22 54.00 46.98 52.28 54.71 52.27 51.50 53.93 50.30 50.03 51.35 49.21 47.64 46.31 45.94 41.14 45.53 49.51 48.07 46.12 44.43 44.79 42.19 41.78 41.45 42.20 40.36 41.76 39.23 42.17 47.34 49.48 52.74 52.61 51.32 52.94 54.91
55.54 54.96 53.76 53.55 49.94 51.94 50.26 54.52 54.23 52.87 41.82 46.92 50.81 50.48 51.82 52.65 48.74 53.01 52.61 50.08 48.53 46.12 45.99 45.02 48.86 47.94 46.46 45.29 45.49 40.71 46.64 45.44 44.50 40.84 34.90 42.67 32.74 42.24 44.67 46.21 48.86 51.59 52.97 54.70 56.27
55.04 54.31 53.15 53.36 51.18 51.54 55.30 57.54 54.89 53.00 31.08 47.38 49.82 54.78 52.58 49.65 49.46 49.30 53.40 51.07 46.37 46.69 46.12 43.26 46.25 45.40 44.66 45.31 46.07 43.54 46.52 45.19 45.29 41.10 41.16 41.02 37.59 38.73 45.05 43.81 46.59 47.26 49.79 50.86 55.97
54.58 54.13 53.21 52.37 51.84 52.08 54.68 56.26 56.96 43.09 31.75 46.26 49.56 47.68 47.31 49.10 49.04 48.94 49.59 51.51 51.89 47.35 47.01 44.79 49.01 47.80 46.24 48.52 47.11 49.01 46.12 45.00 43.46 39.61 30.94 39.58 38.48 37.01 41.47 45.59 47.68 49.52 51.83 53.11 54.14
54.34 53.91 52.96 54.46 50.36 55.90 54.67 53.81 40.52 32.37 46.97 44.32 44.66 47.28 46.27 45.37 46.22 46.50 46.13 43.74 40.91 38.67 39.88 44.82 45.76 47.75 50.07 44.91 47.20 46.35 40.27 32.89 30.47 30.11 28.69 42.34 39.49 39.51 45.89 47.97 49.10 50.35 50.67 51.04 54.91
53.82 53.23 53.25 53.44 55.69 55.58 56.03 48.28 36.30 42.02 42.94 47.74 46.31 46.36 43.28 45.18 44.93 45.31 44.07 40.87 43.80 42.79 40.45 39.69 35.83 44.47 48.46 44.86 44.11 43.27 41.22 32.88 27.51 28.05 33.43 41.46 37.31 41.31 48.44 50.74 51.03 52.06 50.97 52.37 53.55
53.10 52.56 52.30 52.58 54.07 54.53 51.77 40.55 37.30 43.85 45.38 45.84 45.07 41.89 41.67 44.70 44.37 43.41 41.70 41.76 43.41 43.83 39.25 38.34 39.99 48.06 49.49 49.53 46.59 42.94 39.16 44.45 37.35 38.20 33.40 37.93 41.61 46.51 47.72 47.62 49.84 48.89 49.30 51.39 51.82
51.71 50.53 50.20 54.03 55.00 52.79 47.05 40.49 44.23 48.77 49.48 47.39 41.36 42.80 39.12 42.19 42.99 41.80 41.31 44.73 44.33 46.03 47.96 44.02 38.35 45.53 47.49 49.27 47.95 44.74 45.52 37.00 36.36 28.11 26.38 32.96 35.01 37.65 44.01 45.73 47.73 47.57 49.11 51.03 51.59
51.50 46.34 50.70 54.91 54.55 50.00 39.36 41.87 46.52 51.06 50.43 47.36 44.39 41.84 42.52 42.27 43.21 41.49 42.48 45.58 47.23 47.80 48.33 45.34 42.40 42.03 46.17 43.65 41.06 41.92 39.60 40.54 39.88 35.07 28.43 25.68 31.59 41.39 43.37 45.32 45.77 48.87 51.49 52.00 51.75
50.13 42.34 51.98 55.32 43.42 43.47 40.15 44.72 46.97 49.31 51.52 49.62 48.34 45.05 43.10 45.15 42.96 41.63 42.11 48.81 50.13 49.43 45.23 45.75 41.89 34.20 41.96 46.83 47.34 44.48 43.22 42.60 30.14 31.92 31.45 28.86 31.73 43.73 43.80 45.23 46.71 47.03 51.84 52.22 52.44
46.68 47.12 53.86 51.83 36.96 38.47 42.80 45.86 48.29 48.06 48.38 48.08 47.35 47.73 47.79 44.54 42.24 42.93 46.25 50.30 51.07 48.05 45.23 46.26 39.18 29.57 35.28 41.48 45.65 42.03 43.40 43.16 42.99 35.95 31.48 25.53 31.16 44.37 44.97 44.11 45.45 45.75 48.00 51.31 51.61
47.20 41.29 48.90 49.68 45.32 41.69 40.09 42.75 44.45 50.19 49.30 50.34 48.62 48.83 45.78 44.25 45.93 43.99 45.08 49.46 50.14 48.07 45.85 47.75 42.72 36.57 30.17 36.92 42.22 39.65 42.62 43.03 40.27 29.90 30.57 31.57 37.23 41.28 42.43 43.65 44.82 45.49 45.21 48.42 51.17
47.40 42.39 47.87 42.52 43.23 41.93 43.35 44.69 44.27 44.63 49.25 50.09 47.02 46.93 44.93 40.21 42.56 42.55 46.25 46.83 49.18 46.50 47.00 45.35 37.93 39.91 42.15 44.28 44.42 42.90 43.38 43.45 40.13 39.63 33.40 37.04 39.18 42.22 42.14 42.60 43.52 45.79 46.43 46.83 47.73
44.98 43.55 48.02 44.32 46.02 43.82 42.82 43.73 44.75 46.17 47.17 45.97 46.53 46.73 45.73 42.73 44.77 42.61 46.62 45.74 44.51 46.12 44.38 45.77 37.97 38.31 36.81 43.48 42.10 39.29 41.61 41.79 41.73 41.93 39.85 39.85 39.21 43.25 44.79 44.71 44.43 44.90 46.53 46.37 46.74
47.13 49.71 49.04 45.24 44.50 42.12 41.48 45.38 46.16 48.15 48.74 49.46 48.88 47.13 44.83 48.62 49.20 49.47 49.74 49.93 49.62 45.44 42.86 42.32 36.66 33.28 31.28 37.13 36.29 29.19 36.69 40.43 41.52 42.48 40.84 35.37 40.42 43.99 43.33 44.54 44.00 44.40 46.00 46.13 46.75

GFSSW_sfc_wetblb_024.txt.gz
Wetbulb
59.35 59.06 58.83 58.37 57.81 56.92 56.71 56.53 55.60 56.48 56.27 56.43 56.58 57.29 56.60 56.31 54.82 51.18 47.43 51.88 52.98 59.31 58.71 52.14 50.85 49.45 48.40 45.53 47.51 43.98 37.73 34.95 37.12 45.09 46.79 51.55 51.00 54.70 55.61 52.35 52.83 54.77 58.31 59.30 61.54
59.72 59.56 58.94 58.46 57.46 57.31 56.67 56.22 55.28 55.62 56.49 56.41 56.73 56.73 56.29 55.69 50.20 48.70 54.84 59.32 59.51 61.40 52.52 49.23 48.46 47.31 43.21 43.01 44.82 42.01 36.48 38.33 44.94 49.65 47.23 49.70 48.84 51.90 52.06 52.12 51.32 55.06 58.91 60.24 59.71
59.80 59.36 58.88 58.51 57.85 57.42 56.33 55.78 54.95 55.14 55.30 56.18 56.48 56.52 55.62 53.91 48.81 53.77 61.40 60.06 61.46 60.95 51.37 51.64 50.66 47.96 42.55 42.94 43.86 42.02 39.30 46.53 49.00 51.45 50.66 48.36 49.92 52.96 51.98 49.99 51.89 54.43 55.71 58.44 58.52
58.91 58.75 58.32 58.31 57.93 57.18 56.29 55.17 54.77 54.87 55.85 55.80 56.07 55.78 55.09 50.96 44.43 52.24 62.95 62.58 62.55 55.71 51.97 49.33 47.68 44.06 42.19 42.12 44.63 41.00 44.40 49.58 50.41 52.70 51.45 50.76 52.10 49.91 48.64 53.02 54.20 58.83 58.75 58.38 57.38
58.05 57.67 57.89 58.05 57.83 56.95 56.10 55.25 54.69 54.40 55.43 55.57 55.72 55.00 50.42 48.46 50.74 59.39 62.30 62.23 56.32 53.32 49.95 48.96 48.39 47.71 42.77 44.00 44.07 42.25 46.99 50.30 51.70 52.83 52.26 53.84 49.72 49.04 50.67 52.73 55.41 59.64 58.89 56.95 57.13
57.80 57.38 57.20 57.49 57.27 56.64 56.17 55.28 54.76 54.48 55.10 55.51 55.17 53.98 48.94 44.26 58.13 59.39 56.86 54.12 52.43 50.66 51.20 50.59 49.87 48.93 45.54 44.87 42.99 46.15 49.81 49.78 51.60 51.97 51.47 48.97 49.70 49.70 50.75 54.85 55.76 57.95 57.99 56.83 57.12
58.01 57.31 56.89 56.92 56.60 56.07 55.67 55.10 54.55 54.41 54.98 55.41 54.47 51.60 47.95 45.50 56.86 56.61 55.52 52.29 51.01 51.11 49.35 51.77 51.27 48.55 48.54 45.95 49.51 47.00 46.08 48.89 50.24 50.03 49.80 49.58 46.64 48.08 52.06 54.25 53.93 55.59 58.05 59.00 58.03
58.44 57.18 56.31 56.03 55.73 55.02 54.81 54.30 54.16 54.73 55.14 54.78 53.67 49.10 45.05 56.54 54.73 54.52 53.94 52.58 53.13 52.06 51.88 52.90 52.84 50.12 47.97 48.40 47.22 42.85 44.33 40.26 48.05 49.90 50.62 47.22 40.62 47.39 52.30 53.68 53.22 55.01 56.27 56.24 59.28
58.41 57.16 56.13 55.58 54.91 54.47 54.24 54.24 54.24 54.75 54.98 54.69 48.71 48.55 47.48 58.00 55.26 57.23 54.97 52.52 52.42 52.41 52.28 54.15 50.99 47.58 46.90 42.32 38.89 40.18 34.55 38.59 43.89 50.18 49.06 44.62 42.08 48.53 52.16 52.98 52.48 51.63 53.00 54.61 57.91
58.01 57.28 56.11 55.58 54.59 53.77 53.54 53.98 53.86 53.31 52.43 53.03 51.52 44.44 49.59 50.58 55.61 54.95 54.20 54.74 52.08 51.18 50.55 48.86 45.03 42.08 41.89 39.45 33.15 36.25 37.03 36.59 39.91 43.97 46.69 42.26 41.37 48.72 51.28 52.35 51.97 51.34 51.94 52.01 54.90
57.77 57.34 56.22 55.54 54.41 53.67 51.87 49.31 47.39 47.52 47.35 44.86 45.22 46.44 49.53 53.25 54.95 51.91 53.43 52.77 51.79 49.23 42.91 45.60 40.14 37.05 40.28 42.65 44.90 43.89 41.34 38.04 39.37 44.73 43.02 42.43 44.38 47.90 50.09 50.88 51.04 50.82 52.22 51.73 53.97
57.09 56.83 55.91 55.02 54.02 53.84 50.86 46.95 49.48 49.65 44.72 51.50 51.27 50.82 52.83 53.22 48.33 51.14 53.39 48.69 47.94 43.05 45.59 42.02 38.66 44.07 47.23 47.36 44.67 43.17 41.00 39.86 42.27 43.86 41.74 40.49 42.00 47.55 48.60 49.98 50.86 50.16 51.57 52.56 52.82
56.53 56.25 55.52 54.10 53.66 51.86 48.66 49.03 54.10 52.68 44.66 49.79 52.94 51.94 52.95 51.57 48.32 48.97 51.05 48.61 46.48 43.96 43.39 39.25 43.19 47.97 47.43 45.78 43.15 42.31 40.67 40.49 39.97 40.14 41.11 40.39 37.05 43.54 47.76 49.11 49.79 51.59 52.92 54.30 54.18
56.00 55.46 53.86 53.32 49.55 50.70 49.30 53.67 53.73 51.86 39.88 44.33 48.95 52.12 50.67 50.74 47.20 52.13 51.54 48.46 46.13 43.86 43.72 42.79 46.39 46.25 45.12 43.76 44.07 38.32 44.61 43.83 42.51 38.70 33.42 38.54 30.75 40.16 43.91 46.57 48.79 50.89 51.01 51.78 52.92
55.23 54.80 53.10 53.09 50.24 50.42 53.48 54.02 51.94 51.50 24.33 45.09 49.22 54.39 50.22 47.79 47.85 47.90 51.86 48.91 44.26 44.80 43.73 41.98 43.47 43.03 43.66 43.83 44.84 41.85 44.83 43.27 43.05 38.75 36.87 38.02 34.81 37.39 42.44 41.98 46.60 49.98 51.83 49.93 52.34
54.82 54.36 53.09 51.86 50.67 50.48 53.26 54.02 54.33 38.85 28.38 44.63 48.10 45.83 45.60 47.14 47.45 48.00 47.71 50.19 49.59 45.79 44.47 43.42 46.24 46.12 45.06 47.67 46.28 46.87 44.39 43.00 40.94 38.05 29.66 38.04 34.76 34.34 40.11 43.18 46.07 48.99 52.05 51.97 52.50
54.62 54.10 53.20 53.40 48.39 53.48 55.56 53.48 39.07 33.58 44.23 43.04 43.13 45.51 44.36 43.79 45.09 45.50 44.07 42.21 40.92 37.33 37.39 42.00 43.05 45.90 47.97 43.35 45.41 44.89 38.46 31.16 29.72 27.74 27.17 40.12 36.46 38.08 43.19 45.92 45.92 46.62 47.58 50.53 53.42
53.94 53.22 53.41 53.31 52.97 53.28 55.18 48.08 34.15 39.15 41.46 46.99 45.09 44.60 41.64 43.90 43.67 43.64 41.83 39.38 41.37 41.39 37.70 36.59 34.42 43.78 47.66 44.57 40.98 41.28 38.91 30.38 26.40 25.91 31.32 39.56 34.48 39.32 45.96 47.51 48.56 48.32 48.49 51.22 52.72
53.39 52.52 52.04 52.55 52.50 53.11 50.49 39.85 35.43 41.21 44.69 43.75 43.95 40.57 40.40 43.21 42.74 41.73 40.37 40.12 42.10 42.09 37.49 36.83 38.00 45.95 47.00 47.81 46.24 41.65 36.90 41.79 35.07 35.43 31.68 34.79 39.76 43.29 45.98 45.74 46.22 47.11 48.93 50.56 51.37
50.25 50.55 50.50 53.01 53.18 51.66 46.10 39.04 41.81 47.50 48.08 45.46 39.49 41.53 37.61 39.93 39.99 39.21 39.46 42.63 42.71 44.35 45.70 42.35 36.34 43.94 46.74 48.37 46.58 43.68 43.94 36.01 34.78 28.41 26.93 31.57 33.00 36.60 41.72 44.07 45.81 45.94 46.31 49.81 50.73
48.95 45.09 51.54 54.22 52.49 45.89 38.91 39.46 43.87 48.84 48.87 45.96 42.98 41.37 40.82 39.76 40.80 39.09 40.21 43.21 44.43 45.37 46.91 43.99 39.45 39.74 44.93 43.06 41.84 40.68 38.19 38.48 38.32 32.40 27.54 25.70 30.74 39.27 42.96 44.55 45.00 45.90 47.10 49.65 50.79
46.76 39.93 51.90 54.02 40.94 41.77 40.99 43.12 44.22 46.58 49.24 48.29 47.51 44.82 40.91 41.54 40.52 40.15 40.52 43.32 47.08 47.46 43.05 44.56 40.83 32.69 40.20 46.03 45.96 43.02 40.80 39.40 29.09 30.75 29.33 27.44 31.47 42.19 42.91 44.38 45.25 46.85 48.43 50.59 51.88
42.92 44.98 51.89 50.86 35.49 36.39 42.01 44.01 44.77 44.61 46.68 46.90 45.49 46.74 45.50 42.16 39.00 41.77 43.24 48.52 48.72 47.23 44.41 44.42 37.49 29.08 34.34 39.47 43.03 41.11 41.80 42.04 39.52 33.09 30.29 25.43 30.63 42.85 41.70 42.47 44.93 44.94 48.52 51.06 51.44
44.31 39.03 45.92 46.95 44.75 38.73 38.81 40.41 40.97 46.21 45.40 47.53 47.04 47.46 44.64 42.14 44.18 42.11 43.84 47.35 48.58 47.61 46.47 46.20 39.28 34.63 29.42 34.70 39.06 37.13 40.82 41.16 39.07 29.03 30.50 30.29 35.50 40.61 41.39 41.44 42.65 44.30 46.47 48.93 50.92
44.50 40.82 43.18 38.05 39.65 39.84 40.39 41.30 39.87 39.84 46.81 47.93 45.15 45.80 43.86 38.53 40.38 40.90 44.81 45.35 47.23 45.58 45.86 43.60 36.86 38.05 39.05 41.60 41.47 39.90 39.98 40.72 38.59 37.37 32.13 35.95 36.58 40.49 41.52 42.08 42.26 43.68 44.12 47.13 48.04
41.42 42.90 44.59 41.59 42.52 39.58 39.62 38.81 39.53 41.65 44.10 43.71 43.89 45.60 44.58 40.66 41.94 40.72 44.85 43.75 42.74 44.49 42.50 43.85 36.40 36.65 35.05 39.54 39.64 37.22 39.68 39.24 39.71 39.64 38.76 38.16 37.54 41.78 42.06 42.14 42.22 43.03 44.55 43.61 44.53
45.30 47.46 46.16 41.73 41.70 39.28 38.11 39.86 40.28 42.61 45.57 46.50 46.28 45.11 42.42 44.68 46.98 47.04 48.73 47.95 46.85 43.54 41.19 40.06 35.26 31.81 31.03 34.45 34.43 29.49 35.43 38.34 39.58 40.12 39.99 34.42 38.16 41.27 40.89 42.15 41.79 42.55 44.06 43.96 44.67

GFSSW_sfc_wetblb_027.txt.gz
Wetbulb
59.46 59.46 59.03 58.77 57.83 57.27 57.22 57.04 56.45 55.88 55.29 55.55 56.23 56.23 56.56 56.40 54.74 50.42 46.18 51.39 51.99 58.13 58.34 50.33 49.49 48.39 47.21 44.58 45.04 41.50 35.64 33.10 35.14 40.92 44.91 50.33 48.75 52.82 53.42 50.87 55.33 57.54 57.16 59.95 61.98
59.72 59.75 59.26 58.88 57.82 57.43 57.06 56.45 56.03 55.74 55.27 55.05 56.11 55.53 56.35 55.66 50.15 48.08 54.92 57.83 59.04 59.42 50.01 47.30 46.73 45.47 41.96 41.60 42.48 39.72 34.95 37.15 41.16 48.19 46.38 49.16 48.74 50.90 50.20 50.57 53.93 56.79 59.76 60.78 60.00
59.74 59.41 59.30 58.68 58.07 57.74 56.96 56.23 55.77 55.81 55.46 55.22 56.17 56.30 55.98 54.15 48.17 52.43 61.37 59.60 60.34 60.31 49.91 49.88 49.03 46.43 40.91 40.97 41.31 38.84 37.71 41.62 48.09 50.40 49.28 48.42 49.30 52.27 51.04 47.98 52.32 54.62 56.32 58.11 57.95
59.13 58.81 58.61 58.35 58.17 57.82 56.75 55.79 55.76 55.72 55.20 55.10 55.78 56.08 55.60 50.12 41.51 50.33 62.77 61.27 61.26 56.94 50.57 47.52 46.06 43.03 41.11 40.60 42.18 38.80 42.80 47.62 49.49 50.83 49.54 48.38 50.20 48.84 48.72 51.42 55.91 56.66 57.57 57.42 57.68
58.53 58.09 58.06 58.22 58.09 57.45 56.38 55.83 55.61 55.48 54.90 54.77 55.69 55.37 49.97 44.77 46.84 57.55 62.10 61.63 57.73 52.13 48.77 47.49 46.61 45.26 41.40 41.88 42.00 40.88 42.79 44.92 50.83 51.28 50.36 52.42 48.87 49.14 49.37 56.53 57.06 58.01 57.42 57.16 57.16
58.39 57.84 57.58 57.46 57.44 56.91 56.18 55.65 55.08 54.90 54.58 54.91 55.24 54.53 47.07 39.15 55.34 58.33 56.84 53.94 51.52 49.29 48.29 48.64 48.39 48.26 45.11 43.31 42.12 44.30 46.56 48.24 49.65 50.04 51.41 48.98 49.53 50.12 49.87 57.76 56.99 56.87 55.59 55.13 56.72
58.58 57.97 57.39 57.22 56.93 56.38 55.92 55.23 54.76 54.62 54.56 54.87 54.57 51.27 46.76 43.23 55.30 54.68 55.05 51.65 49.74 50.22 48.77 50.81 50.66 47.39 46.62 44.48 48.09 46.37 45.82 48.00 48.46 49.20 48.47 49.82 46.58 47.47 51.49 56.69 56.70 55.96 55.94 55.66 56.92
58.78 58.14 56.80 56.32 56.06 55.49 55.06 54.56 54.25 54.62 54.74 54.56 53.60 48.09 45.10 53.47 53.52 53.50 52.53 51.80 51.46 50.47 50.17 50.84 50.85 48.59 45.70 47.12 45.77 41.69 42.69 39.48 45.63 49.35 49.74 45.80 40.42 47.49 51.80 52.63 53.16 55.86 55.47 55.90 56.67
57.62 57.79 56.79 55.57 55.04 54.90 54.31 54.35 54.27 54.86 54.52 54.54 47.37 47.11 45.61 55.60 52.87 56.34 54.10 51.53 51.21 50.69 50.66 53.05 49.38 45.69 45.12 40.38 37.18 38.77 34.79 37.38 43.68 49.89 48.17 44.08 40.76 47.17 50.94 52.12 51.97 53.36 56.10 56.35 56.43
56.50 57.41 56.99 55.63 54.92 54.07 53.46 53.95 54.00 53.02 52.33 52.67 50.67 42.12 46.62 48.05 53.12 53.89 53.13 53.03 50.73 49.88 48.90 47.14 43.71 40.95 40.08 38.31 32.10 34.81 36.08 35.38 38.03 45.16 45.86 42.79 40.26 46.45 49.82 51.74 52.36 50.30 51.68 55.35 56.62
56.22 57.06 57.01 55.59 54.88 53.45 51.18 48.85 46.11 47.13 47.75 43.37 42.67 42.84 46.39 51.73 52.94 51.14 52.64 51.84 50.70 47.54 41.51 44.35 39.34 35.98 38.76 40.52 41.67 40.95 39.07 37.66 39.13 43.08 44.15 42.93 41.74 45.86 48.26 50.12 48.68 49.24 50.27 51.10 56.71
55.31 56.27 56.47 55.51 54.51 53.66 50.02 46.09 48.23 49.33 43.30 49.50 49.65 48.81 51.23 52.22 48.51 49.53 52.57 47.64 46.36 42.03 43.81 41.01 37.65 42.41 44.68 44.35 43.77 43.44 39.83 39.08 41.67 42.27 42.38 39.24 39.92 44.48 47.63 49.80 49.47 49.73 49.75 50.95 55.28
53.98 55.85 56.09 54.86 53.62 51.65 47.61 48.55 53.51 52.31 41.49 46.46 50.83 50.15 51.15 52.04 48.22 46.97 49.94 47.62 44.57 42.09 42.03 38.21 41.38 45.71 45.05 43.80 41.94 40.84 39.17 38.93 39.69 39.05 39.89 39.25 37.55 43.84 47.86 47.61 48.67 49.64 50.62 51.71 52.75
53.39 54.96 54.61 53.46 49.71 50.17 49.35 53.51 53.59 51.37 38.00 42.06 47.92 50.49 52.14 50.14 45.61 51.34 50.17 48.44 44.79 42.82 42.36 40.93 44.77 44.42 43.18 42.13 42.37 37.79 42.85 41.77 40.75 36.51 32.50 37.01 29.91 37.23 44.63 46.83 47.23 48.12 49.44 50.69 51.98
53.29 54.48 53.77 53.51 49.62 50.08 53.02 53.66 51.85 50.14 23.01 41.76 47.66 53.97 49.13 46.35 46.38 47.56 49.88 47.99 42.82 43.61 42.23 41.00 42.74 41.67 41.47 42.21 43.42 40.39 43.27 41.35 40.86 37.37 35.22 36.17 32.81 35.26 42.04 42.94 46.53 48.40 48.82 50.21 51.26
53.36 54.26 53.53 51.99 50.51 50.41 52.27 54.43 52.90 35.82 25.32 40.98 47.99 44.44 43.60 45.52 45.57 45.95 46.68 48.54 47.26 44.10 42.79 41.42 44.68 43.82 43.61 45.52 45.14 44.73 42.25 40.65 38.79 36.12 28.95 35.30 33.51 33.03 37.28 43.47 47.25 50.03 49.92 50.61 48.68
52.76 54.12 53.21 53.48 47.94 52.83 53.89 53.21 39.73 29.40 41.54 41.35 42.21 43.38 41.71 41.47 43.02 44.12 42.33 41.86 39.97 35.99 36.32 40.07 41.33 44.04 46.12 42.29 43.57 42.33 36.81 29.46 28.59 27.24 26.91 37.94 34.51 36.36 41.66 43.83 44.46 45.68 48.81 51.04 50.26
52.28 53.20 53.60 53.49 52.68 52.11 55.14 47.29 33.64 37.81 39.25 46.13 43.53 42.29 39.70 42.23 42.03 42.29 40.15 38.00 40.19 39.24 35.77 34.86 33.19 42.11 45.44 42.63 40.07 39.47 37.35 29.35 25.35 24.65 29.75 37.63 32.56 37.86 44.12 46.45 46.13 46.19 47.06 47.59 49.37
51.73 51.52 52.33 53.62 53.64 51.36 50.37 38.81 35.01 38.87 44.17 40.63 41.98 38.84 38.28 41.34 41.34 40.80 38.82 38.07 40.60 41.77 36.31 35.03 36.19 44.21 46.53 47.16 44.97 41.29 35.95 39.47 33.28 32.28 29.69 32.19 37.66 41.16 44.16 43.80 44.59 45.21 48.03 47.63 49.73
46.22 46.98 49.11 54.36 53.56 49.49 44.86 38.82 41.39 45.37 46.86 45.05 37.98 40.02 36.21 38.49 38.68 38.25 37.76 41.16 40.92 42.82 43.14 40.44 34.62 42.26 45.21 45.56 45.26 42.47 43.53 34.30 33.15 27.53 26.40 30.02 31.30 33.31 41.49 43.09 44.66 44.30 47.08 49.03 50.32
45.05 42.60 49.43 53.74 52.79 44.27 37.10 39.49 43.26 47.84 47.27 44.30 41.50 39.48 39.48 38.38 38.94 36.80 38.39 41.14 43.02 42.05 43.96 42.08 37.74 36.91 42.77 40.71 39.30 39.72 37.19 37.02 36.72 31.44 26.38 24.29 30.15 37.87 41.16 43.34 43.94 43.02 45.79 48.38 49.98
43.69 37.12 51.18 53.14 43.02 41.30 36.23 41.17 44.40 45.29 47.03 46.31 46.23 44.15 40.57 40.00 38.58 38.24 38.66 41.87 44.41 45.34 41.35 43.10 37.92 30.92 38.03 43.02 44.02 41.07 39.46 37.89 29.04 29.97 28.24 26.93 30.36 40.64 41.50 42.97 43.07 44.87 45.89 46.86 50.12
39.58 42.53 51.14 50.09 37.30 36.94 39.97 41.80 44.02 43.92 43.73 44.30 44.13 45.51 43.75 39.58 36.61 39.43 40.54 45.40 46.24 44.35 42.13 43.08 36.18 28.94 33.87 38.69 40.90 38.84 39.87 40.17 36.91 31.59 29.33 24.93 29.77 41.11 40.52 40.72 42.34 43.96 45.33 47.02 49.84
40.90 36.50 44.27 46.12 44.29 40.31 37.58 38.98 40.51 45.91 43.97 44.83 44.41 46.10 43.21 40.60 41.68 39.34 41.12 45.73 46.67 45.36 45.60 44.60 37.48 34.72 30.61 35.02 37.85 35.23 38.88 39.33 37.44 28.66 29.26 28.96 34.18 39.31 40.82 40.85 42.06 41.91 43.29 46.03 48.96
41.04 38.00 41.09 37.47 38.83 40.70 39.91 39.48 39.15 40.03 44.10 43.93 41.21 43.32 42.32 37.46 37.97 38.79 42.84 43.76 45.49 45.08 43.84 43.09 36.28 36.29 36.71 37.74 39.85 39.19 39.14 38.76 36.96 36.04 31.82 35.39 34.76 39.61 39.67 40.64 40.95 41.20 42.43 45.38 47.46
38.14 40.32 43.81 39.26 41.24 39.53 39.60 37.81 38.61 41.50 41.90 40.22 39.64 43.49 42.71 40.30 40.17 38.50 42.54 41.46 41.49 42.93 41.31 41.84 34.12 35.80 34.32 37.81 37.57 36.08 38.62 38.35 37.94 37.77 37.03 36.74 35.91 39.62 39.91 39.40 40.28 41.37 42.63 42.71 44.67
43.42 44.66 44.05 39.97 38.91 37.93 37.66 38.20 39.28 42.97 43.63 44.70 44.21 43.37 41.22 43.67 45.13 44.00 44.97 45.25 45.06 42.68 39.53 38.71 34.22 31.50 30.09 32.67 32.83 29.06 34.26 37.00 38.06 38.97 38.67 33.69 38.35 39.49 39.08 40.52 39.47 40.44 42.20 42.91 44.23

GFSSW_sfc_wetblb_030.txt.gz
Wetbulb
59.43 59.61 59.43 59.08 58.44 57.64 57.40 57.05 56.38 55.76 55.25 55.44 55.43 55.91 56.21 56.20 54.43 49.65 45.52 50.89 51.69 57.77 57.88 49.37 47.93 47.04 45.86 43.28 42.90 39.87 34.49 31.00 33.46 36.98 42.07 49.36 48.08 51.11 54.44 53.83 55.92 57.70 56.99 59.57 60.63
59.93 59.94 59.77 59.29 58.10 57.63 57.30 57.00 56.33 56.10 55.79 54.97 55.38 56.04 56.16 55.82 50.11 47.20 54.23 57.53 58.61 59.33 48.98 46.34 44.60 44.32 41.24 40.31 41.36 38.63 33.95 35.83 40.42 41.42 45.32 47.99 48.16 50.35 50.47 51.98 54.20 56.47 59.92 61.07 59.67
60.22 59.73 59.63 59.00 58.17 57.75 57.46 56.51 55.98 55.96 55.88 55.40 55.11 56.29 55.85 53.49 46.50 50.25 60.76 59.24 59.87 58.57 48.84 48.98 47.73 44.84 39.58 39.81 40.07 37.09 36.89 40.26 42.92 48.04 48.10 46.51 47.73 50.72 50.08 47.57 53.83 53.99 57.74 58.32 58.87
59.69 59.33 59.04 58.74 58.39 57.97 57.12 56.04 55.96 55.77 55.41 55.13 55.42 55.77 55.45 49.87 40.50 48.28 62.84 61.15 60.79 55.61 49.11 46.32 44.90 41.53 39.23 38.01 41.11 37.44 41.56 43.18 45.09 50.14 48.30 47.64 48.71 48.31 48.96 50.58 56.50 57.84 58.51 57.10 57.19
59.07 58.70 58.60 58.65 58.43 57.53 56.69 56.00 55.80 55.34 55.16 55.00 55.47 55.42 50.27 43.18 43.56 56.78 62.15 61.36 56.12 51.54 47.72 45.96 45.13 43.48 39.87 40.42 40.45 39.61 41.50 44.32 49.00 50.27 50.12 50.75 48.58 49.21 52.24 54.97 57.14 57.45 56.88 57.01 57.66
57.86 58.56 58.24 58.13 57.69 57.20 56.49 55.78 55.21 55.05 54.75 54.83 55.16 54.50 47.21 38.19 52.16 56.93 56.17 52.33 51.19 48.66 46.61 46.49 46.80 47.00 44.04 42.42 40.30 43.18 43.83 46.32 48.81 49.79 50.29 48.41 48.54 49.77 53.65 56.12 55.84 56.23 55.66 56.18 56.31
57.19 57.98 58.04 57.72 57.38 56.73 56.29 55.56 54.83 54.65 54.67 54.75 54.51 51.15 46.17 42.41 53.34 52.38 53.81 50.83 50.55 49.17 47.18 49.22 49.42 45.58 45.05 42.88 46.12 45.80 44.44 47.22 47.14 47.81 47.44 50.10 45.37 47.08 54.86 56.05 54.53 54.81 53.93 55.08 56.26
56.35 57.15 57.38 57.22 56.75 56.00 55.38 54.89 54.54 54.77 54.79 54.55 53.79 49.03 44.09 51.41 52.18 53.54 51.60 50.96 50.03 49.77 48.50 48.98 49.28 46.55 44.38 45.56 43.90 39.82 41.72 37.46 46.74 48.27 48.18 46.00 39.07 47.78 55.53 54.97 53.59 54.30 54.54 54.65 55.60
55.22 55.44 56.18 56.46 55.74 55.07 54.79 54.48 54.32 54.83 54.73 54.34 47.87 48.17 42.47 52.94 50.00 53.61 53.14 50.75 49.77 49.01 48.95 51.77 47.92 43.73 43.64 39.53 36.75 37.35 32.64 36.32 41.99 49.11 47.11 43.62 39.61 47.69 53.14 54.32 53.79 54.03 54.07 54.32 54.95
54.75 55.01 55.48 56.22 55.62 54.46 53.67 53.81 53.73 52.56 52.51 52.49 50.44 42.12 44.10 45.51 50.87 52.41 52.36 51.83 49.69 48.62 47.47 45.77 42.48 39.69 38.59 36.93 31.65 33.78 34.45 34.02 36.70 44.96 44.92 40.56 40.23 45.60 49.88 51.13 52.63 53.65 54.63 55.18 55.05
54.83 55.15 55.54 55.84 55.56 53.91 51.03 47.70 43.75 45.20 47.16 44.16 42.13 41.08 43.55 50.18 52.70 49.84 51.76 51.08 49.10 46.82 40.23 42.73 38.56 35.15 37.63 40.10 40.10 39.76 37.45 35.67 38.04 42.39 44.20 43.14 41.18 44.87 47.52 49.51 50.47 51.68 53.27 54.89 55.95
54.52 54.20 54.89 55.74 55.40 53.49 49.21 44.64 47.04 47.94 43.34 48.00 48.22 46.90 48.92 51.88 48.45 49.68 51.80 46.87 45.26 40.82 42.28 40.13 36.52 41.39 42.56 42.13 41.76 40.68 38.10 37.65 40.22 41.05 42.43 38.53 39.34 43.15 46.60 48.91 51.14 50.28 51.30 52.90 54.32
53.38 53.23 53.62 55.36 53.66 51.47 46.70 47.36 52.75 51.44 42.66 45.16 48.85 48.46 49.38 51.30 47.54 47.60 48.69 46.14 43.36 40.96 40.56 37.39 39.73 44.07 43.68 41.91 40.72 39.13 37.77 37.91 38.53 38.05 37.61 37.20 36.19 41.72 46.13 47.25 49.06 50.07 51.18 52.19 51.96
52.49 52.62 52.44 53.86 50.39 48.38 46.18 51.87 53.26 51.64 36.93 40.49 46.12 48.91 50.25 50.79 45.47 50.37 49.27 47.44 43.43 41.32 41.27 39.76 43.23 43.04 41.60 40.38 41.34 36.13 41.38 39.75 39.22 35.20 31.08 35.62 29.55 34.92 42.68 45.64 46.64 47.62 47.88 49.69 51.05
52.31 52.52 52.59 53.66 48.19 47.81 51.29 52.16 51.32 48.68 22.35 41.74 46.08 53.13 49.97 45.89 45.53 46.54 48.96 46.69 42.02 42.29 41.40 39.56 40.39 40.48 39.64 40.62 42.52 39.99 41.97 39.75 39.44 35.94 34.29 35.07 32.19 34.20 40.48 42.93 46.47 48.65 47.47 48.95 50.31
51.48 52.16 52.89 52.65 51.33 49.51 52.44 52.92 51.69 36.80 23.75 38.05 46.12 44.54 43.01 44.04 44.11 44.25 45.20 47.28 45.58 42.66 40.97 40.32 43.12 42.05 41.69 43.61 43.48 43.63 40.35 38.56 37.34 34.87 28.65 33.91 32.16 32.11 35.66 43.14 47.91 50.01 49.84 49.29 49.10
51.42 52.09 52.69 53.85 49.29 51.07 53.32 50.88 40.16 29.88 39.98 38.11 42.33 42.31 40.81 40.01 41.87 42.21 41.10 40.56 38.24 34.83 34.83 38.21 40.15 42.25 44.32 40.01 42.04 40.05 35.42 28.59 28.01 27.37 27.12 36.13 33.24 35.54 40.51 41.15 44.14 46.67 48.11 49.02 49.85
51.01 51.12 52.04 53.32 53.13 50.37 53.21 45.53 32.18 36.58 37.38 43.88 42.79 40.56 38.07 40.29 40.46 40.94 39.02 37.07 38.40 38.09 34.45 33.85 31.58 41.01 43.86 41.29 38.69 37.33 36.57 28.61 24.57 23.68 28.19 35.52 30.80 36.62 42.35 44.30 44.93 44.71 44.47 46.23 47.90
50.45 47.57 48.61 51.55 53.52 51.78 47.75 35.64 33.58 37.60 42.57 40.80 40.62 37.01 36.56 39.89 39.54 39.29 37.83 36.98 39.47 40.42 35.46 32.86 34.05 42.27 44.08 44.27 41.84 38.19 34.31 37.86 31.63 30.76 28.50 30.94 35.78 39.81 41.04 43.17 44.43 44.64 44.90 43.71 46.58
45.76 45.39 43.95 53.38 53.79 50.22 42.66 36.56 40.04 43.09 46.30 44.93 36.46 38.89 34.46 36.79 37.42 37.94 36.32 39.75 39.54 42.11 42.06 39.70 33.00 40.69 43.07 43.93 43.08 39.98 41.67 33.52 31.68 27.31 25.62 28.57 29.67 31.88 38.32 41.49 43.54 44.08 45.55 45.86 46.88
45.17 39.98 43.55 53.38 52.75 45.41 35.73 37.03 41.01 46.45 47.08 43.50 41.43 38.82 38.12 37.13 37.64 35.61 37.34 39.58 41.77 40.19 41.66 39.55 36.34 35.06 41.10 39.15 37.61 37.64 35.78 35.30 35.33 30.53 26.28 23.23 29.02 37.27 38.74 40.95 41.24 43.04 44.74 45.61 48.30
42.78 33.89 48.50 52.25 41.59 41.20 37.70 38.89 43.01 44.73 47.07 44.86 44.73 43.32 40.76 38.57 36.89 36.54 37.22 40.45 42.98 43.28 39.34 41.43 36.28 29.00 36.57 40.88 41.91 39.30 37.94 36.38 29.07 29.23 27.57 26.15 28.58 40.00 39.32 40.02 41.05 41.71 43.81 44.52 47.99
37.92 39.36 49.52 47.91 34.14 36.30 40.04 40.89 41.91 42.81 43.84 43.17 42.50 44.35 42.91 38.46 35.16 38.10 38.76 42.71 43.93 42.55 40.44 41.61 34.38 28.00 32.28 36.42 38.70 37.69 38.44 37.98 34.85 30.71 28.40 24.00 29.55 39.93 39.66 40.25 41.51 41.75 42.80 44.83 46.80
38.95 32.66 41.68 44.04 42.30 37.86 37.16 38.11 37.32 44.84 43.44 44.24 42.81 44.15 41.76 39.73 39.68 37.10 38.34 43.87 44.17 43.38 45.00 44.20 36.41 33.38 30.71 33.11 36.37 34.63 37.45 37.63 36.12 28.15 29.28 28.74 33.44 38.10 39.91 39.56 40.57 41.08 39.99 41.55 46.14
39.50 34.89 40.72 35.73 36.54 37.98 38.86 38.58 36.96 37.57 43.66 43.98 40.46 42.03 40.69 36.91 36.63 37.21 40.49 42.06 43.21 44.48 42.13 41.08 34.48 34.34 35.44 37.07 37.82 37.55 37.80 36.63 35.50 34.78 31.49 34.28 33.16 38.29 39.58 39.76 40.50 40.19 40.05 41.95 45.21
35.77 36.64 41.96 40.08 38.45 37.81 39.20 37.44 37.15 39.11 41.20 39.81 39.22 41.28 41.76 39.23 39.25 36.51 40.88 40.12 40.08 41.49 39.98 39.71 34.74 34.02 33.47 36.36 36.68 35.14 37.02 36.56 36.25 35.77 35.02 35.21 34.77 39.82 38.76 38.19 39.23 39.03 41.68 42.49 44.41
40.42 40.67 41.48 38.57 37.73 35.67 36.06 37.73 38.16 41.39 42.58 43.60 42.28 40.86 38.68 42.14 45.21 43.32 43.54 43.28 42.30 40.91 38.61 37.24 33.34 31.14 30.39 32.22 33.04 29.40 33.69 36.31 35.93 36.99 37.29 32.81 37.52 38.68 37.14 38.64 37.82 38.78 41.58 41.55 40.91

GFSSW_sfc_wetblb_033.txt.gz
Wetbulb
60.06 59.83 59.75 59.41 58.87 58.19 57.82 57.67 56.96 56.31 56.24 56.07 55.43 55.46 56.01 56.56 54.75 50.64 48.68 53.89 54.34 57.54 58.04 52.91 51.93 51.26 50.57 49.56 48.47 46.20 43.53 39.73 40.18 40.49 45.18 52.39 51.33 53.49 56.83 55.67 56.88 57.71 58.35 59.03 59.86
60.57 60.66 60.40 59.65 58.65 58.00 57.61 57.50 56.76 56.56 56.31 56.03 55.62 55.51 56.29 56.05 50.96 48.61 56.58 57.43 58.95 59.61 51.54 50.56 47.99 48.66 47.50 47.15 48.00 46.69 42.08 41.38 44.22 44.53 48.70 51.18 51.68 52.38 53.68 54.32 54.26 56.71 58.91 59.23 59.33
61.02 60.54 60.21 59.56 58.79 58.15 57.49 57.02 56.41 56.42 56.12 55.76 55.62 56.11 55.87 54.53 48.19 52.63 60.44 58.99 59.63 59.20 51.31 52.17 49.84 48.18 45.37 46.41 46.08 44.07 43.18 44.54 45.40 46.32 52.36 50.85 51.29 53.70 52.75 50.83 54.71 54.72 56.57 57.73 57.66
58.82 60.01 59.96 59.56 59.01 58.24 57.31 56.37 56.39 56.12 55.88 55.74 55.70 55.81 55.79 51.23 44.53 51.97 62.77 60.66 60.85 56.78 51.40 49.99 48.94 46.71 44.80 44.05 46.23 43.10 45.22 45.76 47.79 52.55 51.51 50.34 52.35 51.02 52.11 53.57 57.28 59.09 58.79 58.17 56.93
56.99 57.67 59.11 59.76 58.98 58.02 57.08 56.31 56.17 55.91 55.51 55.41 55.68 55.73 51.80 45.99 44.19 59.11 62.25 60.99 57.72 53.56 49.79 48.72 48.48 47.52 45.07 45.07 44.88 43.66 45.40 46.29 46.87 51.99 51.87 52.60 50.46 51.48 53.01 56.79 59.07 58.57 57.43 57.35 57.64
55.65 56.67 57.54 58.89 58.62 57.95 57.00 56.29 55.62 55.36 55.34 55.18 55.41 54.63 48.69 41.41 55.23 58.70 57.31 54.53 54.12 51.88 49.90 50.54 50.22 50.26 47.51 46.46 44.51 46.02 46.22 49.57 50.98 51.88 52.20 51.78 52.10 52.45 53.85 56.96 56.32 57.07 57.08 57.80 57.83
54.98 55.63 56.47 57.63 58.18 57.79 57.02 56.17 55.44 55.20 55.16 55.04 54.98 51.55 47.22 44.81 54.72 56.89 54.83 53.13 52.89 51.51 49.05 50.65 52.28 49.68 48.97 46.56 48.44 48.39 47.32 49.20 50.24 51.11 50.33 51.56 48.03 50.34 55.18 56.44 55.45 56.07 55.63 56.53 57.64
55.11 54.84 55.06 55.46 56.34 56.98 56.21 55.56 55.08 55.16 55.20 55.14 54.06 49.95 44.71 52.51 53.98 54.14 54.34 53.69 52.88 52.69 51.42 51.91 52.60 50.09 48.44 49.16 46.56 44.65 45.10 42.05 47.97 49.91 49.85 48.75 43.56 51.72 55.65 54.39 53.62 54.85 54.44 55.17 56.24
54.65 54.40 54.30 54.45 55.14 55.88 55.56 54.95 54.77 54.91 54.91 54.47 49.82 48.95 43.43 53.28 50.07 53.78 54.48 52.74 50.89 50.88 51.41 52.00 51.59 47.99 47.83 44.31 42.61 42.55 39.27 40.41 45.12 50.93 49.09 47.84 44.34 51.57 55.32 54.35 52.67 53.88 54.22 55.29 56.19
54.16 54.55 54.43 54.61 54.75 55.23 54.09 53.96 53.89 53.07 53.11 52.73 50.64 43.99 45.56 46.96 52.11 54.63 54.37 53.18 51.41 50.55 49.82 49.37 47.17 45.45 44.47 43.57 37.78 39.28 39.97 41.69 42.19 47.89 48.58 46.08 44.85 50.71 54.17 53.89 53.31 54.01 55.18 55.25 55.72
53.86 54.16 54.41 54.06 55.12 54.66 52.25 49.91 45.45 45.76 48.59 46.43 45.45 42.87 43.76 50.64 54.04 51.47 53.78 52.77 52.00 50.06 45.45 46.67 44.27 41.21 42.69 43.40 43.85 43.39 41.62 40.78 43.41 45.14 47.16 46.59 45.56 47.60 52.73 53.73 53.90 54.56 55.41 56.01 56.46
53.23 53.26 53.46 53.34 55.04 53.95 51.35 46.72 47.25 49.41 43.81 48.92 48.49 47.17 48.62 52.59 48.75 51.48 54.23 49.57 48.66 45.00 45.81 44.36 41.76 44.67 44.24 44.36 43.77 43.38 41.66 41.25 43.17 43.63 45.48 43.41 44.10 47.17 50.26 52.36 53.25 54.26 55.04 55.99 57.75
52.84 52.80 52.68 52.20 54.25 52.72 49.61 48.57 52.84 53.06 44.71 46.18 48.59 48.06 49.25 51.23 47.80 48.73 51.69 48.56 46.37 43.65 43.75 42.10 43.89 45.34 44.44 43.52 42.59 42.94 41.93 41.23 41.31 41.71 42.90 42.75 41.83 44.96 48.65 51.26 52.80 53.89 55.68 56.39 57.13
51.70 52.57 51.84 52.50 51.26 50.69 48.28 52.30 53.48 53.08 37.36 39.61 44.12 48.38 50.30 51.44 46.58 52.13 51.38 50.02 46.51 44.08 43.64 43.88 45.91 44.33 44.20 43.04 43.89 40.82 44.31 42.60 41.30 39.90 36.89 41.80 36.86 40.09 46.35 48.38 50.07 52.73 53.65 55.03 56.15
51.53 51.82 51.71 52.79 49.64 47.96 51.20 52.96 52.64 49.97 26.21 41.94 46.06 53.41 50.80 47.19 47.17 47.29 50.42 49.43 44.93 44.12 44.79 43.25 43.39 43.50 43.09 43.75 44.95 43.16 45.06 43.60 42.65 39.91 40.15 39.97 38.16 41.36 44.40 45.66 49.26 51.84 53.07 54.63 55.85
51.26 51.32 51.54 51.31 51.59 51.19 52.52 54.41 52.39 36.97 26.35 38.02 46.29 45.27 45.06 45.56 45.98 46.47 47.84 49.97 48.50 45.25 44.57 44.32 46.54 46.00 45.73 45.91 45.60 45.84 43.89 41.35 40.92 40.03 35.35 38.34 38.64 40.33 42.16 46.16 49.20 52.67 54.11 54.37 54.88
51.19 51.09 50.40 52.34 48.56 53.26 54.07 51.03 38.86 31.47 40.73 38.13 42.04 43.39 43.19 41.63 42.96 43.95 43.87 43.11 41.97 38.73 38.81 42.04 43.43 45.82 47.42 44.45 45.65 44.22 41.13 36.09 33.71 34.11 33.34 39.57 37.61 41.82 44.99 45.96 47.89 50.29 53.12 54.84 55.74
50.71 50.39 50.24 50.56 54.84 52.56 53.07 43.73 30.94 36.38 37.86 43.20 43.12 41.90 40.52 41.58 42.27 42.35 41.89 40.43 42.35 41.52 37.94 37.70 35.92 43.63 46.46 45.24 43.38 42.48 41.66 36.24 28.66 29.63 33.79 38.48 35.77 41.50 46.85 48.15 48.21 48.74 49.14 50.91 54.07
50.15 48.07 47.76 49.48 51.91 52.15 47.55 35.43 34.40 38.30 41.72 40.55 41.94 38.81 38.00 40.64 41.46 41.66 40.93 41.35 42.50 43.09 39.42 36.48 37.05 44.92 46.39 47.09 45.74 41.89 39.53 41.73 35.87 34.46 34.15 36.53 40.01 44.60 44.94 46.56 48.52 48.84 49.10 49.86 50.40
45.98 44.39 43.56 50.15 52.25 49.63 41.99 35.61 38.80 43.30 45.06 45.18 36.43 40.07 36.52 38.24 39.13 40.21 39.03 41.89 41.72 43.84 46.23 42.45 37.10 43.18 45.37 47.28 46.14 44.16 44.77 38.30 37.49 30.71 28.89 34.08 35.22 38.99 42.95 44.61 46.94 48.87 49.99 51.02 51.55
44.18 38.69 44.64 50.23 50.75 44.13 34.14 36.46 40.15 44.80 46.22 43.69 42.29 40.19 39.28 38.17 39.43 38.21 39.35 41.84 43.54 42.15 44.65 43.09 41.34 38.98 44.13 42.85 41.89 41.41 40.75 39.29 39.98 36.88 32.82 30.39 35.18 43.37 44.33 45.28 47.20 47.62 48.35 50.41 51.79
41.68 32.86 45.67 48.33 37.21 39.67 35.94 39.01 42.14 42.62 46.87 45.48 45.52 44.17 42.58 40.12 38.22 38.67 38.88 42.55 44.19 44.41 41.84 44.62 41.19 35.72 39.57 43.45 44.88 43.45 42.43 41.43 36.99 33.72 33.55 32.97 35.60 45.19 45.56 44.66 45.44 47.59 47.05 49.14 51.00
36.19 38.52 46.01 45.31 31.62 34.12 38.59 39.12 41.64 41.71 42.54 43.80 43.02 44.93 45.75 41.54 37.06 39.59 40.26 44.14 43.91 43.98 43.11 43.87 38.70 34.27 36.55 40.15 42.92 42.20 42.03 40.62 38.64 37.04 33.43 34.50 37.06 43.85 44.35 45.35 46.00 45.72 46.93 47.99 50.42
38.28 31.88 39.67 41.02 40.26 37.06 36.74 36.05 36.93 43.00 42.40 44.79 43.96 45.07 43.71 41.67 42.54 39.64 39.94 44.13 44.48 44.85 44.64 45.66 39.59 37.97 34.28 37.83 40.63 38.70 39.88 40.59 40.87 35.42 36.51 35.85 39.83 43.84 45.70 45.08 47.02 47.01 46.81 46.69 47.68
38.67 34.95 38.45 31.99 34.29 37.33 38.20 36.90 36.02 37.00 42.17 44.28 42.01 42.65 41.91 38.17 39.47 38.15 41.97 44.28 44.97 45.01 44.67 45.21 38.51 38.22 38.84 39.36 40.41 40.54 40.43 39.58 39.19 40.06 38.11 40.19 37.67 42.80 45.39 46.01 46.23 45.04 45.24 46.28 48.07
35.37 36.21 38.26 37.55 36.91 35.30 36.90 36.25 36.01 38.12 39.77 39.63 39.63 42.01 42.45 40.51 41.36 39.23 43.11 42.80 42.64 43.53 43.01 42.85 38.76 37.79 37.00 39.05 39.01 38.34 40.31 40.37 39.93 39.14 39.24 39.26 39.08 45.02 45.31 44.65 44.23 43.79 46.02 46.58 46.53
41.35 40.68 38.87 36.87 36.37 34.09 32.85 36.38 37.35 40.60 41.48 43.15 43.18 41.39 40.58 42.59 46.26 46.01 46.31 46.46 45.70 44.21 41.12 40.67 37.50 35.94 34.00 35.87 37.97 33.85 37.69 39.59 40.39 41.02 41.79 38.10 44.04 44.05 43.17 43.23 43.16 44.70 45.04 43.64 42.99

GFSSW_sfc_wetblb_036.txt.gz
Wetbulb
60.83 60.53 60.42 60.00 59.40 58.85 58.43 58.06 57.66 57.28 56.94 56.99 56.94 56.68 56.39 56.57 55.29 55.38 54.27 57.27 57.70 57.84 57.63 56.47 55.56 54.78 54.72 52.62 53.46 52.48 46.36 46.23 45.15 46.27 48.27 54.45 54.08 57.03 59.12 57.99 58.92 59.70 61.13 60.71 60.11
59.19 60.47 60.96 60.51 59.37 58.74 58.22 57.79 57.28 57.18 57.17 56.87 56.84 56.59 56.75 56.45 55.04 53.79 57.81 58.28 59.52 60.26 55.54 52.72 51.58 52.78 51.83 51.66 52.86 50.12 46.97 44.68 48.28 48.76 48.65 53.49 55.15 55.68 56.08 57.01 56.44 56.77 59.31 60.13 59.66
57.86 58.35 59.28 60.47 59.62 58.92 58.16 57.51 57.00 57.12 57.15 56.70 56.58 56.79 56.24 56.11 53.06 56.19 59.64 59.00 59.86 59.56 54.72 54.82 52.79 51.84 49.72 51.52 50.78 50.10 47.00 48.81 49.15 49.75 50.99 53.41 54.49 56.55 54.53 54.11 57.05 54.53 56.49 58.41 58.78
56.49 56.97 57.68 58.74 59.96 59.28 58.11 57.04 57.00 57.10 56.88 56.43 56.22 56.51 56.16 55.49 45.27 57.92 62.84 60.60 60.74 58.96 54.99 52.83 51.58 49.85 48.83 47.95 50.59 46.97 49.76 49.99 50.26 52.42 53.12 53.32 55.78 54.75 55.44 56.22 59.49 58.29 58.05 57.88 57.67
55.40 55.84 56.36 57.53 58.85 59.13 58.05 57.07 56.90 56.65 56.36 55.88 56.16 56.18 55.45 50.43 48.94 61.01 63.10 60.81 59.45 56.18 53.96 53.21 51.83 51.18 48.26 49.26 49.77 48.09 49.63 50.48 51.90 51.68 54.90 55.04 53.60 54.18 55.62 59.75 59.91 58.78 57.86 57.27 57.77
55.14 55.24 55.91 56.76 57.58 58.30 58.02 57.21 56.57 56.21 56.01 55.73 55.70 55.20 52.49 45.98 56.70 61.30 60.11 58.59 57.27 55.51 53.71 53.94 53.00 53.32 51.10 50.02 49.08 50.05 50.58 52.93 52.53 54.21 55.24 53.74 54.15 55.29 56.81 59.65 57.18 58.29 56.71 57.32 57.84
54.88 54.98 55.04 55.53 55.91 56.79 57.44 57.16 56.26 55.84 56.06 55.73 55.44 54.17 50.39 49.57 57.36 60.88 58.24 56.66 56.92 55.50 52.94 53.89 54.99 53.20 52.57 49.76 51.63 50.70 50.11 51.74 53.03 53.98 53.38 55.09 51.54 53.37 57.46 58.44 57.24 57.78 57.84 57.75 58.25
54.85 54.55 54.44 54.26 54.52 55.09 55.92 56.34 55.90 55.76 55.82 55.48 54.66 53.39 49.08 54.70 57.57 58.01 58.50 56.61 56.77 56.64 54.92 55.09 55.19 53.71 52.17 52.84 50.72 48.29 49.85 44.49 50.39 52.78 53.40 53.80 47.74 54.86 57.10 56.10 55.34 55.42 56.44 56.69 57.50
53.94 54.01 54.06 53.91 54.26 54.47 55.11 55.74 55.46 55.14 54.83 54.49 53.20 52.07 48.14 55.07 52.78 55.79 58.66 55.73 56.18 55.24 55.21 53.99 54.42 52.54 51.86 48.15 46.64 47.58 43.61 44.13 47.64 52.87 52.39 52.51 48.36 55.41 57.49 55.16 53.67 54.87 54.70 55.57 56.85
52.77 52.97 53.47 54.06 53.79 54.45 54.64 54.43 55.20 53.73 54.76 55.04 53.56 48.43 50.91 47.52 52.73 56.70 57.47 56.60 54.33 53.36 52.09 52.46 52.70 49.63 48.87 46.61 41.26 42.63 43.61 45.75 46.56 51.54 51.97 50.08 49.41 54.81 56.57 55.15 54.41 55.68 55.01 55.83 57.00
52.96 52.52 52.64 53.56 53.44 54.47 55.46 57.53 53.29 50.87 52.39 51.06 50.12 49.30 47.19 52.88 56.95 55.37 57.29 54.82 55.35 53.73 49.37 51.67 47.70 44.96 46.19 47.40 47.51 46.53 44.96 44.03 46.99 49.89 49.47 48.54 49.09 52.73 55.43 55.49 55.12 55.86 56.92 56.41 57.12
53.08 52.40 52.45 53.13 52.51 54.35 56.46 53.21 52.18 52.93 46.95 52.68 51.95 52.17 53.49 52.52 50.08 54.12 57.61 52.60 51.85 48.39 50.68 48.36 45.23 48.11 48.07 48.21 47.46 46.83 44.57 44.48 46.99 47.49 47.92 47.59 47.45 51.33 55.23 56.01 56.79 56.90 57.53 58.52 58.98
52.62 52.29 52.32 52.26 52.95 54.00 55.38 54.72 57.10 56.16 48.73 49.62 52.62 50.99 51.45 53.05 49.44 51.41 54.77 53.39 50.50 48.58 48.73 46.64 47.39 49.39 48.02 47.80 46.27 46.73 45.11 44.68 44.70 46.45 47.61 46.61 45.48 48.58 52.81 55.81 57.15 57.86 58.79 59.21 59.54
52.32 51.88 51.86 51.68 50.84 54.81 52.68 56.33 57.30 56.12 43.37 43.16 46.25 50.30 51.65 52.52 48.76 54.10 55.03 53.07 50.26 47.94 48.90 48.36 49.99 47.88 47.63 46.43 47.74 43.88 48.10 46.39 45.51 44.14 41.15 46.19 40.31 46.16 50.24 51.68 54.05 56.15 57.27 58.70 59.58
52.07 51.74 51.34 51.49 49.94 51.93 54.38 57.38 56.66 54.67 29.80 44.32 47.35 54.94 52.81 49.00 49.18 50.19 55.32 52.79 48.55 47.98 48.67 46.23 47.59 47.05 46.51 46.96 48.85 45.69 48.43 46.99 46.35 44.98 43.79 43.80 41.55 44.72 47.85 48.82 51.68 54.98 57.05 58.49 59.87
51.94 51.70 51.19 51.23 51.11 54.34 56.55 57.65 55.30 41.89 29.81 40.87 48.37 47.31 46.97 48.75 48.44 50.34 51.00 53.09 52.89 49.22 49.57 48.26 50.39 49.81 48.67 49.18 49.59 49.73 47.85 46.61 46.87 45.19 38.80 42.49 42.21 43.56 46.15 47.57 49.80 53.89 56.75 58.39 59.51
51.34 51.47 50.62 51.20 47.94 56.23 57.22 54.15 41.06 33.93 42.38 40.17 44.00 46.96 45.94 45.00 45.90 47.39 47.19 46.53 45.06 42.31 43.27 46.69 47.21 49.49 49.92 47.42 49.28 48.49 45.77 39.47 37.42 37.67 36.77 43.54 41.74 44.57 48.11 49.62 51.00 52.19 54.41 57.99 59.85
50.41 50.70 50.36 49.95 52.37 53.12 52.80 45.52 32.35 37.85 39.72 44.98 45.56 46.18 43.09 44.98 45.24 46.15 45.64 44.47 47.94 46.80 44.13 41.36 39.47 46.49 49.66 48.14 45.96 46.49 45.98 40.21 31.66 33.54 38.20 42.80 38.77 45.23 49.67 51.78 53.01 54.09 54.60 55.49 58.37
50.39 48.20 49.92 49.74 52.02 50.70 46.17 34.71 34.54 38.68 43.44 42.28 43.58 42.20 42.78 43.78 44.44 45.06 44.88 44.27 46.95 48.09 42.75 41.73 41.39 47.74 48.96 49.80 49.23 45.73 43.01 47.05 40.77 41.04 38.82 41.54 44.03 48.30 49.16 49.94 51.54 52.53 53.69 54.85 55.93
47.54 44.57 45.91 51.91 52.65 46.97 39.45 36.11 39.48 43.46 45.60 45.48 39.64 42.77 41.19 42.40 41.51 43.34 43.07 46.46 46.21 48.83 50.13 45.77 40.44 46.63 48.46 50.36 49.54 47.84 49.11 41.54 43.45 33.87 32.18 38.73 40.08 42.42 45.64 46.88 49.33 50.41 51.87 54.49 56.35
45.99 38.13 45.56 51.93 51.51 40.70 33.24 38.25 41.21 45.24 47.43 44.91 43.61 41.85 43.23 43.02 42.99 42.46 42.63 44.52 48.52 47.76 49.63 47.77 44.93 43.76 47.41 46.04 45.42 45.65 44.53 44.94 44.74 42.49 35.76 34.10 39.46 47.64 47.37 48.32 49.26 51.17 52.38 54.09 55.44
43.01 33.24 48.50 49.34 37.04 37.69 34.87 40.84 43.25 43.40 47.86 47.03 47.82 46.39 43.50 43.86 43.38 42.55 42.17 44.83 49.27 49.74 45.35 48.46 45.69 41.07 43.32 47.67 49.07 48.49 45.97 46.34 40.68 38.41 40.84 39.74 39.40 49.59 50.51 50.70 50.74 51.62 51.30 53.52 55.44
38.21 38.46 48.25 45.76 31.42 34.24 39.52 40.08 43.20 42.41 43.40 45.72 45.27 48.09 48.78 45.35 41.40 43.74 43.97 49.03 49.49 48.65 47.16 48.04 43.81 38.49 40.37 43.60 46.63 44.88 46.34 46.55 45.48 43.73 40.23 38.37 40.39 49.74 50.18 50.53 51.68 51.62 52.25 52.14 54.05
38.17 32.25 39.25 41.29 42.02 38.03 37.93 37.65 37.22 44.07 43.86 46.29 46.25 48.12 47.03 45.55 45.78 42.60 42.92 45.67 48.38 49.22 47.16 48.52 45.27 41.93 37.72 41.16 44.81 42.80 44.57 45.89 44.91 40.79 40.99 41.71 43.19 47.27 49.32 49.78 51.60 52.34 52.70 52.61 52.30
38.97 35.95 38.96 31.41 35.73 38.59 40.68 38.77 35.85 36.84 43.21 46.01 44.76 45.83 45.42 41.97 43.27 42.64 42.82 45.24 45.76 45.90 48.25 48.88 42.17 44.05 44.11 44.63 44.46 43.88 43.67 44.68 43.34 44.25 41.54 43.74 44.24 47.03 48.89 50.49 51.24 51.25 50.47 51.01 51.23
36.14 38.30 41.12 39.40 38.61 36.71 37.36 38.39 38.00 38.33 41.29 40.64 42.33 45.22 46.07 42.97 44.10 41.60 44.48 45.19 44.79 46.84 47.30 48.47 42.41 44.40 41.88 44.43 43.90 42.25 44.21 44.77 45.26 45.24 45.30 45.63 45.00 49.97 51.32 51.78 50.96 50.06 50.09 51.13 52.15
44.14 44.82 42.63 38.22 37.78 36.12 35.00 38.35 38.92 40.91 42.62 43.95 44.16 44.17 43.26 44.63 47.62 47.62 47.46 47.10 47.39 47.35 46.11 45.73 44.85 41.63 38.20 42.54 41.84 37.71 42.95 44.46 45.46 46.82 46.55 43.03 47.27 50.18 49.58 49.87 50.66 50.09 50.87 50.74 51.08

GFSSW_sfc_wetblb_039.txt.gz
Wetbulb
59.29 59.72 60.88 60.87 60.33 59.63 59.31 58.65 58.03 57.87 57.68 57.70 57.46 57.42 57.36 57.17 55.94 58.56 56.60 58.20 59.37 59.49 57.90 57.16 57.00 56.59 55.88 54.26 54.56 53.56 47.51 44.91 45.97 46.59 48.08 54.68 54.76 59.23 60.35 58.76 60.72 62.41 62.61 62.13 61.03
57.77 58.47 59.04 59.85 60.11 59.62 59.22 58.68 57.95 57.71 57.59 57.55 57.25 57.15 57.21 56.58 56.47 55.65 58.73 59.33 59.25 59.94 57.76 54.46 53.28 54.63 52.67 53.00 53.24 50.67 47.77 46.23 50.04 50.50 49.98 52.47 55.19 57.12 56.63 57.84 58.32 57.39 59.69 60.59 60.55
56.21 56.65 57.24 57.92 59.13 59.59 59.44 58.54 57.76 57.95 57.67 57.37 57.07 57.05 56.62 56.19 55.30 56.00 59.55 59.90 60.31 60.59 57.97 55.19 53.76 53.14 51.31 52.39 51.87 51.32 47.97 49.83 50.20 51.98 52.69 52.65 54.87 57.57 55.92 54.35 57.04 57.14 56.97 58.66 59.11
55.24 54.98 54.89 55.88 57.96 58.86 58.97 58.11 58.08 57.96 57.75 57.33 57.00 56.96 56.55 57.52 46.97 60.94 61.55 60.41 60.73 59.98 55.38 53.78 52.51 50.91 50.58 49.40 51.87 48.37 50.79 50.94 51.50 51.97 52.85 53.76 56.73 55.51 57.21 57.99 61.62 60.13 59.45 59.20 58.47
55.37 54.96 54.81 54.88 55.84 57.78 57.87 58.08 57.99 57.75 57.38 57.09 56.72 56.74 57.15 53.41 53.17 63.39 63.32 60.87 58.69 57.90 54.51 52.47 51.76 52.31 49.80 50.11 51.02 49.65 50.80 52.15 53.50 53.23 54.31 56.29 54.76 55.08 56.77 59.77 60.42 59.21 58.25 57.49 57.92
55.01 55.09 55.23 54.71 55.05 56.12 56.65 57.21 57.30 57.47 57.05 56.82 56.66 55.56 55.50 49.13 56.96 61.88 61.32 58.21 58.04 56.50 55.66 55.63 54.50 54.64 52.63 51.03 50.55 51.68 51.57 52.95 53.40 54.33 55.96 54.48 54.96 56.84 58.19 60.06 58.85 58.31 57.85 57.11 57.28
54.04 54.76 54.73 54.97 54.82 55.12 55.46 55.96 56.42 56.80 56.81 56.60 56.31 56.49 52.51 52.00 57.54 61.20 60.04 58.15 58.20 57.18 55.16 56.34 56.57 54.37 54.17 50.87 53.13 51.93 49.95 52.17 52.88 54.25 54.15 55.95 49.33 54.22 58.36 59.16 58.20 56.94 56.23 55.17 56.58
54.02 53.73 54.02 54.16 54.16 54.50 54.81 55.09 55.56 56.62 56.28 55.79 55.66 55.94 50.28 57.36 57.90 58.82 59.99 57.17 57.72 58.33 56.56 57.12 57.15 55.31 53.86 54.33 51.81 49.39 50.71 47.30 50.90 53.09 53.98 50.28 42.78 55.27 58.19 57.40 56.48 56.74 56.62 55.28 57.38
53.77 53.31 53.19 53.39 53.70 53.99 54.10 55.05 55.74 56.46 55.07 54.66 54.38 52.89 49.56 56.63 53.05 56.57 60.50 56.11 56.15 56.89 57.18 56.25 55.83 53.51 53.57 48.97 47.25 48.52 43.95 46.91 47.77 52.83 53.11 52.90 44.86 55.49 58.02 55.20 53.70 55.85 55.88 55.33 57.17
53.48 53.26 52.89 53.00 53.44 53.17 53.03 54.65 56.74 54.12 55.29 57.61 56.50 50.99 53.46 50.37 53.14 54.18 60.61 58.60 55.62 55.18 53.25 53.16 52.68 50.34 49.82 47.73 41.50 44.02 44.57 46.51 46.13 51.03 52.10 50.73 49.54 55.60 57.01 56.00 54.80 53.51 54.33 53.51 55.18
53.70 53.19 52.81 52.76 53.28 52.72 54.12 58.25 54.33 53.58 54.53 51.23 52.32 50.48 50.03 53.27 56.64 54.61 56.96 57.07 55.89 53.23 48.60 52.57 48.69 46.04 47.66 48.87 48.20 48.14 45.95 45.29 47.96 51.95 50.33 49.33 49.71 51.60 56.75 56.17 55.32 54.90 54.95 55.74 56.86
53.60 53.06 52.84 52.66 52.99 52.80 55.09 53.10 53.61 55.09 47.79 53.02 52.87 53.20 55.04 53.69 51.45 52.96 57.64 52.65 51.88 48.62 50.86 49.95 46.65 49.68 50.42 48.73 47.45 47.80 45.96 45.67 47.64 49.26 49.00 48.41 48.17 51.17 56.11 56.19 56.64 56.24 56.67 56.75 57.59
52.42 53.11 52.69 52.35 52.61 52.10 54.21 54.85 59.33 58.39 48.24 49.10 52.79 52.02 52.01 54.12 50.06 51.30 55.88 53.42 50.49 48.83 49.21 47.56 49.08 50.78 48.60 47.09 46.27 46.80 45.78 45.93 45.46 48.68 49.62 48.32 46.27 48.39 53.27 56.60 57.66 57.63 58.24 58.09 57.84
51.55 51.79 51.82 52.19 49.07 53.10 53.40 57.75 59.01 59.11 43.81 44.70 49.07 51.84 53.63 52.98 49.12 53.84 56.17 53.91 51.46 48.16 49.55 49.09 51.41 48.34 47.18 46.38 47.62 43.98 48.57 47.57 46.46 45.70 42.23 48.82 40.02 46.21 50.23 52.14 55.45 57.28 57.91 58.17 58.82
51.84 50.93 51.68 50.59 50.65 52.08 56.54 59.78 59.69 57.52 30.87 45.97 48.72 55.56 52.99 49.42 49.42 51.02 56.19 53.45 49.04 48.89 49.95 47.52 48.59 48.03 46.35 47.30 49.24 46.35 49.91 47.98 47.82 46.25 45.40 45.21 42.05 44.94 48.74 48.42 51.46 55.30 57.40 58.07 59.01
51.78 51.79 51.53 50.55 51.68 52.14 55.26 58.69 57.54 41.69 30.81 42.70 49.26 47.64 48.09 49.00 48.66 51.55 51.33 54.60 53.47 49.79 50.17 49.48 52.26 50.61 49.34 50.27 50.04 50.61 48.72 48.32 48.29 46.41 40.11 43.89 43.56 42.39 46.49 47.99 49.89 53.46 56.22 57.99 58.54
50.64 51.66 50.89 51.86 48.23 54.56 53.22 52.55 39.65 32.82 43.19 41.45 43.94 47.86 47.28 46.41 46.72 48.28 47.34 47.35 45.78 43.01 44.20 47.24 48.39 50.33 51.18 48.06 50.38 49.19 46.18 39.29 38.33 38.46 37.81 45.30 43.19 44.85 47.82 50.43 50.75 51.61 54.72 57.70 59.11
50.27 50.88 50.88 50.24 53.74 53.96 48.81 43.36 32.12 38.23 39.92 46.18 45.30 47.30 43.93 46.50 46.10 46.87 46.20 44.53 48.19 47.43 45.18 42.29 40.82 47.76 50.62 48.53 46.96 47.18 46.48 40.81 30.68 35.72 38.69 45.07 39.75 44.39 50.70 52.01 52.39 53.00 54.66 55.85 58.62
50.13 49.91 49.10 50.54 53.37 52.79 41.49 32.93 35.82 39.56 43.18 42.66 45.42 43.65 44.13 45.50 45.61 45.74 45.30 44.85 46.98 48.00 42.76 42.85 43.15 49.89 50.18 50.52 49.86 46.69 43.90 48.83 42.55 44.04 40.10 42.82 45.34 48.62 49.72 49.79 51.07 52.09 54.63 55.93 56.56
47.75 46.16 46.64 51.33 53.05 47.78 37.87 34.08 40.02 43.30 43.53 44.18 40.28 44.23 42.28 44.68 43.31 44.66 44.64 47.15 46.49 48.92 50.03 47.07 42.32 47.49 48.92 50.53 50.51 48.65 50.61 43.10 44.04 34.96 33.55 39.93 42.02 43.14 46.73 48.13 49.67 50.38 52.03 55.01 56.90
46.41 40.46 47.78 50.69 51.68 41.15 31.48 37.15 41.92 45.19 45.06 42.01 42.39 41.99 43.53 44.21 45.00 43.55 44.67 47.22 48.64 48.28 49.49 47.99 45.62 45.07 48.60 46.56 45.58 46.47 45.91 46.58 45.93 43.63 36.54 35.58 40.44 49.17 48.32 49.62 49.30 51.17 52.09 53.51 54.87
43.25 35.68 48.71 50.73 37.01 38.19 33.03 39.97 42.40 44.65 46.41 44.81 46.63 45.66 43.94 44.91 44.42 44.07 43.81 46.93 50.11 49.73 45.67 48.35 46.40 42.30 44.63 49.08 50.25 48.68 47.00 47.11 41.95 40.05 42.89 41.52 41.38 50.89 50.95 51.47 51.67 51.84 52.73 54.01 55.36
38.46 39.27 50.54 48.30 31.20 35.60 38.68 38.88 41.83 42.10 43.77 43.59 43.62 47.10 48.19 45.60 42.62 45.99 46.10 49.61 50.31 49.18 47.65 49.20 45.21 40.10 41.58 46.04 48.90 46.72 48.53 48.20 47.78 46.62 41.21 38.71 41.37 50.31 50.87 50.81 51.66 51.80 53.24 54.16 54.52
39.12 33.09 40.44 42.25 42.33 39.02 37.00 37.67 36.89 43.34 43.18 45.16 44.10 46.28 45.65 44.90 47.61 44.40 45.75 48.85 50.40 49.86 48.36 49.95 45.99 42.48 39.19 42.49 46.11 43.48 45.31 46.84 45.86 42.45 41.92 42.14 43.56 48.14 49.51 50.32 51.69 52.53 53.92 54.26 54.60
39.48 37.18 39.26 32.07 36.31 39.91 40.10 38.86 36.91 36.99 43.59 45.44 43.44 43.12 43.90 41.57 43.00 44.03 46.45 47.84 48.03 47.86 49.03 49.25 43.46 44.64 45.16 45.68 45.74 45.27 45.14 45.58 44.25 45.05 41.96 44.13 44.44 48.08 50.40 50.81 51.65 53.51 53.17 52.46 53.24
34.84 39.31 41.44 39.64 39.17 38.47 38.37 37.51 37.50 39.42 40.85 41.39 41.48 43.95 44.78 42.33 43.92 42.46 45.44 46.22 44.93 47.63 47.03 49.57 43.20 44.96 42.50 45.20 44.88 43.26 45.03 45.06 45.18 45.43 45.22 45.38 45.07 50.93 51.77 51.76 51.22 51.79 52.22 52.61 53.60
41.56 46.21 42.50 39.27 37.65 37.26 38.52 38.69 38.57 41.44 43.17 44.52 43.85 43.87 43.69 45.69 47.00 49.12 49.74 48.23 48.46 47.22 46.41 46.39 44.97 42.61 38.66 44.10 43.92 39.77 43.76 44.68 45.60 46.74 46.41 43.24 47.61 50.81 50.52 50.64 51.52 52.26 52.58 53.30 54.40

GFSSW_sfc_wetblb_042.txt.gz
Wetbulb
57.95 58.36 58.87 59.45 59.46 60.34 60.06 59.66 58.93 58.73 58.50 58.36 57.96 57.72 57.69 57.34 56.12 57.42 56.05 59.47 61.06 60.42 57.92 57.93 57.25 56.34 55.91 53.51 53.94 53.23 45.48 43.75 45.81 46.46 48.29 53.37 53.05 53.13 54.00 56.95 59.73 59.94 59.33 59.35 61.15
56.41 56.35 56.72 57.14 57.87 58.61 59.10 59.41 58.85 58.70 58.45 58.29 57.91 57.59 57.19 56.62 55.67 54.54 60.53 60.88 60.13 60.27 55.38 54.68 52.47 54.29 51.94 52.07 52.39 49.32 45.92 46.68 49.37 49.59 49.05 50.80 52.97 51.02 53.00 55.73 54.47 54.57 59.08 60.73 61.44
55.32 55.42 55.20 55.19 56.26 57.39 58.40 58.39 58.50 58.81 58.70 58.14 57.89 57.65 56.74 56.41 54.63 55.89 60.48 60.74 60.46 59.40 56.75 57.08 54.31 52.65 50.30 51.87 50.99 49.89 46.14 49.80 49.76 51.34 51.44 50.84 52.32 53.47 55.33 53.57 55.41 51.02 56.81 58.26 59.23
55.44 54.92 54.96 55.03 55.07 55.83 56.92 56.93 58.15 58.86 58.71 58.26 58.09 57.87 56.99 57.26 47.34 59.34 61.42 60.95 60.98 58.31 56.43 53.20 52.10 49.59 48.63 48.80 51.55 47.01 49.81 50.56 50.70 51.78 51.22 49.95 55.32 54.15 56.34 57.33 59.59 58.89 58.77 58.84 58.15
54.55 54.77 54.87 54.85 55.01 55.26 55.35 55.82 56.61 57.79 58.15 58.34 58.04 57.83 56.12 53.13 53.69 61.64 62.06 60.60 57.44 55.88 55.20 51.73 50.48 50.12 48.48 50.49 50.35 48.62 49.53 51.15 52.17 52.88 52.49 54.39 53.65 54.13 56.88 58.52 59.55 58.96 58.79 57.90 57.67
53.53 54.23 54.76 55.01 55.01 55.25 55.00 54.95 55.33 56.30 57.21 57.83 57.59 56.44 54.42 47.17 58.85 62.77 61.81 57.88 56.72 54.99 54.34 53.66 52.62 54.25 51.67 51.12 49.45 51.50 51.06 50.60 52.75 52.14 53.40 53.12 49.74 51.15 56.11 59.35 57.63 57.98 56.98 56.71 55.80
54.20 54.02 53.95 54.50 54.84 54.88 54.77 54.85 54.95 55.53 56.77 57.37 57.03 56.26 52.45 51.00 58.43 58.07 60.41 57.70 56.95 55.81 54.06 55.91 55.85 53.56 53.06 50.90 52.72 51.02 47.85 49.91 51.98 52.96 52.64 53.16 47.31 47.01 52.83 57.81 55.83 55.62 55.75 55.31 55.15
54.29 54.10 53.56 53.32 53.44 53.75 54.19 53.95 54.05 55.39 56.62 57.11 56.21 55.21 49.34 58.36 59.27 57.42 58.92 58.17 57.55 57.34 56.49 57.32 56.79 53.89 52.56 53.81 51.49 48.44 48.17 44.59 51.13 53.02 53.02 51.53 42.58 50.17 52.94 55.03 53.08 52.80 53.68 55.05 55.34
54.28 53.60 53.39 52.88 52.34 52.97 53.43 53.08 52.96 54.71 56.63 56.32 54.23 53.63 47.87 57.58 54.44 55.84 57.75 56.16 55.45 55.91 57.04 56.79 54.95 51.92 51.80 48.03 45.38 46.79 42.43 45.13 48.05 51.84 52.30 51.17 44.42 49.90 53.68 56.09 53.71 53.52 54.53 56.21 56.13
54.07 54.07 53.38 53.06 52.75 52.57 52.76 52.11 53.91 55.60 56.66 57.50 56.22 50.12 52.78 50.30 53.84 55.12 56.60 57.88 54.34 53.93 53.23 52.68 50.91 47.73 48.37 46.21 39.74 42.57 43.81 45.70 46.49 50.25 50.73 48.67 47.38 49.19 51.83 53.86 53.17 54.29 52.71 54.88 56.08
53.24 53.30 53.76 53.10 52.98 52.53 51.91 53.52 52.44 53.21 55.14 51.40 51.58 48.97 52.88 55.23 55.53 52.48 54.66 56.65 55.46 52.16 47.16 50.13 45.71 43.04 46.26 48.29 47.46 46.31 45.71 45.13 48.95 51.53 49.81 49.05 49.47 50.01 54.19 53.99 52.88 52.22 50.02 52.28 54.40
53.09 53.35 53.60 53.40 52.81 52.76 51.79 49.76 51.34 54.95 47.47 51.91 50.48 51.21 53.99 55.24 50.01 52.67 54.34 52.53 51.27 46.89 49.35 47.26 44.36 49.01 50.20 49.62 47.55 46.47 44.45 44.93 47.46 50.38 48.56 47.40 47.33 52.60 54.40 54.43 54.49 52.91 52.65 53.00 54.92
52.34 52.61 52.90 52.90 52.72 50.93 49.64 50.70 56.94 57.49 47.16 47.07 49.12 48.93 50.49 52.96 49.86 50.64 52.69 52.20 49.41 47.16 47.51 44.80 47.73 51.45 49.30 47.43 45.62 45.20 44.10 44.86 45.26 48.16 49.42 47.25 45.23 47.66 53.83 55.02 55.91 56.28 56.37 55.99 55.64
51.92 51.97 51.24 51.94 48.31 51.40 49.17 55.29 57.05 57.83 41.07 40.85 44.76 50.66 51.30 52.07 47.79 52.91 54.30 51.82 49.51 46.11 47.68 47.43 50.47 49.26 48.27 46.49 46.50 42.21 47.36 47.13 46.40 44.98 40.30 48.06 38.93 45.86 50.87 51.65 54.00 55.24 55.63 55.94 56.46
51.78 52.02 50.71 51.00 49.86 50.64 54.36 56.42 59.02 56.65 26.41 43.71 47.52 55.51 53.39 49.54 49.62 49.75 53.85 52.47 47.29 47.12 48.33 46.22 47.63 47.28 46.58 45.81 47.24 44.74 49.48 47.94 47.08 44.31 44.74 44.41 41.36 44.09 48.68 47.94 52.14 54.86 56.23 56.95 57.55
51.63 51.89 51.14 49.18 49.89 51.70 55.60 55.14 56.12 38.63 27.96 41.33 49.21 47.80 47.59 49.50 49.04 50.85 49.93 52.94 52.41 48.21 49.19 48.15 51.70 49.96 49.31 49.05 49.09 50.14 48.37 48.10 47.12 44.63 38.39 43.48 42.22 42.57 45.44 47.67 50.29 53.90 56.49 57.38 57.49
51.30 51.72 50.88 49.88 46.06 53.42 54.03 50.85 37.89 30.19 41.02 38.84 43.93 47.64 46.34 46.02 46.52 47.60 46.58 45.62 44.20 41.19 42.54 46.10 46.98 50.25 50.63 46.75 49.28 48.21 45.16 38.13 36.68 36.97 36.46 45.04 42.30 44.56 48.61 50.66 51.51 52.14 53.53 57.36 58.05
50.65 50.43 50.47 49.21 51.14 52.49 51.18 42.80 29.18 35.55 38.01 45.64 44.92 45.35 44.07 46.37 46.10 45.86 45.16 43.33 47.32 46.02 42.88 41.02 39.62 46.80 49.86 47.70 46.07 46.05 44.99 39.17 31.13 31.62 37.05 44.50 39.84 43.77 50.77 51.88 52.36 52.67 54.05 56.24 57.84
50.32 49.13 48.31 50.11 52.25 50.87 42.43 32.06 32.73 36.60 40.99 40.02 43.01 41.68 42.95 45.89 45.54 44.72 44.38 44.39 46.25 47.13 41.61 41.34 41.91 48.86 49.70 49.62 49.07 46.02 42.75 47.45 40.14 40.09 36.15 39.66 44.73 47.93 50.16 49.64 50.28 51.13 53.29 54.56 55.65
47.77 44.87 45.35 50.45 52.68 47.41 37.46 32.19 36.62 41.20 41.90 42.34 37.59 40.88 40.24 43.82 43.20 43.53 43.15 46.55 45.78 48.62 49.16 46.09 40.71 47.42 48.63 49.95 49.53 47.13 49.45 42.44 43.20 34.07 32.49 39.23 40.76 41.85 46.29 47.46 49.84 50.06 52.03 55.30 57.20
45.60 39.81 46.67 50.06 50.67 40.66 30.61 34.55 38.46 42.63 43.04 40.04 39.32 38.89 40.85 42.45 44.75 42.93 43.25 46.28 48.24 47.59 48.76 47.72 44.85 44.03 48.02 45.44 43.92 45.03 43.72 45.82 45.77 43.21 35.91 34.58 39.43 47.56 46.48 47.90 49.95 51.25 52.60 53.98 55.60
43.18 34.12 47.84 49.94 36.69 37.26 33.46 36.89 41.20 41.48 43.48 42.70 43.41 42.03 40.94 43.04 42.70 43.80 43.72 46.11 49.72 49.39 45.62 48.11 45.96 40.39 43.20 48.37 49.27 47.51 45.72 45.73 40.43 39.07 42.57 41.59 39.96 50.87 51.38 50.91 52.36 52.88 53.20 54.28 55.89
38.81 38.84 47.83 47.34 29.95 31.22 36.96 37.70 39.07 39.74 40.67 41.13 41.23 43.65 44.84 42.97 41.15 44.14 45.80 50.90 50.59 49.34 46.76 48.39 43.31 37.51 40.43 45.43 48.11 44.98 46.16 47.28 46.80 46.05 41.18 36.10 39.53 50.59 50.88 50.52 51.96 51.28 52.44 53.55 54.23
39.10 32.29 39.86 41.78 41.54 35.85 34.91 36.09 35.95 41.25 40.82 41.98 42.15 44.30 42.84 41.84 45.12 43.27 45.35 49.14 51.87 50.05 47.58 49.43 45.45 41.66 37.02 41.22 45.76 43.22 44.95 47.07 46.23 40.24 40.45 39.90 43.63 47.81 49.60 49.49 50.34 52.20 52.37 53.14 54.45
39.30 35.37 39.64 32.49 34.67 37.98 38.15 37.67 35.45 35.96 40.42 42.31 40.86 41.79 41.89 39.43 41.83 41.20 43.79 46.79 49.00 49.09 49.59 49.49 42.14 43.91 44.99 45.56 45.46 45.23 44.44 44.65 44.23 45.29 41.38 44.02 43.77 46.57 49.19 50.07 49.77 52.71 53.61 53.44 53.42
33.80 37.38 41.32 38.88 38.72 37.24 37.44 36.25 36.14 38.44 39.01 37.21 39.14 41.08 43.01 40.90 42.43 39.32 43.05 44.29 44.71 48.29 47.30 49.36 42.15 44.45 42.29 45.36 44.65 42.65 45.03 45.70 45.18 45.00 44.67 45.18 44.79 50.31 50.99 50.38 50.90 51.60 51.88 52.12 52.72
42.15 43.84 41.62 37.68 37.71 35.06 36.01 37.91 38.32 40.53 41.77 41.91 41.99 41.26 41.00 43.34 46.58 48.82 47.70 46.71 45.12 43.74 45.85 45.40 43.95 41.83 38.01 43.99 42.88 37.09 42.93 44.26 45.65 46.79 45.64 42.00 46.92 49.93 49.34 50.49 51.15 51.88 51.81 51.91 52.85

GFSSW_sfc_wetblb_045.txt.gz
Wetbulb
56.97 56.77 56.92 56.95 56.76 57.26 58.29 58.56 58.71 58.89 59.19 59.08 58.72 58.51 58.48 58.05 56.68 54.79 52.25 56.57 57.16 61.10 57.81 54.99 52.89 52.51 51.84 48.37 48.69 46.41 37.80 37.07 40.17 42.55 45.03 51.53 50.35 53.43 54.20 55.18 56.34 58.41 57.91 59.22 61.52
55.54 55.58 55.62 55.54 55.99 56.12 56.68 57.64 57.69 58.25 58.29 58.83 58.55 58.52 58.16 57.38 53.60 51.86 57.90 61.21 60.73 60.64 52.51 51.29 50.35 50.84 46.47 46.41 46.01 42.11 36.73 40.41 46.87 45.56 45.42 50.77 49.68 50.50 50.93 49.97 52.61 55.89 58.81 60.73 60.35
54.68 55.13 54.93 55.08 55.83 55.82 55.66 55.57 56.29 57.36 57.45 58.57 58.55 58.52 57.83 56.40 51.80 54.00 60.75 61.26 60.90 59.80 52.73 52.67 53.55 49.58 45.28 45.52 45.90 44.07 39.71 45.65 47.23 48.68 47.48 45.92 50.11 53.60 50.09 46.92 53.00 51.88 56.02 58.27 57.60
54.81 53.55 53.83 54.97 55.39 55.77 55.16 54.83 55.24 56.30 57.14 57.75 58.61 58.68 57.48 54.42 44.27 54.92 61.00 61.11 60.95 54.97 52.97 52.13 49.49 44.71 43.01 42.19 45.91 41.69 46.11 46.60 47.01 48.61 47.91 48.06 51.99 53.05 54.19 55.04 58.06 56.97 58.01 58.37 56.38
53.37 54.03 54.42 54.56 54.96 55.13 54.89 54.62 54.87 55.30 55.99 56.78 57.84 58.46 54.23 50.05 51.22 59.59 61.75 60.55 56.12 54.13 52.12 50.72 47.43 45.92 43.35 45.31 47.20 44.54 45.88 47.94 48.51 49.07 48.86 52.50 50.35 51.35 53.39 56.56 57.47 58.61 57.50 57.21 54.99
54.42 53.51 53.31 54.33 54.37 54.15 54.43 54.18 54.32 54.48 55.11 56.19 57.54 57.31 52.17 45.23 56.31 61.30 58.89 55.74 54.44 51.76 50.53 51.56 48.83 48.77 48.43 47.95 45.76 47.86 47.32 47.48 48.41 48.74 50.78 50.57 49.59 50.51 53.40 57.10 56.34 56.30 54.99 55.18 54.19
54.43 54.34 53.72 53.25 53.79 53.47 53.44 53.59 53.64 53.93 54.34 55.66 56.98 55.79 50.35 48.18 56.30 56.27 57.12 56.03 53.89 53.21 50.46 52.60 52.17 49.55 49.07 46.99 50.92 49.68 44.48 45.92 47.02 50.67 50.66 51.31 47.84 48.17 51.93 52.84 55.33 55.08 53.00 54.20 54.27
54.60 54.43 53.75 53.35 53.16 52.98 52.78 52.74 53.02 53.54 53.79 55.00 57.13 52.74 46.71 56.09 55.77 55.71 56.02 54.72 56.39 54.35 53.61 53.81 53.79 50.50 48.92 49.76 48.19 44.72 43.88 38.40 45.68 49.93 50.05 47.66 41.02 49.72 50.94 51.22 51.77 51.15 52.74 53.77 53.57
54.01 53.79 53.68 53.45 53.04 52.73 52.67 52.77 52.63 53.51 54.21 54.90 51.67 49.48 46.18 56.41 52.34 55.27 54.73 53.42 55.84 54.75 52.86 55.27 52.58 47.42 47.64 42.29 39.68 41.27 36.94 39.22 44.60 50.08 49.38 46.34 42.61 49.57 51.54 52.10 49.61 49.76 51.69 53.09 52.99
53.62 53.66 53.02 52.90 52.90 52.59 52.19 52.19 52.33 53.19 54.88 56.51 54.34 46.99 51.32 48.12 53.30 54.20 54.40 54.14 54.16 51.59 50.26 49.35 46.17 42.41 41.35 38.67 33.47 37.64 38.54 38.36 41.51 46.26 47.54 44.84 44.00 48.45 50.56 51.12 49.07 49.79 52.79 53.31 52.84
53.37 53.17 53.43 52.82 52.98 52.63 50.71 47.51 47.11 48.22 51.21 49.08 48.47 46.73 50.29 54.11 56.01 51.93 53.87 51.63 53.22 48.53 42.96 46.29 40.16 37.71 39.66 42.46 44.56 43.69 41.81 40.56 43.61 48.25 46.87 46.78 45.31 45.86 47.90 48.27 49.00 50.06 50.43 53.57 53.71
52.84 52.59 52.90 53.15 53.31 52.63 49.09 43.89 47.61 47.62 43.25 51.96 52.94 53.09 54.44 54.80 49.29 50.99 51.76 47.36 48.66 43.86 45.06 43.17 39.51 43.99 46.23 45.70 44.97 44.67 41.44 39.71 45.12 49.70 46.17 43.84 45.53 46.56 47.41 48.99 49.05 47.74 50.53 50.67 53.20
52.50 52.28 52.40 52.14 52.59 49.18 45.27 45.70 50.83 48.62 42.29 45.34 49.50 47.66 48.00 48.79 45.28 47.06 49.62 47.64 47.03 44.58 44.04 40.75 43.71 47.67 46.32 45.44 44.39 43.44 40.55 40.52 41.87 45.35 46.46 42.70 39.81 45.10 49.63 51.87 51.89 49.01 49.97 51.60 52.74
51.92 51.91 51.51 50.92 47.23 46.16 44.30 52.82 53.73 51.49 38.02 39.21 42.16 45.88 47.60 48.10 44.91 50.40 52.16 48.05 47.23 44.24 45.02 43.46 47.37 46.16 45.35 44.90 44.77 39.20 44.49 45.10 44.41 41.17 36.08 41.94 34.94 45.32 48.84 49.63 51.06 50.45 49.07 50.13 52.69
51.85 51.82 51.27 50.84 46.22 44.38 49.18 51.34 52.00 52.08 17.92 39.91 43.39 49.61 48.36 44.67 47.31 47.65 51.94 48.00 43.91 44.60 44.42 42.23 44.06 44.30 43.94 45.41 46.88 42.91 46.95 45.32 44.93 40.80 37.72 39.47 38.53 41.44 49.69 46.96 49.22 51.00 51.56 51.57 52.81
51.66 51.70 51.13 47.74 46.86 47.52 50.36 50.87 50.33 35.20 25.91 38.31 47.29 46.21 45.91 45.19 45.97 48.00 47.33 48.83 48.83 45.40 45.58 44.29 48.42 46.94 45.94 48.53 47.88 47.08 46.34 45.05 43.57 39.83 31.20 38.57 36.85 37.12 44.53 46.71 50.00 52.02 52.93 52.81 53.39
51.60 51.52 50.17 48.26 41.67 48.39 50.95 47.31 34.23 27.13 38.28 35.72 42.96 45.85 44.47 43.66 44.50 44.85 43.58 41.56 39.43 37.65 38.32 43.22 44.08 47.55 48.60 44.83 46.65 44.52 40.75 33.04 30.49 29.34 28.85 42.68 39.21 39.89 45.01 47.85 51.27 51.09 52.91 53.73 53.91
50.91 50.66 49.76 48.27 47.35 49.19 48.15 39.70 27.40 32.62 33.77 41.17 41.12 41.84 41.28 43.48 43.76 44.48 42.68 39.58 42.57 42.18 38.50 36.66 35.11 44.16 47.73 45.26 42.51 42.16 40.54 32.22 26.14 27.05 33.22 41.86 37.15 40.14 48.67 48.60 49.35 50.26 54.56 54.66 54.25
50.70 48.16 46.66 47.51 47.63 48.78 42.00 30.85 28.35 33.32 37.51 35.93 37.39 35.53 40.02 43.60 43.31 43.10 41.13 40.48 42.78 43.47 37.83 36.73 37.77 46.57 47.41 47.87 46.04 43.37 38.96 43.29 37.84 38.59 32.68 37.58 41.56 45.35 48.74 46.80 46.53 47.06 48.19 51.03 53.91
46.82 45.16 43.89 48.20 47.41 45.55 36.98 31.31 33.85 39.83 39.22 38.03 32.73 37.31 35.17 39.70 40.56 41.01 40.46 43.69 43.02 45.63 46.45 41.97 36.89 45.21 47.41 47.40 46.63 44.71 46.73 38.32 39.23 29.96 28.32 36.74 37.51 39.80 44.14 46.65 46.27 45.77 46.19 47.23 50.26
45.70 39.86 44.59 47.81 48.00 39.36 29.98 31.74 35.12 40.71 41.32 37.51 34.92 34.49 35.57 36.02 37.95 39.67 41.52 44.75 45.32 45.40 46.62 44.25 40.55 40.33 46.03 42.81 41.33 42.05 40.57 41.54 42.72 39.83 30.62 27.71 34.59 43.60 45.12 46.40 46.51 46.05 48.34 49.30 50.07
43.50 34.15 44.91 46.92 35.90 35.63 31.09 34.25 39.09 38.36 41.04 39.09 39.31 37.96 36.38 37.42 36.15 37.38 40.66 44.30 47.85 46.74 42.88 45.19 41.11 35.77 40.13 46.45 47.66 45.32 42.17 41.74 34.56 35.00 36.14 31.88 33.81 46.24 46.23 46.69 47.65 48.49 48.26 48.24 49.74
39.19 38.57 45.96 44.30 29.61 30.19 33.96 34.18 36.00 35.93 37.58 38.38 37.09 39.15 39.72 37.19 34.13 40.35 43.69 48.16 48.58 47.23 43.66 44.60 40.05 33.13 37.68 42.17 44.77 42.46 43.25 43.62 42.79 40.34 35.94 29.71 34.24 48.38 49.09 48.20 48.67 46.33 46.46 48.65 49.14
38.19 32.09 39.19 40.98 37.58 33.45 31.14 32.12 32.21 38.70 37.47 38.21 37.59 39.58 37.05 35.51 39.46 39.27 41.72 46.72 47.60 47.39 46.33 46.67 41.66 37.82 32.97 37.59 42.07 39.83 42.72 43.67 41.80 33.66 35.04 35.45 39.74 43.95 46.90 46.44 47.39 47.21 48.11 49.04 48.42
38.04 33.62 37.21 32.42 33.41 34.30 34.11 33.91 32.57 32.06 37.68 38.83 35.54 36.24 35.93 32.81 35.73 36.38 42.34 43.65 45.21 46.10 46.80 45.50 38.64 40.29 41.47 43.24 43.50 43.57 43.11 42.64 40.89 41.58 38.32 39.52 40.71 43.53 45.78 46.34 46.82 49.04 50.29 51.18 50.25
32.49 35.81 38.18 35.09 37.04 34.18 34.52 31.93 32.16 35.11 35.22 35.09 34.33 36.46 37.19 34.23 35.64 35.16 40.38 42.31 41.50 45.22 43.13 44.97 37.70 40.22 37.74 42.01 43.17 40.76 42.88 43.11 43.06 42.53 43.12 43.82 42.30 48.19 48.88 47.23 47.54 49.75 50.00 49.69 49.84
42.18 41.07 38.84 35.77 35.14 33.72 32.22 33.04 33.68 36.13 37.74 39.36 38.20 36.26 35.22 38.20 40.66 43.04 44.86 45.28 45.06 42.39 40.92 40.36 38.66 36.53 33.64 39.51 39.65 34.09 40.08 41.94 42.64 44.61 43.67 38.89 43.09 45.73 45.90 48.55 47.46 48.17 49.23 49.03 49.35

GFSSW_sfc_wetblb_048.txt.gz
Wetbulb
56.09 55.70 55.57 56.03 56.05 56.07 56.09 56.24 56.59 57.02 57.23 57.31 58.08 58.98 58.91 58.51 57.14 53.88 49.25 54.50 56.12 60.51 58.70 53.25 50.58 49.63 48.64 45.79 46.47 44.00 36.42 33.50 36.60 38.97 42.73 50.58 48.72 51.00 54.37 54.49 55.79 57.52 57.16 59.43 61.45
54.28 54.52 54.81 55.14 55.59 55.82 55.81 55.66 55.13 55.54 56.77 56.97 57.58 58.28 58.26 57.78 53.88 51.21 56.37 61.41 61.33 61.60 51.59 48.77 48.71 49.08 44.73 43.97 44.31 41.12 34.72 38.06 42.50 43.83 46.76 50.04 47.70 49.73 48.53 50.89 53.28 54.94 58.87 60.43 60.19
54.34 54.27 54.07 54.14 54.88 55.27 55.41 55.23 54.90 54.81 55.73 56.42 57.13 57.87 57.80 56.87 50.36 51.01 60.91 61.67 62.08 60.86 50.94 50.91 51.61 49.67 43.44 42.83 42.01 40.20 38.62 43.88 45.01 47.24 47.53 48.35 48.53 52.47 49.73 50.99 53.21 50.99 55.44 57.59 57.94
55.53 54.54 54.61 54.38 54.82 54.61 54.62 54.55 54.76 54.27 54.45 55.12 56.18 57.64 57.64 54.16 39.50 53.88 61.09 61.02 61.26 53.92 51.09 50.51 48.73 43.01 41.28 40.08 42.88 39.22 44.59 45.29 45.17 47.82 48.58 48.84 51.27 52.54 52.26 53.63 56.54 55.71 57.99 57.69 56.59
54.32 54.95 54.75 54.51 54.59 54.29 54.00 53.76 54.11 54.21 53.95 54.27 55.11 57.20 54.23 48.88 49.26 57.33 61.11 60.36 55.48 52.57 50.17 49.01 47.05 43.80 41.40 42.77 44.18 43.32 44.72 46.57 47.12 48.96 50.90 53.42 51.81 52.50 53.22 56.15 57.18 57.11 57.76 56.01 54.98
54.40 54.60 54.70 54.62 54.34 54.10 53.80 53.37 53.17 53.57 53.96 53.85 54.32 56.74 51.14 43.59 52.79 56.15 57.60 54.81 52.61 49.90 49.10 49.69 48.85 47.12 44.42 45.48 43.94 46.78 46.95 45.89 46.79 46.46 51.12 49.21 49.66 49.91 53.70 55.74 55.37 54.76 54.04 53.91 54.23
54.17 54.39 54.62 54.42 54.35 54.01 53.78 53.37 53.04 53.14 53.74 53.48 54.12 54.27 48.85 46.28 53.56 53.11 54.69 53.27 52.14 51.71 48.51 50.48 50.94 47.06 47.69 45.32 48.78 47.69 43.07 44.65 45.39 44.99 48.30 49.38 44.33 46.91 54.66 55.44 54.41 54.31 54.68 53.67 54.02
53.83 53.90 53.86 53.65 53.49 53.45 53.43 53.01 53.08 53.31 53.44 53.96 53.94 52.83 44.92 54.77 53.62 53.50 53.78 53.05 54.44 53.74 52.46 52.32 51.54 49.21 46.89 47.79 46.23 42.93 41.73 37.14 43.89 45.18 48.68 46.07 40.00 47.22 53.20 51.77 52.51 51.14 52.59 53.05 52.92
53.49 53.63 53.79 53.16 52.76 52.62 52.79 52.99 52.85 53.14 53.66 54.32 51.84 48.93 43.90 56.26 51.99 54.28 53.51 51.28 53.09 54.21 52.40 54.03 50.20 46.57 46.07 40.76 37.53 38.73 34.79 37.55 40.82 46.23 48.06 44.59 40.84 47.29 49.38 51.64 49.96 50.66 51.46 52.23 51.52
53.41 53.26 53.49 53.08 52.73 52.46 52.40 52.37 51.99 52.66 52.00 55.14 54.34 46.50 48.72 46.27 51.38 52.46 52.72 53.11 50.43 51.92 50.24 47.62 44.89 41.63 39.46 36.92 31.19 34.81 35.93 34.94 37.89 44.49 46.90 43.05 42.53 46.76 48.04 49.83 48.81 48.19 51.02 51.78 51.92
53.14 53.28 52.99 52.85 52.48 52.55 50.56 46.56 43.05 45.62 48.65 48.05 47.88 46.88 47.33 52.94 55.73 51.13 52.47 51.04 49.62 47.54 41.71 44.95 39.63 36.88 38.37 40.02 41.49 41.03 39.20 38.00 40.72 46.22 46.01 44.22 43.43 44.82 47.24 48.40 47.08 47.56 50.21 51.71 51.67
52.83 52.95 52.85 52.72 52.27 52.42 49.00 42.70 43.83 43.27 37.93 46.45 49.29 50.77 52.50 53.60 49.46 51.87 51.05 45.61 45.40 41.92 43.09 40.78 38.07 42.98 43.99 43.29 41.86 41.03 39.23 39.34 41.49 46.34 45.89 43.08 44.03 44.12 45.69 47.32 47.57 48.28 50.39 51.96 51.87
52.49 52.35 52.46 51.94 51.55 48.77 45.65 45.11 49.31 48.70 39.59 43.49 47.21 47.69 49.28 51.39 48.33 48.62 47.45 45.52 44.52 42.66 41.66 38.99 41.97 46.02 43.99 42.31 41.06 41.08 39.48 39.68 39.38 43.44 42.88 41.12 39.13 43.50 46.96 48.33 49.71 50.03 51.07 53.12 52.00
52.19 52.02 51.53 50.94 46.45 45.87 43.91 49.54 49.08 49.71 35.84 37.89 42.11 44.46 47.18 47.30 42.21 49.25 47.75 45.74 43.74 42.78 43.40 41.21 45.19 44.02 42.93 41.75 42.40 38.05 44.62 42.83 42.47 39.18 34.05 39.86 31.28 41.04 44.84 46.17 49.23 48.45 49.73 50.83 53.14
52.01 52.09 51.42 51.10 43.85 42.77 47.32 48.69 50.91 46.51 17.16 36.89 42.00 49.27 47.65 42.68 43.91 44.39 48.49 46.05 41.48 43.73 43.47 40.70 42.10 42.29 41.43 42.46 44.49 41.70 45.49 43.63 42.78 38.67 35.93 37.49 33.76 37.71 44.83 45.05 47.60 47.59 48.12 50.01 53.10
51.89 51.85 51.45 48.02 45.72 45.76 48.36 48.76 48.26 35.12 22.09 36.81 43.73 41.86 41.06 42.41 44.07 46.15 44.74 47.56 46.33 42.91 44.02 42.70 45.73 43.74 43.07 45.86 45.86 46.87 44.13 43.06 41.43 38.13 30.66 36.47 35.08 34.17 42.06 46.16 49.08 50.73 48.51 48.83 51.08
51.51 51.64 50.37 48.15 40.48 45.25 47.19 46.20 32.56 23.69 36.43 34.29 40.85 44.58 42.04 38.92 40.81 42.71 41.34 39.91 37.62 34.70 35.49 40.64 42.13 45.32 46.00 42.39 44.94 43.11 38.85 31.76 30.17 29.19 28.53 40.03 37.11 38.18 42.94 49.50 50.63 50.92 51.43 50.38 50.35
51.05 50.94 50.01 48.33 45.94 45.66 45.63 39.69 26.43 31.64 32.27 39.77 38.84 38.93 39.69 41.75 40.93 41.52 39.54 36.29 39.87 38.94 36.14 34.42 32.28 42.08 45.44 43.18 41.03 40.45 38.94 31.20 25.39 26.63 31.07 39.25 33.83 38.94 46.22 47.66 49.18 52.67 53.35 53.20 51.65
50.58 48.28 46.64 46.23 46.09 46.08 39.12 30.24 29.94 32.75 36.88 35.16 36.61 33.48 33.45 41.41 41.50 41.28 38.97 38.74 40.00 40.69 35.44 34.32 35.26 44.35 45.06 45.56 44.26 40.45 36.39 41.52 35.75 36.41 30.92 34.36 39.15 43.80 45.96 45.49 45.37 48.05 49.84 51.66 52.35
46.83 45.37 44.24 46.30 46.14 43.92 35.03 30.37 33.33 38.03 38.86 38.10 31.17 35.10 31.98 33.74 36.59 37.68 38.22 41.82 41.58 43.42 43.58 39.98 34.14 42.74 44.59 45.08 44.75 43.11 44.36 36.47 36.37 28.85 26.32 33.28 35.42 36.44 43.16 43.38 45.55 44.70 47.52 50.82 52.63
46.07 39.97 45.40 47.06 47.21 37.90 28.44 30.18 34.34 39.27 39.50 36.30 34.71 33.24 33.93 33.89 36.15 35.49 37.07 42.21 43.51 43.50 43.83 41.54 38.06 38.70 42.81 40.55 40.04 39.91 38.86 40.25 40.14 35.97 28.69 27.30 31.96 41.64 44.18 45.90 45.03 45.37 45.87 47.55 51.00
44.05 34.41 44.74 46.81 34.52 35.20 28.95 33.64 38.02 36.54 39.65 37.27 37.77 36.74 34.86 35.84 34.77 34.93 36.25 40.71 47.24 46.25 39.81 42.36 38.82 34.03 37.62 43.79 45.25 42.98 40.76 40.51 34.42 33.35 34.03 30.40 34.04 44.97 45.09 45.34 46.06 46.55 46.84 46.51 48.86
39.69 38.11 45.24 42.87 29.26 30.48 33.67 32.77 35.62 35.11 36.07 36.32 35.76 36.99 37.56 35.13 31.25 36.25 38.76 44.99 46.11 45.81 41.57 43.66 37.14 29.75 33.76 39.35 42.68 40.39 41.69 41.81 40.62 37.71 33.10 29.77 34.48 45.62 45.75 45.92 46.76 45.71 45.69 47.43 46.49
36.12 31.83 38.49 39.56 36.45 32.13 31.00 30.66 30.93 37.07 35.32 36.23 35.12 36.71 34.62 33.56 36.36 33.51 35.35 42.38 46.38 46.38 46.27 45.99 40.06 35.60 31.73 35.69 40.05 38.35 41.42 41.93 40.23 30.72 32.33 33.33 38.41 42.63 45.04 44.70 46.82 46.47 46.45 47.69 47.81
36.18 33.55 37.21 31.62 32.34 33.60 33.92 33.55 30.65 30.12 36.45 37.53 34.46 33.95 33.20 29.67 31.78 32.08 36.25 41.20 45.15 46.30 46.35 45.17 36.88 38.40 39.32 41.05 42.06 41.07 41.57 41.65 39.22 38.56 34.47 37.29 38.61 43.58 44.71 45.17 46.48 47.14 48.25 48.61 48.84
32.57 34.70 37.57 34.06 36.26 33.79 33.11 31.21 31.13 32.54 34.14 32.32 32.01 35.22 34.57 31.31 32.70 30.89 34.47 35.96 39.94 44.95 43.09 44.08 37.10 38.03 35.60 40.40 40.52 39.35 41.43 42.22 42.29 41.10 39.66 40.76 39.99 46.30 48.18 45.90 44.85 47.59 48.33 47.96 48.24
42.89 40.51 38.74 35.86 34.29 33.39 31.44 31.52 32.85 34.98 36.11 36.96 35.72 34.21 33.42 35.29 38.31 39.43 39.70 41.03 43.36 42.91 41.04 40.96 38.23 35.32 30.22 37.42 38.07 32.54 39.09 40.90 40.55 41.66 42.35 37.56 42.26 46.10 45.04 45.80 45.84 46.92 47.89 48.17 48.10

GFSSW_sfc_wetblb_051.txt.gz
Wetbulb
54.36 54.01 54.56 55.31 55.11 55.15 55.03 55.05 55.24 54.59 54.93 55.12 56.02 56.98 57.73 57.75 56.33 53.16 48.23 53.33 54.94 60.40 58.91 50.78 49.13 48.22 46.57 44.42 44.70 41.83 35.72 31.79 35.06 35.81 40.27 49.77 47.34 49.93 53.03 52.90 55.32 56.94 56.37 58.63 61.56
54.86 54.14 54.12 54.54 54.57 54.56 54.79 55.01 54.87 54.65 54.60 54.68 55.10 56.39 57.17 57.04 53.20 49.88 55.79 60.52 60.85 60.80 50.73 48.47 47.10 48.42 43.59 42.84 42.52 39.20 34.21 36.70 41.24 41.75 43.14 48.60 46.45 48.32 47.58 49.40 53.10 54.14 57.84 59.21 59.13
54.50 54.31 54.83 54.79 54.06 54.68 54.74 54.41 54.20 54.11 54.01 54.31 55.14 55.59 56.54 56.44 48.15 47.24 60.19 60.82 62.20 60.38 49.54 48.95 50.02 48.06 41.70 41.71 41.33 38.76 37.58 40.89 43.95 44.53 45.89 46.92 47.50 50.86 48.23 48.35 51.64 50.81 54.85 55.97 56.72
53.48 53.72 53.88 54.32 55.15 54.72 54.36 53.99 53.86 53.63 53.38 53.56 54.06 54.91 56.48 53.38 37.09 51.90 61.32 61.58 62.25 54.69 49.24 48.43 47.61 42.64 39.48 38.94 41.22 37.43 42.35 42.63 43.56 45.97 46.75 47.12 50.16 51.00 50.63 51.67 54.84 53.48 56.21 55.05 54.73
53.67 53.82 53.65 54.10 54.18 55.02 54.36 54.01 54.00 53.98 53.76 53.31 53.86 54.43 53.09 47.14 47.74 54.42 60.61 59.92 54.79 50.53 48.23 47.52 45.25 42.84 40.22 41.17 42.05 40.77 43.26 45.42 45.67 46.56 48.16 51.38 51.24 51.14 51.99 54.66 55.30 55.90 56.51 55.35 54.17
54.01 54.15 54.22 53.84 53.85 54.38 54.17 53.89 53.66 53.78 53.91 53.41 53.67 54.04 50.13 41.77 50.66 54.12 56.50 54.15 50.85 48.91 48.28 48.00 45.79 46.26 43.19 42.39 42.97 45.19 45.07 45.15 44.91 48.59 51.24 49.64 48.99 48.35 52.12 55.06 54.20 54.38 53.86 54.92 54.50
53.52 53.58 53.84 54.05 54.19 53.97 53.45 53.18 53.12 53.41 53.70 53.64 53.37 51.66 47.48 43.62 52.20 51.51 51.60 51.00 50.64 49.81 47.11 48.46 48.94 45.90 45.65 43.75 47.05 45.69 41.47 42.89 43.83 45.02 47.34 47.85 42.93 46.34 51.30 54.56 53.57 52.78 52.34 52.82 53.75
52.37 53.43 53.26 53.41 53.47 53.18 52.71 52.58 52.81 53.29 53.66 54.00 53.56 51.14 44.56 52.97 51.62 52.17 51.47 51.45 53.01 52.35 50.97 50.56 49.87 47.15 45.08 46.35 44.63 41.40 39.66 35.52 41.52 44.70 47.08 45.71 39.69 45.21 53.06 52.85 51.36 51.28 52.59 52.47 52.81
53.31 53.39 53.14 52.98 52.88 52.52 52.21 52.32 52.87 53.51 53.69 53.65 50.24 49.30 43.47 54.71 51.25 53.61 52.39 49.59 51.14 52.14 50.80 52.94 48.75 44.92 44.45 39.74 36.71 36.87 32.55 35.71 39.60 43.60 45.27 43.41 41.14 45.08 52.90 52.17 50.79 49.45 50.21 50.51 51.60
53.24 52.93 53.06 52.83 52.42 51.97 51.72 52.08 52.44 51.86 51.39 52.54 53.23 44.82 47.30 46.55 50.11 52.24 52.50 51.38 48.87 49.63 48.69 47.19 43.83 40.34 37.75 36.60 30.53 32.36 33.91 32.27 34.87 40.66 43.72 41.44 41.74 44.27 49.24 50.14 51.00 48.40 48.62 49.86 50.14
53.18 53.10 52.91 52.61 52.57 52.05 49.80 46.85 39.82 42.66 44.04 45.29 46.35 46.61 48.26 51.49 54.98 51.07 51.40 49.65 48.36 46.64 40.98 42.64 38.24 35.65 38.54 39.41 39.55 38.44 36.77 35.50 37.71 42.15 42.16 42.62 41.67 42.43 45.11 46.00 46.84 46.08 48.48 49.18 50.13
52.77 52.75 52.75 52.77 52.36 51.89 48.42 42.96 42.83 44.27 39.07 45.63 44.80 45.83 50.72 52.00 46.98 49.46 51.37 45.40 43.91 39.10 42.27 39.41 37.00 41.71 42.58 41.43 39.95 38.70 36.41 36.29 39.69 42.87 43.24 41.46 41.93 42.73 45.34 46.40 47.52 46.40 47.37 49.33 50.14
52.40 52.63 52.36 52.22 51.84 47.15 44.41 45.14 49.52 48.47 40.39 43.02 45.16 43.91 44.27 49.46 45.96 46.53 49.49 44.43 41.81 40.00 39.71 37.95 40.50 44.65 42.46 40.33 38.79 38.14 36.25 37.10 37.70 41.21 41.88 39.59 38.34 40.11 44.76 46.79 47.57 48.27 49.25 51.00 50.96
52.07 52.12 51.79 51.34 45.05 44.49 42.74 46.97 47.71 49.28 32.91 35.38 40.78 42.86 45.84 47.28 42.59 49.79 50.47 45.09 42.15 40.04 41.09 39.28 44.07 41.95 40.74 39.97 40.01 35.37 41.48 41.36 39.94 36.96 33.34 39.03 30.14 36.95 41.39 43.82 46.68 47.39 47.94 50.65 51.88
51.77 51.85 51.67 51.27 42.69 42.14 45.01 46.83 48.13 45.96 17.43 36.11 40.89 47.48 46.35 41.56 42.15 43.68 48.44 44.14 39.68 41.98 42.15 39.72 40.33 39.60 39.41 40.77 42.03 38.66 42.94 41.30 40.72 37.11 34.74 35.25 31.57 35.89 42.30 42.55 44.89 46.83 48.30 49.46 52.38
51.71 51.68 51.48 48.02 46.25 45.65 46.59 46.30 46.46 34.12 21.27 34.12 41.74 40.93 39.98 41.11 41.17 44.05 42.91 45.80 44.67 40.83 41.50 42.34 44.23 42.72 41.66 43.81 43.63 44.73 41.65 40.09 38.79 36.08 29.86 35.12 33.51 32.83 38.12 42.98 45.70 48.32 48.38 49.64 51.71
51.21 51.55 50.31 47.24 40.05 43.82 44.91 43.29 35.56 25.35 35.16 32.44 36.39 40.58 39.79 38.02 38.95 41.79 38.91 39.24 37.37 33.71 33.90 38.73 40.58 42.36 43.97 39.79 42.43 40.98 36.29 29.33 27.99 27.64 28.06 37.45 35.37 36.69 41.83 45.15 47.58 48.52 49.11 49.22 50.77
50.82 50.76 49.89 48.00 46.13 45.33 42.00 36.89 28.43 31.52 31.59 37.41 36.50 36.56 38.68 38.80 38.91 40.45 38.31 34.29 38.37 38.17 34.06 32.98 30.57 39.53 43.16 41.33 38.78 38.23 37.65 29.70 24.18 25.13 29.47 37.45 32.53 37.41 44.54 46.30 47.85 49.71 51.61 49.22 49.37
50.26 48.44 47.20 45.11 45.15 44.42 36.08 27.62 30.17 32.51 36.25 35.04 35.86 32.91 33.50 37.99 40.32 39.34 37.56 36.66 38.49 38.80 34.61 32.07 33.17 42.07 43.21 44.00 42.84 38.25 34.67 39.60 33.21 33.62 30.14 32.66 36.96 41.80 44.34 44.05 45.63 45.88 49.02 49.16 48.19
46.21 45.61 44.49 45.72 45.78 42.84 33.36 28.25 33.39 38.14 37.28 37.08 30.04 33.70 30.39 33.09 35.56 35.46 37.27 40.58 39.76 41.16 41.81 37.84 32.76 40.93 42.40 42.91 42.69 41.20 42.41 34.32 33.58 27.37 26.39 30.92 33.10 34.43 41.11 42.90 42.99 42.24 46.39 49.06 50.62
44.96 40.19 45.33 46.27 46.70 38.07 27.45 28.25 33.13 38.00 37.75 34.38 33.47 32.43 33.04 31.96 34.12 34.21 35.07 40.92 43.20 42.75 41.75 39.58 36.20 35.99 40.49 37.97 37.71 37.69 36.33 37.81 37.75 33.24 27.51 26.67 30.65 40.44 42.42 43.46 43.10 42.75 43.98 46.29 49.51
42.81 34.11 45.13 46.53 34.26 34.48 29.10 31.89 36.96 35.37 38.86 36.73 36.21 35.35 33.77 33.36 32.84 33.79 34.57 39.12 45.62 44.92 39.12 40.26 36.43 32.77 36.45 41.42 42.68 40.13 38.63 38.85 32.47 31.82 32.38 30.02 33.45 43.13 43.24 43.71 44.62 44.56 44.72 44.85 47.23
38.30 36.56 45.41 43.25 29.30 29.98 33.42 32.44 33.90 34.83 34.92 35.67 34.67 35.32 36.26 32.99 29.85 34.08 36.04 42.24 44.19 44.83 41.52 42.57 35.37 28.43 33.73 36.75 39.46 36.95 39.48 39.93 39.10 36.49 32.85 30.19 32.89 44.26 43.95 44.46 45.58 43.83 45.70 45.36 46.37
34.63 30.99 37.51 39.66 35.63 32.39 31.02 31.28 30.11 35.59 34.27 35.82 34.56 35.29 33.88 32.10 35.20 32.32 34.48 39.61 41.29 46.25 46.17 45.09 39.26 33.73 28.61 32.84 37.37 35.15 38.82 39.82 39.25 31.53 32.27 34.85 36.85 40.65 43.36 43.72 44.95 44.80 45.27 45.36 45.79
35.86 32.09 36.82 30.48 32.58 33.63 33.48 32.78 30.51 30.08 35.17 36.07 32.70 32.77 31.70 28.19 29.91 30.17 35.56 37.70 42.01 45.98 45.81 43.48 35.99 38.06 38.40 39.84 39.69 38.60 38.69 39.36 37.71 37.40 34.10 36.17 36.76 41.29 42.99 43.99 44.66 46.35 46.11 46.39 47.33
31.74 34.96 38.49 34.12 36.05 33.78 33.54 31.10 30.72 32.31 33.22 31.76 30.99 33.79 33.26 29.77 31.15 29.01 32.49 33.45 34.99 40.93 40.30 43.35 36.16 37.46 35.31 39.29 39.05 36.73 39.03 39.89 39.93 39.25 38.35 38.81 37.41 43.81 45.34 45.49 44.10 45.50 46.30 46.33 47.05
41.12 40.60 38.86 36.15 34.10 31.72 30.93 32.03 32.16 34.83 35.88 35.43 34.46 32.86 31.48 33.49 35.73 36.72 37.15 37.17 37.26 37.50 38.51 39.30 35.47 32.43 29.84 35.83 35.57 31.17 36.43 38.73 39.61 41.78 41.16 36.56 40.31 44.21 44.11 44.66 44.93 45.90 45.63 46.49 47.53

GFSSW_sfc_wetblb_054.txt.gz
Wetbulb
55.91 55.34 55.08 54.33 54.25 54.67 54.24 54.24 54.60 53.75 53.81 53.93 54.25 54.45 55.55 56.19 55.32 52.73 46.91 51.60 53.90 59.30 58.05 50.16 48.27 46.39 45.07 42.86 43.15 40.83 34.62 31.41 34.01 34.82 38.44 48.06 46.19 48.92 51.24 51.61 54.41 55.91 54.73 57.80 61.36
54.93 54.75 54.55 54.79 55.44 54.76 54.83 54.69 54.25 54.14 53.72 54.10 53.87 54.40 55.27 55.38 52.17 49.36 54.38 59.86 60.50 61.20 50.22 47.46 46.08 47.11 42.91 42.13 41.78 39.05 33.30 35.84 39.98 40.19 41.42 45.96 46.96 47.35 46.46 47.97 51.75 51.78 55.99 58.14 59.39
53.57 53.77 53.95 54.01 54.60 55.45 54.98 54.67 54.21 54.26 54.43 54.45 54.42 54.79 54.61 54.71 47.55 44.22 60.47 60.26 61.27 59.66 48.88 47.62 48.74 46.60 41.20 40.59 40.38 37.79 36.57 39.69 41.86 43.24 42.04 41.65 45.81 49.34 47.00 46.30 50.01 50.79 52.88 56.56 56.68
52.92 52.90 53.32 53.68 53.72 54.37 54.53 54.46 54.57 54.41 53.98 54.28 53.85 54.43 54.61 52.41 34.88 50.50 61.69 61.94 62.65 54.87 48.59 47.13 46.33 42.16 38.92 38.58 40.64 36.59 41.19 41.44 42.43 42.63 44.45 45.13 48.68 48.27 48.01 50.08 54.17 52.91 54.78 54.83 54.18
53.14 53.33 53.06 52.94 53.06 53.48 54.16 53.85 53.62 53.49 53.29 53.67 53.95 53.97 51.29 45.63 46.60 52.75 60.81 61.05 55.05 49.87 47.28 46.47 43.97 41.85 38.72 39.28 40.52 38.48 40.99 42.98 44.44 44.81 45.48 49.80 48.93 49.44 50.30 53.91 54.38 54.40 55.41 54.08 53.64
53.27 53.52 53.71 53.10 52.96 53.14 53.60 53.17 52.63 52.77 53.00 53.16 53.73 53.26 47.54 38.66 49.82 52.53 51.66 53.22 49.77 47.44 47.37 46.58 44.88 44.96 41.46 40.80 40.70 43.61 43.34 43.81 43.60 44.46 47.26 47.26 47.63 49.30 49.49 54.60 53.61 53.83 51.93 53.72 52.77
53.11 53.06 53.31 52.96 53.36 53.37 53.25 52.69 52.23 52.42 52.84 52.99 53.54 50.93 45.05 42.34 50.69 50.74 51.41 49.43 49.28 47.83 46.23 47.67 47.12 44.42 43.70 41.67 45.22 44.32 40.02 41.47 42.29 41.97 46.18 47.99 42.67 45.96 49.70 53.78 52.88 51.95 53.73 53.68 54.46
53.36 53.33 53.23 53.35 53.21 53.10 52.88 52.42 52.05 52.19 52.96 53.13 53.33 49.28 41.95 52.61 50.96 51.70 50.45 49.89 51.31 50.66 49.41 49.58 47.83 45.04 43.56 44.53 42.94 39.24 38.23 34.22 40.56 44.40 44.52 44.88 38.00 42.46 50.17 52.42 50.75 50.50 50.90 52.38 52.42
53.54 53.29 52.94 52.71 52.59 52.74 52.58 52.26 51.88 52.23 53.52 53.71 48.73 46.73 41.02 54.17 50.22 52.75 51.80 47.55 48.96 50.40 49.64 52.22 47.41 43.72 42.84 38.49 35.58 35.82 30.94 33.31 37.66 42.05 43.67 41.58 39.66 42.84 50.72 51.17 49.52 49.73 51.54 51.55 51.51
53.25 53.21 53.08 52.86 52.53 52.25 51.95 51.47 50.91 51.94 51.15 51.15 51.14 40.79 44.29 41.82 49.93 51.41 52.10 50.58 47.17 48.31 47.11 45.58 42.70 38.37 37.07 35.55 30.10 32.09 31.96 31.26 33.98 37.77 41.75 40.25 40.99 44.11 49.68 49.85 50.20 49.34 48.10 49.16 49.68
52.67 52.80 52.80 52.74 52.66 52.36 49.67 44.69 40.93 39.99 42.50 42.37 43.43 42.82 45.90 51.90 53.73 50.18 50.71 48.47 46.37 45.29 39.98 42.28 37.33 35.58 37.78 39.39 38.25 37.00 35.18 33.63 35.82 39.60 38.44 38.02 38.31 41.61 43.86 46.79 47.58 48.30 47.53 47.56 48.57
52.53 52.47 52.41 52.51 52.53 52.03 46.22 41.61 43.16 43.57 37.52 43.92 43.78 43.65 46.99 49.68 43.87 47.01 51.56 44.32 42.35 38.53 41.62 38.02 36.57 40.65 42.73 40.53 39.10 37.61 34.79 33.90 37.70 40.77 39.47 38.12 39.55 41.24 42.64 44.92 47.28 48.13 46.76 47.77 48.37
52.25 52.45 52.41 52.01 51.67 45.91 44.09 43.83 48.06 46.18 39.09 40.65 43.42 42.92 43.80 45.41 41.81 43.01 48.25 44.35 40.92 38.20 40.03 37.57 39.08 43.07 42.11 38.68 37.57 36.08 34.52 34.56 35.83 38.15 39.17 38.17 37.55 38.39 43.29 45.07 46.44 47.19 47.63 48.07 48.98
51.72 51.73 51.73 51.34 44.85 43.39 40.59 46.97 47.36 47.08 33.72 33.99 39.98 42.29 44.36 45.80 41.03 47.69 48.84 45.00 41.47 38.45 39.09 38.79 43.06 40.65 38.73 38.15 38.90 33.83 39.16 39.11 37.64 34.87 31.00 37.35 29.58 36.14 38.54 42.24 45.03 46.11 46.42 47.66 49.59
51.27 51.44 51.36 51.45 43.04 40.92 43.07 46.56 46.83 46.41 17.03 35.62 40.14 46.79 46.52 40.06 40.47 43.21 48.97 43.88 39.18 39.97 40.50 37.61 39.45 39.36 37.53 38.60 40.30 37.62 41.06 39.13 38.01 34.68 32.14 33.72 30.17 34.48 40.01 41.00 43.03 44.92 46.88 47.83 49.63
50.98 50.96 51.30 47.50 46.45 45.04 45.68 43.99 45.77 34.42 22.72 33.25 39.48 39.79 40.05 41.58 40.67 43.16 42.55 44.08 43.88 40.86 40.03 40.15 42.99 41.39 41.64 42.23 41.93 42.74 39.59 38.14 36.84 34.01 27.63 33.51 32.04 31.02 35.46 40.78 42.80 45.62 47.04 48.02 49.18
50.66 50.77 49.20 47.69 42.36 43.45 43.34 41.30 31.88 25.33 35.63 30.94 33.94 38.46 38.17 37.71 38.14 39.05 37.34 36.77 34.49 31.78 32.03 37.21 39.54 42.07 42.82 39.02 40.36 39.37 34.79 28.15 26.89 26.92 27.01 34.96 31.94 34.94 40.83 42.86 44.42 45.30 46.43 47.95 49.09
50.13 49.64 48.04 48.57 45.89 45.05 41.26 34.24 24.02 30.90 31.14 36.80 35.57 35.81 34.42 37.05 37.79 38.23 34.59 31.55 36.98 37.14 33.59 31.68 29.80 39.44 42.14 40.31 37.56 36.47 35.73 28.46 23.85 24.67 27.78 35.70 31.37 36.82 43.43 45.51 45.28 45.98 47.34 47.80 48.78
49.20 43.67 44.64 45.11 46.25 44.58 36.98 25.19 26.24 31.36 34.40 33.46 34.31 31.68 32.91 35.87 36.91 38.02 35.54 33.34 36.09 39.46 34.62 32.32 32.89 41.02 41.92 43.11 42.58 36.94 33.29 38.17 31.51 31.35 28.89 31.36 35.26 40.74 43.14 43.61 44.00 43.70 47.32 46.01 47.79
41.12 41.38 42.00 46.97 47.58 43.62 33.73 26.54 30.78 38.08 35.70 34.95 28.82 32.97 29.79 32.31 33.21 33.52 36.08 40.21 38.78 39.96 41.37 38.07 32.33 40.00 41.39 42.01 40.90 39.60 40.80 33.01 31.43 26.60 25.40 29.03 30.88 32.94 39.14 41.97 43.24 42.07 44.32 47.31 46.84
39.81 37.38 44.76 47.84 46.95 38.28 28.12 29.03 30.71 35.48 35.89 33.14 32.06 30.94 32.14 31.34 33.17 32.57 33.82 39.55 41.35 42.90 40.92 37.03 34.54 35.00 39.38 36.84 35.88 36.39 34.77 35.91 35.78 31.39 26.33 25.05 28.82 38.85 40.79 42.39 42.73 43.14 43.36 45.33 47.69
40.59 32.11 45.14 46.51 34.39 34.14 29.89 32.28 36.05 33.31 36.67 36.08 35.49 33.58 32.48 32.80 30.71 32.75 33.45 37.68 39.41 43.40 38.66 40.85 35.59 30.44 34.73 39.93 41.13 38.91 36.88 37.31 30.27 29.91 30.39 27.67 30.46 41.49 42.83 43.20 43.63 44.52 44.41 43.71 47.28
36.73 36.39 45.25 44.38 29.78 30.47 34.19 32.67 33.36 32.74 33.97 34.27 33.66 34.33 34.84 31.24 28.20 33.02 35.45 40.88 40.13 42.77 40.63 41.45 35.34 27.75 31.79 35.91 37.87 35.09 36.88 37.96 37.03 33.92 29.70 27.49 30.74 44.01 42.88 43.75 44.75 44.34 44.19 44.96 44.10
35.46 30.16 37.40 39.66 37.72 32.82 31.71 31.01 29.94 34.23 32.89 34.68 33.73 34.76 32.84 30.85 33.08 31.07 33.22 38.34 40.85 43.14 45.91 43.78 38.01 34.49 29.18 33.01 37.41 34.32 37.01 37.03 36.55 29.57 29.92 30.73 34.04 40.67 43.10 43.28 44.89 44.48 44.56 44.69 45.05
36.32 31.37 36.20 29.82 31.76 33.17 33.60 32.85 29.69 29.43 33.34 34.44 31.61 32.18 30.86 27.54 28.63 28.86 34.07 35.28 37.58 42.00 43.98 41.60 33.23 37.78 38.37 38.70 38.61 36.58 36.50 37.03 35.01 34.94 32.44 34.26 34.99 40.08 43.50 43.22 44.13 45.24 44.91 44.94 45.69
31.65 33.58 38.10 35.78 35.71 34.00 33.31 30.65 30.79 31.75 32.98 30.24 29.85 32.47 32.13 28.86 30.07 28.31 31.54 31.56 32.30 38.14 38.93 41.00 33.68 35.01 33.63 38.29 35.70 34.05 36.89 36.70 37.03 36.61 36.47 37.00 35.99 41.85 44.64 44.29 43.15 44.61 44.77 44.56 45.33
39.76 39.79 38.69 35.26 34.62 32.13 31.48 32.36 31.46 34.25 34.83 34.83 33.47 31.57 30.07 32.37 34.95 35.58 35.84 35.48 35.37 34.07 33.72 37.43 34.46 30.88 28.20 33.65 33.88 29.19 32.81 33.73 36.30 38.53 38.69 34.21 38.80 43.00 42.23 43.64 43.74 45.20 44.95 45.07 45.44

GFSSW_sfc_wetblb_057.txt.gz
Wetbulb
54.92 54.81 54.73 54.83 55.16 55.39 55.58 55.13 54.99 54.27 54.15 54.16 54.27 54.20 54.77 55.39 54.55 52.54 48.03 51.99 55.08 59.30 58.07 52.62 50.92 50.43 49.62 48.31 48.49 46.96 43.41 40.13 41.41 40.81 44.07 49.87 50.22 52.99 54.78 53.88 55.89 58.01 57.11 59.26 61.40
53.37 53.60 53.66 53.85 54.65 54.92 55.13 55.04 55.02 54.98 54.63 54.39 54.33 54.79 54.97 54.69 51.40 48.35 54.81 58.32 59.60 60.78 51.03 50.09 47.99 48.94 47.65 47.89 47.42 46.52 42.43 42.38 44.85 45.00 45.51 47.07 50.57 50.74 51.34 50.83 52.50 54.95 58.15 60.15 60.37
53.17 53.17 53.13 53.20 53.20 54.18 54.31 54.54 54.40 53.79 54.32 54.24 54.49 54.90 54.64 53.94 46.91 46.02 61.09 61.06 60.56 60.85 52.75 51.02 51.36 50.25 46.83 47.13 46.10 44.29 42.91 44.58 45.75 46.69 46.73 45.44 47.99 52.39 50.59 49.15 52.31 53.18 55.43 58.09 58.52
52.89 52.91 53.02 53.21 53.34 53.16 53.83 53.87 53.77 53.01 52.98 52.92 53.53 54.37 54.27 52.61 35.74 50.97 61.61 61.26 61.31 58.49 51.00 50.44 49.71 47.39 45.14 44.32 45.96 42.94 45.02 45.51 46.48 46.16 46.98 46.52 51.10 50.22 51.29 52.63 56.50 55.93 56.71 57.06 56.38
52.66 52.63 52.65 52.98 53.04 53.17 53.58 53.58 53.60 52.95 52.69 52.64 53.29 53.95 50.78 44.57 43.52 53.29 57.59 60.84 58.62 52.76 49.51 48.50 47.94 45.83 43.95 43.95 43.70 42.99 44.70 44.98 46.50 46.56 47.08 50.98 50.55 51.38 52.12 54.87 56.81 56.86 57.11 56.91 55.79
53.15 53.03 52.64 52.56 52.53 52.77 53.17 53.02 53.02 53.06 53.19 52.46 53.10 52.97 47.63 38.07 49.56 53.29 51.80 53.35 52.59 49.89 49.41 48.97 48.07 47.93 45.31 44.51 44.52 46.01 45.05 46.84 47.68 47.49 48.44 49.04 49.88 52.57 53.08 56.42 55.67 56.27 56.32 56.43 55.41
53.34 53.39 53.45 52.90 52.92 53.31 53.10 52.71 52.67 52.57 53.06 52.27 52.72 50.65 44.10 40.93 50.61 51.61 51.59 51.24 52.37 50.21 48.84 49.99 49.88 47.45 47.28 44.96 47.25 47.31 44.59 45.37 46.07 46.53 47.91 51.22 47.53 49.12 53.57 55.87 54.69 54.92 55.93 55.92 55.72
52.91 53.48 53.17 53.39 53.31 53.21 52.98 52.51 52.30 52.59 52.78 53.03 53.14 49.07 40.30 50.58 53.14 51.50 51.74 50.40 51.82 51.93 50.61 51.47 50.77 48.37 47.36 48.35 45.82 44.50 43.13 40.25 44.39 47.20 47.43 49.85 43.15 47.16 52.41 54.60 53.80 54.21 54.27 53.40 54.51
52.73 53.06 52.94 52.78 52.72 52.78 52.79 52.41 52.20 52.21 53.55 53.40 49.25 46.35 39.60 52.39 49.98 52.91 52.07 48.58 49.71 51.41 51.82 52.61 50.39 47.22 46.53 43.63 41.59 40.72 38.30 38.57 41.04 46.19 47.26 47.45 44.69 48.19 52.96 53.41 52.93 53.51 53.74 53.83 53.08
52.28 52.75 52.67 52.43 52.38 52.34 52.18 51.90 51.04 51.75 51.43 51.29 49.62 41.30 43.86 40.98 50.22 52.04 52.97 51.56 47.74 49.11 48.32 48.44 46.13 43.44 42.17 41.62 34.88 37.31 37.31 38.28 39.85 44.92 46.44 44.91 45.23 48.17 51.03 52.87 52.65 53.46 53.27 53.23 52.40
51.59 51.86 52.49 52.39 52.35 52.05 50.21 45.26 42.72 41.60 42.99 42.26 42.57 41.69 43.90 50.47 53.20 51.95 52.19 50.15 48.58 46.73 42.45 45.17 41.86 38.48 40.75 43.42 41.99 41.02 38.91 38.51 40.65 43.24 42.66 42.63 43.11 46.05 47.27 50.99 51.81 53.03 53.26 52.94 52.51
51.25 51.83 52.25 52.23 51.95 51.72 46.84 43.17 42.88 42.36 36.47 42.99 42.70 42.88 46.22 48.62 42.36 47.62 51.84 46.33 44.13 39.76 43.41 41.12 38.69 43.71 43.79 42.96 41.95 40.91 38.93 39.31 41.81 42.50 42.32 43.35 43.25 46.81 47.54 49.13 50.89 52.13 53.24 53.61 52.66
50.68 51.16 51.74 51.73 51.71 45.82 43.98 43.69 47.77 46.30 37.31 40.50 43.51 41.97 42.68 45.16 40.97 42.26 48.80 46.43 42.80 40.11 41.23 39.74 41.55 44.47 42.86 41.01 39.61 40.52 39.21 38.87 39.45 41.12 43.21 42.23 42.05 44.29 47.16 48.21 49.49 51.14 53.30 54.17 53.18
50.65 51.02 51.24 50.93 44.78 44.18 42.11 47.18 47.82 46.62 33.66 34.28 39.43 42.63 44.58 44.81 39.56 46.44 47.20 46.27 42.89 39.72 41.08 41.06 44.16 41.91 41.29 40.24 41.24 37.22 41.53 41.32 39.39 38.51 35.73 42.92 34.70 42.02 45.72 45.98 47.81 49.92 50.82 52.22 52.77
50.32 50.38 50.77 50.82 46.05 42.29 44.65 47.63 46.76 45.85 19.63 36.41 39.98 47.21 45.88 40.22 40.88 43.32 48.09 44.81 41.69 40.49 41.80 39.13 40.27 40.33 39.27 40.56 42.61 40.29 43.18 41.55 40.89 38.74 38.02 38.65 36.81 40.60 43.03 44.29 47.21 50.04 51.02 51.81 52.98
49.65 49.94 50.47 47.14 47.43 46.46 46.57 45.25 45.49 32.51 21.45 33.78 40.25 40.00 39.28 41.24 41.08 44.22 43.75 46.52 45.94 42.22 42.92 41.30 45.42 43.97 43.07 43.06 43.58 44.15 42.22 41.35 40.30 38.95 32.94 37.91 37.75 38.64 41.42 44.29 47.18 49.19 50.90 51.77 52.38
49.26 49.84 48.56 49.13 43.25 45.95 45.77 41.81 30.96 23.64 36.00 32.56 33.87 37.65 36.75 36.46 38.76 39.84 38.94 38.70 37.13 34.14 35.65 39.89 40.87 43.77 44.48 41.40 42.86 42.52 39.71 33.33 32.00 32.03 32.00 38.23 36.04 40.17 44.99 46.51 47.33 49.12 50.72 51.99 52.63
48.92 49.05 47.16 48.24 48.10 47.75 43.54 34.76 23.07 30.08 32.32 37.26 36.32 36.10 33.41 37.86 38.16 38.09 36.19 34.84 39.12 38.56 35.64 34.15 32.05 41.23 44.50 42.33 39.60 39.81 39.66 34.24 28.35 29.51 33.58 38.53 34.96 40.80 47.93 48.88 49.03 49.62 50.35 51.54 52.30
48.27 43.88 44.27 45.50 48.63 46.81 37.90 25.91 26.46 30.34 34.73 32.80 34.88 32.24 33.02 36.03 35.94 37.75 35.88 34.57 36.92 39.17 35.39 33.96 34.37 42.17 43.24 44.25 44.46 38.89 36.23 41.84 35.17 35.45 33.28 36.44 40.20 44.54 47.68 47.24 48.75 48.47 48.61 50.58 52.83
41.94 40.82 40.71 46.49 48.09 44.23 33.61 28.30 29.42 36.13 35.18 34.64 29.48 33.31 29.66 32.42 32.97 34.70 36.84 37.44 37.28 40.26 42.88 39.54 34.10 41.15 42.10 44.37 44.05 42.82 43.56 36.17 35.82 29.22 27.85 33.20 35.87 38.84 43.80 45.75 47.04 48.23 47.57 50.01 52.64
41.49 36.46 41.84 46.99 47.02 38.57 28.44 29.67 32.07 35.88 35.85 32.67 31.31 30.59 31.83 31.12 32.65 32.35 35.61 37.87 38.71 40.71 41.71 40.55 38.15 37.16 41.48 39.27 38.64 39.56 38.94 39.50 39.33 35.94 31.36 29.96 35.31 44.81 45.67 47.10 47.40 49.20 48.82 49.17 50.28
39.99 30.57 44.09 47.04 34.52 34.68 30.93 32.52 35.74 33.76 36.29 35.39 35.93 33.94 32.19 32.73 31.44 31.98 32.92 37.29 40.75 42.66 40.05 42.19 37.18 32.60 35.98 41.42 43.18 42.35 40.10 40.60 34.77 32.78 34.40 33.62 36.28 46.07 47.13 48.20 48.37 49.20 49.90 50.51 49.58
35.69 35.65 44.53 44.31 28.37 28.99 34.53 33.69 34.14 32.56 34.27 34.15 33.53 34.65 35.58 32.53 29.38 33.26 35.17 40.63 40.58 39.62 42.02 43.08 37.36 31.66 34.03 38.50 40.95 38.43 39.08 40.72 39.58 37.36 34.00 32.97 36.15 46.17 47.33 47.46 49.06 48.53 50.80 50.22 49.57
35.86 29.43 35.56 39.10 36.82 32.02 31.59 31.66 30.39 34.70 33.71 34.83 33.66 35.32 33.43 31.64 34.37 31.70 33.45 38.33 40.56 39.56 45.54 44.85 39.50 35.27 31.22 34.57 39.15 37.18 39.27 40.24 38.39 33.45 34.75 35.32 38.28 43.56 45.88 47.16 48.92 49.47 51.31 50.89 50.11
35.84 31.35 35.73 28.84 31.43 32.64 33.47 32.84 29.90 29.28 33.86 34.53 32.02 32.58 31.96 28.66 29.90 30.19 34.18 35.85 37.93 40.96 43.02 42.99 35.39 37.69 38.93 39.14 39.26 37.64 37.55 38.66 37.16 37.78 34.44 37.22 37.62 42.63 45.15 46.72 48.87 49.71 48.95 49.35 50.07
32.01 33.40 35.85 33.90 34.85 33.37 34.29 31.67 30.99 31.50 32.53 30.61 30.85 33.26 33.42 29.99 31.29 29.65 32.47 32.78 32.43 37.14 36.42 38.25 36.01 36.95 34.13 37.99 37.35 34.76 37.80 36.62 38.27 38.50 38.42 39.20 39.26 44.45 45.89 47.10 46.82 48.19 48.41 48.79 49.65
38.96 39.15 37.12 33.34 32.17 32.02 31.10 32.19 32.20 34.47 35.43 35.92 34.57 32.75 31.07 33.06 36.26 36.90 37.38 36.92 36.16 33.49 32.73 34.12 36.02 33.06 29.83 34.85 34.22 30.73 36.13 36.64 37.94 39.23 39.14 35.31 39.40 43.00 45.29 45.47 45.96 47.54 49.12 47.71 48.92

GFSSW_sfc_wetblb_060.txt.gz
Wetbulb
53.86 53.86 54.09 54.04 54.29 54.37 54.47 54.67 54.63 54.21 54.39 54.80 54.78 55.00 55.29 55.51 54.41 53.89 50.27 54.88 57.29 60.06 59.02 58.82 56.91 54.70 54.82 52.95 54.02 53.66 46.78 44.80 45.50 46.40 47.72 50.87 51.33 55.27 57.42 55.25 58.22 60.02 59.76 61.53 62.83
53.62 53.87 53.85 53.80 54.27 54.45 54.28 53.98 54.41 53.75 53.61 53.73 54.42 55.03 55.29 55.01 53.23 49.44 56.71 58.24 59.02 60.52 56.67 55.19 53.49 53.03 50.49 50.68 51.66 49.75 46.50 46.36 48.45 49.88 48.60 50.62 51.11 52.00 53.00 53.13 55.61 57.63 61.25 62.24 62.51
53.08 53.20 53.25 53.47 53.77 54.32 54.49 54.35 54.08 53.42 53.44 53.52 54.01 54.45 54.69 54.91 47.69 47.74 60.63 61.94 60.51 60.98 57.35 56.22 55.15 51.78 48.24 50.47 50.25 49.30 46.48 49.03 48.77 50.47 50.95 50.81 51.11 52.90 52.41 51.27 53.84 55.08 58.18 61.03 61.49
53.02 53.06 53.19 53.27 53.26 53.24 53.76 53.65 53.82 53.04 53.04 53.21 53.26 53.59 54.57 54.32 37.83 52.41 60.08 62.12 60.32 60.30 55.30 53.83 52.73 48.89 47.52 47.04 50.20 46.67 49.33 49.46 49.70 50.51 50.26 50.53 52.73 52.24 53.67 54.28 58.08 58.11 59.57 60.95 60.31
53.00 52.98 53.19 53.17 53.19 53.38 53.69 53.63 53.36 52.99 52.77 52.93 53.04 53.28 53.01 46.07 43.13 50.25 58.23 60.20 60.12 57.70 53.51 52.75 51.25 50.09 47.12 48.13 49.20 47.48 48.57 49.92 51.00 50.73 50.36 52.17 51.72 52.41 53.50 57.14 58.89 59.08 59.45 59.95 59.32
53.42 53.69 53.16 53.06 53.19 53.10 53.73 53.70 53.48 53.25 53.03 52.81 52.98 52.74 49.95 41.90 48.47 52.59 54.51 54.57 55.69 56.02 54.28 53.52 51.67 52.38 49.23 48.33 47.61 48.88 49.40 49.36 50.20 50.76 51.46 50.12 51.00 53.31 53.61 57.34 58.34 58.52 58.84 59.45 59.00
53.47 53.65 53.85 53.24 53.15 53.01 53.31 53.40 53.21 53.17 53.21 53.14 52.78 51.92 47.11 45.65 49.81 51.11 50.68 50.52 53.22 54.83 52.52 55.30 54.88 50.76 50.08 47.79 50.38 49.21 46.60 48.76 49.72 50.40 49.80 51.87 48.83 51.44 55.19 57.83 57.42 58.30 58.94 59.20 59.02
52.39 53.07 53.23 53.11 53.15 53.05 53.03 52.78 52.82 53.09 53.48 53.08 53.46 51.51 43.86 52.35 52.59 51.19 51.88 50.65 51.67 53.87 54.02 54.48 55.21 51.76 50.13 50.87 48.88 46.48 47.13 43.53 48.57 49.41 50.26 51.74 44.91 50.89 54.68 56.70 56.43 57.79 58.35 58.74 58.99
52.15 52.61 52.66 52.60 52.62 52.48 52.44 52.33 52.45 52.64 53.39 52.98 51.08 48.89 43.53 52.57 49.39 51.82 54.16 48.40 49.69 50.97 53.84 54.36 52.83 50.07 49.90 46.04 44.61 46.05 41.78 43.45 45.74 49.78 49.97 51.01 47.14 51.67 55.24 55.28 54.72 57.02 58.08 58.16 58.49
51.72 51.82 52.28 52.38 52.28 52.01 51.85 51.90 52.01 52.08 53.18 53.08 51.49 44.35 47.26 43.18 49.00 53.18 54.83 52.66 48.45 48.29 50.37 50.58 49.71 46.20 46.68 44.49 38.87 41.90 42.46 44.12 43.94 47.33 48.55 48.51 48.33 51.17 53.83 54.84 55.09 56.14 57.75 58.40 58.01
50.89 51.17 51.45 52.30 52.05 52.02 50.95 51.44 46.89 46.04 45.44 41.72 43.97 44.86 46.58 51.16 54.01 49.23 53.83 51.49 50.09 47.56 44.68 48.25 44.72 41.33 43.52 46.40 45.87 45.19 43.65 42.94 45.35 47.12 46.08 46.45 47.17 49.46 51.87 52.85 54.66 56.39 57.19 58.08 58.51
50.11 50.73 50.90 51.67 51.85 51.60 51.05 46.29 42.84 44.31 37.36 45.11 45.05 44.81 47.01 48.08 43.88 47.56 53.19 46.16 46.52 41.78 46.31 45.76 41.68 45.54 46.80 47.05 45.20 44.07 42.51 42.84 45.34 46.79 45.47 45.26 45.58 49.34 51.48 51.86 53.69 55.78 57.09 57.91 58.84
49.75 50.15 50.49 51.44 51.46 50.67 48.30 46.80 49.94 48.55 39.15 41.86 46.04 44.36 45.21 46.30 41.47 44.27 49.34 47.94 44.66 43.66 42.48 42.60 43.37 46.66 45.95 44.48 42.92 43.43 42.09 42.80 42.66 44.87 46.13 44.95 44.01 47.28 50.54 52.41 53.42 55.14 57.26 58.41 58.95
49.79 50.10 50.43 50.57 47.95 49.57 47.37 50.13 51.53 49.87 34.38 37.36 41.50 44.66 45.79 45.09 39.65 46.87 48.14 46.70 43.28 41.55 43.80 41.98 45.25 43.93 44.98 43.41 44.35 40.58 45.32 44.29 43.65 42.69 38.57 45.28 38.06 45.80 48.53 49.61 51.16 52.62 55.84 57.23 58.88
49.65 49.44 50.30 50.11 48.45 46.32 48.41 51.40 51.16 47.55 25.81 39.37 41.89 49.93 46.99 42.32 41.94 43.52 47.94 44.45 38.37 40.20 43.69 41.55 41.80 41.58 42.04 43.67 45.70 42.59 46.03 44.51 44.42 42.95 42.16 41.40 39.96 43.91 47.74 46.91 49.39 51.57 53.57 56.97 58.52
48.83 49.19 49.78 49.05 50.41 49.38 51.43 51.27 48.75 34.82 25.07 35.55 41.21 40.63 40.78 42.57 41.49 44.89 43.70 46.30 45.53 40.90 43.84 43.92 47.09 45.31 44.45 45.38 46.21 46.67 44.29 44.17 44.29 42.87 36.31 40.88 41.23 42.07 45.20 47.43 48.37 50.52 52.56 55.39 57.52
48.17 48.59 48.52 49.28 45.66 50.97 50.67 46.69 34.09 27.86 37.64 35.12 36.06 40.02 39.74 38.54 40.10 40.93 40.46 38.44 37.76 33.76 36.42 41.56 42.57 46.18 47.11 42.79 45.98 45.12 42.28 36.47 34.31 35.30 34.53 43.02 41.23 43.34 48.13 50.31 50.80 50.94 52.68 55.60 57.71
47.84 48.33 48.80 48.42 51.02 50.61 46.30 38.69 26.67 31.88 33.66 39.88 38.32 38.74 36.38 39.82 40.17 40.31 39.12 36.66 41.34 39.73 37.67 34.53 33.66 42.26 46.37 44.23 42.18 42.50 42.56 37.87 30.56 32.94 37.64 43.08 38.40 43.96 49.60 51.74 52.89 53.50 54.38 55.35 57.08
47.45 47.31 46.42 48.62 50.91 50.26 39.59 29.95 30.63 33.07 36.87 36.10 38.05 34.61 35.43 38.52 38.39 39.15 38.73 37.93 39.58 41.83 35.67 35.19 36.37 44.47 45.56 46.70 45.78 42.44 39.51 44.74 38.83 40.19 38.06 41.31 43.91 48.13 49.87 50.17 51.53 52.01 53.12 54.26 55.65
45.11 44.05 43.42 49.71 51.84 46.03 35.09 29.22 33.24 37.97 38.06 37.09 31.94 35.48 31.96 35.43 35.90 38.37 38.06 39.89 39.51 43.12 43.81 40.72 34.97 42.37 44.47 46.97 47.06 45.48 47.07 38.29 39.97 31.81 31.00 38.03 39.61 41.86 45.83 48.18 49.65 51.28 52.53 53.45 55.87
43.23 37.98 45.70 50.03 49.81 38.74 28.57 30.78 35.36 39.09 39.16 35.53 34.19 33.68 34.54 33.74 35.71 35.49 37.85 39.69 40.44 40.67 44.26 41.38 40.32 39.93 43.62 42.14 41.88 42.68 41.62 42.96 43.06 40.34 34.51 33.57 38.97 47.69 47.81 49.89 50.56 52.11 53.57 54.60 54.58
41.17 31.91 47.40 49.47 34.68 34.92 30.02 33.98 37.65 37.03 39.81 38.07 38.05 36.56 35.19 35.87 34.37 34.61 34.02 38.76 41.41 42.66 39.63 41.67 39.57 36.71 39.83 43.92 46.08 45.65 43.17 43.26 37.59 36.65 39.70 39.29 39.98 49.07 49.80 50.74 51.87 52.93 53.72 55.49 55.53
36.30 35.58 46.02 46.48 28.89 30.07 34.59 34.76 36.99 35.93 36.95 36.59 36.02 37.58 38.43 35.09 32.09 35.41 36.72 41.23 41.55 40.13 41.34 44.36 38.50 31.86 34.65 40.11 42.82 41.52 43.00 43.23 44.04 43.12 38.59 36.32 39.64 48.82 49.51 50.00 51.69 52.35 54.18 55.19 55.33
36.79 30.95 37.06 39.77 38.43 33.84 32.59 32.48 32.69 38.63 37.40 38.26 36.84 38.37 36.41 34.55 37.60 34.63 36.10 39.13 41.47 42.12 43.22 45.95 41.48 36.98 32.81 36.68 41.68 39.21 41.50 43.01 42.34 37.86 38.26 39.11 40.88 45.02 46.68 47.63 49.90 51.68 53.41 54.22 54.90
36.12 32.85 37.12 30.77 31.55 33.03 34.00 34.18 32.39 32.34 37.39 38.31 35.46 35.82 34.46 31.06 33.83 33.38 36.73 38.40 39.83 41.43 42.96 42.70 35.86 39.28 39.84 40.44 41.08 40.43 40.53 41.59 41.11 41.90 38.10 40.79 41.08 44.57 47.11 47.56 49.36 51.33 51.94 52.53 53.45
32.56 32.18 36.90 35.28 36.29 32.79 31.61 31.71 32.22 34.63 35.02 33.98 33.72 36.06 36.35 33.16 34.64 32.64 35.99 36.53 35.77 39.21 38.28 40.93 35.84 37.74 35.46 39.13 39.50 37.17 40.02 41.10 41.26 42.60 42.72 43.28 42.65 47.93 48.24 49.02 49.71 50.85 51.88 51.26 51.56
39.48 40.60 35.61 33.79 33.67 32.27 32.30 33.25 34.06 36.77 36.80 38.31 37.28 35.15 34.92 36.58 39.34 40.28 40.49 40.39 39.69 37.52 35.86 36.60 37.98 35.32 31.23 36.94 36.55 32.97 38.21 39.98 42.20 44.05 43.76 40.41 44.54 46.40 45.59 48.16 50.04 51.27 51.37 51.11 51.79

GFSSW_sfc_wetblb_063.txt.gz
Wetbulb
53.78 54.00 54.02 54.00 54.04 54.21 54.29 54.13 54.10 53.83 54.05 54.21 54.19 54.93 55.04 55.34 54.37 55.83 50.58 55.88 56.80 59.39 59.18 58.85 59.60 58.32 56.64 54.01 54.78 54.90 47.78 46.00 47.34 47.94 49.15 52.37 50.73 54.30 56.09 54.38 55.45 58.57 59.37 62.45 64.92
53.35 53.51 53.55 53.48 53.56 53.77 53.87 53.87 54.02 53.31 53.45 53.94 54.20 54.47 54.67 54.62 53.55 52.38 58.33 61.66 61.04 59.26 55.61 55.78 55.34 56.00 52.68 52.35 52.86 50.54 47.26 47.32 51.22 50.99 50.00 51.51 51.93 52.23 52.82 52.87 54.06 56.50 60.41 63.05 63.78
53.05 53.08 53.30 53.46 53.33 53.51 53.81 54.06 53.89 53.29 53.34 53.81 54.10 54.29 54.17 54.17 51.12 51.58 59.09 62.24 62.30 60.48 55.88 56.34 57.13 54.99 51.21 51.92 51.09 50.74 46.85 50.46 51.26 50.84 51.91 51.52 51.47 53.39 51.88 50.82 53.89 54.96 56.45 60.22 62.80
53.28 52.96 53.11 53.30 53.37 53.39 54.08 54.05 53.80 53.61 53.53 53.44 53.59 53.76 54.14 53.61 42.42 52.14 59.36 61.81 60.19 59.67 56.75 56.06 54.45 52.33 50.39 48.75 51.02 47.88 50.43 50.66 51.23 51.61 50.57 50.47 52.59 51.84 53.12 53.81 56.37 58.41 59.70 59.87 61.55
52.74 53.04 53.40 53.54 53.56 53.59 54.01 53.84 54.17 53.88 53.58 53.61 53.64 53.63 52.09 49.26 50.30 56.33 58.68 59.95 61.05 57.99 55.58 53.66 52.24 51.86 48.99 49.48 49.94 48.84 49.75 50.93 51.52 51.03 51.26 51.99 50.89 51.77 52.47 55.24 57.53 59.25 60.13 60.30 61.45
53.15 53.50 53.42 53.23 52.99 52.90 53.47 53.59 53.53 53.67 53.70 53.29 53.51 52.78 50.11 42.80 55.32 56.14 53.01 51.21 50.88 56.17 55.84 54.77 52.92 53.56 50.92 49.84 49.42 50.62 50.19 50.44 50.93 50.94 51.54 49.84 50.74 51.72 53.66 56.27 56.40 58.97 59.49 60.71 61.15
52.57 52.79 52.95 52.79 52.62 52.70 53.08 53.16 53.10 53.30 53.45 53.15 53.36 52.93 47.92 46.13 54.46 54.80 52.98 50.69 49.86 48.65 51.01 56.35 55.89 52.73 52.70 49.71 51.73 50.55 47.46 49.21 49.89 50.52 49.70 51.76 48.52 49.65 53.38 55.63 56.21 58.55 59.76 60.74 61.04
52.11 52.16 52.79 52.79 52.73 52.90 52.96 52.75 52.67 52.89 53.34 53.25 53.70 53.24 45.27 52.61 55.21 54.44 54.79 52.13 52.13 51.10 50.28 55.12 56.17 54.31 51.72 52.14 50.09 47.54 47.83 44.22 49.31 50.19 50.84 50.52 45.28 51.06 54.23 56.02 55.66 57.57 59.19 60.09 61.24
51.68 51.87 52.27 52.30 52.55 52.41 52.39 52.40 52.23 53.04 52.97 53.51 53.20 50.99 45.03 53.72 50.05 52.44 52.88 49.93 51.39 51.28 51.41 51.70 53.96 50.86 51.23 46.91 45.28 47.34 42.74 44.50 46.65 51.15 50.27 49.39 47.24 51.50 55.44 55.07 55.05 56.57 58.56 59.51 60.33
50.92 51.09 51.62 51.88 52.16 51.92 51.79 51.51 53.06 52.66 53.08 55.03 53.33 46.75 49.77 46.24 49.49 53.29 56.46 54.20 50.79 49.91 48.42 47.44 49.26 47.17 46.08 44.68 37.78 42.47 43.78 45.69 45.70 49.10 49.26 48.36 48.90 51.39 54.50 54.84 54.83 55.80 57.19 58.94 59.67
49.99 50.46 50.76 51.29 51.59 51.58 51.38 53.49 48.95 48.97 49.69 44.81 45.82 47.09 47.09 51.52 53.41 52.18 54.63 53.27 51.00 47.82 41.44 45.43 42.89 42.60 44.68 45.44 45.36 45.97 46.09 45.38 47.83 49.79 48.02 47.48 47.89 50.86 52.65 53.35 53.90 55.59 56.45 58.25 59.84
49.60 49.87 50.51 50.58 51.25 51.31 52.14 47.63 46.58 47.04 40.25 46.73 47.10 47.24 49.13 49.29 44.02 48.77 54.45 47.91 46.45 41.74 44.04 41.60 40.80 45.74 47.05 46.47 45.46 45.61 44.61 44.53 47.32 48.48 46.91 46.76 46.34 49.71 51.34 51.85 53.57 54.34 55.97 57.56 59.41
48.81 49.44 50.18 50.69 51.04 51.11 50.20 49.01 52.90 50.47 40.98 44.37 47.50 46.95 47.39 48.02 43.20 45.35 50.10 49.08 45.03 41.50 42.55 38.52 43.53 46.87 45.40 44.88 43.72 45.40 44.28 44.57 44.52 47.48 47.76 46.48 44.29 46.66 50.06 52.07 53.25 54.25 55.48 57.02 58.66
48.53 49.13 50.25 50.22 47.87 50.26 47.77 51.99 53.71 51.46 36.83 41.14 43.96 47.16 48.28 46.26 41.21 47.79 50.62 48.57 45.15 41.63 42.96 43.05 45.48 44.71 44.18 43.34 45.45 42.35 47.20 46.13 45.14 44.21 40.91 47.85 39.19 45.87 48.43 49.74 51.70 53.28 54.50 55.78 57.33
48.76 48.96 50.04 49.71 48.31 46.02 49.62 53.73 53.77 48.41 29.52 40.84 44.32 51.30 48.49 44.01 44.34 44.71 48.44 47.80 42.23 41.99 41.92 41.93 43.43 41.90 42.07 43.88 46.44 44.30 47.65 46.11 45.33 44.10 44.09 44.04 41.01 44.26 48.58 48.16 50.32 52.28 53.93 55.66 57.72
47.84 48.54 49.07 48.91 50.54 50.65 52.92 53.17 50.38 35.70 29.10 38.26 42.99 42.40 43.05 44.94 44.24 44.92 44.77 46.79 46.16 40.69 41.83 41.36 45.87 45.95 44.80 45.12 46.47 47.72 45.98 45.77 45.61 44.37 38.43 43.04 42.05 42.90 46.61 48.33 50.58 50.99 53.16 54.44 57.43
47.65 48.24 47.62 48.68 44.83 51.81 52.59 47.71 36.50 30.77 39.47 37.45 38.61 41.20 41.37 41.33 42.57 42.54 41.20 39.51 36.35 31.56 34.48 39.33 40.05 44.99 47.56 42.62 45.51 45.18 43.20 36.99 36.02 36.88 35.58 44.64 42.93 44.16 48.77 50.32 51.39 51.82 52.34 54.94 56.85
47.50 47.82 48.03 49.29 49.29 52.51 49.47 40.60 29.41 35.01 35.73 41.23 40.33 40.68 38.21 41.30 42.24 42.76 40.60 37.30 40.35 40.64 37.22 34.51 31.90 41.46 46.44 44.26 41.79 43.35 42.79 37.86 31.58 34.30 38.53 44.73 39.90 45.21 51.17 52.14 52.40 52.80 53.64 54.97 57.27
46.87 46.39 46.68 49.48 51.44 50.32 42.59 32.47 33.52 36.24 38.81 37.79 38.66 35.91 36.84 40.07 40.50 41.25 41.08 39.88 40.94 41.11 36.13 36.11 36.20 43.88 45.03 46.52 45.33 43.02 40.64 44.93 39.62 41.98 39.12 42.26 45.12 49.39 51.03 50.79 51.82 52.58 53.32 53.98 55.41
44.11 44.14 44.46 50.98 51.92 47.42 36.93 31.76 36.70 39.77 40.23 38.95 33.30 36.49 34.31 37.15 38.53 39.95 40.37 42.55 40.73 43.01 43.95 41.34 35.20 42.36 44.23 46.43 46.53 44.06 47.12 39.23 41.02 32.30 31.62 39.26 41.60 43.52 46.65 48.45 50.70 51.34 53.04 54.40 55.95
43.13 37.31 47.47 51.18 50.21 40.30 32.13 34.08 37.24 40.70 41.10 37.61 36.28 35.72 37.00 36.37 37.84 38.11 38.58 41.72 42.74 41.97 45.09 42.86 40.70 38.99 43.65 42.03 41.51 41.78 41.52 43.39 42.92 40.64 34.53 33.93 39.76 49.36 47.70 50.32 50.95 52.85 53.82 55.00 55.80
41.00 32.53 48.38 49.91 37.50 37.81 32.56 36.18 38.67 39.18 41.38 39.50 39.67 38.60 37.46 38.20 36.71 37.22 36.77 40.07 43.18 42.67 42.54 43.10 40.09 35.29 38.68 44.87 47.18 45.61 43.13 43.99 38.40 36.28 40.72 39.91 39.91 49.93 49.77 50.08 52.00 52.25 53.85 55.62 56.14
35.44 37.15 48.12 47.42 31.29 32.93 36.31 36.20 37.69 37.57 38.23 37.97 37.21 39.30 40.44 37.65 33.99 38.08 38.68 42.62 42.87 40.80 40.42 43.74 38.15 32.66 35.50 41.23 44.49 42.71 44.95 45.01 44.60 43.69 38.04 37.08 39.88 50.01 50.32 49.16 50.64 52.16 53.78 55.15 55.82
37.37 32.58 38.07 41.77 40.33 35.59 33.32 33.76 34.62 39.49 38.61 39.85 38.79 39.86 38.36 36.73 39.35 36.43 38.12 40.97 42.45 41.35 42.48 43.19 41.63 37.19 32.50 37.60 41.77 39.27 42.45 43.91 42.61 38.19 39.63 40.22 42.91 46.41 48.51 47.61 49.07 51.41 53.28 53.97 55.07
37.93 34.07 37.58 31.62 34.85 35.14 36.11 35.57 33.37 33.28 38.83 39.46 36.96 37.56 36.79 33.83 35.33 35.46 38.77 40.23 42.02 41.97 41.91 41.40 36.53 39.65 41.08 42.25 43.02 41.65 41.19 41.81 40.72 41.47 38.06 41.30 41.97 45.77 47.71 48.70 48.94 50.95 52.62 53.29 53.90
34.67 34.05 37.98 36.21 37.76 35.28 34.94 32.64 33.37 36.03 36.99 35.48 35.31 37.15 38.00 34.86 36.01 34.41 38.05 39.01 38.45 41.00 39.71 42.33 34.51 37.40 37.19 40.81 41.41 39.87 42.29 43.39 43.20 43.51 43.41 43.63 43.28 49.25 50.20 49.25 49.00 51.15 51.86 52.29 53.26
40.74 41.10 38.20 34.20 34.58 33.93 34.13 34.11 34.30 37.36 38.93 39.88 38.35 37.60 36.51 38.17 40.90 41.71 42.72 42.17 40.99 38.92 37.99 38.50 36.63 34.77 30.93 37.56 36.93 34.17 39.67 41.13 42.17 44.48 44.36 40.39 45.42 48.51 46.99 47.72 49.16 50.14 51.93 52.01 52.65

GFSSW_sfc_wetblb_066.txt.gz
Wetbulb
53.51 53.63 53.73 53.76 53.70 53.98 54.06 54.03 54.20 53.69 53.82 53.93 53.95 54.41 54.70 55.19 53.96 53.24 50.63 54.80 56.38 60.32 58.57 54.87 56.94 56.88 57.66 54.03 54.02 53.67 46.33 44.08 45.50 46.75 48.45 52.68 50.93 53.93 54.63 53.00 54.09 55.35 56.62 62.42 65.58
53.13 53.50 53.60 53.53 53.73 53.66 53.82 54.27 54.42 53.90 53.88 53.97 53.97 54.54 54.96 54.60 50.74 50.74 58.40 62.22 61.94 60.97 54.42 50.35 51.96 55.44 52.81 52.05 52.14 49.46 46.27 45.74 49.50 50.28 49.74 51.09 51.31 51.74 51.64 52.11 53.20 53.96 58.64 63.56 63.18
53.18 53.50 53.36 53.17 53.61 54.02 54.31 54.37 54.35 53.71 53.71 54.25 54.33 54.80 54.56 53.65 48.91 51.38 58.66 61.51 61.62 61.51 57.81 52.86 53.13 54.16 51.49 52.26 50.51 49.49 45.88 49.02 49.85 51.40 51.56 50.00 50.69 52.48 50.90 49.56 52.23 54.06 56.11 60.45 62.70
52.73 52.78 53.04 53.70 53.68 54.06 54.13 53.96 53.82 53.46 53.46 53.63 53.97 54.32 54.47 51.39 42.27 52.32 59.57 61.87 60.20 60.57 57.89 52.66 50.58 49.79 49.65 48.19 50.70 46.50 48.93 49.77 50.17 51.24 50.69 49.12 51.07 50.24 51.23 52.87 55.33 55.69 57.97 58.71 60.77
52.81 53.46 53.38 53.37 53.39 53.23 53.51 53.55 53.73 53.41 53.33 53.48 53.55 53.73 51.46 45.32 46.92 54.97 59.26 60.65 58.68 58.78 54.30 52.14 49.97 49.98 47.15 49.23 49.93 47.85 48.36 49.64 50.67 51.10 50.52 51.05 49.32 49.78 50.91 53.76 55.24 56.16 59.02 59.44 60.45
52.73 52.71 52.67 53.10 52.98 52.75 53.07 53.26 53.36 53.30 53.36 53.10 53.32 53.11 48.54 40.15 51.90 54.68 55.28 52.80 50.69 52.66 55.59 54.29 51.54 51.93 49.57 48.98 48.60 50.13 48.97 48.84 50.20 50.22 50.67 49.00 49.04 50.10 51.51 53.50 53.81 56.32 57.99 59.48 60.26
51.83 51.98 52.29 52.47 52.12 52.05 52.93 52.82 52.74 53.03 53.36 53.01 53.23 52.23 47.06 44.68 52.00 52.23 52.16 50.74 50.70 49.34 47.12 53.73 55.35 51.85 51.22 48.26 51.29 49.75 46.49 48.43 49.01 49.73 49.14 50.58 46.97 48.56 51.93 52.90 52.59 54.87 57.60 59.08 61.37
51.91 51.70 52.07 52.16 52.14 52.39 52.27 52.08 52.17 52.62 53.22 53.45 53.72 51.99 44.43 53.30 54.24 52.33 53.16 52.41 53.93 52.70 50.02 49.97 53.12 52.28 51.03 52.49 49.93 46.80 46.72 42.47 47.59 49.07 49.68 49.07 43.40 49.17 52.66 52.40 51.74 54.73 57.12 58.65 60.23
50.92 50.88 51.59 51.73 51.86 51.59 51.63 51.63 51.62 52.80 53.65 54.27 51.53 50.02 45.06 55.68 50.62 51.96 52.61 50.41 51.70 52.08 51.40 50.71 49.45 48.10 49.23 45.93 43.39 44.36 39.84 42.11 44.09 49.37 49.13 48.09 45.14 49.98 52.85 52.96 53.43 54.91 56.11 58.11 59.57
50.24 50.01 50.58 51.18 51.32 50.86 50.65 50.93 52.38 53.26 53.69 54.46 53.87 47.28 50.25 47.04 51.51 52.89 55.77 53.28 49.15 50.04 49.23 47.51 45.64 42.57 45.06 42.82 36.60 39.18 40.26 42.74 43.40 47.55 48.77 47.30 47.15 49.88 52.50 53.43 53.99 54.08 55.00 57.30 58.38
49.39 49.68 49.97 50.85 50.92 50.78 49.43 49.99 47.53 47.72 50.54 46.24 46.86 46.51 47.96 50.72 51.45 49.83 53.65 52.85 51.52 48.87 43.04 45.62 39.84 36.46 42.38 44.57 45.30 44.00 42.28 41.87 45.49 49.04 48.03 47.23 46.95 48.61 51.46 51.96 53.31 53.87 54.83 55.52 58.08
49.08 49.28 49.47 50.45 50.72 50.69 49.83 48.12 47.10 47.58 39.60 46.71 46.93 46.90 48.76 49.90 44.59 46.61 53.16 47.76 47.17 42.11 45.00 41.95 36.82 42.20 44.94 45.65 44.14 43.14 40.99 41.49 46.14 48.89 47.30 46.69 46.16 48.76 50.07 51.41 52.48 53.20 54.55 55.49 57.41
48.74 48.98 48.98 50.07 50.56 49.73 50.07 48.38 53.13 51.54 40.17 44.17 47.80 47.10 47.60 48.72 44.50 44.42 48.45 48.66 45.32 42.49 42.60 39.41 40.95 43.69 42.84 43.61 42.78 42.80 41.27 42.14 42.89 46.61 47.86 45.99 44.02 46.23 49.19 50.34 52.03 52.86 54.52 55.81 56.88
48.52 48.29 49.64 49.74 46.60 49.65 46.91 52.02 53.44 51.85 35.00 42.76 44.46 47.78 49.12 47.08 42.54 48.61 48.57 47.06 45.10 41.13 42.67 40.95 45.27 41.99 40.84 41.92 43.37 39.50 44.79 44.26 44.37 43.44 39.20 46.56 37.77 45.48 48.16 48.24 49.96 51.73 53.70 54.22 55.08
48.11 47.77 49.34 48.86 45.68 44.91 49.31 52.63 52.73 48.97 27.39 42.41 44.56 51.86 49.28 44.83 45.45 45.35 48.33 46.52 42.58 41.88 41.94 39.46 41.74 39.10 38.53 40.84 45.04 41.64 46.79 45.02 44.91 42.72 42.37 42.29 40.15 43.81 47.56 46.35 48.61 51.15 53.35 54.39 55.70
47.54 47.66 48.71 46.56 47.66 48.81 51.84 52.27 49.20 34.00 28.10 38.59 44.19 43.71 43.81 45.65 45.38 45.74 43.96 46.67 47.83 43.36 43.03 41.13 45.16 43.05 41.86 43.92 45.54 46.59 43.66 44.03 44.61 42.61 35.70 40.66 40.68 41.33 45.00 47.25 49.35 51.88 53.43 54.26 55.30
47.32 47.51 47.11 47.34 42.72 50.18 51.21 46.41 34.19 28.69 40.53 37.89 39.40 41.55 41.18 40.82 42.83 43.32 40.85 38.04 36.72 33.41 33.98 38.64 39.58 43.57 44.79 40.79 44.15 43.36 39.40 33.18 32.82 33.89 33.31 42.62 40.73 43.42 48.41 50.13 50.89 51.52 52.33 54.64 56.63
47.60 47.58 46.90 46.93 48.52 50.65 46.95 38.12 27.44 36.16 38.49 41.95 40.42 40.53 36.94 39.88 42.23 42.89 40.57 37.56 39.73 38.45 35.32 32.99 31.79 40.82 44.46 42.05 39.83 40.15 38.61 34.29 28.85 31.78 35.31 43.15 38.27 43.36 50.76 51.91 52.55 52.34 53.98 55.04 55.63
47.00 44.97 44.96 47.73 50.64 49.64 39.47 30.02 31.70 36.23 39.68 38.29 39.16 35.63 36.24 39.59 39.99 41.57 41.39 40.10 41.57 40.51 33.76 33.76 33.85 43.99 44.45 44.91 44.44 39.70 35.67 42.52 37.85 38.96 35.20 40.81 43.75 48.51 50.74 50.32 50.89 51.58 52.67 53.31 55.66
43.27 42.11 41.84 50.52 51.40 45.48 34.59 30.13 35.97 41.03 40.64 40.13 33.59 36.46 34.72 37.58 37.41 39.38 40.11 42.42 41.24 43.21 43.73 38.93 32.14 41.17 43.34 44.94 44.61 43.16 44.76 35.70 38.21 29.51 29.35 38.83 40.76 41.55 47.20 48.63 50.32 50.86 52.76 54.76 55.80
41.27 35.98 44.53 50.62 48.22 39.44 28.49 32.01 37.14 41.70 41.48 37.85 36.37 35.42 36.85 36.42 37.83 37.57 39.43 42.00 43.21 41.32 43.20 41.77 38.18 37.46 42.80 40.07 39.41 40.57 39.26 40.21 40.24 38.16 33.22 32.59 38.04 49.80 48.66 50.43 50.94 52.13 53.49 55.36 56.06
39.74 31.74 46.80 50.24 36.42 35.68 30.60 35.53 39.65 39.62 41.84 39.30 39.56 37.97 37.20 37.78 36.94 36.90 37.32 40.36 43.24 42.46 39.19 42.65 39.62 34.08 36.87 44.15 44.74 43.49 40.64 41.04 35.06 34.75 38.27 37.37 38.67 50.57 49.97 49.68 50.90 52.09 53.76 55.03 56.35
36.48 36.25 45.46 46.42 30.21 32.37 35.98 35.68 38.11 37.49 38.03 37.90 37.00 38.78 39.94 37.13 33.75 37.31 38.85 42.99 42.96 40.59 37.97 38.77 37.19 31.35 33.64 39.43 42.97 40.61 42.34 42.55 42.24 40.34 35.98 35.05 37.44 50.10 49.64 49.27 50.19 50.66 52.69 53.43 54.61
36.09 30.91 36.80 41.50 39.56 35.05 32.89 33.85 33.77 39.32 37.71 39.00 38.29 39.78 37.59 35.86 38.44 35.82 37.71 41.78 42.89 42.58 41.64 41.06 37.55 35.77 30.85 34.65 39.53 38.39 40.98 42.29 41.75 35.91 36.95 37.66 41.71 44.83 47.60 48.42 49.08 49.96 51.76 52.88 54.06
36.07 32.57 36.14 31.38 33.99 34.42 35.25 35.11 33.10 33.06 38.86 39.06 36.62 37.32 36.43 33.29 35.12 35.04 38.15 39.17 41.35 42.87 41.35 39.52 34.31 37.66 38.43 40.62 41.36 39.73 39.71 41.52 38.83 40.16 36.36 39.62 40.80 45.15 47.26 48.44 49.08 51.19 51.63 52.67 53.41
32.88 33.46 36.64 33.19 35.43 34.18 34.53 32.94 32.79 35.17 36.32 35.48 34.99 37.06 37.80 34.41 35.65 33.87 37.14 37.67 37.40 41.60 39.55 40.21 34.65 36.17 35.03 40.59 40.95 39.24 40.81 41.53 42.03 42.42 41.44 42.14 41.48 47.30 49.99 50.42 49.66 50.42 51.38 51.00 51.54
39.23 39.44 37.34 33.60 33.66 32.44 33.31 33.80 34.14 36.66 37.89 39.61 38.11 37.34 36.02 37.90 40.54 41.70 42.23 41.76 40.20 38.42 37.87 36.79 35.40 33.40 31.15 36.46 36.68 34.43 39.79 40.72 41.52 42.70 43.56 37.62 42.25 46.00 47.53 47.29 48.55 50.20 50.29 49.89 50.35

GFSSW_sfc_wetblb_069.txt.gz
Wetbulb
53.25 53.57 53.82 53.58 53.59 53.72 53.99 54.01 54.86 54.16 54.04 54.13 54.40 54.56 54.95 55.48 54.43 49.76 45.80 52.02 54.85 59.26 58.02 52.56 50.93 51.93 51.61 49.60 50.50 48.48 41.00 38.06 39.60 41.72 44.46 49.25 46.72 50.08 51.50 50.04 52.03 53.19 52.76 60.99 63.81
53.10 53.24 53.49 53.19 53.59 54.39 54.10 54.14 54.57 53.86 53.94 54.35 54.23 54.65 55.09 54.96 50.09 46.61 53.25 60.41 60.20 60.27 53.20 48.84 46.16 48.04 47.00 47.18 47.76 45.32 38.73 40.68 45.49 46.46 46.17 48.03 46.96 49.33 47.46 49.17 51.11 50.78 60.39 63.25 62.14
52.42 52.84 53.10 53.54 53.60 54.07 54.11 54.16 54.06 53.35 53.50 54.22 54.26 54.49 54.70 53.56 45.84 48.58 59.02 60.06 60.10 60.87 56.15 54.50 51.56 46.59 46.44 48.19 46.46 44.69 41.47 45.05 46.49 48.87 48.58 46.85 46.15 48.13 48.05 46.65 49.03 50.35 57.52 59.66 59.25
52.69 53.27 53.28 52.94 52.95 53.10 53.73 53.35 53.32 53.02 53.17 53.15 53.65 53.78 54.23 50.03 36.09 47.54 59.13 60.68 61.23 58.71 57.01 53.38 48.50 42.17 41.73 44.16 48.18 43.04 46.46 47.08 47.35 48.87 47.81 46.31 46.70 46.26 46.74 49.52 52.02 52.20 56.64 59.11 58.67
51.91 52.46 52.63 52.56 52.43 52.53 52.97 52.92 52.86 52.56 52.72 53.01 53.50 53.49 49.35 42.61 42.94 50.63 58.98 60.01 58.37 56.95 53.04 51.34 45.88 43.35 41.58 44.74 46.93 45.46 46.40 47.89 48.65 48.58 48.19 48.58 45.89 46.31 46.91 48.94 51.15 53.04 56.45 55.38 57.23
52.37 52.43 52.18 52.27 52.18 51.99 52.30 52.34 52.47 52.55 52.28 52.74 53.25 52.74 46.25 36.71 48.72 50.23 50.36 49.63 51.19 47.77 50.90 50.72 49.58 47.56 46.40 45.82 44.50 47.48 47.40 47.71 48.56 47.81 47.50 46.66 45.91 44.85 48.28 49.35 49.42 50.90 54.91 55.58 56.62
51.27 51.67 51.59 51.31 51.36 51.29 51.65 51.74 51.49 51.88 51.82 52.28 53.35 50.78 44.58 41.27 49.44 50.14 50.14 48.26 48.39 46.64 44.81 46.70 46.49 46.59 47.85 45.29 48.51 47.90 44.17 46.21 46.92 46.58 45.90 47.34 43.46 44.67 47.49 48.92 48.52 49.40 54.61 55.63 57.21
50.55 50.87 51.36 51.13 51.36 51.64 51.54 51.17 51.03 51.53 51.76 52.55 53.43 49.79 41.82 51.68 51.37 50.91 50.19 48.77 50.12 49.08 48.46 48.77 47.32 45.60 46.52 48.71 47.61 44.41 43.39 38.59 44.99 46.70 47.42 44.49 40.64 45.56 47.33 47.48 47.06 47.35 52.54 55.13 56.91
50.75 50.62 51.04 50.77 50.78 51.08 51.02 50.87 50.90 51.67 52.77 53.75 49.51 46.83 42.43 54.87 49.63 51.58 50.62 47.59 48.77 49.86 49.06 51.13 46.66 43.20 45.27 41.51 39.05 41.44 34.76 37.83 42.15 46.95 45.97 43.09 41.87 46.53 47.50 47.67 47.00 47.65 50.88 53.66 56.23
49.58 50.24 50.37 50.37 50.27 50.13 50.25 50.13 50.60 51.95 51.99 52.74 51.21 45.04 48.01 47.06 49.51 50.12 51.11 52.89 47.55 46.19 46.79 44.56 41.78 37.98 39.41 37.90 31.05 35.28 36.97 37.68 39.02 43.87 45.32 43.12 42.89 46.64 48.09 47.35 49.25 49.23 49.88 52.25 55.87
48.80 49.06 49.40 50.06 49.97 49.83 48.06 43.91 42.46 42.59 43.93 43.39 44.82 45.32 47.40 50.07 49.12 46.71 48.82 51.04 49.23 43.88 38.58 42.50 36.46 33.19 37.03 40.95 42.57 41.75 40.54 38.87 40.88 45.19 43.72 43.68 44.20 43.98 48.05 46.36 47.16 48.17 48.92 49.19 55.10
48.54 48.54 48.80 49.50 50.03 49.71 46.49 42.76 45.14 44.11 37.78 44.80 44.58 44.50 46.82 47.17 42.68 46.22 47.59 42.92 44.75 38.79 41.62 39.51 34.49 40.63 43.56 42.73 40.10 41.38 39.38 38.50 42.70 45.87 44.76 43.91 43.74 44.05 46.32 45.68 46.75 48.75 48.39 49.45 53.55
48.95 48.67 48.61 49.38 49.45 46.58 44.87 45.40 51.25 47.58 36.29 39.98 45.05 44.39 45.34 47.15 42.63 43.18 44.60 44.66 42.15 39.59 40.19 38.43 40.19 43.96 42.01 39.35 37.84 39.17 39.30 39.34 40.13 43.92 44.76 43.33 41.16 41.78 46.85 47.43 47.56 49.00 51.19 52.01 53.91
48.85 48.73 48.71 49.46 44.35 43.11 41.38 49.79 50.62 49.02 32.64 36.57 42.30 45.41 47.51 46.49 41.19 47.14 46.39 43.49 41.77 39.16 41.40 40.77 44.08 42.09 39.15 37.79 39.70 35.93 43.94 43.49 41.94 39.99 33.81 43.59 33.66 40.19 44.53 46.09 47.34 46.63 46.73 51.07 52.21
48.68 48.37 48.58 48.31 42.15 39.55 44.56 49.98 49.85 44.88 20.30 43.05 43.38 50.75 48.70 42.79 43.64 42.89 46.15 43.11 37.99 41.04 40.79 38.16 40.84 40.48 38.87 39.22 41.72 38.92 44.73 42.15 41.45 38.46 37.80 39.14 34.33 37.97 44.16 43.47 45.42 46.58 46.32 48.35 50.36
48.68 48.14 48.33 44.00 42.37 43.52 46.87 47.69 46.68 33.10 21.96 38.03 43.44 41.68 41.98 42.93 43.83 43.21 41.83 43.40 44.03 42.13 41.69 41.03 44.39 42.56 41.48 42.78 43.28 44.14 42.13 42.05 41.33 38.37 30.48 37.98 35.77 35.01 40.38 44.35 46.63 47.81 48.40 49.72 49.02
48.56 47.82 45.23 45.18 37.90 45.26 45.25 42.86 30.14 23.65 39.26 36.57 38.36 41.67 40.77 39.33 41.21 40.85 37.19 34.82 33.58 30.94 32.46 38.05 39.15 41.97 43.52 38.87 42.59 41.70 37.73 32.01 30.28 28.92 28.00 40.33 37.34 38.94 44.62 48.11 48.88 47.99 47.47 48.55 50.22
47.87 47.74 45.27 44.40 43.13 43.76 42.45 36.32 24.12 33.11 35.23 42.16 40.19 39.47 36.09 38.45 38.88 40.19 36.12 31.23 35.87 35.08 31.41 31.31 29.54 38.48 42.43 39.34 37.49 38.14 37.29 32.14 26.98 27.91 31.85 41.11 33.88 39.46 47.21 49.48 50.86 48.86 48.59 50.02 50.75
47.40 40.80 40.20 42.38 44.08 42.22 37.91 26.08 26.88 32.02 37.80 37.55 38.21 34.77 34.16 37.37 38.30 39.24 37.01 35.70 36.28 36.55 30.54 31.33 33.00 41.73 43.44 43.96 42.77 37.97 34.26 40.16 33.16 34.91 31.27 35.88 40.80 45.13 47.42 48.07 48.40 48.61 49.03 47.58 49.52
38.93 37.83 38.58 43.75 44.70 40.15 33.44 26.89 30.60 37.12 38.36 38.40 32.54 35.63 31.76 36.17 36.07 35.59 37.01 41.25 40.25 40.39 39.81 36.58 30.45 39.94 42.76 43.92 44.07 40.91 42.51 33.05 33.56 28.13 26.91 34.29 37.49 37.69 43.72 46.08 47.91 47.58 47.32 48.58 49.84
37.35 33.02 38.87 43.39 44.51 36.54 25.51 27.91 32.18 37.54 38.27 36.26 34.88 33.82 34.40 34.42 35.29 34.73 38.31 40.89 41.29 40.06 41.04 38.14 35.86 35.09 40.57 38.64 37.27 38.39 36.68 37.48 37.38 35.42 30.13 29.85 35.02 45.48 44.27 46.49 47.91 49.03 49.60 49.52 50.20
36.64 28.95 40.32 46.14 32.43 33.32 27.40 31.27 36.18 34.70 38.62 37.05 37.41 35.79 34.04 34.78 34.12 34.75 35.20 39.42 42.21 40.45 36.51 38.55 35.75 31.67 34.97 41.76 43.42 41.80 39.08 38.34 33.04 33.05 35.51 31.67 33.83 47.45 45.84 46.87 47.89 48.22 49.69 50.73 51.71
34.15 32.46 40.24 41.57 27.57 27.98 32.06 32.16 33.86 32.95 34.29 36.13 35.33 37.44 37.33 33.54 30.92 35.39 36.81 42.11 41.50 39.17 36.09 37.89 33.96 29.23 31.47 37.49 41.34 38.13 40.18 40.87 39.60 38.61 34.97 32.26 34.27 47.91 48.25 47.47 48.19 47.62 48.84 51.20 51.81
34.20 27.52 31.34 34.92 33.92 32.03 30.43 30.03 31.17 37.16 35.69 37.25 35.52 36.84 35.02 33.18 35.73 32.81 35.44 40.95 41.46 40.28 42.20 40.67 35.12 32.60 28.78 33.33 38.31 34.90 38.67 40.69 38.94 34.38 35.22 36.37 39.36 43.75 45.93 46.26 46.78 47.82 49.71 50.61 51.09
34.61 26.77 31.64 21.36 25.78 30.11 31.58 32.63 31.54 31.01 36.48 37.31 33.76 34.15 33.10 30.47 32.75 31.90 36.36 37.51 40.30 42.40 40.02 38.69 31.91 35.30 35.82 36.71 38.52 38.83 36.47 39.20 37.29 38.01 36.28 39.05 39.46 43.75 45.73 46.30 47.51 48.51 49.18 49.79 50.63
31.35 27.61 31.47 30.06 32.52 30.28 29.50 29.49 30.22 32.14 33.41 33.30 33.39 35.11 35.12 32.19 32.52 30.72 35.37 36.02 35.66 39.13 37.41 38.75 32.22 34.31 32.32 37.54 37.78 36.84 39.50 40.01 40.72 40.63 40.19 40.65 40.16 45.82 48.74 48.80 48.23 47.95 48.29 47.93 48.83
34.69 37.48 33.04 29.01 30.13 28.92 30.10 31.54 31.66 34.04 35.89 36.58 36.19 34.64 33.80 36.09 37.77 37.89 38.24 38.18 37.89 36.11 34.87 35.88 33.28 31.54 27.98 34.97 34.28 31.20 37.33 39.36 40.88 42.13 41.10 37.11 42.53 47.01 45.93 46.65 46.55 46.18 47.41 47.19 47.77

GFSSW_sfc_wetblb_072.txt.gz
Wetbulb
52.83 53.12 53.26 53.23 53.27 53.88 54.24 54.11 54.13 53.53 53.70 53.89 53.99 54.15 54.72 55.25 53.99 49.88 43.66 49.88 52.58 58.47 58.77 51.18 50.00 50.72 50.15 47.18 47.49 45.53 36.16 32.57 35.94 39.19 42.01 47.09 44.20 48.36 50.80 51.29 51.63 52.23 53.39 57.94 62.00
52.43 52.83 53.13 53.58 53.61 53.74 53.39 53.46 53.28 53.00 52.97 53.36 53.45 53.72 54.69 54.47 49.23 45.76 52.77 56.77 59.40 60.16 51.32 47.85 45.24 45.72 44.26 44.50 45.70 42.52 37.50 38.25 43.11 43.68 43.88 46.18 43.57 46.15 47.22 47.16 49.27 51.98 60.16 61.26 61.81
52.65 53.01 53.24 53.05 52.97 52.92 53.22 53.26 52.88 52.52 52.45 52.85 53.19 53.47 54.06 52.82 44.53 44.63 57.60 58.31 60.38 60.48 50.90 51.51 49.94 44.85 41.26 44.39 43.68 41.70 41.11 43.36 44.45 46.58 46.26 44.10 44.92 48.26 46.27 45.23 48.52 50.52 57.85 60.02 60.58
51.83 51.95 52.24 52.55 52.41 52.25 52.87 52.78 52.08 51.94 51.84 51.93 52.66 53.38 53.85 49.51 31.86 45.58 60.13 60.77 60.66 58.28 55.40 52.73 49.29 41.38 38.95 40.73 45.24 40.66 44.84 45.71 46.40 46.79 45.90 45.08 47.18 45.31 45.02 47.65 50.61 53.01 60.08 59.67 58.47
51.16 51.96 52.19 52.13 51.97 51.79 52.16 52.30 52.05 51.34 51.41 51.59 52.24 53.03 48.99 41.98 41.73 48.91 57.32 55.25 57.64 55.65 53.33 51.48 47.03 41.95 38.28 40.88 42.63 42.81 45.24 47.49 48.17 47.32 46.97 47.50 45.56 45.79 46.19 48.29 49.39 54.36 58.79 58.12 57.19
50.92 51.16 51.44 51.19 51.11 50.88 51.21 51.65 51.69 51.38 50.77 51.07 51.92 52.48 45.57 35.46 46.22 48.68 48.47 48.90 50.14 49.68 48.29 50.11 47.99 46.35 42.34 42.39 41.10 44.77 45.87 46.65 47.45 46.55 46.92 45.47 45.14 43.46 47.15 47.86 47.30 53.06 55.85 56.60 56.52
50.93 50.80 50.89 50.69 50.17 49.96 50.58 51.04 50.94 51.24 50.74 51.13 51.77 50.26 43.64 39.37 47.39 45.93 48.31 47.31 47.00 46.22 43.36 45.49 45.38 41.65 43.59 43.19 47.51 46.00 41.59 44.04 44.74 44.62 44.45 45.52 42.41 42.67 47.74 46.71 46.85 47.02 52.38 53.52 56.69
50.86 50.43 50.62 50.72 50.30 50.39 50.66 50.26 50.31 51.04 50.83 51.47 51.97 48.79 40.73 50.15 48.49 48.64 47.70 47.55 48.83 48.37 46.37 46.79 47.01 42.98 41.97 46.11 45.33 42.20 41.33 36.91 43.25 44.57 46.01 43.29 38.94 45.17 47.25 45.27 45.39 45.55 48.57 52.88 54.54
50.31 50.04 50.53 50.52 50.51 50.25 49.91 49.99 49.97 51.32 52.00 52.04 49.40 45.81 40.02 53.69 48.83 50.86 49.54 46.97 47.69 48.23 47.04 50.34 45.49 40.61 41.55 38.78 36.27 39.05 33.68 35.86 39.02 45.00 44.65 41.74 40.13 45.24 47.38 45.59 44.97 44.74 45.35 52.04 53.40
49.77 49.26 49.81 50.07 49.94 49.59 49.46 49.52 49.94 51.95 51.45 51.73 50.25 44.25 46.40 45.51 48.73 47.79 47.80 48.76 47.19 45.08 45.31 42.82 39.61 35.45 35.42 35.05 29.39 33.46 34.37 34.12 35.45 42.24 43.69 42.24 41.14 46.23 46.98 44.44 46.04 44.95 44.09 51.61 53.82
49.30 48.82 49.03 49.75 49.63 49.48 47.15 43.55 42.27 40.95 42.96 42.21 43.66 43.90 46.14 49.17 49.10 45.56 47.56 45.68 47.83 41.55 36.34 40.31 34.31 30.68 33.85 36.55 39.13 38.62 37.14 36.00 39.11 44.29 41.56 40.63 41.29 44.35 46.45 46.80 44.31 45.62 45.37 50.87 53.94
49.31 48.80 48.69 49.15 49.44 49.27 46.11 42.61 44.40 44.07 36.73 43.58 43.56 43.14 45.92 46.65 41.40 44.65 47.22 40.48 42.32 37.24 38.75 37.26 33.01 37.91 40.40 40.51 39.46 38.32 36.10 35.29 40.51 44.39 42.18 39.66 39.97 43.90 45.66 45.43 45.55 46.95 46.89 48.35 53.57
49.27 48.80 48.41 49.05 49.03 45.52 40.87 43.99 48.88 47.39 35.56 39.06 42.55 41.81 42.95 44.37 39.83 40.90 44.06 41.00 40.21 38.42 37.92 34.87 38.44 42.13 40.66 39.24 37.98 37.08 36.04 36.73 38.07 42.39 41.83 39.31 37.50 40.64 45.63 45.27 45.46 46.59 48.76 48.45 53.75
49.12 49.32 48.97 48.82 42.67 41.52 40.43 45.75 46.65 47.07 31.30 34.51 39.80 43.90 44.85 45.19 39.60 45.89 44.95 42.28 40.54 37.67 39.73 39.07 42.48 41.23 38.62 37.53 39.22 33.77 40.94 41.48 40.26 38.42 31.41 40.12 29.42 38.97 43.72 43.69 44.92 44.92 45.59 46.92 53.24
48.98 49.32 48.54 47.65 41.03 38.28 43.03 45.05 45.73 43.78 18.89 39.78 42.22 49.34 46.61 41.73 42.08 41.88 44.92 41.71 37.10 40.10 39.95 36.44 39.39 38.99 38.38 38.17 40.09 36.80 42.51 40.62 40.64 36.17 34.66 36.62 32.37 37.48 42.91 41.80 43.57 45.29 44.67 46.00 53.52
47.96 48.64 48.08 42.90 39.49 41.88 43.14 43.41 43.32 30.29 19.53 36.51 42.94 41.21 40.69 41.71 42.08 40.82 40.35 42.12 41.69 40.56 40.47 38.89 42.92 41.55 40.20 43.24 43.18 42.40 40.55 40.63 40.17 36.76 28.86 35.69 35.46 35.27 38.89 42.17 44.43 46.55 47.03 46.27 53.21
47.61 47.88 45.56 44.24 35.75 41.26 42.37 39.73 26.50 22.69 36.10 35.95 37.52 40.70 39.60 38.57 39.65 38.13 35.72 34.05 32.45 30.04 31.28 35.70 37.96 40.33 43.27 38.60 41.70 40.38 37.30 31.01 29.60 28.94 26.76 38.72 36.26 38.02 43.43 45.66 46.17 46.85 47.89 47.01 53.55
47.17 47.46 44.47 43.60 41.34 40.01 39.32 33.04 21.62 29.64 32.21 38.72 37.47 38.91 36.33 38.04 37.83 37.37 33.58 30.21 34.12 33.62 29.09 27.29 26.65 37.62 41.79 39.18 36.98 37.85 37.30 31.87 24.81 25.95 29.58 39.41 31.98 38.00 46.01 48.30 48.54 48.20 47.60 46.85 53.10
46.37 39.08 38.72 39.96 41.49 40.02 36.25 23.37 24.31 29.69 34.91 33.47 35.25 34.11 33.56 36.87 36.29 36.70 33.13 31.71 33.50 34.87 28.80 28.05 30.74 39.17 41.09 42.32 40.66 36.87 34.30 39.60 33.48 34.15 30.11 34.37 38.23 44.60 47.01 47.52 48.03 47.33 47.36 46.85 52.39
37.13 35.48 35.89 41.57 40.88 40.32 31.95 23.53 27.96 34.18 35.08 33.47 28.39 34.74 30.16 32.92 33.44 34.82 35.02 39.41 37.32 37.26 37.45 33.84 28.23 37.24 40.88 43.48 43.18 40.45 41.95 32.53 34.34 26.54 26.33 32.70 35.50 37.71 42.92 45.55 46.81 46.90 47.09 47.52 49.53
35.19 30.11 36.58 40.09 41.10 36.14 23.66 25.25 30.33 35.28 35.92 32.39 30.86 30.28 32.39 31.79 32.59 33.47 36.65 39.58 39.81 38.79 39.87 36.49 33.45 32.72 39.56 37.48 36.29 38.14 36.83 37.34 36.42 34.53 30.00 28.40 34.58 43.84 43.19 45.18 45.26 46.52 48.28 48.75 49.64
32.61 24.65 37.15 43.89 29.60 32.39 26.69 29.52 34.42 32.39 35.71 33.88 34.96 34.26 32.55 33.79 31.65 33.28 35.20 38.65 41.13 40.53 35.96 36.58 34.01 29.46 33.62 41.55 42.69 40.83 37.86 37.72 33.86 31.47 33.80 31.86 33.36 44.84 46.20 47.31 47.33 47.82 48.87 49.96 50.91
33.18 32.18 36.93 38.08 25.85 25.50 29.63 31.14 33.13 31.78 31.79 31.86 33.21 35.00 35.08 31.96 29.37 34.32 36.93 41.04 40.27 37.89 34.59 36.28 32.43 27.41 30.29 36.17 39.69 37.28 39.58 39.34 38.66 37.49 34.12 31.31 33.18 46.55 47.66 47.70 47.68 48.17 48.79 50.00 51.12
33.29 22.97 27.71 31.79 30.24 27.31 28.65 29.33 29.27 35.08 33.31 33.93 33.49 35.33 33.09 31.48 33.89 31.15 34.48 40.38 41.48 39.65 42.16 39.38 33.11 30.74 27.20 32.23 36.49 35.95 37.43 38.81 38.05 33.42 32.72 34.62 37.74 42.29 44.67 46.09 47.25 47.36 48.74 49.52 50.56
34.35 25.71 28.12 19.78 29.12 29.81 29.31 28.90 27.33 27.09 34.34 35.97 32.53 33.48 31.93 28.28 30.26 30.00 35.48 36.76 40.09 42.02 39.29 36.32 28.78 33.23 35.14 35.85 35.90 37.01 37.23 38.02 36.89 37.04 34.33 37.13 38.51 42.73 45.27 46.69 47.70 47.64 48.04 48.79 48.60
29.38 24.84 29.30 27.70 30.09 27.54 28.08 26.34 25.82 29.29 32.97 31.40 31.22 34.09 34.58 30.90 31.96 29.82 34.51 34.55 34.61 38.15 36.16 36.91 29.35 31.89 31.14 36.07 36.09 33.71 37.19 38.80 37.62 38.84 38.28 39.14 38.77 45.76 48.11 48.45 47.20 46.95 46.73 46.81 46.39
35.72 33.87 30.04 27.42 26.04 22.76 27.66 28.89 28.38 31.15 34.33 34.68 33.86 33.19 32.19 34.95 37.06 36.68 37.27 37.26 36.95 34.46 33.70 33.77 31.39 28.98 25.75 32.43 32.53 30.09 35.55 38.41 38.37 40.82 40.12 37.05 41.76 45.67 45.67 46.02 45.79 44.51 45.32 44.97 43.77

GFSSW_sfc_wetblb_075.txt.gz
Wetbulb
52.56 52.78 53.05 53.32 53.64 53.25 53.23 53.14 52.92 52.90 52.92 52.96 52.99 53.21 53.70 54.07 53.64 48.78 43.05 48.08 50.46 56.61 58.39 50.36 49.53 50.05 48.69 46.15 46.86 43.52 34.39 29.96 34.47 37.42 39.68 44.79 41.55 45.37 47.07 46.02 49.27 51.19 55.24 56.95 60.55
52.58 52.74 52.84 52.98 52.90 52.88 52.69 52.57 52.47 52.25 52.24 52.17 52.15 52.46 53.64 54.00 48.24 44.20 49.96 56.35 57.16 59.81 50.70 46.51 43.88 45.32 42.64 42.65 44.22 41.02 34.22 35.29 40.33 42.79 41.87 43.10 40.49 44.41 44.35 45.29 46.42 47.83 58.58 59.77 60.94
51.76 51.84 52.02 52.21 52.45 52.38 52.05 52.20 51.91 51.85 51.76 51.69 51.66 52.00 53.41 52.32 42.08 40.34 56.97 57.70 58.14 59.44 50.40 48.22 47.38 42.96 38.37 41.60 42.58 40.73 38.55 40.52 42.90 45.33 43.93 40.76 43.15 44.75 44.49 43.81 45.89 45.95 53.78 58.18 59.34
51.40 51.32 51.91 52.20 52.20 51.94 51.85 52.07 51.32 51.24 51.27 51.17 51.32 51.83 52.46 48.26 31.42 45.04 59.89 59.44 59.50 57.10 52.27 51.86 48.44 40.87 36.94 36.94 42.32 39.61 42.38 44.95 44.19 45.04 42.70 42.17 43.56 43.95 43.25 46.02 48.76 48.05 55.76 58.34 58.16
50.85 50.88 51.25 51.69 51.46 51.05 51.38 51.48 50.96 50.64 50.60 50.92 51.08 51.69 48.52 40.80 40.28 47.19 55.84 52.77 51.03 54.88 52.07 50.66 46.29 41.46 36.84 38.08 39.77 40.78 43.12 45.34 45.91 45.87 44.50 45.15 43.37 44.36 45.07 47.85 48.72 48.17 58.48 58.16 58.38
50.58 51.11 51.17 51.03 50.67 50.35 51.00 51.08 51.02 50.77 50.11 50.54 51.01 51.54 45.03 35.01 45.70 46.77 46.80 46.97 46.96 51.32 49.74 49.41 47.06 45.91 41.62 39.75 38.05 41.56 42.69 43.41 44.77 45.34 45.41 44.48 44.76 42.33 46.42 48.16 45.87 48.04 57.14 57.96 57.76
50.83 50.85 50.41 50.01 49.90 49.79 50.11 50.96 50.62 50.73 50.23 50.81 51.26 49.12 43.59 39.80 46.57 46.21 47.12 45.46 45.71 45.18 42.43 43.66 44.32 40.38 40.70 39.34 44.57 43.86 40.32 42.38 42.53 42.25 42.12 44.22 40.71 41.03 46.15 46.82 45.01 46.14 54.53 57.01 57.13
50.81 50.51 50.70 50.19 50.00 50.17 50.50 50.24 50.16 50.85 51.17 51.63 51.53 48.11 40.24 49.68 47.85 47.57 46.68 46.26 47.58 47.14 44.87 45.73 45.05 42.09 39.56 42.24 43.10 40.38 39.66 35.05 41.38 42.84 43.31 42.31 37.60 43.34 45.43 44.32 43.78 44.50 48.05 54.57 54.53
49.96 50.13 50.26 50.09 49.95 49.86 49.50 49.47 50.35 51.31 52.62 51.72 48.40 45.87 39.26 51.79 48.75 50.31 48.46 46.14 46.74 46.47 45.75 48.56 44.55 40.09 38.93 35.19 34.01 35.84 32.70 34.35 37.59 43.23 42.09 39.98 38.77 42.75 44.95 44.43 43.08 43.69 43.36 50.65 52.34
49.72 49.79 49.89 49.90 49.82 49.40 48.93 49.91 50.65 50.98 51.39 51.27 49.83 42.83 44.56 43.97 48.84 48.68 47.75 48.17 45.08 44.12 43.80 41.70 38.37 34.30 33.26 33.14 27.58 31.11 32.23 31.78 33.93 38.14 40.64 38.58 37.80 42.36 45.91 44.39 44.17 43.33 43.32 47.62 51.01
49.62 49.51 49.55 49.76 49.73 48.99 47.49 44.60 42.84 41.24 43.63 41.81 43.12 43.32 44.82 48.59 48.64 45.38 46.88 44.78 46.06 40.95 34.99 38.73 32.60 29.61 31.84 34.47 36.92 36.55 34.98 33.25 35.29 40.81 39.55 38.84 39.05 41.02 43.01 42.62 42.23 44.61 46.11 43.60 50.57
49.19 49.01 48.89 49.24 49.21 48.91 43.33 41.82 41.10 41.57 36.93 43.48 42.88 42.71 46.71 47.87 41.30 44.37 46.59 40.45 39.48 36.50 36.70 35.02 31.57 36.41 37.62 37.10 36.55 36.49 34.18 33.66 37.96 41.53 41.65 37.30 37.43 41.51 43.52 42.86 44.69 45.41 46.05 44.54 48.97
48.93 48.54 48.70 48.78 48.78 42.48 38.74 41.91 45.00 42.97 35.31 38.30 41.85 41.28 42.38 44.14 39.46 40.28 43.37 40.49 38.41 36.20 36.01 32.21 35.86 41.13 38.45 36.78 35.69 35.72 33.83 34.56 35.21 40.46 41.82 37.65 36.82 39.38 43.21 44.15 45.31 45.26 46.33 47.25 50.83
48.34 48.63 49.29 48.44 40.09 39.87 38.60 43.35 43.12 42.84 29.34 33.00 38.39 41.59 43.50 43.32 37.15 43.79 44.63 41.14 38.35 36.81 37.48 36.18 40.14 39.76 37.31 36.44 37.39 32.66 38.70 38.44 38.46 36.82 31.12 37.67 28.13 36.59 40.19 42.10 43.82 44.41 44.05 45.97 51.34
48.16 47.84 48.74 47.44 38.57 36.43 40.84 42.16 43.15 42.07 17.79 37.04 41.50 48.56 45.18 40.39 41.27 41.27 44.36 40.78 36.87 39.42 39.25 35.40 38.02 37.68 36.60 37.53 39.53 35.78 40.59 39.24 39.06 36.32 35.10 34.85 30.65 34.91 40.38 40.49 43.50 44.58 44.42 44.93 50.16
47.61 47.56 48.31 41.77 38.29 39.12 40.61 41.70 41.04 26.73 17.29 33.88 41.80 40.11 39.41 41.37 41.36 40.19 40.30 41.89 41.10 39.26 39.41 37.47 41.46 40.41 39.04 41.02 41.22 41.77 39.89 39.19 38.50 36.68 29.94 33.60 32.45 31.21 36.16 41.37 43.92 45.62 45.79 44.94 46.77
47.08 47.10 45.53 43.70 35.05 39.20 39.68 37.39 24.97 21.75 33.68 32.69 34.39 37.13 38.32 37.70 38.74 37.64 35.56 33.96 31.97 29.52 29.94 34.52 36.72 39.08 41.93 36.64 40.33 40.50 36.36 29.33 27.99 28.39 27.18 35.85 33.19 35.32 41.11 44.62 46.07 46.78 47.41 46.71 47.08
46.40 46.60 43.58 42.84 40.01 39.50 36.97 30.45 19.77 26.97 29.90 36.03 34.74 34.29 33.49 37.97 37.68 36.58 33.23 29.91 33.52 33.21 28.51 26.76 24.27 36.38 40.61 37.43 36.02 36.89 35.76 30.10 23.71 25.12 26.90 37.28 30.85 36.53 44.79 47.27 47.49 47.97 46.58 46.73 45.72
44.85 37.93 36.60 38.11 40.14 38.74 34.04 19.69 22.09 27.16 32.74 30.05 32.81 32.90 32.64 35.15 33.82 34.62 32.23 30.92 32.58 34.02 28.48 26.46 27.87 37.65 39.98 40.58 39.85 37.28 33.37 38.64 33.56 33.81 28.12 31.35 37.65 42.83 46.38 46.03 46.61 46.60 46.48 44.82 45.95
36.37 33.72 34.18 38.84 40.38 39.82 29.81 22.60 25.63 32.47 32.59 31.74 27.12 32.00 27.74 30.43 30.60 31.46 31.65 36.76 35.13 35.59 35.49 32.29 26.91 35.18 38.63 40.98 40.68 39.16 41.32 32.38 34.46 25.65 24.23 30.36 34.22 35.57 40.37 42.65 44.79 45.67 46.27 47.00 49.54
33.79 28.32 34.57 39.07 40.03 35.15 23.25 23.37 28.72 33.53 33.28 30.14 29.06 29.03 30.21 29.58 31.86 30.88 34.19 37.99 38.13 37.45 37.14 35.51 31.24 30.97 38.32 35.85 35.47 37.54 36.40 36.68 36.15 33.77 28.65 27.01 33.63 42.64 42.80 45.17 43.97 45.54 48.10 49.18 48.49
30.89 19.05 34.88 39.09 30.82 27.15 22.49 28.53 33.77 31.54 33.77 31.71 32.57 31.50 31.40 30.91 30.75 31.44 32.56 37.65 41.79 39.90 35.91 36.87 33.46 28.83 31.73 38.21 41.14 39.84 37.38 37.43 32.29 30.30 32.05 32.41 32.71 45.08 45.57 46.65 45.62 46.43 48.98 49.39 51.13
29.31 28.25 37.60 39.66 20.36 23.46 28.15 29.12 31.76 30.11 31.05 31.21 29.93 31.73 34.84 30.85 27.45 32.35 35.15 40.80 39.85 37.59 35.79 37.35 31.44 25.50 28.32 34.25 38.32 36.39 38.51 38.75 37.91 36.38 32.74 29.37 32.91 45.84 46.08 46.98 47.70 46.88 47.74 47.31 47.23
32.37 16.30 24.78 30.59 28.48 23.57 21.03 24.99 26.83 33.99 31.20 32.72 31.82 33.25 31.42 29.72 32.44 31.00 32.11 38.24 41.02 39.67 42.18 38.77 31.89 28.91 23.87 30.08 35.84 33.28 36.44 38.66 37.63 32.91 32.92 33.67 37.57 40.85 42.59 44.06 46.06 46.02 46.26 45.31 45.02
33.96 23.88 26.20 15.72 28.29 28.53 29.51 28.70 24.74 25.49 31.58 33.40 30.58 31.40 30.77 27.49 29.59 28.70 34.84 36.80 39.42 41.19 38.37 34.40 27.78 31.55 33.34 34.30 34.51 33.95 33.93 36.46 35.13 36.44 33.86 35.14 36.48 41.42 43.46 44.33 45.73 47.20 46.23 43.46 42.12
30.55 27.09 30.11 26.93 28.38 25.32 27.17 25.83 25.51 28.51 29.29 28.87 29.34 31.50 32.22 30.50 31.17 28.65 33.25 33.99 33.85 36.65 34.80 35.74 28.52 30.44 28.88 33.41 33.57 30.61 33.48 35.02 36.03 37.89 37.40 37.50 36.33 45.00 47.41 47.90 46.86 46.22 43.90 41.29 39.73
36.74 36.62 30.07 26.14 25.85 20.10 18.72 26.71 26.42 29.72 31.25 33.39 32.69 32.23 30.03 31.97 36.37 36.72 35.55 35.91 34.62 32.65 32.61 32.73 30.44 27.48 23.19 29.00 29.11 26.29 32.64 32.99 35.67 39.82 38.56 34.28 40.01 45.26 45.76 46.05 45.58 44.27 41.89 39.27 37.97

GFSSW_sfc_wetblb_078.txt.gz
Wetbulb
52.20 52.39 52.35 52.47 52.56 52.89 52.77 52.41 52.19 52.25 52.27 52.20 52.29 52.26 52.46 53.12 53.19 47.61 42.02 45.50 49.45 56.34 57.76 49.05 48.54 49.14 47.56 44.35 44.62 40.76 32.97 28.27 32.02 35.08 38.11 43.07 38.77 43.26 45.19 44.04 45.27 48.74 52.20 55.82 59.86
51.73 51.78 51.78 51.89 52.02 52.20 52.20 52.10 51.61 51.55 51.62 51.69 51.71 51.68 51.82 53.11 47.53 43.68 48.90 53.48 55.92 57.79 49.15 45.57 41.98 44.68 41.65 42.51 42.66 39.54 32.40 33.69 38.22 40.11 39.83 41.46 38.86 42.95 42.65 42.60 44.88 44.93 52.92 58.58 60.09
51.45 51.38 51.42 51.37 51.56 51.65 51.46 51.28 50.87 51.00 50.90 50.95 51.18 51.27 51.93 51.29 39.68 37.93 57.79 54.87 57.83 57.98 50.00 46.59 45.19 42.12 37.40 39.93 40.63 39.66 35.94 38.24 40.90 43.15 42.09 39.80 41.48 43.90 42.85 41.83 44.88 45.04 45.79 56.33 58.08
51.03 50.90 51.15 51.45 51.38 51.01 50.84 51.33 50.41 50.69 50.77 50.59 50.65 51.08 52.33 46.72 30.58 44.05 57.29 58.80 59.15 56.31 49.80 50.46 46.72 39.62 35.83 34.97 39.78 36.72 41.19 42.24 41.73 44.01 42.61 41.62 41.04 43.16 42.96 44.89 48.12 46.75 47.12 55.06 57.13
50.61 50.78 51.28 51.11 50.74 50.29 50.17 50.72 50.00 50.13 50.36 50.66 50.58 50.95 47.19 39.28 38.65 45.57 52.77 50.32 51.21 52.87 49.31 49.65 44.63 41.40 36.45 37.03 37.49 37.54 39.97 42.85 43.98 44.40 43.43 44.36 42.40 43.55 43.88 45.95 47.81 46.75 47.02 53.28 56.20
51.00 50.94 50.81 50.54 50.08 49.66 49.44 50.29 50.55 50.02 50.15 50.42 50.89 50.50 44.00 34.49 45.69 45.13 46.20 46.03 45.37 51.09 49.75 49.36 46.28 45.55 41.06 38.95 37.10 39.35 39.67 39.80 41.67 42.48 44.11 43.61 44.22 42.13 44.21 46.29 45.90 45.09 45.09 51.76 55.82
50.69 50.66 50.44 50.04 49.64 49.42 49.52 50.32 50.26 50.64 50.46 51.18 51.29 48.45 43.30 39.24 47.59 47.04 47.22 44.95 44.36 44.60 43.24 44.51 45.48 41.16 39.48 36.75 41.23 41.88 38.28 40.70 40.66 40.81 41.13 43.73 39.73 40.67 45.18 45.38 44.29 44.77 44.10 50.62 56.62
50.34 50.17 50.25 50.00 49.51 49.98 50.11 49.88 49.98 51.09 51.94 52.71 51.54 47.33 40.03 49.74 48.94 47.63 47.00 46.28 46.79 46.73 45.07 45.04 43.84 41.14 38.28 39.89 40.05 37.46 36.91 32.52 39.21 40.60 41.83 40.97 36.36 41.98 43.45 43.13 43.02 42.77 42.22 48.38 55.64
50.08 49.82 50.00 50.35 50.16 49.87 49.59 49.58 50.50 52.02 52.28 51.96 47.08 44.54 38.98 51.82 47.47 50.24 48.61 45.78 46.38 45.24 44.50 47.52 43.25 39.35 37.86 33.01 30.17 32.94 28.70 32.35 36.06 42.23 40.90 38.23 38.01 41.46 43.34 42.37 41.95 42.05 42.01 42.66 50.71
49.70 49.42 49.50 49.94 49.72 49.30 48.81 49.63 49.94 50.92 50.87 50.77 49.27 41.90 44.23 43.01 49.22 48.92 47.63 48.08 44.99 43.99 43.08 40.83 36.94 33.41 32.38 30.76 23.45 27.93 30.29 30.23 31.14 36.60 37.75 37.17 37.21 40.94 43.23 42.09 42.83 42.34 42.30 41.71 45.44
49.03 48.88 48.69 49.15 49.00 48.98 46.68 44.08 39.07 38.37 40.45 38.49 40.45 42.15 43.07 47.83 49.13 45.60 47.13 44.87 44.72 41.34 34.86 37.53 32.36 29.57 30.57 33.93 34.44 34.31 32.34 31.18 32.58 39.02 37.52 37.85 37.31 39.01 40.55 40.64 40.72 41.81 42.07 42.07 44.53
48.45 48.39 48.06 48.26 48.60 47.59 41.04 39.89 38.52 38.72 32.46 40.67 41.37 41.93 44.80 46.26 40.80 44.47 46.92 40.05 40.58 36.84 36.83 34.57 30.38 34.80 36.14 35.38 33.96 32.72 31.01 31.56 35.92 39.29 38.46 36.60 36.88 41.31 41.74 41.18 42.38 43.45 43.38 43.72 43.76
47.85 48.12 47.90 48.15 47.47 40.36 37.81 39.27 41.80 40.46 33.52 37.53 41.23 40.33 41.84 43.30 38.36 39.65 42.74 40.60 37.34 35.19 35.13 31.78 34.77 39.35 37.00 35.27 33.49 33.33 32.05 32.61 33.17 37.39 39.20 36.56 35.36 37.79 41.31 41.81 42.76 43.70 44.71 44.81 44.52
48.24 47.80 48.14 48.34 39.08 38.14 37.29 41.48 40.85 39.89 27.79 31.28 37.17 40.91 42.74 42.90 36.68 44.07 44.18 40.97 37.55 34.67 37.15 35.38 39.03 37.75 36.71 35.15 35.43 30.79 37.38 36.75 35.28 34.76 28.41 35.99 27.57 34.63 38.74 41.19 42.19 43.45 43.23 43.89 44.36
47.82 47.42 47.62 46.68 37.76 34.88 38.86 41.08 41.33 39.49 15.43 34.30 39.54 46.75 43.40 38.55 40.81 39.78 44.03 40.64 35.28 37.92 38.43 34.96 37.87 37.43 35.51 36.21 38.02 34.79 39.13 37.95 37.51 34.11 33.13 33.38 29.55 32.31 37.88 37.22 40.30 43.14 44.34 44.31 45.08
46.96 47.10 46.74 41.28 38.18 38.17 39.47 39.41 39.57 23.06 16.28 30.83 39.56 38.21 37.67 40.13 39.83 38.86 39.95 41.73 41.94 39.78 39.35 37.33 41.25 39.97 38.50 40.18 40.33 40.34 38.13 37.71 36.33 33.64 27.57 32.02 30.88 30.00 35.27 38.82 41.12 43.80 45.04 45.53 43.76
46.49 46.52 44.16 42.77 34.41 38.10 38.25 36.18 21.52 16.90 31.35 29.85 31.19 33.98 33.74 34.83 37.97 36.78 34.99 33.39 32.23 28.68 29.47 34.00 36.15 39.13 41.26 35.85 39.28 37.83 35.12 26.65 26.63 27.16 25.62 34.56 31.52 33.85 40.76 42.58 43.32 44.05 44.97 45.78 45.66
46.21 45.55 41.75 41.33 38.72 38.36 35.67 27.86 16.67 25.31 27.43 33.21 31.25 32.40 30.82 34.96 35.61 35.68 32.37 29.57 32.90 32.43 28.77 27.15 24.78 36.00 39.81 36.86 34.13 35.21 34.32 26.41 22.50 24.61 26.77 35.23 28.40 34.74 44.39 46.09 46.42 46.77 46.84 47.14 45.05
44.83 35.74 34.79 37.27 38.45 37.20 29.78 17.14 20.51 25.60 29.34 27.86 29.38 29.82 29.57 33.09 32.01 32.46 31.12 30.01 31.96 34.13 28.62 25.80 26.57 37.05 39.36 39.41 39.06 36.40 34.44 37.39 32.41 32.44 29.63 30.57 34.62 41.49 45.28 45.25 45.65 46.20 47.81 48.20 49.15
34.32 32.13 32.06 38.09 38.34 35.35 23.54 21.60 24.61 30.56 30.76 30.61 24.75 31.10 26.69 28.38 28.80 29.12 30.27 34.25 32.95 34.98 35.77 31.70 26.23 34.35 37.59 39.59 39.22 39.02 40.83 32.73 33.54 24.54 24.29 28.37 31.41 34.82 40.52 42.41 44.47 45.30 46.54 48.21 49.88
32.11 26.96 34.06 38.21 37.96 29.23 14.16 22.26 26.87 31.98 32.50 28.27 26.84 25.37 27.01 26.94 29.70 29.11 32.24 36.45 38.10 35.89 34.85 33.94 30.94 30.34 37.24 35.05 34.07 36.38 35.51 35.80 36.28 34.28 26.22 24.95 29.77 42.83 42.82 44.58 44.10 45.68 46.07 47.03 49.88
29.42 17.53 34.65 37.26 24.56 28.32 19.02 27.28 32.37 30.20 33.17 30.98 30.62 28.58 27.34 30.73 28.58 29.93 30.48 35.51 41.00 38.85 34.87 36.21 33.26 28.07 30.87 37.52 40.17 39.78 36.04 35.70 31.94 29.32 32.49 31.24 30.15 45.00 45.36 44.82 46.31 44.50 45.66 46.71 47.74
26.61 26.46 34.47 35.71 15.57 22.03 27.38 28.24 30.23 28.74 29.51 30.15 29.25 30.99 31.29 29.28 26.42 31.00 33.61 38.22 39.18 37.83 36.29 35.46 31.75 25.55 27.54 32.75 37.94 35.95 37.47 37.65 37.14 36.05 29.70 28.89 30.87 45.91 45.73 44.17 45.57 44.14 43.66 44.64 45.04
29.72 16.63 24.29 32.19 28.88 25.79 21.82 24.22 25.94 31.33 30.11 31.85 30.37 31.84 29.49 28.33 32.17 29.57 31.11 35.59 38.59 39.69 42.05 38.63 31.97 27.27 23.05 26.90 33.49 31.01 33.97 35.41 35.35 31.55 31.94 31.85 34.92 40.86 42.75 42.29 44.20 44.73 42.36 42.10 42.83
31.96 23.63 26.02 15.77 25.64 26.73 27.01 26.83 24.17 24.42 30.32 31.11 28.56 29.78 28.92 25.90 29.25 28.59 32.25 33.75 36.99 40.88 39.13 35.05 28.44 31.17 31.11 32.34 32.89 32.20 31.97 33.00 32.05 34.43 32.11 33.16 35.26 39.75 42.84 43.52 45.02 45.17 41.66 39.69 38.53
27.85 24.57 27.49 26.39 27.87 24.63 26.07 24.94 24.85 27.70 28.44 26.59 29.10 29.76 29.24 27.58 29.66 28.38 32.22 31.88 32.03 36.84 35.45 34.86 28.99 29.97 27.66 30.62 30.08 27.35 29.38 30.49 31.61 33.85 35.79 36.24 36.33 43.36 46.12 47.27 45.84 43.95 40.63 37.60 36.34
33.19 36.57 28.62 26.14 25.58 19.14 16.99 23.96 25.23 27.36 27.67 30.16 30.14 27.88 27.47 30.22 33.55 34.75 37.00 37.11 35.59 33.50 32.12 32.55 29.78 27.03 23.57 27.79 27.14 22.76 28.49 29.63 31.63 34.66 36.29 32.48 38.32 43.73 44.17 45.80 44.33 41.53 39.63 36.95 35.57

GFSSW_sfc_wetblb_081.txt.gz
Wetbulb
52.13 52.20 52.19 52.14 52.02 52.37 52.19 52.05 51.84 51.57 51.71 51.69 51.75 51.82 51.95 51.98 52.75 48.58 42.89 47.81 50.48 55.33 56.57 52.88 52.69 52.51 51.49 48.94 48.48 45.97 40.85 37.49 38.31 38.96 41.56 46.07 45.25 48.22 49.54 48.30 49.04 51.08 53.68 58.09 62.08
51.87 51.93 51.82 51.81 51.57 51.80 51.75 51.49 51.21 50.92 51.22 51.26 51.15 51.31 51.55 52.32 48.11 44.07 49.80 52.45 54.92 56.40 50.69 48.26 46.75 49.63 47.06 47.02 47.33 45.43 39.71 39.97 42.65 43.66 43.49 45.44 45.50 46.87 46.91 47.37 48.14 49.43 51.93 60.70 62.29
51.33 51.29 51.39 51.41 51.28 51.36 51.12 50.60 50.44 50.55 50.64 50.71 51.02 51.11 51.75 51.93 40.91 39.71 58.61 55.10 56.54 57.80 51.68 49.55 46.96 46.43 42.76 45.88 45.54 44.40 40.06 42.40 43.84 45.09 46.03 45.42 45.80 47.70 46.29 45.11 48.18 48.51 50.38 55.28 60.14
51.12 51.14 51.39 51.54 51.33 50.96 50.55 51.01 50.12 50.28 50.45 50.68 50.96 51.15 51.90 47.53 33.42 47.90 55.39 57.68 58.33 56.38 52.00 49.68 47.13 42.51 40.28 39.58 44.09 40.46 43.76 44.85 44.95 46.62 46.01 44.85 47.08 45.48 46.73 47.75 51.21 51.65 52.30 51.29 53.93
51.14 51.36 51.29 50.94 51.07 50.48 50.48 50.84 49.99 49.90 50.39 50.76 50.97 50.90 47.98 40.10 39.63 47.11 51.55 50.71 54.71 54.28 49.29 50.75 47.03 43.46 40.73 40.75 40.98 40.99 42.25 44.21 45.79 46.24 46.55 47.33 45.60 46.09 47.19 49.94 51.66 51.25 50.35 51.23 51.75
50.89 50.68 50.61 50.78 50.40 50.10 50.05 50.71 50.67 50.13 50.41 51.01 51.16 50.11 44.80 35.09 47.07 46.93 48.02 48.13 48.30 52.29 50.36 51.37 48.81 48.32 44.64 42.44 41.33 42.46 42.41 42.96 43.97 44.90 45.61 43.94 44.50 46.21 47.62 50.29 49.95 49.59 50.43 51.63 51.57
50.55 50.35 50.37 50.20 49.77 49.39 49.62 50.44 50.42 50.48 51.01 52.18 51.49 48.46 42.98 40.88 48.94 49.28 48.58 47.36 47.19 48.54 48.19 51.40 50.82 46.25 44.10 39.85 43.35 42.74 39.26 42.20 44.08 44.35 44.10 45.84 42.12 42.80 48.53 49.96 48.87 49.99 50.51 51.01 51.03
50.33 50.26 49.92 49.71 49.64 49.33 50.00 49.92 50.22 51.07 52.93 52.75 51.92 47.43 40.59 49.88 51.09 48.83 48.35 47.96 49.08 49.11 46.70 47.44 46.45 44.89 42.29 43.55 41.40 39.23 39.74 35.41 42.62 43.56 45.07 43.94 38.03 45.03 48.39 47.63 47.44 48.53 49.41 49.12 50.30
49.71 49.39 49.17 49.87 49.86 49.71 49.53 49.96 50.25 52.10 52.50 52.00 47.26 44.97 38.96 51.84 47.34 51.16 50.01 47.02 47.26 47.38 47.36 48.54 45.57 42.32 40.94 37.78 35.05 35.94 32.45 35.25 38.46 44.98 44.46 42.75 40.10 45.30 47.72 46.69 46.15 47.78 48.41 48.94 50.20
48.52 48.59 48.61 48.83 49.17 48.94 49.13 48.89 49.29 51.49 50.77 50.83 48.13 41.06 43.91 42.98 49.39 49.74 49.87 48.72 45.79 44.51 43.78 43.09 41.82 38.20 36.49 35.55 28.40 31.21 32.70 35.29 35.68 41.27 42.30 40.75 40.99 44.62 47.09 46.72 46.67 47.61 48.79 49.17 50.08
47.89 48.15 48.13 47.81 48.12 48.80 45.06 42.97 38.54 38.96 39.62 36.78 39.61 41.54 41.96 46.34 49.67 47.45 48.01 46.31 45.55 43.28 38.24 40.61 36.41 33.08 35.48 36.36 37.00 35.81 34.48 33.51 36.67 40.90 39.15 38.82 39.78 42.78 45.78 46.59 47.08 47.82 48.75 49.59 50.50
47.87 48.15 47.94 47.64 47.98 46.83 42.94 38.13 36.78 37.58 32.04 39.65 39.05 39.65 42.94 44.74 38.94 43.78 48.34 42.69 41.98 38.04 38.72 37.45 33.52 38.32 38.61 37.54 35.96 35.23 33.14 33.14 37.40 40.49 39.90 39.37 38.94 42.83 44.87 45.73 47.25 47.95 49.00 49.96 50.98
48.11 47.96 47.59 47.59 45.96 41.17 39.46 38.65 42.43 40.68 33.49 36.54 41.29 40.48 41.52 43.61 38.50 39.25 43.82 42.00 38.55 37.90 36.64 35.09 37.42 39.74 37.40 36.23 34.43 35.03 33.73 34.50 34.42 38.87 40.86 39.10 37.14 40.11 43.86 46.19 47.52 48.12 49.01 49.76 50.05
47.77 47.60 47.38 47.04 40.02 39.02 38.40 41.76 41.74 40.89 28.82 31.09 38.08 41.79 42.94 42.90 36.96 43.95 44.87 41.94 38.93 35.36 37.64 37.06 40.25 38.25 37.31 36.63 37.48 33.38 39.34 38.02 36.71 35.61 31.50 40.48 29.90 38.28 41.85 43.27 45.60 47.66 49.18 50.03 50.44
46.86 47.12 47.13 45.67 39.16 36.81 39.07 41.39 41.90 40.35 19.44 33.18 39.61 46.87 43.60 38.96 40.88 39.87 45.09 41.50 36.13 37.12 38.58 35.02 38.79 37.72 35.82 36.88 39.65 36.65 40.53 38.67 38.20 36.14 35.21 35.12 32.23 36.65 41.61 41.00 44.10 47.13 48.52 50.19 51.26
46.37 46.41 46.41 41.86 39.58 40.24 40.30 40.22 40.52 25.73 19.42 29.77 37.99 34.94 35.12 39.29 40.41 40.46 40.57 42.56 42.94 39.43 40.57 37.73 43.20 41.58 40.55 41.61 41.65 41.79 38.97 38.64 38.26 35.76 28.48 34.22 33.43 34.60 39.00 42.00 44.37 46.76 48.59 49.96 50.73
46.23 46.26 44.12 43.14 34.94 40.06 39.81 37.68 24.35 20.19 31.50 27.99 29.35 32.09 32.39 34.05 36.43 37.69 36.26 35.66 34.27 31.61 32.16 36.13 38.02 41.48 42.47 38.26 41.17 39.97 35.51 28.88 26.81 27.61 27.51 36.36 33.05 36.51 42.65 46.11 46.40 47.30 49.66 51.13 52.28
45.72 43.64 40.52 41.06 39.87 39.60 37.70 29.74 19.25 24.88 25.81 32.15 30.09 31.60 31.94 33.52 33.53 33.98 33.89 32.44 35.58 34.97 31.37 29.62 26.88 37.25 41.48 38.79 35.68 37.23 36.17 29.93 22.68 26.10 29.66 36.44 31.71 37.84 46.14 47.74 49.10 49.89 50.15 51.08 52.19
42.49 36.39 36.08 38.36 40.40 39.08 32.98 20.03 21.19 25.21 28.59 27.32 28.99 29.38 29.68 31.75 31.54 32.42 31.94 32.31 34.87 36.71 31.30 29.03 28.76 38.74 40.60 41.00 40.67 36.52 33.24 38.44 31.62 33.20 29.52 33.81 37.72 43.77 46.61 46.25 47.68 47.97 48.32 48.63 51.01
35.85 33.09 34.69 38.64 40.42 35.84 25.89 22.80 24.79 30.38 31.16 30.16 23.51 28.30 22.96 26.01 27.55 29.79 30.21 36.62 36.28 36.52 38.38 34.54 28.42 36.58 39.01 41.87 41.63 39.69 41.12 33.34 33.97 24.75 24.47 31.48 33.63 35.65 41.07 43.22 45.01 45.35 45.66 46.78 49.19
33.09 29.23 36.89 39.41 39.66 30.31 20.17 22.63 26.91 31.86 32.54 28.01 25.91 24.29 25.25 25.38 28.39 28.52 30.51 36.06 37.31 38.23 37.79 36.26 33.63 33.14 38.60 36.31 35.49 37.00 36.12 36.19 35.50 34.12 27.61 26.11 32.63 43.30 42.35 43.30 44.09 43.40 44.56 45.47 46.34
31.47 22.84 36.54 40.74 28.63 27.44 24.38 27.66 31.99 30.31 33.31 30.63 31.03 28.91 27.11 28.99 28.86 28.79 29.34 32.34 37.38 36.77 35.16 38.45 34.43 29.58 33.56 39.51 41.52 40.23 36.92 36.70 31.36 29.24 33.24 30.86 32.50 45.88 45.11 44.45 44.83 42.43 42.56 44.31 45.41
28.55 28.75 36.22 37.94 22.26 23.85 27.89 27.86 30.00 28.69 29.53 29.92 28.56 30.87 31.52 27.98 24.33 29.77 32.31 36.95 36.35 36.86 35.75 37.78 33.95 28.34 29.94 35.70 39.15 36.13 37.32 38.15 37.32 35.11 29.99 29.17 33.04 45.48 45.18 43.61 45.22 41.80 41.26 41.10 42.53
29.14 20.29 27.48 33.18 30.48 27.82 24.28 24.47 26.01 31.34 29.43 31.14 30.17 31.46 29.41 28.28 31.16 28.09 30.85 34.76 36.57 35.75 40.55 38.75 33.15 29.55 26.89 29.66 33.99 31.90 34.25 35.76 34.61 29.78 31.22 31.13 34.89 40.08 43.14 43.49 44.62 41.84 40.60 39.36 39.22
31.86 24.13 27.75 21.41 26.86 27.38 27.58 25.94 24.15 24.67 30.50 31.52 28.99 29.70 26.74 25.12 27.14 28.11 31.91 33.51 35.47 36.26 38.90 35.82 29.34 32.58 32.87 33.45 33.96 33.47 32.21 32.51 31.28 33.05 29.33 32.43 33.67 38.17 41.73 44.56 45.23 41.93 39.98 38.04 37.08
28.56 26.45 29.36 27.67 28.28 25.62 25.84 24.35 23.69 26.40 27.30 25.12 25.89 28.94 27.80 24.16 25.84 24.62 28.91 30.27 32.01 35.32 34.70 37.23 30.21 31.96 28.87 32.24 30.79 28.72 30.95 30.88 31.68 32.99 33.40 34.72 34.61 42.43 44.50 47.07 45.44 41.04 38.86 36.72 35.51
34.18 36.11 30.41 26.85 26.20 22.92 22.38 24.29 24.55 26.87 27.93 29.10 28.56 26.97 25.96 28.40 33.53 34.67 35.38 35.15 35.02 34.01 33.33 33.51 31.88 28.87 24.79 29.63 29.23 25.54 29.90 30.76 32.62 36.99 36.76 32.89 38.16 43.10 43.63 45.44 44.01 40.49 37.84 35.32 34.07

GFSSW_sfc_wetblb_084.txt.gz
Wetbulb
51.65 51.98 51.94 51.77 51.75 51.93 51.92 51.65 51.49 51.26 51.43 51.64 51.94 52.00 52.15 52.27 52.90 52.34 47.85 51.12 53.28 55.28 55.14 57.26 56.89 55.56 54.44 52.27 52.80 52.26 45.43 43.57 44.73 44.14 46.06 49.41 47.81 50.66 52.05 50.32 51.53 53.28 53.91 56.44 61.33
51.54 51.69 51.65 51.86 51.63 51.70 51.38 51.30 50.83 50.79 50.84 51.17 51.51 51.72 52.10 52.43 50.79 47.76 54.75 52.93 54.68 56.73 52.26 52.92 51.63 53.96 51.26 50.93 51.13 48.19 44.92 45.32 48.95 48.19 46.72 48.57 48.83 49.51 49.30 49.67 50.29 51.79 54.66 55.81 59.94
51.02 51.38 51.56 51.85 51.64 51.38 51.13 50.78 50.65 50.77 50.69 50.79 51.33 51.79 52.39 52.76 46.47 46.00 57.30 56.39 54.70 56.09 53.91 52.22 51.80 52.05 48.65 50.45 50.15 48.61 44.77 48.53 48.04 48.30 49.14 48.17 48.25 49.99 48.20 47.19 49.97 50.23 51.99 54.09 56.72
51.11 51.47 51.24 51.33 51.35 51.37 50.72 50.70 50.56 50.68 50.43 50.92 51.53 51.86 52.27 50.40 37.95 52.13 54.04 56.41 56.93 57.68 53.57 50.94 49.43 47.02 45.43 44.83 48.75 45.17 47.84 48.02 48.60 49.01 48.29 47.34 49.66 48.34 49.36 50.21 52.56 52.98 53.47 53.84 54.43
50.91 50.97 50.93 51.11 51.02 50.61 50.37 50.62 50.11 50.28 50.66 51.11 51.51 51.55 50.78 45.07 44.12 49.67 50.79 51.50 55.92 55.28 52.07 49.73 47.13 46.38 43.75 45.18 45.95 44.44 45.93 47.20 48.16 48.06 48.13 48.77 47.60 47.87 48.87 51.80 53.27 53.54 53.71 54.16 54.56
50.84 50.58 50.62 50.70 50.49 50.24 49.98 50.36 50.36 50.06 50.51 51.34 51.82 51.10 48.08 40.73 49.93 50.17 50.11 50.59 51.86 53.62 51.62 52.76 49.80 50.28 47.33 46.75 45.72 47.14 46.55 47.03 47.79 47.65 48.38 46.93 47.74 48.49 49.67 52.05 51.80 52.05 52.57 53.90 54.19
50.68 50.51 50.45 50.08 49.87 49.66 49.42 50.17 50.34 50.64 51.10 52.86 52.48 51.11 46.61 44.65 51.45 52.41 51.75 49.67 50.07 51.56 49.56 52.28 53.25 49.09 47.64 44.99 47.80 46.39 42.72 44.79 45.78 46.50 46.19 48.50 45.29 46.16 50.25 50.88 50.61 51.76 53.24 53.98 55.02
49.96 49.78 49.48 49.44 49.40 49.08 49.47 50.01 50.31 50.72 52.90 53.10 52.42 50.52 44.69 51.81 54.18 52.46 53.55 51.25 51.33 50.50 49.17 51.06 53.05 49.43 47.19 46.74 43.65 40.47 42.55 38.91 44.10 46.91 47.86 47.39 41.20 46.98 50.18 50.38 50.36 51.77 52.80 53.38 54.35
48.69 48.62 48.82 49.40 49.48 49.65 49.66 49.84 49.73 52.18 52.92 52.52 50.23 48.25 43.23 52.58 49.82 53.78 53.80 49.97 50.74 51.31 50.94 49.83 48.77 45.69 45.08 40.86 38.51 39.22 34.64 37.43 41.26 47.09 46.51 45.99 43.03 47.87 50.60 50.42 50.02 51.11 52.24 53.10 53.93
47.95 48.14 48.32 48.32 48.88 49.01 49.23 48.51 50.04 52.20 51.96 52.63 51.06 43.53 47.81 45.75 51.31 52.19 54.05 51.78 48.50 48.56 46.25 45.70 45.12 42.29 42.03 39.28 32.60 35.09 35.44 38.83 38.33 43.12 44.13 42.87 43.34 46.64 49.29 50.31 50.42 51.30 52.35 53.05 53.57
47.77 48.21 48.28 47.98 48.24 48.61 48.57 49.50 45.31 44.11 43.75 41.08 41.90 42.47 42.94 47.46 50.38 48.71 50.72 49.52 48.26 46.54 39.61 43.31 39.60 36.98 38.45 39.84 40.15 39.26 37.08 35.15 39.11 42.36 41.16 41.38 42.85 45.41 48.42 48.98 49.67 50.72 51.94 52.74 53.57
47.91 48.35 48.02 47.79 47.77 46.46 48.73 42.44 39.69 40.74 37.12 42.33 42.83 42.66 45.32 46.32 40.48 44.74 50.43 44.79 44.79 41.20 43.30 40.40 36.58 41.21 41.68 40.35 38.88 38.45 36.86 37.30 40.34 42.60 42.24 42.26 42.63 46.58 47.92 48.23 49.59 50.42 51.78 52.81 53.76
47.99 47.84 47.82 47.49 46.35 46.72 44.28 41.31 45.20 44.95 37.53 39.75 43.38 43.52 44.56 45.64 41.88 43.05 46.12 45.94 42.94 41.01 41.66 39.04 40.35 43.10 41.09 39.79 37.62 37.75 36.44 37.28 37.95 42.33 44.04 42.94 42.03 44.75 47.27 48.96 49.32 50.37 51.66 52.83 53.40
47.11 47.25 47.35 46.85 43.42 44.29 43.32 44.96 46.15 46.18 36.48 34.96 41.92 43.92 45.35 45.59 41.41 47.27 47.17 44.55 43.03 39.15 40.89 40.93 43.55 40.41 39.14 37.86 39.44 35.19 41.63 40.48 39.62 38.50 35.59 43.27 34.49 42.88 45.82 46.86 48.41 49.98 51.42 52.14 53.16
46.35 46.46 46.70 45.54 43.18 42.40 42.73 46.15 46.96 45.16 26.25 37.41 41.69 48.56 43.92 41.44 43.83 43.56 47.38 43.43 38.70 39.86 40.21 37.53 38.62 39.21 37.60 38.21 41.77 38.33 42.57 40.90 40.53 38.33 38.31 39.10 36.88 41.80 45.64 44.34 47.65 49.78 51.56 52.66 53.88
46.03 46.28 46.29 44.82 45.17 44.05 46.11 46.67 46.50 33.57 24.66 33.17 39.66 37.04 38.54 41.62 42.67 43.51 42.74 45.12 43.89 40.10 41.34 39.74 44.50 43.60 42.66 43.38 42.50 43.39 40.49 40.22 40.91 38.68 31.51 38.04 38.12 41.29 44.19 45.65 48.50 51.17 52.94 54.01 55.31
45.98 45.71 45.11 46.04 41.34 46.42 46.40 44.94 31.94 27.21 34.30 31.19 32.02 34.86 36.30 37.55 39.13 40.68 39.95 39.15 38.32 32.77 34.02 38.06 38.59 42.72 44.52 40.80 43.75 42.13 37.20 31.47 30.60 29.75 31.36 39.30 37.82 41.36 46.28 48.75 50.06 51.00 52.57 54.68 56.53
45.14 42.32 42.69 44.75 46.48 46.62 45.47 35.89 25.70 28.23 29.07 34.06 33.02 33.92 32.95 36.02 36.26 38.86 38.03 37.68 41.11 39.45 36.23 33.48 31.14 39.36 43.97 41.07 38.49 39.26 37.69 32.13 25.30 29.14 34.19 39.53 35.20 41.96 48.18 50.92 52.17 52.32 52.73 53.57 54.47
42.89 45.43 45.66 45.49 47.28 46.82 39.43 29.51 28.15 28.66 31.05 30.36 31.95 29.60 30.78 33.68 32.47 35.84 36.76 36.54 39.02 40.50 33.94 33.50 32.71 40.93 42.58 43.29 42.34 38.41 35.62 41.08 34.14 35.89 32.10 36.81 41.07 46.06 47.90 48.83 48.97 49.42 50.03 50.48 51.45
43.25 42.37 41.81 46.38 47.83 43.08 35.72 27.57 29.72 32.67 32.62 31.64 25.58 29.60 26.50 29.36 29.25 31.34 33.52 38.30 35.78 39.39 40.75 37.63 31.68 39.30 41.94 43.71 43.47 41.44 43.20 33.65 36.14 27.14 26.93 35.30 37.03 38.76 43.40 44.69 46.26 47.29 47.77 47.67 48.08
41.89 37.91 42.58 46.74 46.03 39.48 30.21 28.36 29.57 33.82 34.16 30.08 28.10 27.21 28.30 27.91 30.08 30.36 31.56 37.20 36.65 37.07 38.68 40.16 37.21 36.12 40.47 37.88 37.50 38.35 36.43 37.65 37.35 35.20 30.28 30.26 36.65 45.62 43.15 43.70 44.72 47.29 45.99 45.32 44.83
40.22 33.79 42.97 45.99 35.95 36.31 30.78 30.53 32.46 32.47 34.56 32.72 33.30 31.75 29.87 30.77 29.83 29.94 30.90 34.70 38.39 36.90 34.19 40.40 37.78 32.72 35.42 40.97 43.82 41.83 38.97 39.07 33.74 31.54 34.80 33.63 36.16 48.05 46.87 46.25 47.27 44.46 44.94 43.67 42.85
36.33 36.10 44.10 43.21 30.22 29.77 31.44 30.17 31.85 30.76 31.36 31.03 30.12 32.56 34.02 30.52 26.52 30.57 32.64 37.89 38.64 35.25 33.58 34.29 35.84 30.11 32.07 37.49 40.85 38.32 39.42 39.08 37.71 37.30 32.72 30.61 35.82 47.31 47.38 47.50 46.71 45.04 44.26 41.65 40.50
37.31 30.69 37.08 39.73 36.92 30.91 26.17 26.25 27.89 32.97 31.69 32.90 32.38 34.03 31.54 30.04 33.35 29.60 31.42 35.57 37.64 38.00 37.30 36.11 35.47 34.17 29.87 32.68 38.27 35.16 37.37 39.35 37.37 33.50 33.79 34.70 37.23 41.95 43.28 44.40 46.06 44.54 43.15 41.01 38.49
37.76 31.64 33.87 28.82 30.25 30.81 30.51 28.01 20.34 25.79 32.20 33.73 30.86 30.64 28.47 25.78 28.60 28.93 32.59 32.65 35.19 37.06 34.05 36.57 32.98 34.52 35.22 35.54 36.02 35.62 35.29 36.17 35.19 36.22 32.13 35.30 35.61 40.08 43.85 45.36 46.26 44.17 41.51 38.04 36.31
33.98 33.54 35.82 32.02 31.91 29.62 28.53 27.59 26.10 27.83 27.81 28.23 27.83 30.57 30.95 27.27 28.25 26.78 31.15 31.46 30.89 35.50 33.28 34.96 32.56 33.05 30.05 34.82 33.97 31.69 34.23 34.43 34.59 35.06 36.02 37.79 38.28 45.01 47.25 47.24 44.69 42.91 39.96 36.04 34.52
38.29 39.46 37.36 30.03 29.91 29.61 28.49 26.19 26.92 29.40 30.47 31.79 30.69 29.72 28.87 31.44 34.77 35.99 36.22 34.65 32.74 31.56 32.73 34.20 32.98 29.70 25.02 32.30 31.73 28.59 32.97 34.57 35.79 38.75 38.82 35.27 40.93 45.59 45.31 44.72 42.02 40.01 38.06 35.19 33.64

GFSSW_sfc_wetblb_087.txt.gz
Wetbulb
51.40 51.70 51.76 51.90 51.72 51.69 52.16 52.11 51.70 51.46 51.55 51.75 52.08 52.21 52.56 52.91 53.17 53.54 50.27 54.47 54.69 57.21 54.58 57.09 57.95 54.41 54.56 53.20 55.17 54.94 47.27 44.93 46.60 47.16 48.42 51.22 49.88 52.72 53.56 51.61 52.38 53.57 53.91 56.66 60.27
51.19 51.27 51.65 51.95 51.79 51.91 51.86 51.66 51.44 51.44 51.44 51.45 51.72 52.03 52.46 53.20 51.51 50.55 56.96 54.28 54.01 56.77 52.20 52.78 53.01 54.57 52.16 51.29 52.40 50.30 46.56 46.44 50.36 50.87 49.74 50.13 50.52 50.91 50.52 50.60 51.26 51.85 54.35 56.46 58.10
51.08 51.47 51.81 51.73 51.61 51.70 51.44 51.31 51.02 51.22 51.15 51.40 51.82 52.33 52.84 53.09 49.33 49.58 57.00 57.30 54.76 56.41 54.88 51.87 53.51 53.12 50.44 51.41 51.02 50.16 46.08 49.62 50.18 51.80 51.38 50.43 50.37 51.95 50.05 48.73 51.36 51.50 53.27 54.82 55.86
51.09 51.70 51.26 51.39 51.47 51.44 51.11 51.06 50.68 50.84 51.02 51.29 52.01 52.60 52.75 52.54 40.72 53.75 54.95 56.63 56.53 56.00 54.79 51.72 50.36 48.63 48.30 47.47 50.92 47.54 49.92 50.56 50.48 51.54 50.86 49.25 50.96 49.57 50.38 51.12 53.64 53.92 54.51 54.94 54.50
51.26 51.26 51.29 51.48 51.33 51.16 50.81 50.91 50.34 50.22 50.55 51.29 52.05 52.47 51.85 47.82 47.55 53.52 53.08 54.21 54.90 55.73 54.16 50.79 48.28 47.50 46.02 47.07 47.70 46.87 47.67 49.11 50.21 49.42 49.21 50.11 48.64 48.79 49.36 52.11 53.46 53.79 54.34 54.51 54.80
51.11 51.00 50.85 51.04 50.70 50.36 50.13 50.35 50.29 49.97 50.73 51.50 52.19 51.99 49.67 43.38 51.66 51.55 50.53 52.08 52.70 54.35 53.37 52.62 49.97 50.37 47.54 47.28 46.30 47.89 48.31 47.85 49.21 49.05 49.42 48.01 48.31 49.30 50.27 52.47 52.05 52.69 53.34 54.59 55.13
50.81 50.51 50.23 49.87 49.78 49.67 49.37 49.67 50.19 50.21 51.12 52.23 53.64 52.54 48.85 47.07 53.18 52.99 52.27 50.87 50.83 52.56 51.34 53.02 53.62 51.07 49.95 46.63 49.00 48.07 44.89 46.24 47.00 47.37 46.88 48.58 45.22 46.55 50.54 51.89 51.16 51.93 53.08 53.83 55.06
49.42 49.20 49.09 49.18 49.17 48.89 48.85 49.79 50.11 50.65 52.50 53.61 53.60 53.04 45.69 53.12 54.65 52.45 53.28 51.74 52.28 51.04 50.95 53.47 53.49 51.38 49.12 49.44 46.59 42.53 43.29 39.50 45.18 46.78 47.80 47.40 41.68 48.27 51.32 50.84 50.85 51.58 52.19 53.23 54.52
48.06 47.99 48.61 48.72 49.12 49.30 49.32 49.79 50.02 52.48 52.78 52.85 52.72 50.97 46.00 52.32 50.82 54.35 54.64 51.14 50.84 50.05 50.46 50.26 49.63 47.47 47.65 42.92 40.69 41.88 37.13 39.31 41.46 46.06 46.28 46.75 44.18 48.71 51.31 50.85 50.73 51.73 52.58 53.00 54.08
47.61 48.00 48.59 48.55 49.06 49.12 49.31 49.00 51.11 51.94 52.97 54.29 53.37 47.24 50.51 47.25 50.72 53.04 54.59 53.50 50.42 49.87 47.66 46.56 45.50 42.50 42.59 41.36 34.44 36.88 38.42 40.43 40.23 43.99 44.98 44.45 44.39 46.45 48.72 49.39 49.66 50.62 52.35 53.02 53.78
47.81 48.16 48.35 48.20 48.32 48.79 48.60 50.95 48.64 48.27 48.53 44.43 44.20 44.62 44.18 48.19 50.83 48.15 52.11 50.82 50.32 48.34 43.14 44.79 40.46 38.80 40.31 42.27 41.91 40.78 39.60 38.98 41.33 43.70 41.97 41.99 43.03 44.67 46.74 47.89 48.66 49.72 50.79 52.70 54.02
47.83 48.01 48.10 47.91 47.74 48.02 49.67 46.48 44.01 44.56 40.34 44.97 45.59 45.98 48.33 49.36 44.76 47.24 49.84 45.10 45.82 42.22 45.51 42.71 38.71 43.35 43.68 42.95 40.68 39.51 38.64 38.47 41.44 43.74 43.31 43.06 43.56 46.61 47.43 47.89 49.51 50.11 51.07 51.98 53.92
47.62 47.54 47.63 47.64 47.54 48.09 46.94 44.83 48.37 47.85 41.55 42.46 46.91 45.98 46.54 48.47 45.21 46.15 47.67 46.28 43.20 41.82 42.75 40.84 42.74 45.18 42.37 40.98 39.37 39.25 37.68 38.78 39.14 42.06 44.64 43.74 42.41 44.06 48.19 50.26 50.75 51.62 52.30 52.58 53.56
46.79 47.03 47.03 47.06 44.68 47.40 46.59 47.01 49.07 49.06 39.77 38.63 43.92 45.56 46.07 46.94 44.49 49.60 49.52 46.38 43.74 40.79 42.62 42.57 45.54 43.25 41.43 40.30 41.35 37.32 42.29 40.85 39.41 38.97 35.66 45.15 35.71 43.26 46.37 47.26 49.61 50.77 52.13 52.73 52.93
46.28 46.51 46.70 46.79 46.38 45.93 45.45 48.53 50.01 47.25 29.28 39.60 43.75 50.09 45.38 43.98 44.85 46.11 49.06 45.98 40.97 41.75 42.09 39.87 41.68 41.00 40.19 40.74 42.39 38.94 43.59 42.09 41.70 40.15 39.53 39.34 37.84 41.27 46.59 45.52 48.78 51.47 52.98 54.54 54.66
46.12 46.48 46.96 48.15 48.31 47.30 48.65 49.05 48.69 37.42 27.26 36.17 41.15 38.62 39.23 42.17 43.44 45.73 45.59 47.24 45.98 40.95 42.19 41.79 45.78 43.81 43.13 43.96 43.40 44.10 42.02 41.74 40.97 39.99 33.09 37.67 38.02 39.00 44.12 46.92 48.23 51.48 53.19 55.37 56.94
45.91 45.89 45.24 47.64 45.51 49.18 49.50 46.85 36.30 29.54 36.54 34.40 35.24 36.94 36.85 37.92 39.71 41.06 40.62 41.36 39.68 36.04 36.37 39.93 40.55 43.83 44.49 41.35 44.58 41.78 38.36 31.39 30.77 30.82 30.07 40.44 38.60 41.12 47.57 49.15 49.85 50.28 52.21 53.98 54.92
45.43 43.68 44.76 48.06 49.72 50.01 47.91 40.26 28.52 32.57 32.87 37.07 35.81 36.05 33.67 37.04 37.63 37.51 37.94 37.46 41.79 41.12 37.69 35.47 33.57 41.15 43.41 41.75 40.08 39.86 38.95 31.90 25.24 28.06 32.31 40.20 34.82 41.33 49.90 50.11 50.85 52.35 52.89 54.32 54.49
44.03 46.72 48.62 48.86 50.57 49.19 42.52 32.55 32.43 33.50 34.41 33.04 34.51 32.40 33.48 35.58 34.19 34.90 36.13 37.46 40.75 41.31 34.69 35.27 35.37 42.57 43.74 45.12 43.39 39.39 35.83 41.71 34.99 36.55 32.79 36.81 40.55 48.03 49.46 48.63 49.85 50.66 51.54 52.00 52.97
45.20 45.29 45.06 49.08 50.06 46.33 38.62 31.22 33.03 35.54 35.15 34.30 28.96 31.95 29.98 32.59 31.63 33.29 33.15 40.00 38.38 40.70 41.56 39.09 33.64 41.75 43.27 45.42 44.79 42.01 43.07 34.44 36.32 27.10 26.95 34.57 37.43 39.96 43.49 45.14 47.98 48.85 49.64 50.67 51.72
43.85 41.18 45.01 49.11 49.07 41.93 33.82 33.24 32.95 35.99 35.77 32.63 31.13 30.27 31.32 30.65 32.06 32.07 32.57 37.98 39.59 38.63 39.70 39.37 37.46 37.51 42.44 39.64 38.15 39.12 37.58 38.71 38.42 36.43 30.44 29.87 36.04 46.71 45.10 46.76 47.11 48.10 49.50 49.34 49.22
43.81 38.54 46.00 48.04 40.33 39.83 36.20 33.76 32.78 34.50 36.34 34.71 35.10 33.85 32.19 32.85 31.43 31.63 31.85 35.55 40.40 39.57 33.33 36.00 35.34 33.38 36.60 42.91 44.51 42.03 39.34 39.79 33.45 32.94 36.54 35.38 37.14 48.28 48.29 48.34 48.97 48.39 48.94 48.34 47.61
41.13 40.21 46.27 45.59 34.87 35.58 34.37 33.38 34.33 33.22 33.65 33.38 32.48 34.18 35.43 32.25 28.22 32.50 33.59 38.41 39.88 37.85 34.67 34.39 32.47 29.57 33.97 38.23 42.11 39.11 40.80 40.86 40.17 39.09 34.07 31.94 36.02 46.88 47.40 46.71 49.22 48.69 48.53 47.45 45.44
41.68 35.54 40.56 43.24 41.14 34.96 29.51 30.74 30.78 35.03 33.93 34.72 34.07 35.63 33.55 31.41 34.39 31.27 32.64 36.78 39.24 38.37 38.23 36.20 32.31 30.88 30.07 33.73 38.26 36.66 38.93 40.65 39.41 34.33 34.80 35.96 38.63 42.63 43.81 45.61 47.95 48.57 47.80 45.99 42.93
41.71 36.65 38.35 33.13 35.66 34.73 33.61 31.24 28.62 28.83 33.98 35.36 33.03 32.88 30.81 27.94 30.06 30.12 33.01 34.55 36.90 37.93 36.90 35.83 27.89 31.53 36.77 37.94 38.24 37.40 37.26 38.64 37.16 38.23 34.39 37.38 37.21 40.76 45.11 46.18 48.78 47.95 45.21 42.52 39.52
36.80 38.67 38.16 35.60 33.51 32.83 29.51 30.72 29.02 30.40 30.84 30.88 30.43 32.65 33.06 29.04 30.45 29.03 32.16 32.99 31.62 36.02 33.39 34.41 29.85 29.61 34.09 37.35 37.13 34.84 37.38 37.35 36.85 36.63 36.32 37.32 38.61 45.47 47.57 49.34 46.42 43.51 41.02 38.55 36.72
43.10 43.74 40.11 32.91 34.06 32.65 32.51 30.43 29.85 31.72 32.65 33.85 32.97 31.95 30.77 33.02 35.76 36.74 37.66 37.50 35.97 33.06 31.84 30.67 30.61 31.43 29.20 34.04 33.88 30.01 35.13 35.63 36.91 39.53 39.95 35.76 40.73 44.16 39.13 36.08 35.94 37.47 36.00 34.37 33.80

GFSSW_sfc_wetblb_090.txt.gz
Wetbulb
52.49 52.47 52.43 52.34 52.61 52.40 52.41 52.32 52.35 51.99 52.00 52.21 52.23 52.42 52.81 53.23 53.54 51.91 48.45 53.99 54.94 57.32 54.99 51.74 55.53 53.44 51.87 51.54 53.35 54.91 46.40 44.03 45.25 46.02 47.82 52.05 50.39 52.99 53.48 51.24 51.77 52.92 52.95 56.08 61.65
52.26 52.30 52.52 52.51 52.46 52.37 52.30 52.33 52.02 51.71 51.83 51.91 51.96 52.30 52.94 53.50 50.43 49.29 56.95 57.04 57.17 56.45 50.40 47.11 49.87 53.45 48.25 49.29 50.16 48.48 46.35 45.44 49.29 50.02 49.18 51.04 50.80 51.15 50.45 50.35 50.69 51.55 54.81 56.42 58.43
52.12 52.19 52.42 52.25 52.10 52.09 51.93 51.87 51.59 51.43 51.43 51.51 51.67 52.36 53.13 52.94 48.52 51.66 58.15 57.12 56.85 57.03 50.29 49.13 51.00 51.99 49.03 50.14 49.22 48.10 44.80 48.36 49.18 50.77 50.88 49.87 50.25 52.13 50.08 48.55 50.98 51.72 53.12 54.60 55.11
51.89 51.76 52.08 51.87 52.13 51.97 51.89 51.90 51.34 51.20 51.06 51.13 51.80 52.62 53.18 51.31 40.29 53.09 57.72 56.71 55.72 54.27 52.88 52.30 48.43 47.20 46.72 46.87 50.25 45.70 48.33 48.97 49.46 50.71 50.32 48.54 50.94 49.66 50.49 51.25 53.47 53.51 54.41 54.33 54.98
51.73 51.67 51.81 51.73 51.71 51.43 51.13 51.25 50.64 50.66 50.65 51.30 52.05 52.79 51.23 47.17 48.33 53.51 57.36 57.57 55.40 52.82 53.00 51.26 48.05 46.64 44.13 46.09 47.84 46.59 47.80 49.28 50.14 50.03 49.97 49.77 47.75 48.24 49.22 51.89 53.02 53.12 53.79 54.10 54.48
51.79 51.65 51.57 51.27 51.00 50.54 50.27 50.63 50.38 49.95 50.55 51.56 52.24 52.32 48.79 40.99 52.49 53.05 51.41 51.53 51.80 52.72 51.76 52.36 49.59 49.38 46.32 45.65 45.24 47.13 46.40 46.56 47.61 48.05 47.76 46.83 47.13 47.69 49.48 51.43 51.22 51.70 52.03 53.25 53.98
51.74 51.06 50.63 50.04 49.74 49.61 49.63 49.50 50.04 49.99 50.86 52.29 52.90 52.52 48.00 45.85 52.96 54.11 52.07 50.09 50.11 50.11 49.78 52.88 52.39 49.59 49.32 46.12 48.81 47.76 43.96 45.99 46.88 47.43 46.60 48.38 44.73 45.53 49.46 50.27 49.43 50.17 51.43 52.58 54.18
50.64 49.55 49.01 48.85 49.02 49.03 49.15 49.72 49.96 50.35 52.14 54.00 54.42 52.79 44.31 53.33 54.47 51.81 52.35 50.98 51.91 51.14 49.66 51.70 52.89 50.21 48.78 50.06 47.23 43.51 43.36 38.32 43.82 44.97 45.80 45.07 39.52 45.09 48.81 49.27 49.55 50.77 51.68 51.74 53.26
48.93 48.28 48.42 48.77 49.35 49.60 49.71 50.02 50.21 51.20 53.81 53.33 51.79 50.73 44.11 53.77 49.85 53.10 54.61 51.32 52.31 51.37 50.08 49.63 48.68 46.42 46.91 42.85 40.11 41.30 36.05 38.18 40.23 45.15 45.06 44.03 41.58 47.15 50.14 49.77 49.41 50.70 51.53 52.18 52.78
48.55 48.29 48.50 48.74 49.34 49.22 49.38 49.57 51.52 52.18 52.50 54.28 53.40 47.46 49.80 47.60 51.01 52.40 54.44 53.19 50.45 49.45 46.33 45.34 43.92 40.62 41.18 39.42 33.48 36.78 37.63 39.18 38.90 42.91 43.75 42.47 42.68 46.17 48.35 48.35 47.61 47.87 50.46 51.52 52.08
48.57 48.24 48.50 48.57 48.55 48.86 48.11 50.98 47.35 47.50 50.62 47.04 47.01 46.80 47.51 47.84 51.54 48.58 49.30 49.97 50.35 47.72 42.42 44.81 39.35 36.08 39.54 41.31 40.99 40.58 39.25 38.65 41.02 43.89 41.64 41.45 41.63 43.22 45.60 46.57 45.88 46.64 47.27 48.69 50.83
47.80 48.00 48.01 47.92 47.91 48.99 47.96 46.58 44.44 44.94 39.22 46.79 45.52 45.75 48.64 50.13 45.71 49.02 49.92 44.60 44.42 41.11 44.59 42.53 37.76 42.16 43.41 43.39 41.80 40.42 38.31 37.27 40.19 42.70 41.86 40.76 40.59 44.24 46.38 47.50 48.32 47.91 48.41 49.63 50.92
47.57 47.33 47.49 47.32 47.60 46.61 46.74 45.19 48.67 48.17 39.78 43.95 46.83 47.12 47.23 48.95 46.28 46.79 48.04 45.14 41.90 40.60 41.67 39.52 42.50 45.19 43.24 41.52 40.12 39.56 37.73 37.34 37.02 40.23 42.00 40.95 38.69 41.81 45.76 47.94 49.11 49.76 50.37 50.71 50.78
46.69 46.97 46.98 47.45 44.37 46.74 46.62 47.33 49.41 49.28 37.20 39.50 42.59 46.22 47.58 46.78 44.58 50.60 50.32 46.70 43.98 40.30 41.37 40.74 44.50 43.07 42.14 40.52 41.54 36.81 42.27 40.91 39.47 37.57 32.31 41.37 32.55 40.75 44.15 45.25 48.51 50.08 52.25 52.86 52.93
46.36 46.57 46.71 46.92 45.37 45.21 46.06 48.62 49.66 48.12 27.58 40.55 43.94 50.28 45.60 43.18 44.75 46.08 50.36 46.79 41.04 41.36 42.18 39.15 41.02 40.65 40.19 41.13 43.35 39.10 42.98 40.61 40.39 38.38 37.51 37.55 35.23 38.82 43.30 43.10 46.39 51.22 52.91 54.78 55.74
46.13 46.38 46.58 46.82 47.47 47.89 48.97 49.30 47.60 36.63 27.26 36.66 42.12 40.55 38.75 41.75 42.89 45.68 45.80 48.16 46.86 41.86 42.12 40.75 44.86 43.47 42.58 43.95 43.50 43.87 40.71 40.30 40.17 38.07 30.37 35.65 35.58 36.34 39.81 45.64 48.95 51.24 52.20 53.39 54.81
45.74 45.89 44.10 46.77 45.08 49.66 49.60 46.11 35.91 30.10 37.88 35.57 36.66 38.18 37.34 36.45 38.51 40.90 40.13 40.28 38.33 35.29 36.14 40.25 39.95 42.97 44.33 40.35 43.39 42.39 37.79 29.50 27.96 29.11 28.49 37.92 36.03 38.63 45.72 49.33 49.48 49.64 51.03 52.81 54.44
45.47 45.06 47.07 48.31 49.87 50.39 47.93 40.38 28.77 34.34 34.67 38.57 36.74 36.58 33.81 36.30 36.67 38.54 36.58 34.96 39.33 40.80 37.00 33.93 32.63 40.87 43.72 41.00 38.51 39.32 38.09 30.32 23.59 26.14 30.16 37.85 32.61 39.08 48.99 50.14 51.00 51.51 51.78 52.59 52.90
44.68 45.97 47.68 49.42 50.33 49.27 42.20 32.63 32.55 34.83 36.18 34.15 34.70 32.78 33.68 36.50 36.08 35.19 35.01 34.57 39.43 40.98 34.34 33.96 34.55 43.63 44.31 44.11 41.91 38.32 34.65 40.24 33.92 34.82 30.35 33.61 37.86 43.03 48.32 48.07 49.19 49.32 50.19 50.07 51.13
43.06 44.67 45.00 48.66 50.05 46.41 38.76 32.97 34.48 37.22 36.26 35.21 29.47 33.10 30.30 33.32 32.48 33.20 33.63 38.23 38.44 41.06 41.11 37.35 30.67 39.53 41.84 43.06 43.80 40.97 43.09 33.85 35.04 25.62 24.14 31.49 34.45 36.91 39.93 44.52 47.03 46.95 47.65 48.28 49.20
42.32 40.47 45.48 48.59 49.15 42.07 34.26 34.44 35.10 37.57 36.55 33.35 32.37 31.43 32.15 31.28 32.62 32.05 32.62 36.66 39.87 38.90 39.82 37.59 34.65 34.33 39.56 37.61 37.58 38.51 37.31 37.91 37.09 34.46 27.54 27.51 33.51 43.46 42.28 44.70 45.40 46.66 47.44 46.87 46.53
43.24 37.52 45.83 48.23 39.09 39.09 34.88 35.49 32.99 35.62 37.17 35.24 35.22 33.94 32.31 33.13 31.37 31.42 31.21 34.73 39.10 39.10 33.60 36.45 32.37 28.26 33.32 41.23 43.20 39.04 39.14 38.82 30.96 30.52 34.25 33.00 33.35 44.44 44.85 47.17 48.15 47.69 47.38 46.13 45.35
39.97 39.68 45.25 45.29 34.84 34.51 35.90 34.78 35.27 34.25 34.65 34.25 33.28 34.66 35.55 32.13 28.50 32.36 33.40 38.44 39.27 37.45 34.15 35.65 30.28 25.03 31.13 36.25 39.29 37.76 39.65 39.32 38.85 37.70 32.91 30.91 33.49 43.60 44.98 46.44 48.37 46.88 46.47 44.76 43.15
40.82 36.20 39.83 41.51 40.18 35.98 32.97 32.00 32.01 36.26 34.27 35.16 34.38 35.68 33.73 32.13 34.62 31.29 32.59 35.92 38.77 37.82 38.53 36.61 31.05 27.76 24.42 29.48 33.31 31.69 37.06 39.87 37.84 32.99 32.93 33.98 35.45 38.86 43.65 44.97 46.65 45.53 44.59 42.25 40.29
41.13 38.00 39.09 33.59 35.23 35.56 34.37 32.32 30.07 29.95 34.96 35.81 33.45 33.50 31.98 28.33 30.09 29.89 32.97 34.09 36.63 37.33 36.31 34.21 27.81 30.90 32.83 33.75 33.47 34.15 35.69 38.18 36.55 36.94 32.95 35.17 35.07 39.72 41.66 41.60 41.90 42.99 42.07 39.43 37.18
37.20 37.65 38.22 36.48 34.84 34.06 30.37 32.29 30.77 31.99 32.02 31.23 31.61 33.57 33.52 29.75 30.63 28.17 31.64 32.13 31.35 35.52 34.96 34.79 26.44 30.05 27.66 33.26 34.13 32.71 37.06 36.66 35.76 36.47 36.78 37.60 37.24 41.88 40.37 38.23 38.22 37.41 36.29 34.22 33.38
41.80 43.22 40.57 34.19 34.77 33.36 32.83 32.25 31.38 33.06 33.99 34.68 33.69 32.23 30.76 32.55 35.18 35.87 36.24 35.78 34.75 32.84 31.54 31.31 28.55 27.64 23.78 30.37 33.39 30.57 35.29 36.86 37.25 39.17 38.67 34.02 37.73 41.46 37.80 33.93 32.07 33.56 32.34 31.27 31.34

GFSSW_sfc_wetblb_093.txt.gz
Wetbulb
53.22 52.89 52.97 52.99 53.00 53.04 52.95 52.78 52.66 52.55 52.44 52.11 52.43 52.59 52.84 53.42 53.75 49.81 44.92 50.50 53.30 57.84 56.71 51.13 48.96 49.56 46.81 44.73 46.58 48.37 42.24 39.81 41.24 42.17 44.27 49.53 47.15 48.97 49.96 47.15 48.77 49.75 48.62 57.48 61.00
52.75 52.71 52.71 52.88 52.85 52.80 52.67 52.64 52.36 52.29 51.99 51.98 51.90 52.04 52.66 53.67 49.26 46.12 52.82 58.99 59.33 57.13 48.20 46.34 42.97 45.67 42.46 42.96 43.70 41.59 39.33 41.62 45.64 46.68 46.15 48.11 44.99 47.00 47.40 46.93 48.55 48.32 51.64 54.53 58.13
52.71 52.38 52.39 52.57 52.58 52.55 52.49 52.39 52.28 52.02 51.86 51.68 51.56 51.91 53.10 52.63 45.79 48.35 58.48 58.95 57.79 57.43 47.90 46.67 45.48 44.03 43.91 43.25 41.93 41.32 39.11 43.48 46.14 49.12 48.16 46.55 46.40 47.49 46.92 45.73 47.81 48.68 49.03 50.57 53.19
52.17 52.26 52.10 52.43 52.53 52.43 52.39 52.63 51.72 51.68 51.42 51.28 51.41 52.44 53.14 49.29 36.91 48.70 58.29 58.46 58.32 53.19 49.73 46.93 45.18 40.32 39.65 41.58 45.19 40.10 44.43 45.12 45.97 47.57 47.03 45.91 46.21 46.71 46.22 47.59 50.49 49.72 50.11 50.40 50.84
52.10 52.05 52.01 52.12 52.24 52.00 51.88 51.92 50.93 50.88 50.67 50.88 51.54 52.44 49.58 44.19 45.48 54.16 59.41 58.34 53.10 50.29 48.20 47.43 45.95 43.79 39.19 41.96 43.39 42.95 44.84 46.57 47.04 47.38 47.23 47.42 45.99 45.65 45.70 47.30 48.56 49.60 50.27 49.28 50.21
52.54 52.08 51.98 51.81 51.51 50.98 50.45 50.81 50.68 50.11 50.19 51.02 51.80 51.97 46.48 38.72 49.08 53.17 52.40 52.06 50.30 50.23 49.59 50.07 48.20 47.99 43.85 42.49 40.87 43.33 43.41 43.72 44.28 44.22 44.51 44.50 43.37 44.00 46.26 47.23 47.47 48.50 48.55 49.54 49.42
51.96 51.91 51.42 50.83 49.92 49.62 49.57 49.87 50.42 49.93 50.42 51.40 52.63 50.53 46.14 42.80 49.88 48.87 50.23 46.86 46.89 46.53 45.04 47.88 49.76 45.92 45.45 42.64 46.64 45.06 40.65 42.31 42.54 42.74 43.25 44.91 41.79 42.91 46.65 47.21 47.05 47.54 48.01 48.78 50.03
51.98 51.27 50.32 49.08 48.95 49.29 49.48 50.04 50.05 49.87 50.85 52.02 54.43 50.17 43.01 52.13 49.66 49.83 49.00 47.75 49.11 48.79 47.53 46.94 46.79 44.82 44.00 45.42 44.18 40.03 39.47 34.34 40.58 42.43 43.63 41.44 36.45 43.45 46.13 45.24 44.84 46.40 47.19 48.18 48.76
51.21 50.00 49.23 49.66 49.62 49.71 49.54 49.90 49.77 50.15 51.76 53.75 49.47 47.97 42.48 54.17 49.20 51.00 48.66 47.58 49.58 49.24 47.31 49.22 44.80 40.71 42.48 37.44 34.43 36.10 31.40 33.74 37.37 42.49 41.99 39.89 37.49 42.24 44.10 44.79 44.46 44.45 44.37 45.38 47.30
50.03 48.89 48.64 49.51 49.82 49.77 49.41 49.45 49.14 50.28 52.01 52.50 51.03 44.73 48.28 46.52 48.65 50.22 49.89 51.22 48.88 47.97 44.98 42.24 38.53 34.96 34.41 31.98 26.94 30.62 32.01 32.54 33.31 37.24 39.13 37.51 37.06 41.53 43.84 44.55 43.40 42.96 44.12 45.51 47.04
48.98 48.53 48.64 48.81 49.43 49.03 47.64 44.57 43.00 42.97 46.16 44.63 45.42 44.38 46.88 46.92 49.40 47.33 48.38 46.54 46.52 45.06 38.01 39.88 32.45 29.92 32.88 35.42 36.85 36.20 34.83 33.52 36.26 39.91 37.92 37.38 37.62 39.74 41.55 42.12 42.61 43.36 44.23 45.89 45.82
48.75 48.27 48.21 48.34 48.30 48.73 45.56 41.72 41.34 40.73 34.34 44.75 48.10 47.02 46.22 46.89 44.12 47.73 48.84 41.57 40.17 38.08 40.52 37.93 32.69 38.21 39.83 39.21 38.08 36.95 34.56 33.60 36.98 40.02 37.84 36.51 36.54 39.79 41.35 42.18 44.29 45.04 45.63 45.84 46.28
48.16 47.84 47.66 47.61 47.86 45.37 42.96 42.36 46.31 46.06 35.32 41.53 44.14 44.35 46.38 48.16 44.24 45.51 46.38 42.60 39.03 37.01 37.14 34.11 38.86 43.25 40.58 38.58 37.55 36.96 34.95 34.23 34.86 37.11 37.77 36.12 34.47 37.28 42.27 44.17 45.97 47.04 47.06 48.24 46.65
47.27 47.10 47.23 47.74 43.53 43.96 42.63 45.23 47.11 46.85 33.24 38.73 40.05 44.81 46.47 46.97 42.38 49.26 49.31 45.00 41.54 36.77 38.00 36.97 40.77 40.30 39.36 38.38 39.26 33.93 39.66 39.21 38.08 34.83 28.47 35.00 27.13 35.78 40.82 42.75 45.32 46.65 47.51 45.61 50.93
46.21 46.69 47.02 46.42 40.60 40.75 43.27 45.51 45.66 44.32 24.54 38.97 41.68 49.19 45.53 42.26 42.63 44.98 49.03 44.59 38.67 38.57 38.48 35.71 37.85 37.41 36.96 37.97 40.54 37.30 41.63 39.27 37.24 33.24 32.49 33.78 30.13 34.77 41.10 40.63 42.58 48.32 50.05 49.60 50.94
45.57 46.33 46.59 44.44 42.96 44.85 46.11 44.99 43.29 33.23 24.05 36.03 42.02 40.56 38.60 40.06 40.46 44.76 44.47 45.27 44.21 39.55 39.15 37.71 41.62 39.39 38.35 41.25 41.25 42.10 38.87 38.38 35.34 32.50 26.19 32.66 31.59 31.77 35.75 39.77 46.10 49.35 49.97 50.73 51.04
45.71 46.13 43.84 44.77 40.98 45.80 45.04 41.81 32.16 26.31 38.69 34.04 35.85 38.13 36.69 35.28 36.31 36.87 38.22 35.49 33.93 29.49 30.63 36.91 38.16 41.00 41.10 36.68 39.97 37.87 33.31 23.93 22.40 22.75 23.89 35.95 33.00 34.61 42.31 46.46 47.70 47.99 48.95 49.50 50.56
45.34 45.28 44.97 43.91 46.30 46.37 43.97 35.91 26.00 34.58 33.42 37.66 35.30 34.72 32.07 34.44 34.67 36.18 33.73 30.14 34.70 36.86 32.98 30.10 27.76 37.23 42.37 37.98 34.99 35.28 33.67 26.57 20.22 21.08 25.97 36.48 29.92 35.31 44.58 44.40 46.67 49.87 48.91 49.28 48.92
44.88 40.50 42.57 45.99 46.21 45.27 37.81 28.63 27.60 32.41 34.46 32.52 33.70 31.08 31.55 35.11 34.34 33.46 31.66 31.47 36.67 36.96 30.40 30.25 30.99 39.55 40.57 42.17 39.88 35.08 32.19 38.18 31.33 31.67 26.90 30.62 35.58 41.39 43.14 42.59 42.96 46.30 45.94 45.59 46.05
39.46 41.08 41.36 44.97 45.56 41.88 33.27 31.09 32.51 35.76 35.25 34.67 28.49 32.57 28.51 30.30 30.09 30.30 30.96 35.68 36.52 37.84 37.66 33.76 26.55 36.39 38.91 42.05 41.09 37.68 39.49 28.66 31.35 25.34 22.23 29.30 31.49 34.29 39.91 40.37 43.74 43.55 43.23 43.64 44.05
38.23 36.11 41.45 44.67 44.57 37.39 26.93 31.22 34.48 36.98 36.08 32.12 30.40 29.34 29.93 29.02 30.07 29.19 30.75 34.68 35.90 35.64 35.89 33.77 31.16 29.89 34.92 34.21 34.69 36.76 34.16 35.94 35.24 31.52 24.04 24.84 31.45 40.81 39.30 41.00 43.38 42.74 42.73 41.51 41.28
37.78 32.01 42.24 43.47 34.70 35.89 29.33 34.45 35.42 35.28 37.04 34.77 34.95 33.01 30.82 31.23 29.31 28.93 28.98 33.44 38.48 37.08 31.08 34.52 30.13 24.64 27.46 34.84 37.21 39.00 36.32 35.05 28.39 28.03 32.10 29.58 30.91 41.12 41.65 42.94 45.18 42.33 41.54 40.33 39.15
35.26 34.66 41.28 41.07 27.59 28.38 33.97 34.05 34.82 33.87 34.26 33.56 32.28 34.27 33.84 29.78 25.34 30.59 32.00 37.38 38.72 35.56 31.31 33.15 26.12 19.79 22.39 30.33 35.77 34.05 34.57 34.53 34.16 36.25 29.34 27.53 31.97 40.61 43.41 42.85 42.07 39.42 38.65 37.88 36.98
36.15 28.69 33.64 36.52 34.24 31.56 29.85 31.40 31.22 35.97 33.56 34.35 32.92 33.96 31.22 30.21 32.36 29.58 30.41 35.86 37.38 37.05 38.29 34.70 28.64 24.41 18.52 24.49 30.58 28.29 31.93 33.69 33.22 30.70 31.74 33.62 34.27 39.31 40.13 38.81 38.89 38.07 36.77 35.68 34.96
36.85 31.75 34.19 26.57 29.19 31.35 32.31 32.10 30.04 29.52 34.28 34.63 31.80 32.79 30.79 25.84 27.55 26.47 30.80 31.74 34.73 37.94 34.55 30.75 24.60 27.55 28.75 30.05 30.52 30.56 31.02 32.36 31.86 35.09 31.23 33.13 33.93 36.37 36.85 37.27 36.68 36.65 35.47 33.64 32.36
32.27 32.58 32.83 31.00 32.92 31.22 29.13 30.20 30.22 31.20 31.28 29.25 28.54 31.02 30.05 26.01 27.31 24.83 28.19 28.01 27.80 32.10 30.48 32.56 24.79 25.40 24.36 29.15 30.48 28.66 31.55 33.81 33.93 35.21 35.42 35.04 35.14 37.26 36.59 35.81 34.38 33.17 32.68 31.14 30.52
35.91 38.30 35.57 32.31 29.34 26.82 26.67 30.30 30.92 32.35 33.74 34.05 32.22 29.54 28.11 30.03 32.30 32.83 32.39 32.12 31.31 28.58 23.17 26.39 23.72 21.87 17.55 28.50 27.71 25.29 33.45 33.72 34.91 37.00 35.74 33.08 35.27 37.07 32.66 31.40 30.77 31.00 30.45 29.59 29.57

GFSSW_sfc_wetblb_096.txt.gz
Wetbulb
54.20 53.70 53.31 53.17 53.03 53.34 53.37 53.07 53.04 52.92 52.75 52.52 52.45 52.49 52.67 53.02 53.61 49.38 43.19 47.71 50.36 56.15 57.69 50.81 47.95 45.67 45.42 40.84 44.17 45.25 36.92 35.05 37.87 40.96 43.46 49.14 45.33 46.76 48.73 46.53 48.22 48.28 47.94 55.40 60.10
54.20 53.50 53.32 53.03 52.99 53.03 52.80 53.02 52.82 52.82 52.31 52.21 52.15 52.10 52.61 53.47 49.06 46.04 51.29 55.80 57.02 58.72 47.74 46.05 42.66 42.37 41.63 39.52 41.74 39.73 35.03 38.55 44.16 45.20 44.91 47.26 43.71 45.77 45.30 45.37 47.34 47.72 51.20 57.97 58.98
54.17 53.70 53.21 52.87 52.84 52.70 52.75 52.71 52.50 52.41 52.04 51.81 51.69 51.82 53.12 52.53 44.48 46.36 57.86 57.79 58.48 58.98 46.59 45.75 45.24 41.81 40.05 39.80 40.40 38.88 37.48 40.65 42.72 45.69 45.79 44.64 45.12 46.48 45.16 43.95 46.10 46.73 48.43 50.58 54.79
53.96 53.20 52.82 52.73 52.80 52.74 52.80 52.83 51.89 51.76 51.47 51.18 51.17 51.94 52.92 48.95 33.95 48.09 59.24 58.21 58.52 52.32 48.25 44.82 42.15 37.98 36.65 38.16 41.99 37.73 41.70 42.67 43.74 45.38 44.63 43.78 46.35 44.92 44.82 46.69 49.08 48.54 48.81 49.08 49.65
54.18 53.34 52.80 52.61 52.77 52.60 52.56 52.29 51.29 51.01 50.91 50.75 51.06 52.24 48.36 43.37 43.68 51.17 58.88 57.56 53.57 50.32 46.76 45.67 43.66 41.55 37.19 38.41 39.77 40.05 42.63 44.78 45.67 45.84 45.59 46.25 44.19 44.65 45.69 46.87 47.44 46.98 47.82 47.98 48.37
53.64 53.41 52.58 52.53 52.39 52.34 51.46 51.37 50.92 50.40 50.21 50.46 51.38 51.56 45.31 35.51 46.67 50.57 54.69 53.28 51.02 46.57 47.51 47.30 46.90 46.61 43.12 41.55 37.98 41.35 41.79 41.32 42.31 42.58 42.61 42.46 41.80 42.17 44.63 46.56 46.10 46.91 46.68 46.89 47.33
53.49 53.16 52.75 52.32 51.75 50.68 50.02 50.27 50.71 50.33 50.08 50.73 51.46 50.25 44.81 40.68 47.38 47.38 50.67 47.24 47.90 48.03 46.01 46.43 47.19 42.89 42.94 40.71 44.37 43.25 39.13 40.48 39.99 40.65 40.14 41.52 40.15 40.58 44.37 45.44 44.88 45.88 46.07 47.28 48.27
52.63 52.95 52.58 51.45 49.97 49.26 49.64 50.22 50.23 49.82 50.07 51.07 52.54 49.34 41.25 51.10 50.14 49.12 48.16 46.41 47.07 46.36 45.76 46.50 45.00 42.03 41.45 43.18 41.99 38.14 37.52 32.37 38.91 40.91 41.80 39.33 35.87 40.63 43.16 42.41 43.32 44.93 45.83 46.50 46.21
52.91 52.66 51.38 50.07 50.05 50.03 50.08 49.70 49.41 49.58 50.25 51.87 48.74 47.16 41.64 54.06 49.60 51.89 49.85 46.32 46.62 47.05 45.96 48.56 44.22 39.18 39.42 34.93 32.00 33.75 29.96 32.66 35.66 40.79 39.58 37.68 36.79 39.69 42.12 42.23 41.57 41.93 42.47 43.53 44.43
52.31 51.47 49.71 49.67 49.95 49.95 49.74 48.82 49.14 48.81 48.94 51.80 50.13 43.91 45.99 45.77 48.10 49.14 48.60 49.77 47.38 46.75 43.66 41.57 36.90 33.28 32.47 30.60 25.65 28.80 30.37 29.74 31.14 35.74 36.53 35.09 34.93 39.75 41.15 40.44 41.12 40.27 41.35 42.23 43.38
51.74 49.75 49.11 48.91 49.33 49.40 46.87 42.16 42.89 41.91 43.41 42.76 42.68 42.88 46.09 47.13 46.78 46.05 47.74 45.07 43.76 42.70 36.25 38.04 31.40 28.80 31.05 32.76 34.84 34.12 33.09 31.49 34.07 37.18 36.18 35.88 35.83 37.76 38.38 38.68 38.24 40.65 41.27 41.54 43.35
50.75 49.21 48.44 48.42 48.35 47.92 45.04 39.28 40.16 39.40 33.12 43.36 46.57 46.35 49.25 48.82 42.57 46.22 47.72 40.66 38.65 33.30 38.55 35.34 30.10 36.09 37.52 36.77 34.99 33.81 31.69 31.24 35.45 38.10 36.76 35.17 35.13 38.53 39.61 38.86 41.37 41.97 42.94 43.64 45.14
49.73 48.77 47.96 47.35 47.52 44.09 41.32 40.99 45.46 43.67 32.35 38.58 41.89 43.05 45.67 46.40 42.34 44.08 44.59 41.44 37.03 34.95 36.11 33.42 37.15 41.48 38.45 36.61 35.05 34.49 32.20 32.81 33.24 35.81 34.87 33.45 33.34 36.37 40.40 41.35 42.29 43.53 44.24 45.91 46.14
49.12 47.82 47.10 46.81 42.62 41.77 41.32 44.92 46.07 44.33 28.16 36.33 39.96 42.85 45.69 46.53 42.03 47.73 47.85 43.71 39.36 35.30 35.85 34.34 39.01 37.62 36.62 36.01 37.60 32.14 37.91 37.17 36.07 32.34 28.50 34.34 25.98 35.29 38.77 39.77 42.27 43.81 44.71 47.56 48.96
47.63 46.84 46.38 46.05 39.52 40.70 43.46 43.61 43.64 42.69 20.26 38.68 39.98 48.56 45.95 42.02 41.45 44.10 48.22 44.06 37.83 37.57 36.68 34.11 35.81 35.16 34.19 35.41 37.93 35.04 39.48 37.76 36.23 31.50 29.31 32.78 26.91 33.34 37.44 37.51 40.39 43.06 48.39 48.70 49.36
46.51 46.02 45.71 43.23 42.12 43.35 43.87 44.64 43.23 30.27 21.08 35.99 41.65 40.43 38.70 40.32 39.64 43.63 43.50 44.38 42.87 38.09 37.46 35.90 39.35 37.54 35.98 38.78 38.39 39.55 37.17 35.00 33.70 30.68 25.09 31.93 28.24 30.17 32.96 37.19 42.13 46.75 48.84 49.64 49.11
45.35 44.98 43.96 44.00 40.27 44.85 44.40 41.22 31.09 26.10 38.04 32.82 35.02 37.90 35.76 34.59 35.18 35.43 36.13 34.35 31.59 27.07 27.27 33.18 34.07 37.41 40.44 35.50 37.52 35.79 31.35 23.81 21.82 20.52 23.06 32.70 29.35 32.21 38.35 42.90 43.11 43.86 46.98 47.12 46.07
44.26 44.27 43.09 42.77 43.64 44.86 43.01 34.83 26.11 32.13 31.88 36.04 34.65 33.89 31.19 33.21 33.18 33.93 31.71 28.36 35.08 34.56 30.36 28.03 26.45 34.65 38.77 35.92 33.11 32.79 34.00 26.64 20.52 20.69 23.34 32.69 26.66 32.75 43.51 45.29 46.01 45.09 46.11 45.06 43.65
43.89 39.73 39.33 43.88 44.33 44.02 37.46 28.41 27.47 31.40 33.67 32.16 33.19 29.36 30.73 33.27 32.53 32.10 30.31 32.31 34.83 33.91 28.54 27.88 28.67 36.28 38.39 38.06 38.28 34.18 29.19 34.83 29.44 30.23 26.68 28.06 32.39 39.51 43.06 42.98 43.82 43.06 44.00 41.81 40.49
38.75 39.22 40.64 45.38 44.39 41.59 33.33 30.95 30.64 34.76 34.78 33.92 27.99 30.91 26.57 28.84 28.86 29.22 29.89 35.08 33.69 35.33 34.82 31.98 24.80 34.08 35.80 36.52 37.46 37.73 38.14 27.94 28.27 21.79 20.34 26.29 28.51 31.23 37.46 38.88 41.74 42.34 40.14 39.10 38.67
37.54 35.61 41.15 43.81 44.12 36.71 26.58 29.52 32.80 36.00 35.62 31.74 29.79 28.58 28.77 28.22 28.97 28.16 29.66 32.76 34.63 34.40 35.10 31.53 29.06 28.28 32.38 30.26 28.72 29.79 30.85 34.04 33.94 30.43 23.45 22.37 27.10 38.88 39.03 40.45 40.64 41.37 38.73 37.04 35.90
36.78 31.40 41.28 43.30 34.70 34.31 29.19 34.02 36.53 34.66 36.19 34.86 33.25 31.99 29.89 29.96 28.08 27.62 27.82 32.53 37.28 35.23 29.49 32.77 27.92 24.05 25.92 32.59 34.14 31.51 30.32 34.72 28.76 27.41 29.47 26.96 28.47 41.08 40.02 41.87 41.29 37.87 37.13 36.51 34.85
34.59 33.24 40.27 41.65 27.21 27.03 32.84 33.06 34.50 33.81 33.35 32.80 31.78 33.25 32.57 28.33 24.40 29.20 30.38 37.39 36.97 33.74 29.40 31.57 24.53 19.32 21.78 26.46 32.65 29.87 31.66 33.24 33.27 32.47 28.22 24.91 28.81 39.54 40.18 36.97 36.49 35.66 34.20 34.20 34.00
35.31 28.49 32.91 34.89 34.27 30.75 29.41 31.00 30.16 34.73 33.05 33.70 32.07 32.58 29.58 28.36 30.54 27.85 28.83 35.12 36.05 36.31 38.16 33.92 27.46 23.67 18.13 21.91 27.35 25.45 28.79 31.20 31.16 25.70 28.23 29.89 33.25 37.43 35.80 36.71 36.31 35.23 34.23 33.12 32.26
34.91 30.06 33.23 25.96 28.78 30.84 31.63 31.10 29.26 28.77 33.27 33.13 30.20 29.91 27.96 25.04 25.84 25.19 28.36 29.42 32.23 37.51 32.95 29.40 22.70 25.87 27.48 27.89 27.60 26.50 26.55 27.75 27.89 30.24 28.68 32.19 33.22 33.24 34.96 34.38 33.75 34.11 33.21 31.55 30.46
30.31 29.06 32.38 29.87 32.57 29.18 29.26 29.00 29.35 29.87 30.05 28.31 26.84 29.64 28.24 24.26 25.44 23.66 26.76 25.93 25.82 30.06 29.19 31.66 19.25 25.11 22.91 26.81 27.19 26.11 28.83 30.04 30.51 34.08 34.00 35.93 32.71 35.14 34.86 34.32 32.14 31.23 30.82 29.11 28.57
35.63 36.93 32.63 30.27 28.83 27.15 26.12 30.18 30.16 30.90 32.24 32.64 30.77 27.89 26.59 28.44 30.35 30.64 30.78 30.52 29.58 27.22 22.60 26.03 22.03 20.78 16.52 25.19 25.64 20.00 26.83 30.12 33.55 34.56 35.41 30.97 33.79 34.28 30.96 29.37 28.82 29.18 28.74 27.59 28.25

GFSSW_sfc_wetblb_099.txt.gz
Wetbulb
55.68 54.94 54.48 53.79 53.70 53.48 53.38 53.33 53.10 53.07 52.93 52.73 52.57 52.59 52.65 53.12 53.30 48.72 42.13 46.10 49.20 54.73 56.56 48.83 47.00 45.07 43.80 38.96 41.52 43.55 35.32 31.41 35.32 37.81 40.19 46.56 42.96 45.31 46.99 45.09 47.19 47.91 46.59 53.79 60.54
55.73 55.03 54.52 53.84 54.03 53.49 53.25 53.01 53.09 52.81 52.66 52.37 52.20 51.92 52.27 53.16 48.60 44.98 50.30 53.98 55.63 57.13 47.63 44.88 42.18 41.94 40.11 38.39 39.57 38.37 32.76 35.83 41.93 42.86 43.38 46.22 42.67 46.39 44.10 44.93 45.83 46.46 49.67 51.40 57.82
55.43 54.98 54.48 53.76 53.56 53.26 53.27 53.14 52.81 52.63 52.26 51.82 51.72 51.53 52.64 52.24 41.93 42.18 57.85 57.14 56.75 58.40 50.15 45.05 44.70 41.12 36.69 37.97 37.83 36.41 35.28 38.99 41.16 43.74 42.36 41.82 43.44 45.42 43.81 43.41 45.60 45.72 46.95 48.57 49.93
55.94 55.43 54.55 53.71 53.39 53.16 53.54 53.36 52.35 52.08 51.76 51.15 51.19 51.64 52.77 48.12 34.38 46.30 59.01 59.29 58.78 52.84 46.31 44.04 41.21 36.35 34.42 35.99 39.80 35.91 39.70 40.72 40.59 42.93 41.85 41.61 44.49 43.55 43.40 44.92 47.97 47.89 48.23 47.10 48.66
55.54 55.17 54.28 53.39 53.38 53.00 53.34 52.88 51.66 50.93 50.66 50.68 50.88 52.05 47.68 41.15 41.44 47.04 58.52 58.10 53.81 48.91 45.53 44.45 40.36 37.82 35.04 36.29 36.95 36.87 39.42 41.85 43.51 43.75 43.06 44.37 42.33 42.79 43.84 46.09 46.61 46.85 46.42 45.85 47.08
55.07 54.58 53.85 53.00 52.95 52.82 52.45 51.78 50.58 50.22 50.07 50.08 50.81 51.24 44.75 33.13 43.80 48.62 52.47 52.51 49.04 46.51 45.85 45.04 44.03 44.80 41.94 40.73 37.60 39.81 39.72 39.70 40.19 40.38 40.93 40.94 41.15 39.62 42.91 45.20 44.48 45.37 45.39 46.19 45.84
54.82 54.25 53.65 52.75 52.77 52.41 51.09 50.16 50.09 50.15 49.90 49.86 50.90 49.55 43.55 39.90 45.99 46.83 51.47 48.70 48.34 47.87 45.28 47.63 47.56 42.23 40.70 38.74 42.44 41.77 37.73 38.77 39.69 39.99 39.02 41.31 37.52 38.89 42.72 43.43 42.40 42.63 43.34 44.60 46.54
54.40 53.75 53.25 53.01 52.66 51.11 49.73 50.05 50.05 50.03 49.84 50.16 51.51 49.36 40.26 49.52 47.89 47.91 47.37 46.98 47.82 46.81 47.30 45.11 44.23 41.17 39.52 41.39 39.89 36.45 35.67 31.41 37.86 38.87 40.54 37.53 34.52 39.05 42.46 39.64 40.27 41.04 41.81 43.07 43.79
54.24 53.48 52.99 52.34 50.72 50.04 49.82 49.62 49.52 49.45 49.79 50.01 48.49 45.96 38.77 51.64 48.64 51.09 47.99 45.76 46.08 45.37 44.35 47.04 42.79 38.09 38.14 34.40 30.90 31.89 28.53 30.54 34.34 39.29 38.45 36.24 35.02 38.16 41.29 40.97 40.31 40.39 40.80 41.34 42.55
53.67 53.03 52.54 50.45 49.31 50.01 49.94 49.05 48.30 48.20 48.52 50.67 49.34 41.08 43.32 43.78 47.25 47.94 48.46 47.84 44.90 45.24 42.40 40.03 36.07 32.32 30.84 29.98 24.78 27.39 28.38 27.09 29.14 34.61 34.14 33.91 34.67 38.27 39.84 39.63 39.87 39.33 40.29 41.20 42.52
53.35 52.58 51.51 49.60 49.28 49.57 45.83 41.54 41.28 39.98 41.98 40.83 41.35 40.63 42.81 48.21 46.25 43.85 45.79 45.36 43.20 40.97 34.85 36.16 30.69 28.01 30.04 31.70 33.25 32.28 30.55 29.03 30.64 35.64 32.90 34.16 34.76 37.63 39.95 35.64 36.08 37.33 38.82 40.44 41.36
53.02 52.26 50.25 49.31 48.83 47.63 43.57 38.44 40.68 39.94 33.10 42.43 44.96 43.73 46.03 46.97 43.61 43.83 46.30 39.92 37.57 32.84 36.19 33.90 28.75 34.04 35.66 34.51 32.85 31.44 29.02 28.85 32.41 35.84 33.64 32.82 33.26 37.72 38.07 37.08 38.01 39.83 40.02 40.95 42.41
52.68 50.64 49.57 49.12 47.45 44.21 40.79 41.65 46.15 41.93 30.47 35.70 41.09 43.03 44.98 47.36 42.79 41.49 44.11 40.36 35.52 32.75 32.72 31.03 35.50 39.44 36.03 34.17 32.74 31.92 29.59 30.50 30.98 34.82 34.25 32.16 32.82 35.48 38.59 39.72 41.59 42.11 41.47 42.46 46.16
50.72 50.06 49.22 47.58 40.27 41.80 39.96 45.27 45.81 42.06 24.32 31.73 37.01 39.76 44.22 44.39 39.41 46.12 45.18 41.05 36.27 32.99 33.66 32.76 37.29 35.98 33.86 33.53 35.05 29.95 36.50 35.75 34.21 30.65 26.06 33.51 25.60 34.79 36.92 36.27 39.88 42.09 42.82 46.46 47.53
50.08 48.76 47.47 45.37 41.09 39.69 43.04 43.12 45.35 41.75 18.85 36.40 37.75 46.06 44.77 40.83 39.96 41.76 46.89 42.48 36.28 36.03 35.14 32.68 34.78 34.02 32.74 34.01 36.54 33.19 37.79 35.75 34.54 29.68 27.86 30.99 25.19 31.58 37.47 35.95 38.35 43.48 47.30 46.75 46.60
48.44 47.24 46.67 43.64 42.03 42.88 44.22 44.61 42.53 30.08 21.11 34.60 40.17 38.84 37.95 39.99 39.29 42.02 41.90 43.03 41.69 36.72 35.77 35.19 38.18 36.84 36.08 38.15 36.93 38.01 34.56 33.77 31.13 28.72 23.00 30.77 27.13 29.27 32.03 35.51 41.20 44.40 44.20 44.25 44.30
47.20 46.67 44.10 44.08 39.70 44.09 43.62 40.21 30.89 24.31 36.07 32.73 35.58 38.95 36.01 33.96 33.95 35.78 34.63 33.89 31.43 27.54 26.80 33.09 33.46 35.66 38.45 33.95 36.45 33.79 29.01 21.76 20.45 20.10 22.55 30.96 27.09 28.93 39.03 42.40 42.55 42.64 42.71 42.50 41.82
45.72 44.88 43.12 42.97 42.30 43.12 41.98 34.38 25.76 31.05 30.92 34.90 34.56 34.41 31.00 31.41 32.08 32.77 31.02 29.57 34.62 34.00 29.26 26.50 24.33 32.51 36.57 34.46 31.44 31.52 29.52 22.56 19.30 20.59 21.54 31.13 24.25 29.70 41.45 43.16 43.62 43.35 43.14 41.48 39.72
44.16 39.76 38.83 42.12 42.27 41.85 36.99 28.70 28.39 30.88 33.51 32.18 33.21 29.38 29.20 32.55 31.76 31.98 30.19 31.16 31.91 32.34 27.09 26.58 27.42 34.90 35.67 35.52 32.79 31.36 27.72 33.14 27.96 26.99 24.23 26.08 30.16 38.34 41.23 40.79 43.46 42.37 41.12 39.07 37.36
38.81 38.94 39.83 44.65 44.16 41.25 34.50 30.63 30.20 34.51 34.55 34.20 28.23 30.86 26.09 28.62 28.49 28.31 29.13 32.51 31.66 33.68 33.44 30.57 23.00 31.98 33.70 34.30 34.41 33.08 35.19 25.90 28.81 20.73 19.93 24.03 25.87 27.04 35.84 39.00 41.40 40.28 38.34 37.59 36.46
39.02 36.44 41.13 44.11 43.78 37.61 27.69 29.53 32.03 35.82 35.49 31.90 29.68 27.64 28.18 26.96 27.62 27.00 28.00 31.74 33.13 32.84 33.95 30.15 27.34 26.61 30.12 27.56 25.78 26.53 25.43 29.70 30.98 29.10 24.38 21.10 24.12 39.16 37.89 40.09 41.44 37.52 36.57 35.47 34.93
36.84 30.99 40.85 43.67 35.17 34.50 29.09 33.48 36.42 34.14 36.22 34.21 33.10 31.51 28.47 28.35 25.93 26.20 26.77 30.88 35.73 33.57 27.90 31.20 27.14 22.71 24.07 30.96 32.17 29.04 29.39 31.11 17.51 21.32 25.89 25.54 26.31 40.18 38.03 37.54 37.56 35.32 35.20 34.94 34.05
34.82 32.98 39.56 41.42 28.60 27.93 31.86 32.32 34.17 33.09 32.56 31.57 30.90 31.97 31.22 27.61 24.02 28.16 30.18 36.35 35.27 32.19 28.29 30.11 23.69 19.08 21.05 25.21 29.01 27.09 29.16 30.76 30.84 29.68 23.68 23.88 28.29 39.29 38.21 36.31 36.03 34.66 33.73 33.00 32.80
34.54 27.03 31.74 35.66 34.50 30.74 29.49 30.24 29.76 34.28 32.24 32.38 31.01 31.89 29.03 27.29 29.34 26.94 27.54 33.10 34.30 34.50 38.05 33.34 26.35 22.83 17.96 21.73 25.97 23.73 25.87 28.03 26.71 18.91 22.31 24.22 27.34 36.29 36.18 34.91 34.16 33.50 32.46 31.50 31.28
34.97 30.19 33.27 27.56 28.82 30.45 31.17 31.72 28.69 27.87 32.25 31.75 28.77 28.62 27.10 24.72 24.81 24.20 26.36 27.64 30.63 35.53 31.42 28.17 22.22 25.69 26.14 26.96 27.12 25.24 24.51 25.69 24.43 25.25 20.83 25.38 30.18 33.29 34.12 32.75 32.19 32.10 31.16 30.11 29.44
32.24 30.34 31.10 29.44 31.63 29.35 29.45 28.91 28.31 28.85 28.82 27.23 26.24 28.79 27.26 23.88 24.79 22.79 25.75 25.76 25.26 30.18 28.14 29.23 18.52 24.70 23.60 25.48 25.25 23.19 25.67 26.48 27.34 28.60 28.26 29.26 31.18 34.78 33.79 32.56 30.27 29.36 28.53 27.66 27.75
35.24 35.50 31.93 29.11 28.16 27.06 25.85 29.10 29.23 30.28 31.41 31.73 29.37 26.51 25.64 26.58 28.83 29.59 29.87 29.54 28.54 26.06 23.38 25.32 22.27 19.69 15.15 23.88 23.48 18.56 24.75 26.57 28.12 33.13 32.53 30.50 31.81 32.83 29.86 27.82 26.76 27.41 27.24 26.49 27.03

GFSSW_sfc_wetblb_102.txt.gz
Wetbulb
57.13 56.18 55.63 54.95 54.29 53.81 53.44 53.34 53.06 53.16 53.10 52.97 52.81 52.72 52.67 52.70 53.25 48.11 41.10 46.15 49.67 53.96 56.05 47.61 45.83 44.73 42.56 38.16 40.79 41.84 33.38 29.47 33.23 36.11 38.28 44.18 41.93 45.29 46.54 45.41 45.85 46.82 44.89 48.95 59.15
56.98 56.46 56.00 55.34 55.02 54.06 53.27 53.25 52.97 52.91 52.62 52.36 52.05 51.91 52.08 53.13 47.81 44.49 49.48 53.26 56.08 56.55 47.94 44.90 41.39 42.32 38.96 37.74 37.55 37.82 32.06 33.56 39.29 40.59 40.57 43.54 40.29 43.81 43.04 43.72 44.96 45.99 48.85 49.46 58.01
57.39 56.91 56.00 55.21 54.97 54.06 53.28 53.26 52.70 52.59 52.13 51.65 51.13 51.18 52.39 51.87 39.88 40.24 57.48 55.68 55.98 55.43 48.08 45.08 43.86 40.27 36.03 37.23 36.76 35.24 33.55 37.41 40.60 43.63 40.42 40.23 41.18 42.94 42.46 40.84 44.12 44.31 46.47 47.32 47.68
57.61 57.13 56.39 55.35 54.66 54.05 53.84 53.60 52.57 52.18 51.16 50.70 50.86 51.38 52.12 47.01 33.91 44.39 58.29 58.99 57.62 54.76 46.84 43.12 40.83 36.53 33.49 34.45 38.57 34.42 38.43 40.29 40.24 42.48 40.39 39.08 41.40 40.71 41.76 43.48 46.62 46.35 46.60 46.06 46.49
56.88 56.56 56.27 55.32 54.53 54.05 53.79 53.11 52.11 51.34 50.54 50.32 50.49 51.38 46.16 37.69 39.64 45.14 58.02 59.33 54.95 47.64 44.25 42.26 38.92 36.65 34.00 35.62 36.31 36.15 38.60 40.50 41.54 41.93 41.28 42.09 40.02 41.44 41.42 44.51 45.43 45.23 45.59 45.08 45.18
56.50 56.00 55.64 55.26 54.32 53.90 53.44 52.92 51.17 50.04 50.13 50.11 50.14 50.88 42.95 31.87 42.48 48.40 48.36 50.68 48.48 45.79 43.99 44.02 41.91 41.24 40.14 39.47 37.45 39.54 38.54 39.28 39.58 39.57 39.24 39.04 38.86 38.95 42.01 43.02 43.17 43.38 43.66 44.56 44.64
56.37 55.70 55.06 54.57 53.71 53.48 52.63 51.90 50.25 49.79 50.08 50.01 50.28 48.57 42.38 37.19 43.83 44.73 47.37 48.11 47.43 45.48 43.73 46.04 46.06 40.25 39.02 36.51 40.95 40.62 36.38 37.75 38.82 39.45 39.09 39.29 34.28 37.73 41.70 41.60 40.79 40.32 40.94 41.85 44.07
56.71 55.31 54.44 53.75 53.42 53.25 52.01 50.13 49.72 49.72 49.78 50.05 51.21 47.63 38.52 48.20 46.20 46.70 45.80 46.25 46.67 45.98 46.22 45.93 44.31 40.25 37.75 39.86 38.52 35.01 34.04 30.29 36.92 37.51 39.56 37.29 31.84 37.82 41.62 38.08 39.77 41.06 41.13 41.55 41.88
56.24 54.93 53.80 52.94 52.75 51.22 49.22 49.32 49.62 49.42 49.38 49.74 47.80 43.87 36.94 49.32 45.81 49.77 47.72 45.12 44.02 45.17 44.27 46.84 41.81 37.41 36.46 32.41 28.81 30.39 26.34 28.96 33.08 38.43 37.05 35.37 31.66 36.20 40.52 39.72 38.36 39.12 39.66 39.84 40.43
55.78 54.59 53.48 52.72 51.56 49.27 49.47 48.88 48.26 47.84 47.87 48.99 48.24 37.32 40.81 39.96 47.10 47.09 46.94 46.23 43.68 43.05 40.72 38.57 35.27 31.77 30.17 28.79 22.21 25.65 26.91 25.56 27.91 33.87 34.24 32.39 32.46 35.81 38.01 37.51 38.34 38.06 38.16 38.85 40.45
55.15 54.32 53.08 52.13 50.17 48.62 45.60 42.55 42.95 41.03 41.39 38.01 39.02 36.89 40.67 46.56 48.30 42.20 45.58 44.46 42.80 39.93 34.37 34.78 29.74 27.64 31.11 30.85 31.67 31.29 29.02 27.46 28.72 33.87 31.10 32.01 32.99 33.97 35.89 35.46 35.34 36.51 36.98 37.97 39.48
54.77 53.75 52.74 50.97 49.36 48.51 44.66 38.21 42.00 41.15 32.71 41.26 42.50 42.26 44.10 45.81 41.06 44.93 44.50 39.74 36.88 33.04 35.68 32.91 27.61 33.37 34.18 32.89 31.52 30.36 27.86 27.07 30.80 34.09 31.84 30.79 32.19 36.18 36.13 36.48 36.88 37.57 37.71 38.02 42.01
53.98 53.01 51.61 49.98 48.93 45.59 40.49 39.36 45.96 43.44 32.10 34.43 40.35 40.90 42.51 45.18 40.59 42.09 42.30 38.29 34.88 32.08 32.38 29.76 34.40 38.13 34.47 32.44 30.82 29.67 27.50 28.39 29.35 32.46 31.99 30.36 30.57 32.33 36.86 36.89 38.81 40.26 41.29 46.64 46.31
52.99 52.06 50.35 48.72 42.22 40.97 36.34 42.11 43.05 42.00 26.81 29.07 33.92 39.43 43.66 45.07 39.61 45.89 43.88 40.06 34.84 32.37 31.70 30.75 35.51 34.93 32.95 31.97 32.65 27.41 33.76 33.65 31.90 28.69 23.32 30.68 23.56 31.52 34.16 35.00 37.35 44.58 44.62 43.50 43.55
52.26 50.64 48.41 46.30 40.96 40.33 42.88 45.80 45.92 42.59 16.66 33.34 35.74 43.66 43.88 39.10 38.66 39.34 44.27 40.00 34.00 33.69 32.99 30.78 33.26 32.66 31.48 33.05 34.91 31.03 35.83 33.80 32.28 28.13 25.47 26.99 24.79 28.86 35.30 33.23 40.11 41.90 42.35 41.55 41.30
50.66 49.49 47.39 44.16 41.81 43.64 44.35 46.38 44.23 29.58 17.58 32.31 37.64 36.32 36.52 38.86 37.70 40.33 40.51 41.54 40.07 35.27 33.48 33.53 36.64 36.03 34.67 36.50 35.56 36.75 33.22 32.38 30.49 28.52 22.01 27.98 26.68 27.83 29.08 35.16 39.95 42.46 42.49 41.56 40.21
49.25 47.90 44.38 44.10 38.08 44.04 44.15 40.79 26.67 19.26 34.39 32.45 33.98 36.79 36.48 35.38 35.79 36.36 35.23 32.76 30.50 26.78 26.21 32.03 32.48 34.65 37.22 34.16 36.26 33.30 28.75 22.91 20.32 20.19 21.43 29.64 25.62 30.18 36.02 40.74 41.76 41.62 40.40 39.11 38.21
47.43 45.84 44.30 43.25 43.64 43.90 41.81 34.27 19.53 27.82 29.78 33.67 33.20 34.04 29.54 30.95 31.65 31.86 32.06 29.99 33.64 33.12 29.09 25.90 23.68 32.24 36.25 33.30 29.33 29.82 29.16 23.07 18.18 19.48 20.50 28.57 22.49 27.55 40.30 41.28 41.67 41.67 39.99 38.31 36.47
44.23 40.46 39.91 40.78 41.85 42.63 36.95 25.06 22.64 28.73 31.75 31.10 32.53 28.93 28.67 31.77 32.02 31.60 31.05 30.62 31.78 32.52 27.43 27.02 27.26 34.84 34.93 34.77 31.54 29.11 27.11 31.86 26.77 26.75 23.08 24.50 28.09 36.32 40.58 40.10 42.19 40.66 38.67 36.57 35.05
37.48 37.49 38.73 44.33 42.93 41.72 33.32 27.45 31.09 33.62 33.77 33.43 28.27 30.77 26.48 28.66 28.65 28.74 29.29 32.16 31.91 33.99 33.99 30.30 22.82 30.95 32.80 32.90 32.65 29.93 31.10 22.25 24.70 18.31 18.59 22.58 24.35 25.53 34.80 37.15 39.98 37.47 35.90 35.09 34.90
39.07 33.49 40.54 43.85 43.77 37.28 26.67 30.54 31.98 35.24 35.35 31.71 29.67 28.16 28.69 27.92 28.35 27.44 28.40 31.58 32.57 32.61 32.90 28.93 25.62 25.64 28.59 26.62 23.54 25.40 23.53 26.14 28.54 25.29 18.93 20.07 23.93 37.65 36.34 37.65 37.07 35.98 35.29 34.32 32.96
37.87 30.45 41.53 43.49 33.31 33.86 30.30 33.55 36.06 33.47 36.02 33.74 33.69 31.54 29.27 29.25 27.23 26.86 27.17 30.98 34.82 33.00 26.96 29.92 26.45 21.06 23.17 29.10 30.46 27.85 27.89 28.59 14.71 16.64 22.85 20.92 22.91 38.99 37.92 36.62 36.50 34.88 34.29 32.87 32.60
34.10 34.37 40.53 40.29 27.78 28.95 32.92 32.01 33.30 32.44 32.12 31.95 30.70 32.38 32.04 27.88 24.77 28.42 30.72 34.96 34.38 31.20 28.95 29.25 23.06 18.43 19.83 24.47 28.01 25.43 26.96 28.90 27.67 26.98 20.74 14.58 21.10 38.62 38.50 36.98 36.07 33.82 32.24 31.63 31.41
31.49 26.72 32.42 36.57 35.45 31.82 29.25 29.83 28.82 33.91 31.87 31.93 31.03 31.85 29.32 27.46 28.90 26.44 27.65 30.81 32.53 33.40 37.31 32.55 25.28 21.76 16.61 20.90 24.93 23.25 25.07 25.95 23.44 12.21 19.12 21.64 23.91 29.91 34.67 33.29 32.11 31.42 31.88 30.98 29.97
33.29 27.17 31.89 27.66 29.42 29.78 30.83 31.07 28.06 27.46 31.71 31.85 28.68 28.69 27.68 24.30 24.53 23.72 25.31 26.67 29.27 34.87 30.65 27.83 21.81 24.71 25.32 25.22 26.17 25.24 24.73 24.73 22.64 23.16 18.62 21.61 22.50 27.93 32.86 31.06 30.26 30.31 30.34 28.86 28.23
31.78 30.73 31.12 30.12 31.73 29.16 29.04 28.36 27.99 28.63 28.78 27.28 26.71 27.96 26.71 23.98 24.41 22.44 25.21 25.04 24.46 30.33 27.13 28.03 17.14 24.05 22.08 25.46 25.33 22.59 23.44 24.04 24.40 24.85 24.74 25.55 24.72 34.55 32.03 30.46 28.69 28.03 28.13 26.78 26.78
34.98 35.15 31.98 28.82 27.70 26.59 26.40 28.60 28.99 30.20 30.95 31.18 29.17 26.54 25.69 26.27 27.10 27.90 28.42 28.37 27.54 25.40 23.14 24.30 21.31 19.29 13.18 22.40 22.04 16.68 22.50 24.06 26.17 29.60 26.88 21.53 27.91 31.44 28.14 26.35 25.69 25.96 26.28 25.74 26.10

GFSSW_sfc_wetblb_108.txt.gz
Wetbulb
59.26 59.09 58.65 57.73 57.07 55.77 55.00 54.15 53.84 53.56 53.58 53.55 53.33 52.71 52.68 53.20 53.50 52.06 48.72 51.84 53.18 54.33 55.67 54.05 53.36 51.86 52.68 51.07 51.80 50.97 45.49 44.36 45.74 45.85 47.42 50.44 49.31 52.56 53.79 52.25 53.12 53.96 54.00 55.96 57.36
59.62 59.17 58.76 58.25 57.36 56.49 55.25 54.26 53.66 53.41 53.26 53.09 52.56 52.02 52.38 53.20 50.68 48.35 54.90 52.65 57.49 57.78 52.58 50.75 48.99 50.67 48.13 48.08 49.43 47.15 44.66 45.67 48.73 48.68 47.75 48.64 49.09 49.91 49.53 50.18 50.71 51.97 54.87 56.00 56.41
59.83 59.52 59.27 58.58 57.92 56.81 55.86 54.90 53.74 53.20 53.03 52.34 51.69 51.85 52.52 53.13 47.74 47.94 56.64 55.95 57.82 56.78 52.35 51.05 48.73 48.00 45.28 47.84 47.22 46.96 43.76 48.24 46.76 47.88 48.41 47.83 47.49 49.56 48.19 47.03 49.94 50.19 51.93 53.75 54.83
59.64 59.32 59.13 58.72 58.16 57.02 55.77 54.64 53.67 52.97 52.43 51.43 51.26 51.50 52.58 50.42 46.01 52.87 58.74 56.94 57.03 56.14 52.30 50.47 48.33 45.33 44.10 43.58 47.31 42.56 45.73 46.20 47.15 47.54 47.43 46.81 48.45 46.49 47.45 48.27 50.92 51.28 52.58 53.08 53.72
59.02 58.84 58.85 58.94 58.23 57.09 55.64 54.45 53.72 52.61 51.22 50.66 50.98 51.38 50.41 44.76 46.75 55.46 59.86 57.89 56.53 54.24 50.55 48.74 46.69 45.97 43.11 43.31 44.25 43.27 44.24 45.47 46.62 46.34 46.47 46.96 45.60 45.85 46.56 49.38 51.40 51.88 51.87 52.35 53.06
58.46 58.29 58.13 58.32 58.03 56.91 55.53 54.33 53.61 51.50 50.22 50.21 50.63 50.87 47.48 40.93 49.90 51.10 50.74 54.57 52.35 52.24 49.50 49.18 47.13 48.13 44.59 43.26 43.00 44.73 45.08 45.56 46.89 47.00 47.27 45.34 46.46 47.53 47.85 50.02 49.76 50.33 50.77 51.48 51.55
58.23 58.06 57.68 57.79 57.53 56.70 55.08 53.98 52.37 50.10 49.93 50.00 50.18 49.80 44.96 44.89 50.51 51.72 50.61 51.97 52.51 52.42 48.83 50.22 49.54 46.35 46.73 44.22 47.23 45.92 42.43 44.78 45.67 46.23 45.63 47.33 44.13 45.03 48.71 49.89 48.98 48.89 49.67 50.22 51.66
56.90 57.58 57.17 57.02 56.70 55.77 54.37 52.90 50.74 49.20 49.72 50.10 49.95 49.81 43.15 50.87 52.86 50.71 51.11 49.97 52.38 53.13 50.82 51.54 51.54 49.67 46.93 47.22 44.71 42.23 43.48 39.73 44.91 45.72 46.42 46.13 41.03 46.94 49.13 48.09 47.72 48.55 49.58 50.11 51.08
55.76 56.22 57.00 56.23 55.65 54.40 53.24 50.98 49.69 48.88 48.83 49.32 48.39 46.83 43.73 51.57 47.34 50.27 51.18 46.64 48.31 51.12 51.09 49.60 49.38 46.33 45.01 41.69 40.95 42.32 38.52 40.63 41.92 45.95 45.24 44.58 42.40 45.78 48.31 47.83 47.04 47.92 48.99 49.83 50.68
55.34 55.62 56.12 56.03 54.86 52.99 51.24 49.33 47.14 48.21 48.42 48.58 48.21 42.24 48.07 47.66 48.73 51.50 53.12 48.78 45.51 48.19 46.95 45.99 45.37 42.56 42.67 40.81 35.96 39.59 39.19 40.49 39.79 43.75 43.66 42.71 42.42 45.14 46.46 46.18 46.58 47.57 48.76 49.78 49.63
55.57 55.51 55.68 55.79 53.72 50.67 48.15 46.35 42.98 43.56 44.49 44.87 45.65 46.63 44.39 48.65 52.13 50.92 52.11 49.89 46.43 43.77 39.00 43.83 39.78 37.58 40.80 42.02 42.01 40.80 38.86 38.16 41.31 43.73 40.95 40.44 42.00 44.53 46.87 47.14 47.32 47.82 48.74 48.82 51.25
55.44 55.51 55.39 55.40 52.73 50.29 47.23 45.07 45.30 44.65 40.49 46.07 46.03 46.08 49.64 49.13 45.02 48.81 51.66 46.14 44.31 39.66 41.70 40.17 36.23 41.42 42.69 42.12 40.12 39.08 37.70 38.06 40.98 42.76 41.48 41.69 41.83 44.84 46.44 46.86 47.53 47.88 47.85 51.13 52.49
54.78 55.52 55.73 54.12 50.94 47.31 45.00 43.06 48.35 47.05 37.84 44.32 46.59 46.25 47.31 47.52 44.12 46.84 48.38 46.67 43.89 41.41 41.32 38.75 41.25 43.75 41.34 40.38 38.49 39.01 37.64 38.07 37.93 41.29 42.73 41.42 39.88 42.38 44.33 45.79 46.95 49.98 52.00 51.40 51.03
54.47 55.10 53.91 50.89 46.26 44.02 41.35 44.92 45.62 45.00 30.94 41.00 41.12 44.40 46.72 46.21 42.03 49.73 50.52 46.78 43.55 41.26 42.29 40.41 44.53 41.31 39.98 38.73 39.93 36.05 41.16 39.61 38.15 37.30 34.31 40.76 33.57 39.99 42.73 43.56 46.93 49.12 50.25 50.43 49.80
54.70 54.66 51.09 51.08 44.13 42.41 47.49 47.39 45.32 43.64 23.95 40.25 40.11 47.19 46.12 42.72 43.72 45.06 49.99 46.92 41.48 40.98 42.11 39.00 38.76 38.55 38.41 39.01 41.22 37.91 40.95 39.61 39.38 37.93 37.62 37.71 34.79 38.93 42.27 41.09 44.71 48.40 49.05 48.53 48.40
54.54 52.28 50.25 45.68 46.11 47.30 45.84 46.44 45.89 31.91 25.68 36.51 40.32 38.83 39.63 41.64 41.86 44.00 44.11 47.10 46.20 41.24 40.40 40.05 42.65 41.52 40.59 41.66 41.59 41.74 39.60 39.41 39.44 37.74 30.99 36.27 35.75 36.83 39.53 41.02 45.39 47.70 46.69 46.95 47.40
52.13 50.60 50.38 47.23 44.69 47.32 46.94 42.65 30.11 27.26 37.84 35.75 36.75 38.65 39.01 37.73 38.87 41.24 39.18 38.93 37.22 33.16 33.81 37.86 38.66 41.34 41.91 38.86 41.00 39.57 37.07 30.92 29.31 29.27 28.98 36.71 34.99 38.70 42.35 44.89 46.05 44.63 45.77 46.49 46.90
51.16 49.73 48.09 47.16 47.70 47.83 44.01 35.79 27.24 35.10 36.20 38.10 38.53 38.96 35.94 37.71 37.91 38.86 37.17 34.60 38.84 37.93 34.72 32.12 29.93 38.23 40.07 38.75 37.25 37.51 37.52 30.94 23.87 26.95 31.49 36.03 31.48 38.60 45.07 45.03 44.57 43.41 43.89 43.41 44.10
47.38 44.80 44.29 46.47 47.53 46.99 39.73 29.89 32.18 35.76 37.92 35.44 36.41 35.08 35.55 36.26 36.91 37.92 36.94 35.71 38.57 39.79 33.80 31.81 31.30 37.66 37.90 37.80 36.76 36.04 32.86 37.47 31.69 33.46 29.56 33.56 37.16 42.10 42.65 42.15 43.22 42.58 42.61 41.78 41.77
43.24 41.51 41.21 46.43 47.28 43.52 35.62 33.91 36.16 38.89 37.27 36.94 33.05 36.84 33.56 34.37 33.90 35.80 36.17 38.17 36.03 38.14 41.46 34.83 28.31 34.72 36.36 37.10 36.49 35.86 37.38 30.06 32.21 22.59 22.89 30.39 32.55 35.55 37.88 39.12 40.34 38.77 39.54 41.15 41.86
41.56 34.85 38.80 45.41 45.04 37.26 31.69 32.98 35.68 37.50 38.00 34.93 34.59 33.87 34.93 32.70 34.91 33.94 34.57 35.47 38.26 35.12 38.61 36.86 33.28 30.04 33.39 32.09 33.19 32.43 31.17 31.98 33.09 31.83 25.35 25.00 30.68 40.67 37.57 37.90 37.69 39.31 39.87 40.06 40.41
36.45 29.90 40.90 44.70 33.54 35.44 31.78 35.20 36.73 34.20 36.98 36.13 36.39 35.41 34.48 34.03 32.25 31.78 31.75 35.20 38.32 37.59 32.99 35.04 33.16 28.63 29.98 34.13 35.83 34.33 31.97 32.32 26.96 25.77 29.65 29.05 30.14 41.87 40.83 39.75 39.45 39.01 38.74 39.83 40.05
32.86 32.29 39.93 41.37 30.91 31.97 35.14 34.37 35.94 35.03 36.33 36.37 35.13 36.64 35.75 33.30 29.70 32.03 33.01 35.86 37.69 36.07 34.73 35.55 31.20 25.02 26.00 30.58 33.69 31.65 33.35 33.76 32.21 30.97 26.65 25.20 30.54 41.70 39.19 38.18 38.05 37.79 38.03 38.24 37.71
36.02 30.69 32.85 35.43 35.70 34.59 31.80 31.93 31.32 36.29 35.12 35.75 35.96 37.10 35.57 32.75 33.84 30.97 31.54 33.28 36.74 37.47 37.40 36.82 31.95 28.61 24.96 27.47 32.02 28.08 30.74 32.14 30.07 25.50 27.29 28.63 30.54 35.84 37.80 37.66 37.69 37.03 36.80 36.65 36.25
39.26 35.52 37.54 30.40 33.52 34.55 34.08 33.83 31.52 31.41 35.53 36.36 33.52 35.42 33.98 29.84 30.95 30.60 32.88 32.47 35.72 36.99 36.14 34.68 26.95 29.93 30.63 30.67 30.18 29.63 29.77 30.72 29.22 29.80 25.12 27.89 28.16 32.37 35.34 36.46 35.98 35.81 35.02 34.45 33.12
36.92 35.62 37.51 35.90 35.86 33.88 33.88 33.32 32.41 32.56 33.56 32.31 32.48 33.65 34.65 31.45 32.42 29.93 32.75 32.92 31.41 35.17 33.43 33.90 27.17 27.85 26.30 30.09 29.92 27.36 30.08 30.66 30.19 29.88 29.39 29.83 28.36 35.61 37.89 35.59 34.28 32.62 32.47 31.27 30.31
41.83 39.93 37.73 33.93 34.31 33.03 33.58 34.04 34.18 34.58 33.69 35.55 35.30 33.78 32.25 32.58 35.59 36.34 36.10 36.00 34.54 33.14 31.93 31.36 28.87 25.47 20.91 26.49 26.12 22.46 27.71 28.87 29.81 31.42 30.65 25.72 32.38 37.15 33.32 32.13 32.30 30.96 30.31 28.56 28.46

GFSSW_sfc_wetblb_111.txt.gz
Wetbulb
60.34 59.89 59.42 58.91 58.13 57.18 56.11 55.28 54.64 54.42 54.29 54.25 54.01 53.35 53.14 53.69 53.30 54.95 53.34 54.55 55.55 54.17 55.19 54.77 53.91 53.02 52.05 52.33 53.27 53.07 46.46 46.10 48.58 49.51 50.66 53.45 51.02 54.59 55.02 53.64 54.61 55.88 55.83 57.44 59.01
60.62 60.35 59.78 59.44 58.37 57.70 56.85 55.64 54.74 54.12 54.03 53.95 53.39 52.64 53.25 53.61 52.64 53.39 55.99 56.13 56.15 56.92 51.97 52.11 51.40 52.18 50.64 50.54 51.86 49.31 46.80 47.60 51.76 50.94 50.13 51.89 51.58 51.91 51.91 51.95 52.54 53.68 56.24 57.22 57.67
60.83 60.51 60.21 59.65 58.69 57.90 56.95 56.03 55.20 54.18 53.72 53.60 52.61 52.28 53.18 53.15 51.96 52.31 56.75 58.40 57.33 57.13 55.01 53.80 51.98 51.37 49.41 51.20 50.43 49.80 46.19 50.55 50.81 51.63 50.75 49.65 49.43 51.59 50.01 48.93 51.62 51.60 53.39 55.02 55.37
60.45 60.23 59.96 59.67 59.33 58.12 56.82 55.69 54.89 54.30 53.43 52.51 51.88 52.05 53.08 53.15 48.04 56.40 58.57 57.25 58.68 58.46 53.73 51.62 50.23 47.72 47.21 47.21 50.34 46.81 49.45 49.33 49.92 50.68 49.81 48.44 50.74 49.54 50.34 50.93 52.81 52.89 53.25 53.29 53.72
59.14 59.33 59.66 59.65 59.43 58.25 56.73 55.46 54.96 53.93 52.97 51.37 51.14 51.50 52.61 51.58 52.80 59.00 59.57 57.40 55.85 54.95 52.41 51.58 49.89 49.29 46.90 48.94 49.06 47.19 48.32 49.38 49.33 48.60 48.49 49.05 47.31 47.56 48.40 50.86 51.81 51.94 52.31 52.55 53.03
56.99 58.09 58.81 59.04 59.09 58.32 56.83 55.25 54.56 53.79 51.46 50.49 50.97 50.23 51.05 47.09 56.87 53.96 54.43 56.82 55.02 54.34 52.89 52.13 50.72 51.36 48.29 47.91 47.41 48.81 48.18 48.05 49.28 48.71 49.48 47.48 47.81 48.65 49.71 51.39 51.08 51.34 51.24 52.11 52.70
56.21 56.51 57.71 58.23 58.47 57.87 56.74 54.89 54.07 52.17 50.10 50.10 50.66 50.00 47.97 50.09 58.32 56.19 53.48 52.90 55.27 53.84 51.61 52.92 52.11 49.50 49.45 47.01 49.93 48.71 45.87 47.92 48.92 49.04 48.16 49.45 45.82 46.61 50.86 51.60 50.42 50.54 51.43 52.32 52.87
55.75 55.81 55.90 56.90 57.32 57.08 56.14 54.26 52.92 50.62 49.42 49.95 50.26 49.44 44.99 57.53 57.81 55.30 54.86 53.11 53.95 55.07 53.15 54.00 53.02 50.05 48.93 50.64 48.65 44.97 45.84 42.39 48.61 49.88 49.05 48.25 42.62 49.47 51.38 50.66 50.16 50.88 51.44 51.64 52.56
55.40 55.36 55.30 55.17 56.20 55.90 54.49 52.76 51.09 49.79 48.95 49.17 47.28 48.44 47.81 54.31 51.41 54.38 54.81 51.65 52.57 52.75 53.52 51.87 51.65 48.58 49.09 45.38 43.67 45.04 40.62 43.69 46.83 49.58 47.51 46.84 44.63 49.26 50.56 49.71 49.08 50.34 51.23 51.52 52.34
54.20 54.39 55.32 54.97 55.31 54.44 52.47 51.16 49.11 47.97 47.89 48.58 47.95 44.43 50.34 51.44 55.63 51.94 54.61 52.30 49.02 48.99 48.94 48.12 47.22 44.84 45.42 43.46 37.35 41.97 43.16 45.16 43.99 47.50 47.56 45.11 45.27 48.29 49.76 48.96 48.93 49.60 50.38 51.05 51.75
53.65 54.04 55.05 55.03 55.35 52.08 49.08 47.67 45.11 44.58 45.17 47.40 50.19 50.17 51.96 53.71 52.76 52.03 53.64 49.75 48.36 46.46 43.24 47.04 42.42 40.50 43.95 45.61 45.09 44.15 42.99 42.56 44.88 47.38 45.33 44.68 44.51 45.76 48.08 48.87 48.69 48.76 49.76 50.61 51.74
53.36 53.54 54.09 55.45 54.09 51.83 53.27 47.11 49.99 51.70 46.58 50.61 51.46 52.27 53.61 55.76 49.78 52.99 55.03 48.04 47.16 42.46 45.57 43.66 40.01 44.78 46.46 45.84 44.09 43.37 41.32 41.08 43.89 45.36 44.62 43.59 43.13 46.34 47.94 48.48 49.44 49.43 50.07 50.70 52.02
53.00 53.48 53.72 54.84 53.64 51.12 51.11 50.66 51.91 52.69 43.26 47.24 51.37 50.44 50.97 52.90 48.60 49.96 53.36 50.20 46.46 44.71 44.54 41.93 43.16 45.86 44.18 43.17 41.47 41.51 40.24 40.54 40.51 43.88 45.25 43.34 41.32 43.33 46.58 48.08 48.94 50.07 50.88 53.34 52.99
52.76 53.09 53.17 53.93 48.78 48.61 47.29 49.21 49.95 51.80 35.25 42.35 46.65 48.85 51.05 51.37 46.88 52.09 52.84 50.79 46.99 42.96 44.96 42.87 47.15 44.19 43.40 41.79 43.00 38.34 43.85 42.44 41.00 39.69 35.61 43.22 35.09 42.97 44.73 44.82 46.27 49.35 51.89 52.44 51.73
52.62 52.80 53.24 52.24 48.68 45.76 47.92 47.09 48.35 47.64 26.54 43.99 46.26 50.37 48.59 46.18 47.75 47.61 52.87 50.65 45.01 44.79 44.40 41.88 43.37 42.40 41.19 41.37 43.86 40.05 43.91 41.62 40.99 39.32 38.76 39.07 36.86 40.83 45.04 43.29 45.90 49.52 51.09 50.69 51.01
52.51 53.47 52.74 51.29 50.06 50.42 49.12 48.51 48.31 34.96 27.51 40.34 44.00 41.80 42.61 44.88 45.42 46.80 45.79 50.32 50.24 44.88 45.27 44.39 46.74 44.97 42.74 43.46 43.58 44.15 41.15 40.02 40.05 38.02 31.75 37.65 37.69 38.69 41.46 43.06 46.21 49.23 49.34 49.58 50.11
53.31 54.29 51.54 49.74 44.51 52.27 47.64 45.10 33.07 30.45 42.15 39.60 40.67 42.54 42.18 42.10 42.33 43.22 41.91 42.02 40.08 36.05 36.75 40.74 41.06 44.63 43.79 39.55 40.95 40.40 37.21 30.10 28.50 29.03 29.40 39.27 37.39 39.47 44.14 47.98 48.87 48.20 48.54 48.53 49.22
53.89 52.18 52.23 51.86 49.40 48.32 45.45 38.80 29.46 38.09 39.48 42.66 42.81 42.28 39.10 42.18 41.64 41.46 41.06 38.70 42.40 41.64 37.09 32.63 30.90 39.65 42.48 40.35 37.90 37.92 35.93 29.20 22.43 26.14 30.66 38.44 33.56 38.31 47.08 48.18 48.01 48.14 47.27 47.05 47.25
51.91 48.73 46.77 48.03 47.44 47.64 42.51 32.52 34.24 39.37 42.88 41.10 41.29 37.95 39.14 41.08 39.77 39.90 39.89 39.92 41.92 42.47 34.62 33.00 32.54 41.78 40.87 41.25 39.54 37.44 33.88 39.28 32.80 34.69 31.13 35.32 38.91 44.27 44.78 44.74 45.15 44.40 44.75 45.42 45.90
45.71 43.46 42.04 48.19 47.79 44.73 38.50 34.23 38.81 44.72 44.43 42.85 37.34 39.82 37.38 39.64 37.78 38.55 38.62 41.74 40.31 42.29 43.78 38.47 31.47 38.80 39.55 40.07 39.97 37.67 39.06 32.07 33.76 24.21 23.97 31.19 32.67 34.41 39.57 39.87 42.03 41.60 42.48 43.53 44.71
44.83 36.53 40.61 47.98 47.51 39.50 32.51 36.35 39.75 45.27 43.26 40.03 39.10 38.49 39.19 37.92 39.32 37.40 37.32 40.06 42.28 40.73 42.91 41.12 37.37 34.74 37.34 35.59 34.64 34.54 32.81 33.69 34.10 31.83 25.05 24.47 30.78 42.49 40.19 41.37 41.15 41.82 41.96 42.72 43.53
40.17 32.98 41.69 46.31 33.68 34.43 34.56 38.43 41.83 41.81 41.31 40.00 40.37 40.36 38.72 39.17 36.97 36.39 35.23 37.88 42.76 42.85 36.59 38.98 35.64 29.82 32.95 38.16 38.06 37.34 34.93 34.86 29.21 26.99 31.34 30.06 29.91 44.04 42.96 42.76 41.66 40.90 41.18 42.23 42.99
34.79 33.16 39.16 42.00 31.39 33.34 37.25 37.23 39.77 39.26 39.03 39.14 37.47 38.65 39.23 37.28 32.87 35.23 36.36 38.83 40.36 40.25 37.60 37.26 31.89 27.22 29.55 33.89 36.10 33.22 34.55 34.67 34.38 33.50 28.25 27.38 30.76 42.88 41.91 41.63 42.09 40.76 41.44 41.71 41.65
35.62 29.93 33.16 35.07 37.48 36.48 35.51 35.94 36.07 41.64 40.63 40.85 39.36 40.32 38.13 36.43 38.22 34.54 34.97 36.64 39.20 39.47 37.97 39.82 34.52 31.41 27.32 29.68 33.81 29.88 32.94 34.91 33.70 28.22 28.88 30.24 32.35 38.43 39.82 39.51 40.24 41.20 40.91 40.50 39.77
39.27 35.80 37.92 31.50 34.26 36.03 37.72 35.73 34.08 32.65 38.52 39.54 36.95 37.33 36.39 33.39 34.37 32.81 35.77 35.22 37.56 37.74 37.70 37.03 30.07 33.03 33.41 34.23 32.90 32.33 32.40 33.10 31.62 32.23 27.81 30.60 30.96 35.02 37.51 38.70 39.32 39.10 39.22 38.52 36.47
36.36 38.28 37.96 36.67 37.00 35.87 35.35 33.99 34.11 34.12 35.53 34.46 35.37 37.98 38.66 35.08 36.00 33.61 36.34 35.55 34.72 38.45 36.66 36.78 30.09 30.65 29.04 32.74 32.56 29.86 32.21 32.56 32.58 32.51 32.55 32.95 31.50 38.24 39.18 40.42 38.20 36.70 36.14 34.68 33.18
43.15 44.98 40.60 35.88 35.88 33.98 33.69 35.58 36.09 37.65 37.47 39.86 38.69 37.73 36.22 36.89 38.83 40.34 40.80 39.72 38.68 36.31 34.69 33.86 31.23 27.76 23.72 29.51 28.82 24.81 29.68 31.53 32.75 34.30 33.66 28.21 33.78 38.59 37.29 36.42 35.21 33.97 33.29 30.79 30.78

GFSSW_sfc_wetblb_114.txt.gz
Wetbulb
60.83 60.61 60.22 59.68 59.13 58.56 57.86 56.93 55.93 55.18 54.97 54.77 54.76 54.35 53.88 54.35 53.01 54.23 53.85 55.51 55.49 55.38 54.14 51.87 55.09 54.27 52.65 49.31 51.96 52.47 45.06 43.13 45.74 47.64 49.77 53.03 51.48 53.90 55.31 52.87 54.03 55.32 55.12 57.21 59.09
61.13 61.11 60.94 60.27 59.37 58.61 57.84 57.39 56.42 55.25 54.92 54.55 54.42 53.83 53.98 53.82 50.31 53.40 56.64 58.64 57.84 58.23 49.54 51.60 51.66 53.13 50.49 50.21 50.58 48.74 45.07 45.98 50.47 51.44 50.58 51.19 50.47 51.21 50.83 51.05 52.11 53.39 56.40 58.09 57.66
61.59 61.30 61.05 60.66 59.58 58.78 58.04 57.32 56.58 55.24 54.64 54.17 53.85 53.31 53.42 52.49 52.40 52.08 57.69 58.78 57.52 56.54 52.25 54.05 53.29 50.96 49.04 50.66 50.07 49.37 45.80 49.58 50.52 51.80 51.77 50.53 49.74 51.68 49.67 48.24 51.07 51.60 53.34 55.32 55.89
58.60 60.22 60.46 60.39 59.98 59.10 57.86 56.78 56.31 55.35 54.49 53.83 52.94 52.85 53.20 52.04 46.79 55.64 58.59 59.47 58.23 55.89 55.43 53.39 51.48 48.65 47.44 47.53 50.85 46.83 49.69 49.86 50.34 51.12 50.00 48.38 49.84 48.99 49.69 50.90 53.38 53.34 53.54 53.53 53.66
56.69 57.27 58.51 59.56 59.81 59.26 57.89 56.67 56.07 55.36 54.30 52.69 51.91 52.10 51.12 52.59 52.73 58.53 59.66 57.48 55.29 53.74 52.20 52.02 50.52 49.84 47.15 49.00 50.27 48.73 49.28 50.26 50.75 50.53 50.04 49.90 47.48 47.59 48.46 50.86 52.04 52.30 52.51 52.42 53.00
56.27 56.58 56.76 57.58 58.68 59.03 58.15 56.55 55.52 55.04 53.31 51.03 51.17 51.02 49.25 46.50 59.96 58.91 55.78 56.09 53.87 53.75 53.10 52.93 50.70 51.76 49.01 48.32 47.17 49.32 49.27 49.38 49.73 48.97 49.39 48.11 47.73 48.91 50.06 51.94 51.26 51.08 50.83 51.55 52.12
55.74 56.04 56.19 56.40 57.12 57.85 58.05 56.48 54.99 54.26 51.49 50.21 50.86 48.59 47.27 48.74 59.69 60.61 56.58 54.26 55.28 54.88 52.71 53.62 53.64 50.05 49.47 46.87 50.36 49.07 45.33 47.21 48.10 48.91 48.57 50.12 46.29 46.74 50.42 51.71 50.91 51.28 51.82 52.25 53.76
55.27 55.53 55.46 55.46 55.30 56.17 57.20 55.58 54.53 52.86 50.42 50.19 50.34 47.95 45.38 58.30 59.95 58.14 59.02 57.97 55.48 55.01 54.18 54.49 54.19 50.79 48.47 49.79 47.61 44.96 45.82 41.77 47.25 48.96 49.69 48.62 41.96 48.41 51.33 51.33 50.32 50.75 51.17 51.82 52.41
54.90 54.69 54.36 54.85 54.87 55.06 56.08 54.56 52.82 50.89 49.62 49.74 47.03 47.76 45.82 57.93 54.48 57.24 56.60 53.57 54.62 54.57 53.57 54.23 52.21 48.18 48.60 43.88 41.92 43.99 39.54 42.25 44.64 49.82 49.55 47.48 43.86 48.68 51.28 50.59 49.36 50.15 50.79 51.39 51.98
54.24 54.14 54.04 54.04 54.75 54.49 53.72 52.02 50.76 48.58 47.98 48.92 48.72 45.23 49.90 50.30 55.48 55.44 54.52 53.64 51.66 51.01 49.40 48.82 46.77 43.21 44.72 42.09 36.21 39.78 40.72 42.94 43.36 47.52 48.63 46.50 45.15 47.98 49.69 49.78 49.39 49.32 50.25 51.04 51.55
53.38 53.55 53.95 54.20 54.65 52.10 49.84 48.79 45.94 45.60 45.28 47.55 47.85 48.10 51.67 55.35 54.89 53.06 54.55 51.82 50.26 47.87 42.07 46.27 41.84 39.17 42.72 44.82 44.75 43.59 41.75 40.98 44.09 46.99 45.64 45.30 44.76 46.80 48.76 49.00 48.70 49.61 49.60 49.86 50.88
52.86 53.15 53.65 53.95 54.47 52.14 52.61 47.47 49.97 52.14 45.24 49.43 50.86 51.05 52.84 53.66 49.06 52.15 55.73 48.35 47.27 42.04 45.04 42.66 39.91 44.94 46.37 45.46 43.79 43.11 41.07 40.92 43.98 45.89 44.93 44.01 43.07 46.02 47.21 47.44 48.28 48.95 49.74 49.73 50.99
52.39 52.61 53.24 53.34 53.65 51.14 50.82 49.73 55.54 52.72 43.96 47.08 49.80 49.74 50.63 52.42 47.72 48.86 51.95 50.36 46.34 43.50 43.87 40.93 43.50 46.60 44.52 42.76 41.12 41.36 39.91 40.69 40.25 42.90 44.59 42.94 40.77 43.22 46.29 48.39 49.08 50.05 50.69 51.89 52.24
52.04 52.10 52.51 52.74 50.35 50.69 48.99 54.15 51.18 54.30 38.40 40.83 45.21 49.27 50.84 50.63 46.64 52.59 53.33 49.51 46.45 43.05 44.42 42.68 45.60 43.35 43.21 41.87 42.92 37.90 43.75 42.63 41.21 39.26 34.71 42.74 32.76 41.08 44.17 45.43 47.25 48.30 51.25 51.44 51.26
51.21 51.79 52.37 52.88 51.22 47.72 49.97 49.36 51.32 50.80 25.86 42.40 44.58 52.22 50.08 47.93 48.52 47.70 53.35 50.00 43.39 43.52 43.87 41.26 42.62 41.77 41.47 42.59 44.74 40.53 44.56 42.22 40.82 36.91 36.96 37.38 34.42 38.32 43.61 42.78 44.39 48.47 50.33 50.42 50.64
51.19 51.64 51.99 51.47 51.54 51.57 48.89 49.72 49.91 34.96 26.76 39.06 45.24 44.10 44.35 45.93 46.70 48.06 47.45 49.49 49.23 44.21 44.47 43.83 47.95 45.34 43.90 45.47 45.24 44.00 40.71 41.27 40.78 37.06 28.54 35.07 34.47 35.12 39.44 43.20 44.43 48.28 48.90 49.34 49.62
50.97 51.76 51.62 53.36 47.90 50.35 48.69 47.24 34.04 29.23 41.67 38.25 40.82 44.06 42.29 41.60 43.23 44.41 43.27 42.18 39.28 36.16 37.39 41.94 42.27 45.23 46.15 41.51 43.01 41.12 36.56 28.38 26.75 26.85 27.13 36.96 34.24 36.80 43.22 46.75 46.85 46.78 47.48 47.80 47.91
50.65 50.93 52.88 52.87 52.24 49.12 47.90 39.21 29.46 36.56 38.09 43.39 42.19 43.26 40.47 42.47 42.52 43.13 41.29 38.83 43.01 41.46 37.68 34.64 32.59 41.40 44.80 41.72 38.14 38.11 36.22 27.94 21.16 23.69 28.12 35.24 31.25 37.03 45.19 46.63 46.98 46.83 46.24 46.36 45.89
50.48 51.41 50.86 50.15 50.14 48.65 43.02 31.48 33.01 37.71 41.53 40.56 41.27 38.81 38.86 41.41 41.31 41.31 40.15 39.34 41.68 42.71 35.62 34.49 34.04 42.60 43.00 44.16 41.66 37.13 33.57 39.11 30.84 31.81 28.17 32.15 37.11 42.19 44.29 43.37 43.46 43.53 44.06 43.44 44.10
47.57 44.75 43.05 49.35 48.61 46.60 38.95 34.12 38.21 42.85 43.28 42.91 37.24 40.52 36.40 38.82 39.02 39.82 38.96 42.18 40.94 43.93 44.57 39.62 32.29 39.20 41.54 40.95 40.86 37.83 39.65 31.45 31.64 23.80 22.67 30.52 33.01 31.99 38.81 39.84 41.56 41.23 41.32 42.26 42.86
45.85 38.90 42.52 47.86 47.17 40.05 33.00 36.70 40.32 45.07 44.82 42.04 40.19 39.04 40.16 38.49 39.77 38.88 38.62 41.41 42.73 42.53 43.10 41.06 36.49 34.67 38.81 35.52 34.41 35.17 33.32 34.31 34.04 30.25 24.50 23.50 29.17 40.78 39.54 40.51 40.01 40.83 41.31 41.26 41.54
42.08 33.75 43.31 46.74 33.92 33.74 33.78 38.72 42.07 43.25 45.97 44.31 43.49 41.82 40.05 40.23 37.80 38.66 38.00 39.83 43.59 43.00 37.38 38.14 36.22 30.77 33.08 39.57 40.13 38.03 36.24 35.50 28.00 26.46 30.17 28.43 27.96 43.50 42.83 43.00 42.15 40.93 41.43 41.57 41.72
34.48 33.57 41.54 42.81 30.84 32.83 37.07 38.79 40.91 41.36 42.21 42.22 40.28 40.92 42.14 38.37 35.11 38.67 38.35 40.70 41.46 41.44 38.66 38.77 32.56 27.21 29.63 35.18 37.63 33.93 35.92 35.87 35.55 34.10 27.52 24.31 27.57 42.71 42.21 40.96 42.13 41.33 41.12 41.04 40.57
36.83 29.98 33.21 35.34 37.97 36.62 34.56 35.75 36.62 42.21 42.03 41.28 40.30 42.10 39.49 37.58 40.05 35.85 36.45 38.16 40.45 40.53 40.15 40.81 34.36 30.63 25.97 29.26 33.65 31.02 33.51 34.77 33.54 27.71 27.94 28.66 30.72 36.71 39.51 39.27 39.95 39.80 40.16 39.62 38.16
38.57 34.26 38.01 28.93 31.25 35.84 37.37 37.06 36.05 36.37 39.66 41.09 37.89 39.19 38.16 34.38 36.17 34.54 37.69 36.71 37.88 38.19 37.79 37.28 29.67 32.74 33.67 34.75 34.10 32.73 32.08 33.32 31.52 32.48 27.94 30.94 30.99 34.88 37.56 37.85 38.96 39.33 38.90 37.85 35.13
34.46 37.14 38.30 37.66 36.56 35.22 37.10 36.22 36.26 37.02 37.97 36.45 36.40 38.58 38.25 35.33 36.86 34.17 36.68 36.69 34.64 37.91 36.54 37.97 29.93 30.54 28.49 33.09 32.65 30.18 32.46 32.70 32.16 32.44 32.35 32.66 31.79 38.27 39.36 40.49 39.14 37.08 36.35 33.50 32.00
41.39 43.46 40.07 36.32 34.86 33.88 35.33 36.82 37.06 38.28 38.42 39.72 38.43 37.11 36.18 38.54 41.19 40.51 42.09 41.12 39.67 37.18 35.59 34.54 31.38 28.19 23.54 30.25 29.79 24.65 29.80 31.24 32.29 33.80 33.10 27.72 34.00 36.92 36.26 34.23 32.66 33.25 31.85 30.19 29.90

GFSSW_sfc_wetblb_117.txt.gz
Wetbulb
60.99 60.96 60.76 60.32 59.66 59.22 58.80 58.10 57.34 56.82 56.18 55.69 55.50 55.39 55.33 55.02 52.98 51.79 49.71 53.37 53.79 58.43 55.76 48.76 48.76 50.92 49.94 44.77 44.08 43.96 36.45 35.13 37.58 40.90 44.35 50.04 46.13 49.35 50.36 49.78 51.32 52.40 51.15 54.05 56.24
61.54 61.49 61.40 61.12 59.95 59.27 58.91 58.16 57.56 56.87 56.27 55.80 55.55 54.93 54.62 54.14 48.90 49.38 57.07 58.27 58.13 58.13 47.96 47.06 48.23 48.97 44.18 43.98 43.23 40.58 36.11 38.40 44.52 46.33 46.84 48.52 45.21 47.27 46.93 47.13 49.08 50.44 53.51 55.05 55.14
58.33 59.36 61.16 61.12 60.31 59.45 58.98 58.12 57.56 57.08 56.29 55.78 55.35 54.55 54.00 52.38 48.24 50.34 57.93 58.36 57.84 56.44 48.80 49.97 51.40 48.77 43.54 44.15 43.90 42.09 40.16 44.26 46.72 49.04 48.70 45.16 46.35 47.54 46.47 45.32 47.97 48.09 49.88 51.48 51.72
56.21 56.82 57.85 58.76 59.92 59.91 58.69 57.73 57.55 57.20 56.12 55.40 54.47 53.56 53.40 49.76 44.08 51.48 58.89 59.12 58.36 54.26 52.52 51.73 49.99 44.40 42.49 41.03 45.29 40.93 45.53 46.46 47.06 48.44 47.74 46.85 45.90 45.24 45.59 46.80 49.53 48.80 49.96 49.85 49.36
56.27 56.49 56.53 56.59 57.56 58.35 58.13 57.74 57.46 56.85 55.59 54.42 53.11 52.74 48.06 47.74 50.12 56.95 59.53 58.62 55.25 52.83 49.82 49.01 47.50 46.11 43.15 44.95 45.32 43.97 45.28 47.03 47.75 47.54 46.63 47.05 44.97 45.79 46.21 47.11 48.50 48.89 49.25 48.65 48.31
55.28 55.90 56.22 56.53 56.71 57.03 57.50 57.76 57.06 56.12 54.93 52.70 51.93 51.88 45.48 42.58 56.43 59.11 55.91 53.85 51.87 50.61 49.80 49.93 48.42 48.95 45.48 44.68 43.23 46.25 46.30 46.11 47.21 47.07 47.44 46.05 45.92 45.04 47.26 47.57 47.84 48.31 47.47 47.73 47.90
55.34 55.39 55.50 55.88 56.08 55.90 56.32 57.14 56.37 55.45 54.05 51.71 51.29 49.13 43.84 45.59 56.52 56.97 57.00 55.52 53.28 53.06 50.49 52.79 51.26 47.28 47.02 43.74 47.26 45.99 41.25 43.72 44.10 44.70 44.88 47.09 43.57 44.51 48.44 48.24 48.42 48.22 47.59 48.00 49.42
55.40 55.05 54.66 54.58 54.58 54.96 54.99 55.73 55.87 54.52 52.35 50.83 50.99 46.57 40.99 54.75 55.22 53.54 54.16 54.23 56.43 52.74 51.60 51.71 51.78 48.05 45.53 46.46 44.94 41.36 41.17 36.50 42.92 45.47 46.91 44.02 39.42 44.74 47.47 46.73 46.52 46.96 47.62 47.54 48.61
54.68 54.52 54.33 53.93 53.80 54.11 54.70 55.55 54.44 52.75 50.65 50.46 45.30 43.03 41.61 55.31 52.44 55.25 55.52 53.25 54.18 55.68 51.68 53.32 49.52 45.44 44.56 39.46 35.75 37.78 31.49 35.88 39.73 46.06 46.12 43.59 41.72 47.12 47.74 46.95 45.71 45.36 43.90 46.00 46.78
54.01 53.70 53.62 53.64 53.62 53.76 53.04 52.56 51.96 50.19 49.06 49.54 47.02 41.40 45.42 47.22 53.24 54.82 55.71 54.30 50.96 50.38 48.50 45.92 42.44 37.67 36.92 34.94 29.26 33.10 34.51 35.83 37.08 40.88 43.82 42.06 41.46 44.47 46.24 45.65 45.32 44.68 45.28 45.99 45.50
53.47 53.37 53.39 53.54 53.54 51.86 50.32 48.52 44.29 41.43 44.84 42.50 43.02 42.82 48.14 52.52 53.36 52.56 52.42 50.35 49.02 46.55 39.49 42.67 35.75 32.05 35.74 38.71 40.31 39.78 38.39 37.25 40.32 43.82 41.74 40.73 41.14 42.59 44.38 44.17 43.28 42.93 43.76 44.89 49.14
52.87 52.85 52.98 53.33 53.46 52.31 51.32 47.06 47.08 48.45 41.62 45.97 47.11 47.28 48.94 50.75 46.30 49.42 52.72 45.81 43.63 37.72 41.03 37.95 34.61 40.40 43.20 42.98 41.41 40.24 37.57 36.62 39.97 42.72 41.71 40.13 39.18 41.65 43.99 43.46 43.85 43.33 43.12 44.50 49.98
52.46 52.57 52.65 52.86 52.73 51.23 49.70 49.03 53.25 50.61 39.77 43.99 47.73 46.88 47.77 50.55 46.01 46.34 49.42 47.18 43.49 40.09 40.17 36.32 39.40 43.99 42.34 40.65 39.55 39.51 37.22 37.00 36.89 40.06 40.63 38.68 36.43 38.57 43.24 45.18 45.64 45.82 46.52 46.20 50.43
51.89 51.64 51.63 51.97 48.74 49.29 47.30 52.04 52.25 50.34 33.03 38.22 43.38 46.81 48.70 49.65 44.14 50.69 51.04 46.94 43.54 40.13 41.84 39.96 44.03 42.45 41.03 39.39 39.83 35.08 41.99 42.10 40.05 36.19 29.83 36.69 27.36 36.90 41.09 42.31 44.35 45.30 47.25 48.01 48.13
51.03 51.48 51.47 52.13 49.42 46.34 48.20 51.94 49.99 48.45 19.45 40.37 43.43 51.72 50.26 45.15 46.18 46.81 50.97 47.27 41.30 41.14 40.78 38.30 40.35 40.20 39.57 40.43 42.09 38.23 43.51 38.90 38.36 36.15 34.43 34.19 27.94 33.84 39.64 38.86 42.63 45.35 46.26 46.55 46.74
50.95 51.21 51.32 49.13 48.82 50.33 52.02 49.48 49.05 33.40 22.94 38.06 44.10 43.58 42.97 44.79 45.51 46.72 46.34 48.08 47.62 42.41 42.30 40.71 44.67 42.95 41.98 44.10 43.23 44.37 40.17 36.98 35.03 33.04 26.03 32.93 30.46 31.01 34.32 39.85 43.40 45.36 45.64 45.48 45.21
50.84 50.75 49.98 50.21 46.46 50.20 48.98 47.12 33.00 25.40 39.42 35.84 38.42 42.56 41.37 40.63 41.84 42.47 41.50 39.59 35.18 31.26 32.29 38.34 39.83 43.23 44.99 40.53 41.52 39.72 32.79 25.12 22.48 22.92 23.53 34.98 31.92 33.14 40.86 42.93 44.22 42.92 42.72 43.65 43.73
50.31 50.12 48.70 49.83 52.26 48.46 48.05 38.68 26.99 32.99 33.91 40.97 40.75 40.54 37.73 40.47 39.87 40.68 38.88 35.87 39.99 38.25 33.07 30.82 27.76 38.08 42.18 39.41 36.39 37.08 33.41 25.24 21.01 21.35 24.20 34.02 27.80 33.09 41.62 42.51 42.40 43.10 42.88 42.57 41.59
49.66 45.38 49.09 51.99 51.16 48.93 42.85 29.92 28.59 33.80 38.33 37.44 38.39 35.25 35.61 39.16 39.76 38.48 37.63 37.14 38.79 38.95 33.79 30.71 32.11 40.52 42.13 41.63 39.92 35.60 30.53 36.67 29.37 30.18 25.09 27.31 33.67 37.72 39.88 39.86 40.59 40.23 40.48 40.52 40.53
42.23 43.48 44.29 48.32 49.48 47.30 37.77 31.92 34.14 39.99 40.12 39.61 33.84 37.64 34.33 36.51 36.55 35.99 36.20 40.38 39.06 40.94 40.55 36.86 31.06 38.07 40.41 39.55 38.67 36.87 37.90 29.34 29.20 22.14 20.59 25.95 28.68 31.88 36.79 37.68 39.23 38.46 38.68 38.99 38.82
42.66 39.23 43.36 48.33 48.10 41.91 32.64 34.16 37.10 41.83 42.40 39.13 37.27 35.69 37.65 36.27 38.02 35.56 36.50 40.33 42.34 40.41 39.81 37.26 33.14 32.32 37.69 34.06 30.89 32.80 31.31 32.51 33.06 28.16 22.16 20.87 25.74 38.86 38.18 38.73 38.42 38.63 38.83 37.23 36.35
41.53 33.18 43.39 47.78 35.54 33.72 33.12 36.64 40.97 40.05 43.18 40.35 41.01 39.61 37.74 37.90 36.23 36.00 35.77 38.10 40.87 39.70 34.67 35.88 33.69 27.65 32.10 38.82 39.23 35.75 34.23 33.75 24.26 23.19 25.64 24.18 23.96 41.62 41.31 41.33 40.52 38.51 38.29 36.70 36.67
36.26 34.42 42.09 42.18 31.43 30.97 36.13 36.86 39.48 39.06 40.40 40.50 39.76 41.03 40.68 35.62 31.33 36.07 36.79 40.20 41.06 39.65 35.57 36.20 28.71 24.37 27.81 33.82 36.97 33.88 34.36 35.46 33.10 31.54 25.51 22.80 24.76 41.60 42.45 40.39 40.05 37.85 36.11 35.70 35.57
35.47 29.44 32.82 36.06 38.30 35.00 33.83 34.30 35.23 41.16 39.60 41.37 41.11 40.28 37.60 34.70 37.54 33.77 35.77 38.39 40.36 38.66 41.24 39.37 31.74 28.51 25.26 29.02 32.38 28.78 32.47 33.76 30.70 23.13 25.23 26.46 29.04 35.42 38.06 38.19 37.24 35.98 33.78 33.14 33.04
36.87 32.59 33.30 27.30 31.47 34.72 36.67 35.93 34.10 34.39 40.65 41.07 38.62 36.84 35.44 32.22 33.83 33.79 36.45 34.40 37.57 39.54 37.50 34.14 26.94 31.41 32.83 33.87 34.07 31.56 31.10 31.74 30.67 29.96 25.11 28.13 29.23 33.31 35.64 34.72 34.94 35.78 34.03 31.92 30.91
32.80 33.86 37.46 33.10 34.63 33.30 34.82 35.37 34.02 35.83 37.86 36.70 34.85 37.44 37.50 34.80 35.48 33.79 36.44 34.41 33.44 35.98 33.24 34.70 27.54 28.02 26.43 31.57 31.54 29.34 31.20 31.38 31.51 31.38 30.40 30.68 28.90 35.27 35.44 34.67 32.75 32.28 30.92 29.49 29.23
40.48 41.79 38.87 34.59 34.45 31.45 31.36 34.40 35.49 38.24 39.66 40.34 38.56 37.17 36.09 37.14 39.96 39.21 37.66 39.00 37.75 33.80 31.08 31.46 28.08 25.11 21.44 27.77 26.78 21.57 27.31 30.17 30.88 32.83 31.41 20.34 30.15 32.60 29.22 28.47 29.35 28.49 28.24 27.34 27.73

GFSSW_sfc_wetblb_120.txt.gz
Wetbulb
61.36 61.09 60.90 60.66 60.04 59.58 59.34 58.86 58.08 57.64 57.35 56.73 56.48 56.26 56.13 55.45 53.51 51.28 48.55 53.08 54.06 57.80 55.58 47.44 47.21 47.64 47.71 43.70 42.59 41.66 35.18 32.17 35.78 38.24 41.62 47.41 44.38 47.47 48.97 47.13 48.87 50.99 49.76 53.09 55.33
58.79 60.30 61.47 61.35 60.45 59.96 59.30 58.78 58.19 57.74 57.25 56.81 56.55 55.94 55.38 54.60 48.89 48.42 55.78 57.92 57.59 57.79 46.67 46.04 47.03 47.71 43.39 41.49 41.75 38.76 33.32 36.19 41.76 43.03 43.74 46.51 42.95 44.80 44.70 45.38 47.37 48.04 51.85 52.57 52.21
56.51 56.86 57.67 58.72 60.06 60.17 59.46 58.76 58.18 58.01 57.34 56.50 56.16 55.52 54.52 52.69 48.00 50.81 57.85 58.13 58.04 55.76 47.60 48.59 49.57 47.68 41.97 40.90 41.50 38.54 36.38 40.62 43.91 46.07 46.08 45.56 45.43 46.78 44.58 43.22 46.48 46.87 48.20 50.26 50.32
56.11 56.29 56.24 56.62 57.26 57.64 58.02 57.99 58.10 58.30 57.53 56.22 55.45 54.41 53.87 49.62 41.86 49.00 58.85 58.50 59.08 53.05 52.13 50.60 48.59 42.81 41.39 40.35 42.48 38.07 42.97 43.17 44.32 45.86 44.50 43.79 45.71 45.22 44.13 46.08 48.48 48.40 48.24 47.89 48.43
55.86 55.98 55.87 56.05 56.24 56.68 56.68 57.19 57.83 57.93 57.14 55.77 54.58 53.07 48.13 46.38 48.48 55.66 59.87 58.43 52.86 51.36 48.66 47.86 45.56 44.44 41.40 43.17 43.86 41.74 43.14 44.89 45.77 45.77 45.05 46.07 43.53 43.59 44.83 47.75 46.97 47.04 47.74 47.19 47.19
54.74 55.16 55.41 55.29 55.54 56.09 55.83 55.81 56.71 57.19 56.43 55.38 52.59 52.14 44.63 40.61 53.30 56.17 56.45 52.93 50.43 48.68 47.85 47.97 46.71 47.12 44.43 43.35 41.81 44.48 44.11 43.64 44.48 44.43 45.05 44.46 44.33 43.66 46.08 47.74 47.57 47.14 46.46 47.01 46.62
54.98 55.04 54.81 54.69 54.71 54.81 55.40 55.20 56.07 56.59 55.87 54.01 51.42 49.06 43.60 44.30 53.52 52.99 53.73 52.83 53.54 50.89 49.19 51.43 50.56 46.49 45.14 43.09 46.67 44.64 40.20 42.13 41.92 42.77 42.59 45.75 41.47 42.99 46.86 47.25 46.88 47.38 47.56 47.21 48.16
55.12 54.59 54.04 54.14 54.02 54.08 54.32 54.63 55.10 56.19 55.08 52.55 50.91 46.45 41.81 52.34 51.61 51.40 51.42 51.04 54.17 55.22 52.20 51.38 50.27 47.58 44.63 45.49 43.47 40.07 38.74 33.04 41.48 43.35 44.61 42.20 38.15 44.25 46.85 45.77 45.89 46.60 46.29 46.24 46.54
54.06 53.73 53.38 53.45 53.39 53.72 54.41 54.73 55.50 55.26 52.89 51.12 45.47 43.08 40.29 53.05 48.60 53.92 53.33 51.10 53.52 54.26 51.07 53.19 49.85 44.57 43.78 37.58 34.04 35.96 30.34 32.97 37.03 43.95 42.20 40.27 39.62 42.68 45.92 45.10 45.02 43.73 44.14 44.52 44.81
53.40 53.61 53.24 53.20 53.37 53.54 53.47 53.17 53.02 50.98 49.81 50.09 47.47 41.25 44.03 46.01 51.57 54.36 53.80 53.52 51.59 49.92 47.93 46.53 41.56 37.84 36.53 34.57 26.98 30.69 31.48 31.16 32.75 38.31 41.10 38.97 39.61 43.75 43.55 43.59 43.74 43.10 43.18 44.35 44.93
52.95 53.18 53.05 52.91 53.24 52.47 49.77 46.76 41.75 41.35 44.60 40.72 40.66 42.45 45.91 50.29 51.85 51.01 53.31 51.70 48.93 45.72 38.75 40.89 34.53 30.83 36.18 36.35 37.91 36.94 35.37 34.53 37.34 40.82 39.10 38.51 38.64 41.07 42.27 40.58 40.77 42.20 41.69 43.59 49.74
52.66 52.70 52.87 52.77 52.89 52.55 50.74 43.97 46.07 47.98 40.26 44.71 46.29 44.82 47.65 48.81 44.26 47.98 50.69 44.46 42.39 37.22 39.34 36.59 32.22 37.75 39.85 39.26 37.96 37.02 35.32 35.19 39.14 41.90 40.22 37.45 35.77 38.27 40.20 40.93 41.56 42.67 42.99 47.18 49.87
52.17 52.21 52.13 52.14 52.33 51.48 48.54 46.50 50.90 48.98 38.53 42.62 45.79 44.65 46.18 48.28 43.24 44.36 47.71 45.08 41.29 37.41 37.30 34.05 37.47 41.68 39.69 38.36 37.13 37.29 35.54 35.89 35.96 39.31 37.98 36.01 35.34 36.54 42.31 43.50 44.89 45.76 45.19 49.12 48.29
51.50 51.62 51.11 51.35 46.64 46.52 45.76 49.61 49.99 49.66 34.01 35.47 41.98 44.92 47.44 48.62 43.04 49.37 49.71 45.34 41.68 38.69 39.67 37.75 42.15 40.24 39.58 38.18 39.06 33.77 39.25 39.11 37.47 33.10 27.86 36.17 27.45 35.39 39.75 40.20 41.98 43.90 45.04 45.52 45.40
51.26 51.13 50.95 51.91 46.87 45.46 45.60 48.73 48.66 46.38 13.85 37.75 42.19 50.78 48.80 44.29 44.67 45.33 49.76 45.02 39.56 39.75 39.09 36.38 37.98 37.76 37.23 38.74 41.06 37.40 42.07 39.90 36.95 32.33 29.37 33.09 27.81 32.93 37.90 37.21 40.36 41.93 42.64 42.25 42.70
51.40 51.00 50.83 47.26 47.43 47.41 50.19 49.58 47.04 24.34 16.36 35.69 42.97 42.09 41.66 43.29 43.89 45.31 45.04 46.72 45.84 40.30 40.14 39.55 43.61 41.19 40.36 42.36 41.98 43.18 39.34 36.02 33.48 30.64 24.20 31.21 29.33 28.70 34.23 38.46 39.96 41.49 41.55 41.98 41.33
51.45 51.18 48.80 48.15 43.76 48.47 47.76 47.23 31.31 20.39 36.36 34.44 37.53 41.68 40.89 39.71 40.81 41.85 40.37 38.19 35.23 31.86 32.23 37.62 38.22 40.19 42.71 37.89 40.60 38.79 33.58 27.10 22.61 21.74 22.02 32.92 28.95 31.02 38.02 38.97 39.34 38.19 38.86 40.65 41.15
50.72 50.19 48.18 47.60 47.71 47.63 47.54 38.96 23.25 30.04 31.56 39.05 38.27 37.53 36.30 39.19 39.12 40.28 37.04 34.21 37.51 35.63 30.72 28.38 26.11 36.41 40.84 37.79 35.40 35.99 34.99 27.22 20.35 20.98 22.16 31.80 24.64 31.44 39.06 39.39 40.87 41.12 40.16 40.40 39.62
49.71 43.66 43.38 47.20 48.69 47.32 42.41 29.51 25.56 30.83 36.58 35.68 36.76 32.95 33.00 36.35 37.19 37.09 36.58 35.78 37.90 37.77 31.51 28.69 29.82 38.67 39.41 39.94 39.44 34.26 28.99 35.15 29.58 28.20 24.28 25.74 31.31 37.33 40.20 38.09 37.97 38.16 38.71 38.64 39.43
42.73 38.92 39.72 49.78 49.96 45.42 36.96 31.13 31.75 37.67 38.62 37.73 31.77 35.67 31.82 34.00 34.17 33.68 34.20 38.53 37.66 40.34 40.61 35.12 28.89 36.65 38.86 38.16 37.07 36.22 37.08 27.01 28.64 22.21 20.19 24.27 25.42 28.49 35.89 34.67 38.04 36.93 36.77 37.31 38.10
42.85 34.86 39.54 46.82 48.09 40.76 31.06 30.53 34.61 39.39 40.06 37.14 34.60 33.47 35.02 34.49 35.98 34.52 35.52 38.79 39.51 38.79 39.19 36.44 32.95 31.45 36.06 32.54 30.43 30.70 29.12 30.03 32.18 29.34 21.59 20.12 22.51 36.49 37.10 38.03 37.84 37.21 36.90 35.10 34.55
39.90 31.83 40.17 48.03 35.77 35.62 32.68 34.87 39.25 38.03 40.28 37.59 38.01 36.51 34.73 36.41 34.58 34.71 35.36 38.13 40.87 39.06 35.17 37.07 31.64 26.80 30.90 37.24 36.83 33.74 31.30 32.42 25.98 23.54 25.31 22.58 22.87 40.26 39.06 40.16 39.39 34.68 34.16 33.26 32.97
33.64 32.24 42.66 42.83 30.29 31.45 35.68 35.13 37.45 36.85 38.48 38.31 37.29 38.96 38.79 35.52 30.58 34.44 36.80 40.37 41.14 38.82 36.10 36.12 29.84 24.07 26.25 31.17 34.57 32.39 34.07 34.59 33.64 30.93 25.38 20.94 22.95 40.40 40.15 39.34 36.61 33.92 33.96 32.79 31.98
34.86 29.40 33.49 36.93 38.12 34.00 31.79 33.01 34.28 39.40 38.12 39.28 38.56 39.78 37.70 34.69 36.44 34.14 33.14 37.34 38.86 38.11 42.65 39.29 31.42 27.35 24.08 27.49 31.21 27.70 31.77 33.63 31.57 26.30 25.51 25.91 27.96 33.10 36.01 35.02 33.15 33.05 31.74 30.71 30.01
36.46 32.37 32.11 27.87 31.16 34.13 35.57 33.94 32.20 32.67 38.73 39.57 35.99 36.16 35.29 30.42 32.04 31.74 33.43 33.49 36.58 39.75 36.00 33.29 26.93 29.65 31.66 33.38 34.16 32.05 31.65 32.05 29.33 29.95 25.68 27.68 27.57 30.46 32.60 32.08 31.61 31.65 31.18 29.66 28.78
32.87 33.08 36.48 30.91 33.06 32.96 34.01 32.82 32.56 34.29 35.59 35.21 34.84 36.67 36.78 33.63 33.63 32.13 33.40 31.63 32.00 36.08 33.00 33.78 26.91 26.47 25.54 31.32 31.33 29.34 30.83 30.42 29.69 30.30 30.34 30.40 27.26 31.80 31.65 31.02 30.07 29.76 29.13 27.77 27.72
38.03 41.21 37.79 34.42 32.56 31.20 31.18 32.56 33.90 36.84 37.77 38.41 37.16 36.20 34.73 36.66 38.62 39.07 39.71 38.14 38.45 33.74 31.02 29.68 27.62 23.97 21.06 27.35 25.94 22.04 26.13 28.47 29.94 31.51 30.14 22.49 29.74 30.15 28.20 29.38 28.26 26.13 26.75 26.83 26.37